<?xml version="1.0" encoding="UTF-8" standalone="no" ?>
<gpx xmlns="http://www.topografix.com/GPX/1/1" xmlns:xsi="http://www.w3.org/2001/XMLSchema-instance" xsi:schemaLocation="http://www.topografix.com/GPX/1/1 http://www.topografix.com/GPX/1/1/gpx.xsd" version="1.1" creator="VisuGPX - https://www.visugpx.com">
  <metadata>
    <name>Champagnat Cyclisme sur route</name>
  </metadata>
  <trk>
    <name><![CDATA[Champagnat Cyclisme sur route_1]]></name>
    <trkseg>
      <trkpt lat="46.48265" lon="5.3683">
        <ele>268.2</ele>
        <time>2022-08-20T10:40:45Z</time>
      </trkpt>
      <trkpt lat="46.48255" lon="5.36818">
        <ele>268</ele>
        <time>2022-08-20T10:40:46Z</time>
      </trkpt>
      <trkpt lat="46.48246" lon="5.36811">
        <ele>266.8</ele>
        <time>2022-08-20T10:40:47Z</time>
      </trkpt>
      <trkpt lat="46.48235" lon="5.36802">
        <ele>266.2</ele>
        <time>2022-08-20T10:40:48Z</time>
      </trkpt>
      <trkpt lat="46.48223" lon="5.36793">
        <ele>264.8</ele>
        <time>2022-08-20T10:40:49Z</time>
      </trkpt>
      <trkpt lat="46.48198" lon="5.36773">
        <ele>263.4</ele>
        <time>2022-08-20T10:40:51Z</time>
      </trkpt>
      <trkpt lat="46.48167" lon="5.36747">
        <ele>261.4</ele>
        <time>2022-08-20T10:40:54Z</time>
      </trkpt>
      <trkpt lat="46.48155" lon="5.36738">
        <ele>260.8</ele>
        <time>2022-08-20T10:40:55Z</time>
      </trkpt>
      <trkpt lat="46.48144" lon="5.3673">
        <ele>259.8</ele>
        <time>2022-08-20T10:40:56Z</time>
      </trkpt>
      <trkpt lat="46.48125" lon="5.36715">
        <ele>258.8</ele>
        <time>2022-08-20T10:40:58Z</time>
      </trkpt>
      <trkpt lat="46.48117" lon="5.36709">
        <ele>258</ele>
        <time>2022-08-20T10:40:59Z</time>
      </trkpt>
      <trkpt lat="46.4811" lon="5.36703">
        <ele>257.8</ele>
        <time>2022-08-20T10:41:00Z</time>
      </trkpt>
      <trkpt lat="46.48107" lon="5.36695">
        <ele>257.4</ele>
        <time>2022-08-20T10:41:01Z</time>
      </trkpt>
      <trkpt lat="46.48107" lon="5.36686">
        <ele>256.8</ele>
        <time>2022-08-20T10:41:02Z</time>
      </trkpt>
      <trkpt lat="46.4811" lon="5.36677">
        <ele>256.2</ele>
        <time>2022-08-20T10:41:03Z</time>
      </trkpt>
      <trkpt lat="46.48115" lon="5.36669">
        <ele>256</ele>
        <time>2022-08-20T10:41:04Z</time>
      </trkpt>
      <trkpt lat="46.48127" lon="5.36657">
        <ele>255</ele>
        <time>2022-08-20T10:41:06Z</time>
      </trkpt>
      <trkpt lat="46.48134" lon="5.3665">
        <ele>254.8</ele>
        <time>2022-08-20T10:41:07Z</time>
      </trkpt>
      <trkpt lat="46.48178" lon="5.36614">
        <ele>252.4</ele>
        <time>2022-08-20T10:41:13Z</time>
      </trkpt>
      <trkpt lat="46.48195" lon="5.36606">
        <ele>252.2</ele>
        <time>2022-08-20T10:41:15Z</time>
      </trkpt>
      <trkpt lat="46.48201" lon="5.36604">
        <ele>252.2</ele>
        <time>2022-08-20T10:41:16Z</time>
      </trkpt>
      <trkpt lat="46.48209" lon="5.36601">
        <ele>252</ele>
        <time>2022-08-20T10:41:17Z</time>
      </trkpt>
      <trkpt lat="46.48216" lon="5.36593">
        <ele>252</ele>
        <time>2022-08-20T10:41:18Z</time>
      </trkpt>
      <trkpt lat="46.4822" lon="5.36584">
        <ele>251.8</ele>
        <time>2022-08-20T10:41:19Z</time>
      </trkpt>
      <trkpt lat="46.48227" lon="5.36565">
        <ele>251.6</ele>
        <time>2022-08-20T10:41:21Z</time>
      </trkpt>
      <trkpt lat="46.48245" lon="5.36542">
        <ele>251.2</ele>
        <time>2022-08-20T10:41:24Z</time>
      </trkpt>
      <trkpt lat="46.48251" lon="5.36535">
        <ele>251</ele>
        <time>2022-08-20T10:41:25Z</time>
      </trkpt>
      <trkpt lat="46.48277" lon="5.36507">
        <ele>250</ele>
        <time>2022-08-20T10:41:29Z</time>
      </trkpt>
      <trkpt lat="46.48283" lon="5.365">
        <ele>250</ele>
        <time>2022-08-20T10:41:30Z</time>
      </trkpt>
      <trkpt lat="46.48315" lon="5.36463">
        <ele>248.8</ele>
        <time>2022-08-20T10:41:35Z</time>
      </trkpt>
      <trkpt lat="46.48321" lon="5.36456">
        <ele>248.6</ele>
        <time>2022-08-20T10:41:36Z</time>
      </trkpt>
      <trkpt lat="46.48348" lon="5.36427">
        <ele>247.8</ele>
        <time>2022-08-20T10:41:40Z</time>
      </trkpt>
      <trkpt lat="46.48382" lon="5.3639">
        <ele>246.2</ele>
        <time>2022-08-20T10:41:45Z</time>
      </trkpt>
      <trkpt lat="46.48389" lon="5.36382">
        <ele>246</ele>
        <time>2022-08-20T10:41:46Z</time>
      </trkpt>
      <trkpt lat="46.48425" lon="5.36355">
        <ele>245.2</ele>
        <time>2022-08-20T10:41:51Z</time>
      </trkpt>
      <trkpt lat="46.48433" lon="5.36352">
        <ele>245</ele>
        <time>2022-08-20T10:41:52Z</time>
      </trkpt>
      <trkpt lat="46.48457" lon="5.36348">
        <ele>244.8</ele>
        <time>2022-08-20T10:41:55Z</time>
      </trkpt>
      <trkpt lat="46.48464" lon="5.36346">
        <ele>244.8</ele>
        <time>2022-08-20T10:41:56Z</time>
      </trkpt>
      <trkpt lat="46.48525" lon="5.36336">
        <ele>244.4</ele>
        <time>2022-08-20T10:42:04Z</time>
      </trkpt>
      <trkpt lat="46.4854" lon="5.36334">
        <ele>244.2</ele>
        <time>2022-08-20T10:42:06Z</time>
      </trkpt>
      <trkpt lat="46.48578" lon="5.36328">
        <ele>243.2</ele>
        <time>2022-08-20T10:42:11Z</time>
      </trkpt>
      <trkpt lat="46.48586" lon="5.36326">
        <ele>243</ele>
        <time>2022-08-20T10:42:12Z</time>
      </trkpt>
      <trkpt lat="46.4861" lon="5.36322">
        <ele>242.4</ele>
        <time>2022-08-20T10:42:15Z</time>
      </trkpt>
      <trkpt lat="46.48619" lon="5.36318">
        <ele>242.4</ele>
        <time>2022-08-20T10:42:16Z</time>
      </trkpt>
      <trkpt lat="46.48627" lon="5.36313">
        <ele>242.2</ele>
        <time>2022-08-20T10:42:17Z</time>
      </trkpt>
      <trkpt lat="46.48634" lon="5.36306">
        <ele>241.8</ele>
        <time>2022-08-20T10:42:18Z</time>
      </trkpt>
      <trkpt lat="46.48639" lon="5.36296">
        <ele>241.8</ele>
        <time>2022-08-20T10:42:19Z</time>
      </trkpt>
      <trkpt lat="46.48639" lon="5.36279">
        <ele>241.6</ele>
        <time>2022-08-20T10:42:20Z</time>
      </trkpt>
      <trkpt lat="46.48641" lon="5.36264">
        <ele>240.8</ele>
        <time>2022-08-20T10:42:21Z</time>
      </trkpt>
      <trkpt lat="46.48644" lon="5.36208">
        <ele>239.2</ele>
        <time>2022-08-20T10:42:25Z</time>
      </trkpt>
      <trkpt lat="46.48645" lon="5.36194">
        <ele>239</ele>
        <time>2022-08-20T10:42:26Z</time>
      </trkpt>
      <trkpt lat="46.48646" lon="5.36167">
        <ele>238.2</ele>
        <time>2022-08-20T10:42:28Z</time>
      </trkpt>
      <trkpt lat="46.48653" lon="5.36115">
        <ele>237.2</ele>
        <time>2022-08-20T10:42:32Z</time>
      </trkpt>
      <trkpt lat="46.48656" lon="5.36103">
        <ele>237.2</ele>
        <time>2022-08-20T10:42:33Z</time>
      </trkpt>
      <trkpt lat="46.48668" lon="5.36049">
        <ele>236.8</ele>
        <time>2022-08-20T10:42:38Z</time>
      </trkpt>
      <trkpt lat="46.48678" lon="5.35999">
        <ele>237</ele>
        <time>2022-08-20T10:42:43Z</time>
      </trkpt>
      <trkpt lat="46.48684" lon="5.35954">
        <ele>238.4</ele>
        <time>2022-08-20T10:42:48Z</time>
      </trkpt>
      <trkpt lat="46.48691" lon="5.35911">
        <ele>239</ele>
        <time>2022-08-20T10:42:52Z</time>
      </trkpt>
      <trkpt lat="46.48698" lon="5.35891">
        <ele>239.2</ele>
        <time>2022-08-20T10:42:54Z</time>
      </trkpt>
      <trkpt lat="46.48726" lon="5.35822">
        <ele>238</ele>
        <time>2022-08-20T10:43:01Z</time>
      </trkpt>
      <trkpt lat="46.48731" lon="5.3581">
        <ele>237.6</ele>
        <time>2022-08-20T10:43:02Z</time>
      </trkpt>
      <trkpt lat="46.48735" lon="5.35801">
        <ele>237.4</ele>
        <time>2022-08-20T10:43:03Z</time>
      </trkpt>
      <trkpt lat="46.48751" lon="5.35762">
        <ele>236.4</ele>
        <time>2022-08-20T10:43:07Z</time>
      </trkpt>
      <trkpt lat="46.48762" lon="5.35737">
        <ele>236</ele>
        <time>2022-08-20T10:43:10Z</time>
      </trkpt>
      <trkpt lat="46.48788" lon="5.3568">
        <ele>235.6</ele>
        <time>2022-08-20T10:43:16Z</time>
      </trkpt>
      <trkpt lat="46.48808" lon="5.35635">
        <ele>235.4</ele>
        <time>2022-08-20T10:43:21Z</time>
      </trkpt>
      <trkpt lat="46.4882" lon="5.35608">
        <ele>235.4</ele>
        <time>2022-08-20T10:43:24Z</time>
      </trkpt>
      <trkpt lat="46.4884" lon="5.35569">
        <ele>235.6</ele>
        <time>2022-08-20T10:43:29Z</time>
      </trkpt>
      <trkpt lat="46.48846" lon="5.35565">
        <ele>235.8</ele>
        <time>2022-08-20T10:43:30Z</time>
      </trkpt>
      <trkpt lat="46.48852" lon="5.35562">
        <ele>235.8</ele>
        <time>2022-08-20T10:43:31Z</time>
      </trkpt>
      <trkpt lat="46.48866" lon="5.35561">
        <ele>235.8</ele>
        <time>2022-08-20T10:43:33Z</time>
      </trkpt>
      <trkpt lat="46.48913" lon="5.35558">
        <ele>235.4</ele>
        <time>2022-08-20T10:43:39Z</time>
      </trkpt>
      <trkpt lat="46.48953" lon="5.35556">
        <ele>234</ele>
        <time>2022-08-20T10:43:44Z</time>
      </trkpt>
      <trkpt lat="46.48979" lon="5.35555">
        <ele>233.2</ele>
        <time>2022-08-20T10:43:47Z</time>
      </trkpt>
      <trkpt lat="46.48995" lon="5.35554">
        <ele>232.8</ele>
        <time>2022-08-20T10:43:49Z</time>
      </trkpt>
      <trkpt lat="46.4904" lon="5.35553">
        <ele>231.8</ele>
        <time>2022-08-20T10:43:55Z</time>
      </trkpt>
      <trkpt lat="46.4907" lon="5.35548">
        <ele>232.6</ele>
        <time>2022-08-20T10:43:59Z</time>
      </trkpt>
      <trkpt lat="46.49083" lon="5.35548">
        <ele>232.8</ele>
        <time>2022-08-20T10:44:01Z</time>
      </trkpt>
      <trkpt lat="46.49118" lon="5.35547">
        <ele>233.6</ele>
        <time>2022-08-20T10:44:07Z</time>
      </trkpt>
      <trkpt lat="46.49126" lon="5.35546">
        <ele>233.8</ele>
        <time>2022-08-20T10:44:08Z</time>
      </trkpt>
      <trkpt lat="46.49153" lon="5.35546">
        <ele>234.6</ele>
        <time>2022-08-20T10:44:12Z</time>
      </trkpt>
      <trkpt lat="46.49169" lon="5.35544">
        <ele>235.2</ele>
        <time>2022-08-20T10:44:15Z</time>
      </trkpt>
      <trkpt lat="46.49192" lon="5.35541">
        <ele>236.2</ele>
        <time>2022-08-20T10:44:19Z</time>
      </trkpt>
      <trkpt lat="46.49196" lon="5.35542">
        <ele>236.2</ele>
        <time>2022-08-20T10:44:20Z</time>
      </trkpt>
      <trkpt lat="46.49215" lon="5.35543">
        <ele>236.8</ele>
        <time>2022-08-20T10:44:24Z</time>
      </trkpt>
      <trkpt lat="46.49222" lon="5.35542">
        <ele>236.8</ele>
        <time>2022-08-20T10:44:25Z</time>
      </trkpt>
      <trkpt lat="46.49257" lon="5.35542">
        <ele>237</ele>
        <time>2022-08-20T10:44:30Z</time>
      </trkpt>
      <trkpt lat="46.49302" lon="5.35537">
        <ele>237</ele>
        <time>2022-08-20T10:44:36Z</time>
      </trkpt>
      <trkpt lat="46.49352" lon="5.35535">
        <ele>236.8</ele>
        <time>2022-08-20T10:44:43Z</time>
      </trkpt>
      <trkpt lat="46.49402" lon="5.35542">
        <ele>235.6</ele>
        <time>2022-08-20T10:44:49Z</time>
      </trkpt>
      <trkpt lat="46.49417" lon="5.35547">
        <ele>235.4</ele>
        <time>2022-08-20T10:44:51Z</time>
      </trkpt>
      <trkpt lat="46.49423" lon="5.35549">
        <ele>235</ele>
        <time>2022-08-20T10:44:52Z</time>
      </trkpt>
      <trkpt lat="46.49461" lon="5.35567">
        <ele>234.2</ele>
        <time>2022-08-20T10:44:57Z</time>
      </trkpt>
      <trkpt lat="46.49491" lon="5.35579">
        <ele>234.2</ele>
        <time>2022-08-20T10:45:01Z</time>
      </trkpt>
      <trkpt lat="46.49505" lon="5.35584">
        <ele>234</ele>
        <time>2022-08-20T10:45:03Z</time>
      </trkpt>
      <trkpt lat="46.49519" lon="5.3559">
        <ele>234</ele>
        <time>2022-08-20T10:45:05Z</time>
      </trkpt>
      <trkpt lat="46.49569" lon="5.35609">
        <ele>233.4</ele>
        <time>2022-08-20T10:45:12Z</time>
      </trkpt>
      <trkpt lat="46.49586" lon="5.35614">
        <ele>232.8</ele>
        <time>2022-08-20T10:45:14Z</time>
      </trkpt>
      <trkpt lat="46.49631" lon="5.35627">
        <ele>231.6</ele>
        <time>2022-08-20T10:45:20Z</time>
      </trkpt>
      <trkpt lat="46.49645" lon="5.35632">
        <ele>231.2</ele>
        <time>2022-08-20T10:45:22Z</time>
      </trkpt>
      <trkpt lat="46.49668" lon="5.35638">
        <ele>230.6</ele>
        <time>2022-08-20T10:45:25Z</time>
      </trkpt>
      <trkpt lat="46.49687" lon="5.35643">
        <ele>230.4</ele>
        <time>2022-08-20T10:45:28Z</time>
      </trkpt>
      <trkpt lat="46.49694" lon="5.35651">
        <ele>230.2</ele>
        <time>2022-08-20T10:45:30Z</time>
      </trkpt>
      <trkpt lat="46.49696" lon="5.35658">
        <ele>230</ele>
        <time>2022-08-20T10:45:31Z</time>
      </trkpt>
      <trkpt lat="46.49696" lon="5.35666">
        <ele>230</ele>
        <time>2022-08-20T10:45:32Z</time>
      </trkpt>
      <trkpt lat="46.49694" lon="5.35681">
        <ele>229.6</ele>
        <time>2022-08-20T10:45:34Z</time>
      </trkpt>
      <trkpt lat="46.49678" lon="5.35731">
        <ele>228.8</ele>
        <time>2022-08-20T10:45:39Z</time>
      </trkpt>
      <trkpt lat="46.4967" lon="5.35749">
        <ele>228.4</ele>
        <time>2022-08-20T10:45:41Z</time>
      </trkpt>
      <trkpt lat="46.49651" lon="5.3579">
        <ele>227.6</ele>
        <time>2022-08-20T10:45:45Z</time>
      </trkpt>
      <trkpt lat="46.49647" lon="5.358">
        <ele>227.2</ele>
        <time>2022-08-20T10:45:46Z</time>
      </trkpt>
      <trkpt lat="46.49641" lon="5.35819">
        <ele>227</ele>
        <time>2022-08-20T10:45:48Z</time>
      </trkpt>
      <trkpt lat="46.49636" lon="5.35846">
        <ele>226.8</ele>
        <time>2022-08-20T10:45:50Z</time>
      </trkpt>
      <trkpt lat="46.49636" lon="5.35857">
        <ele>226.2</ele>
        <time>2022-08-20T10:45:51Z</time>
      </trkpt>
      <trkpt lat="46.49636" lon="5.35898">
        <ele>225.4</ele>
        <time>2022-08-20T10:45:54Z</time>
      </trkpt>
      <trkpt lat="46.49637" lon="5.35914">
        <ele>224.8</ele>
        <time>2022-08-20T10:45:55Z</time>
      </trkpt>
      <trkpt lat="46.4964" lon="5.35953">
        <ele>223.6</ele>
        <time>2022-08-20T10:45:58Z</time>
      </trkpt>
      <trkpt lat="46.49643" lon="5.35991">
        <ele>223</ele>
        <time>2022-08-20T10:46:01Z</time>
      </trkpt>
      <trkpt lat="46.49646" lon="5.36048">
        <ele>222.4</ele>
        <time>2022-08-20T10:46:06Z</time>
      </trkpt>
      <trkpt lat="46.49647" lon="5.36062">
        <ele>222.4</ele>
        <time>2022-08-20T10:46:07Z</time>
      </trkpt>
      <trkpt lat="46.49658" lon="5.36105">
        <ele>222.2</ele>
        <time>2022-08-20T10:46:11Z</time>
      </trkpt>
      <trkpt lat="46.49678" lon="5.36145">
        <ele>222</ele>
        <time>2022-08-20T10:46:16Z</time>
      </trkpt>
      <trkpt lat="46.49715" lon="5.36207">
        <ele>222.4</ele>
        <time>2022-08-20T10:46:24Z</time>
      </trkpt>
      <trkpt lat="46.49726" lon="5.36229">
        <ele>222.6</ele>
        <time>2022-08-20T10:46:27Z</time>
      </trkpt>
      <trkpt lat="46.49743" lon="5.36268">
        <ele>223.4</ele>
        <time>2022-08-20T10:46:32Z</time>
      </trkpt>
      <trkpt lat="46.4975" lon="5.36283">
        <ele>223.6</ele>
        <time>2022-08-20T10:46:34Z</time>
      </trkpt>
      <trkpt lat="46.49759" lon="5.36303">
        <ele>223.8</ele>
        <time>2022-08-20T10:46:37Z</time>
      </trkpt>
      <trkpt lat="46.49762" lon="5.3631">
        <ele>223.8</ele>
        <time>2022-08-20T10:46:38Z</time>
      </trkpt>
      <trkpt lat="46.49771" lon="5.36329">
        <ele>224.6</ele>
        <time>2022-08-20T10:46:41Z</time>
      </trkpt>
      <trkpt lat="46.49782" lon="5.36356">
        <ele>225.8</ele>
        <time>2022-08-20T10:46:45Z</time>
      </trkpt>
      <trkpt lat="46.49785" lon="5.36363">
        <ele>226</ele>
        <time>2022-08-20T10:46:46Z</time>
      </trkpt>
      <trkpt lat="46.49798" lon="5.36396">
        <ele>227.4</ele>
        <time>2022-08-20T10:46:51Z</time>
      </trkpt>
      <trkpt lat="46.49812" lon="5.36431">
        <ele>227.6</ele>
        <time>2022-08-20T10:46:56Z</time>
      </trkpt>
      <trkpt lat="46.49831" lon="5.36468">
        <ele>228.4</ele>
        <time>2022-08-20T10:47:02Z</time>
      </trkpt>
      <trkpt lat="46.49837" lon="5.3648">
        <ele>228.8</ele>
        <time>2022-08-20T10:47:04Z</time>
      </trkpt>
      <trkpt lat="46.49852" lon="5.36501">
        <ele>229.4</ele>
        <time>2022-08-20T10:47:08Z</time>
      </trkpt>
      <trkpt lat="46.49869" lon="5.36527">
        <ele>230.4</ele>
        <time>2022-08-20T10:47:13Z</time>
      </trkpt>
      <trkpt lat="46.49873" lon="5.36532">
        <ele>230.4</ele>
        <time>2022-08-20T10:47:14Z</time>
      </trkpt>
      <trkpt lat="46.49897" lon="5.36568">
        <ele>231.4</ele>
        <time>2022-08-20T10:47:21Z</time>
      </trkpt>
      <trkpt lat="46.499" lon="5.36573">
        <ele>231.4</ele>
        <time>2022-08-20T10:47:22Z</time>
      </trkpt>
      <trkpt lat="46.49903" lon="5.36579">
        <ele>231.4</ele>
        <time>2022-08-20T10:47:23Z</time>
      </trkpt>
      <trkpt lat="46.49906" lon="5.36585">
        <ele>231.6</ele>
        <time>2022-08-20T10:47:24Z</time>
      </trkpt>
      <trkpt lat="46.49919" lon="5.36616">
        <ele>232.2</ele>
        <time>2022-08-20T10:47:29Z</time>
      </trkpt>
      <trkpt lat="46.49924" lon="5.36628">
        <ele>232.2</ele>
        <time>2022-08-20T10:47:31Z</time>
      </trkpt>
      <trkpt lat="46.49929" lon="5.36638">
        <ele>232.8</ele>
        <time>2022-08-20T10:47:33Z</time>
      </trkpt>
      <trkpt lat="46.49932" lon="5.36645">
        <ele>233</ele>
        <time>2022-08-20T10:47:34Z</time>
      </trkpt>
      <trkpt lat="46.49935" lon="5.36653">
        <ele>233</ele>
        <time>2022-08-20T10:47:35Z</time>
      </trkpt>
      <trkpt lat="46.49941" lon="5.36692">
        <ele>233.4</ele>
        <time>2022-08-20T10:47:40Z</time>
      </trkpt>
      <trkpt lat="46.49952" lon="5.36753">
        <ele>233.6</ele>
        <time>2022-08-20T10:47:48Z</time>
      </trkpt>
      <trkpt lat="46.49954" lon="5.36767">
        <ele>233.8</ele>
        <time>2022-08-20T10:47:50Z</time>
      </trkpt>
      <trkpt lat="46.49962" lon="5.36809">
        <ele>234.6</ele>
        <time>2022-08-20T10:47:56Z</time>
      </trkpt>
      <trkpt lat="46.49966" lon="5.3683">
        <ele>234.8</ele>
        <time>2022-08-20T10:47:59Z</time>
      </trkpt>
      <trkpt lat="46.49972" lon="5.36865">
        <ele>235.6</ele>
        <time>2022-08-20T10:48:04Z</time>
      </trkpt>
      <trkpt lat="46.49975" lon="5.36879">
        <ele>235.8</ele>
        <time>2022-08-20T10:48:06Z</time>
      </trkpt>
      <trkpt lat="46.49983" lon="5.36926">
        <ele>236.8</ele>
        <time>2022-08-20T10:48:13Z</time>
      </trkpt>
      <trkpt lat="46.49987" lon="5.36946">
        <ele>237.6</ele>
        <time>2022-08-20T10:48:16Z</time>
      </trkpt>
      <trkpt lat="46.49994" lon="5.36986">
        <ele>238</ele>
        <time>2022-08-20T10:48:22Z</time>
      </trkpt>
      <trkpt lat="46.49996" lon="5.36994">
        <ele>238.2</ele>
        <time>2022-08-20T10:48:23Z</time>
      </trkpt>
      <trkpt lat="46.49997" lon="5.36999">
        <ele>238.2</ele>
        <time>2022-08-20T10:48:24Z</time>
      </trkpt>
      <trkpt lat="46.49999" lon="5.37007">
        <ele>238.2</ele>
        <time>2022-08-20T10:48:25Z</time>
      </trkpt>
      <trkpt lat="46.50004" lon="5.37036">
        <ele>238.6</ele>
        <time>2022-08-20T10:48:29Z</time>
      </trkpt>
      <trkpt lat="46.50012" lon="5.37079">
        <ele>239.2</ele>
        <time>2022-08-20T10:48:35Z</time>
      </trkpt>
      <trkpt lat="46.50015" lon="5.37093">
        <ele>239.6</ele>
        <time>2022-08-20T10:48:37Z</time>
      </trkpt>
      <trkpt lat="46.50018" lon="5.37115">
        <ele>240.2</ele>
        <time>2022-08-20T10:48:40Z</time>
      </trkpt>
      <trkpt lat="46.50028" lon="5.37165">
        <ele>241</ele>
        <time>2022-08-20T10:48:47Z</time>
      </trkpt>
      <trkpt lat="46.50029" lon="5.37172">
        <ele>241.2</ele>
        <time>2022-08-20T10:48:48Z</time>
      </trkpt>
      <trkpt lat="46.50038" lon="5.37212">
        <ele>242.4</ele>
        <time>2022-08-20T10:48:54Z</time>
      </trkpt>
      <trkpt lat="46.5004" lon="5.37227">
        <ele>242.6</ele>
        <time>2022-08-20T10:48:56Z</time>
      </trkpt>
      <trkpt lat="46.50046" lon="5.37255">
        <ele>243.4</ele>
        <time>2022-08-20T10:49:00Z</time>
      </trkpt>
      <trkpt lat="46.50055" lon="5.37305">
        <ele>244.6</ele>
        <time>2022-08-20T10:49:07Z</time>
      </trkpt>
      <trkpt lat="46.50066" lon="5.37362">
        <ele>245.4</ele>
        <time>2022-08-20T10:49:15Z</time>
      </trkpt>
      <trkpt lat="46.50069" lon="5.37377">
        <ele>245.6</ele>
        <time>2022-08-20T10:49:17Z</time>
      </trkpt>
      <trkpt lat="46.5008" lon="5.37423">
        <ele>246.2</ele>
        <time>2022-08-20T10:49:23Z</time>
      </trkpt>
      <trkpt lat="46.501" lon="5.37464">
        <ele>246.4</ele>
        <time>2022-08-20T10:49:29Z</time>
      </trkpt>
      <trkpt lat="46.50131" lon="5.37525">
        <ele>246.6</ele>
        <time>2022-08-20T10:49:38Z</time>
      </trkpt>
      <trkpt lat="46.50142" lon="5.37574">
        <ele>246.8</ele>
        <time>2022-08-20T10:49:44Z</time>
      </trkpt>
      <trkpt lat="46.50142" lon="5.37583">
        <ele>246.8</ele>
        <time>2022-08-20T10:49:45Z</time>
      </trkpt>
      <trkpt lat="46.50145" lon="5.37641">
        <ele>247.2</ele>
        <time>2022-08-20T10:49:52Z</time>
      </trkpt>
      <trkpt lat="46.50145" lon="5.37656">
        <ele>247.2</ele>
        <time>2022-08-20T10:49:54Z</time>
      </trkpt>
      <trkpt lat="46.50146" lon="5.3767">
        <ele>247.4</ele>
        <time>2022-08-20T10:49:56Z</time>
      </trkpt>
      <trkpt lat="46.50148" lon="5.37685">
        <ele>247.4</ele>
        <time>2022-08-20T10:49:58Z</time>
      </trkpt>
      <trkpt lat="46.5015" lon="5.37698">
        <ele>247.6</ele>
        <time>2022-08-20T10:50:00Z</time>
      </trkpt>
      <trkpt lat="46.50152" lon="5.37705">
        <ele>247.6</ele>
        <time>2022-08-20T10:50:01Z</time>
      </trkpt>
      <trkpt lat="46.50154" lon="5.37712">
        <ele>247.8</ele>
        <time>2022-08-20T10:50:02Z</time>
      </trkpt>
      <trkpt lat="46.50161" lon="5.37736">
        <ele>249</ele>
        <time>2022-08-20T10:50:06Z</time>
      </trkpt>
      <trkpt lat="46.50165" lon="5.37745">
        <ele>249.4</ele>
        <time>2022-08-20T10:50:08Z</time>
      </trkpt>
      <trkpt lat="46.50173" lon="5.37752">
        <ele>250.2</ele>
        <time>2022-08-20T10:50:10Z</time>
      </trkpt>
      <trkpt lat="46.50185" lon="5.37757">
        <ele>250.8</ele>
        <time>2022-08-20T10:50:12Z</time>
      </trkpt>
      <trkpt lat="46.50209" lon="5.37769">
        <ele>251.2</ele>
        <time>2022-08-20T10:50:16Z</time>
      </trkpt>
      <trkpt lat="46.50221" lon="5.37778">
        <ele>251.2</ele>
        <time>2022-08-20T10:50:18Z</time>
      </trkpt>
      <trkpt lat="46.50237" lon="5.3779">
        <ele>251.2</ele>
        <time>2022-08-20T10:50:21Z</time>
      </trkpt>
      <trkpt lat="46.50246" lon="5.37797">
        <ele>251.4</ele>
        <time>2022-08-20T10:50:23Z</time>
      </trkpt>
      <trkpt lat="46.50252" lon="5.37802">
        <ele>251.4</ele>
        <time>2022-08-20T10:50:24Z</time>
      </trkpt>
      <trkpt lat="46.50262" lon="5.37811">
        <ele>251.6</ele>
        <time>2022-08-20T10:50:26Z</time>
      </trkpt>
      <trkpt lat="46.50266" lon="5.37814">
        <ele>251.8</ele>
        <time>2022-08-20T10:50:27Z</time>
      </trkpt>
      <trkpt lat="46.50281" lon="5.3783">
        <ele>252.2</ele>
        <time>2022-08-20T10:50:30Z</time>
      </trkpt>
      <trkpt lat="46.50302" lon="5.37853">
        <ele>252.8</ele>
        <time>2022-08-20T10:50:34Z</time>
      </trkpt>
      <trkpt lat="46.50309" lon="5.37859">
        <ele>252.8</ele>
        <time>2022-08-20T10:50:35Z</time>
      </trkpt>
      <trkpt lat="46.50341" lon="5.37893">
        <ele>253</ele>
        <time>2022-08-20T10:50:41Z</time>
      </trkpt>
      <trkpt lat="46.50345" lon="5.379">
        <ele>253</ele>
        <time>2022-08-20T10:50:42Z</time>
      </trkpt>
      <trkpt lat="46.5035" lon="5.37908">
        <ele>253</ele>
        <time>2022-08-20T10:50:43Z</time>
      </trkpt>
      <trkpt lat="46.50358" lon="5.37934">
        <ele>253.2</ele>
        <time>2022-08-20T10:50:46Z</time>
      </trkpt>
      <trkpt lat="46.50359" lon="5.3796">
        <ele>253.2</ele>
        <time>2022-08-20T10:50:49Z</time>
      </trkpt>
      <trkpt lat="46.50359" lon="5.37969">
        <ele>253.4</ele>
        <time>2022-08-20T10:50:50Z</time>
      </trkpt>
      <trkpt lat="46.50354" lon="5.38015">
        <ele>253.6</ele>
        <time>2022-08-20T10:50:55Z</time>
      </trkpt>
      <trkpt lat="46.50355" lon="5.38023">
        <ele>253.6</ele>
        <time>2022-08-20T10:50:56Z</time>
      </trkpt>
      <trkpt lat="46.50356" lon="5.3803">
        <ele>253.6</ele>
        <time>2022-08-20T10:50:57Z</time>
      </trkpt>
      <trkpt lat="46.50361" lon="5.38043">
        <ele>253.4</ele>
        <time>2022-08-20T10:50:59Z</time>
      </trkpt>
      <trkpt lat="46.50369" lon="5.3805">
        <ele>253</ele>
        <time>2022-08-20T10:51:02Z</time>
      </trkpt>
      <trkpt lat="46.50377" lon="5.38048">
        <ele>253</ele>
        <time>2022-08-20T10:51:04Z</time>
      </trkpt>
      <trkpt lat="46.50382" lon="5.38044">
        <ele>252.8</ele>
        <time>2022-08-20T10:51:05Z</time>
      </trkpt>
      <trkpt lat="46.50387" lon="5.38039">
        <ele>252.6</ele>
        <time>2022-08-20T10:51:06Z</time>
      </trkpt>
      <trkpt lat="46.50397" lon="5.38024">
        <ele>252.4</ele>
        <time>2022-08-20T10:51:08Z</time>
      </trkpt>
      <trkpt lat="46.50411" lon="5.37999">
        <ele>251.8</ele>
        <time>2022-08-20T10:51:11Z</time>
      </trkpt>
      <trkpt lat="46.50423" lon="5.37979">
        <ele>251.4</ele>
        <time>2022-08-20T10:51:13Z</time>
      </trkpt>
      <trkpt lat="46.50429" lon="5.37969">
        <ele>250.8</ele>
        <time>2022-08-20T10:51:14Z</time>
      </trkpt>
      <trkpt lat="46.50454" lon="5.37929">
        <ele>249.6</ele>
        <time>2022-08-20T10:51:18Z</time>
      </trkpt>
      <trkpt lat="46.50467" lon="5.37909">
        <ele>248.6</ele>
        <time>2022-08-20T10:51:20Z</time>
      </trkpt>
      <trkpt lat="46.50474" lon="5.37899">
        <ele>248</ele>
        <time>2022-08-20T10:51:21Z</time>
      </trkpt>
      <trkpt lat="46.50493" lon="5.37871">
        <ele>246.8</ele>
        <time>2022-08-20T10:51:24Z</time>
      </trkpt>
      <trkpt lat="46.50514" lon="5.37838">
        <ele>245.6</ele>
        <time>2022-08-20T10:51:27Z</time>
      </trkpt>
      <trkpt lat="46.50535" lon="5.37807">
        <ele>244.4</ele>
        <time>2022-08-20T10:51:30Z</time>
      </trkpt>
      <trkpt lat="46.50542" lon="5.37797">
        <ele>244</ele>
        <time>2022-08-20T10:51:31Z</time>
      </trkpt>
      <trkpt lat="46.50554" lon="5.37778">
        <ele>243.2</ele>
        <time>2022-08-20T10:51:33Z</time>
      </trkpt>
      <trkpt lat="46.5057" lon="5.37754">
        <ele>241.8</ele>
        <time>2022-08-20T10:51:35Z</time>
      </trkpt>
      <trkpt lat="46.50589" lon="5.37725">
        <ele>240.4</ele>
        <time>2022-08-20T10:51:38Z</time>
      </trkpt>
      <trkpt lat="46.50605" lon="5.37703">
        <ele>239.4</ele>
        <time>2022-08-20T10:51:40Z</time>
      </trkpt>
      <trkpt lat="46.50618" lon="5.37681">
        <ele>237.6</ele>
        <time>2022-08-20T10:51:42Z</time>
      </trkpt>
      <trkpt lat="46.50638" lon="5.3765">
        <ele>236.6</ele>
        <time>2022-08-20T10:51:45Z</time>
      </trkpt>
      <trkpt lat="46.50662" lon="5.3761">
        <ele>235.8</ele>
        <time>2022-08-20T10:51:49Z</time>
      </trkpt>
      <trkpt lat="46.50683" lon="5.37573">
        <ele>235.8</ele>
        <time>2022-08-20T10:51:53Z</time>
      </trkpt>
      <trkpt lat="46.50689" lon="5.37567">
        <ele>235.8</ele>
        <time>2022-08-20T10:51:54Z</time>
      </trkpt>
      <trkpt lat="46.50697" lon="5.37566">
        <ele>235.8</ele>
        <time>2022-08-20T10:51:55Z</time>
      </trkpt>
      <trkpt lat="46.50705" lon="5.3757">
        <ele>235.8</ele>
        <time>2022-08-20T10:51:56Z</time>
      </trkpt>
      <trkpt lat="46.50711" lon="5.37577">
        <ele>235.8</ele>
        <time>2022-08-20T10:51:57Z</time>
      </trkpt>
      <trkpt lat="46.50721" lon="5.37592">
        <ele>235.8</ele>
        <time>2022-08-20T10:51:59Z</time>
      </trkpt>
      <trkpt lat="46.50726" lon="5.37601">
        <ele>235.6</ele>
        <time>2022-08-20T10:52:00Z</time>
      </trkpt>
      <trkpt lat="46.50735" lon="5.37626">
        <ele>235.6</ele>
        <time>2022-08-20T10:52:03Z</time>
      </trkpt>
      <trkpt lat="46.50738" lon="5.37652">
        <ele>236</ele>
        <time>2022-08-20T10:52:06Z</time>
      </trkpt>
      <trkpt lat="46.50739" lon="5.37669">
        <ele>236.4</ele>
        <time>2022-08-20T10:52:08Z</time>
      </trkpt>
      <trkpt lat="46.50739" lon="5.37677">
        <ele>236.8</ele>
        <time>2022-08-20T10:52:09Z</time>
      </trkpt>
      <trkpt lat="46.50741" lon="5.37699">
        <ele>238</ele>
        <time>2022-08-20T10:52:12Z</time>
      </trkpt>
      <trkpt lat="46.50742" lon="5.37713">
        <ele>239</ele>
        <time>2022-08-20T10:52:14Z</time>
      </trkpt>
      <trkpt lat="46.50743" lon="5.3772">
        <ele>239.2</ele>
        <time>2022-08-20T10:52:15Z</time>
      </trkpt>
      <trkpt lat="46.50745" lon="5.37735">
        <ele>240.4</ele>
        <time>2022-08-20T10:52:17Z</time>
      </trkpt>
      <trkpt lat="46.50751" lon="5.37775">
        <ele>241.4</ele>
        <time>2022-08-20T10:52:22Z</time>
      </trkpt>
      <trkpt lat="46.50753" lon="5.37783">
        <ele>241.6</ele>
        <time>2022-08-20T10:52:23Z</time>
      </trkpt>
      <trkpt lat="46.50765" lon="5.37821">
        <ele>242.4</ele>
        <time>2022-08-20T10:52:28Z</time>
      </trkpt>
      <trkpt lat="46.50771" lon="5.37834">
        <ele>242.6</ele>
        <time>2022-08-20T10:52:30Z</time>
      </trkpt>
      <trkpt lat="46.50787" lon="5.37858">
        <ele>243</ele>
        <time>2022-08-20T10:52:34Z</time>
      </trkpt>
      <trkpt lat="46.50814" lon="5.3789">
        <ele>243.6</ele>
        <time>2022-08-20T10:52:40Z</time>
      </trkpt>
      <trkpt lat="46.50825" lon="5.37896">
        <ele>243.6</ele>
        <time>2022-08-20T10:52:42Z</time>
      </trkpt>
      <trkpt lat="46.50864" lon="5.37902">
        <ele>243.6</ele>
        <time>2022-08-20T10:52:48Z</time>
      </trkpt>
      <trkpt lat="46.50916" lon="5.37903">
        <ele>242.8</ele>
        <time>2022-08-20T10:52:56Z</time>
      </trkpt>
      <trkpt lat="46.50963" lon="5.37889">
        <ele>243</ele>
        <time>2022-08-20T10:53:03Z</time>
      </trkpt>
      <trkpt lat="46.51019" lon="5.37877">
        <ele>242.6</ele>
        <time>2022-08-20T10:53:11Z</time>
      </trkpt>
      <trkpt lat="46.51026" lon="5.37876">
        <ele>242.4</ele>
        <time>2022-08-20T10:53:12Z</time>
      </trkpt>
      <trkpt lat="46.51063" lon="5.37872">
        <ele>241.6</ele>
        <time>2022-08-20T10:53:17Z</time>
      </trkpt>
      <trkpt lat="46.51079" lon="5.3787">
        <ele>241.4</ele>
        <time>2022-08-20T10:53:19Z</time>
      </trkpt>
      <trkpt lat="46.51089" lon="5.37868">
        <ele>241.4</ele>
        <time>2022-08-20T10:53:20Z</time>
      </trkpt>
      <trkpt lat="46.51113" lon="5.37858">
        <ele>241</ele>
        <time>2022-08-20T10:53:23Z</time>
      </trkpt>
      <trkpt lat="46.51129" lon="5.37849">
        <ele>240.2</ele>
        <time>2022-08-20T10:53:25Z</time>
      </trkpt>
      <trkpt lat="46.51144" lon="5.37838">
        <ele>239</ele>
        <time>2022-08-20T10:53:27Z</time>
      </trkpt>
      <trkpt lat="46.51151" lon="5.37832">
        <ele>238.8</ele>
        <time>2022-08-20T10:53:28Z</time>
      </trkpt>
      <trkpt lat="46.5117" lon="5.37817">
        <ele>238</ele>
        <time>2022-08-20T10:53:31Z</time>
      </trkpt>
      <trkpt lat="46.5118" lon="5.37813">
        <ele>237.8</ele>
        <time>2022-08-20T10:53:32Z</time>
      </trkpt>
      <trkpt lat="46.51188" lon="5.3781">
        <ele>237.6</ele>
        <time>2022-08-20T10:53:33Z</time>
      </trkpt>
      <trkpt lat="46.51222" lon="5.37805">
        <ele>236.8</ele>
        <time>2022-08-20T10:53:37Z</time>
      </trkpt>
      <trkpt lat="46.51239" lon="5.37802">
        <ele>236.2</ele>
        <time>2022-08-20T10:53:39Z</time>
      </trkpt>
      <trkpt lat="46.51256" lon="5.37798">
        <ele>235.6</ele>
        <time>2022-08-20T10:53:41Z</time>
      </trkpt>
      <trkpt lat="46.51279" lon="5.37787">
        <ele>235</ele>
        <time>2022-08-20T10:53:44Z</time>
      </trkpt>
      <trkpt lat="46.51303" lon="5.37775">
        <ele>234.6</ele>
        <time>2022-08-20T10:53:47Z</time>
      </trkpt>
      <trkpt lat="46.51359" lon="5.37745">
        <ele>234.2</ele>
        <time>2022-08-20T10:53:54Z</time>
      </trkpt>
      <trkpt lat="46.51367" lon="5.37741">
        <ele>234.2</ele>
        <time>2022-08-20T10:53:55Z</time>
      </trkpt>
      <trkpt lat="46.51391" lon="5.37729">
        <ele>233.6</ele>
        <time>2022-08-20T10:53:58Z</time>
      </trkpt>
      <trkpt lat="46.51415" lon="5.37721">
        <ele>232.6</ele>
        <time>2022-08-20T10:54:01Z</time>
      </trkpt>
      <trkpt lat="46.51424" lon="5.37719">
        <ele>232.2</ele>
        <time>2022-08-20T10:54:02Z</time>
      </trkpt>
      <trkpt lat="46.51474" lon="5.37705">
        <ele>231.2</ele>
        <time>2022-08-20T10:54:08Z</time>
      </trkpt>
      <trkpt lat="46.51483" lon="5.37704">
        <ele>230.8</ele>
        <time>2022-08-20T10:54:09Z</time>
      </trkpt>
      <trkpt lat="46.51534" lon="5.37691">
        <ele>230</ele>
        <time>2022-08-20T10:54:15Z</time>
      </trkpt>
      <trkpt lat="46.51567" lon="5.37685">
        <ele>229.2</ele>
        <time>2022-08-20T10:54:19Z</time>
      </trkpt>
      <trkpt lat="46.51586" lon="5.37683">
        <ele>228.8</ele>
        <time>2022-08-20T10:54:21Z</time>
      </trkpt>
      <trkpt lat="46.51621" lon="5.37676">
        <ele>227.6</ele>
        <time>2022-08-20T10:54:25Z</time>
      </trkpt>
      <trkpt lat="46.51663" lon="5.37658">
        <ele>226.4</ele>
        <time>2022-08-20T10:54:30Z</time>
      </trkpt>
      <trkpt lat="46.5167" lon="5.37653">
        <ele>226.2</ele>
        <time>2022-08-20T10:54:31Z</time>
      </trkpt>
      <trkpt lat="46.51676" lon="5.37649">
        <ele>226</ele>
        <time>2022-08-20T10:54:32Z</time>
      </trkpt>
      <trkpt lat="46.51693" lon="5.37637">
        <ele>226</ele>
        <time>2022-08-20T10:54:34Z</time>
      </trkpt>
      <trkpt lat="46.51707" lon="5.37632">
        <ele>225.8</ele>
        <time>2022-08-20T10:54:36Z</time>
      </trkpt>
      <trkpt lat="46.51737" lon="5.37638">
        <ele>225.8</ele>
        <time>2022-08-20T10:54:40Z</time>
      </trkpt>
      <trkpt lat="46.51784" lon="5.37651">
        <ele>227.4</ele>
        <time>2022-08-20T10:54:47Z</time>
      </trkpt>
      <trkpt lat="46.51814" lon="5.37652">
        <ele>228.4</ele>
        <time>2022-08-20T10:54:52Z</time>
      </trkpt>
      <trkpt lat="46.5182" lon="5.37652">
        <ele>228.8</ele>
        <time>2022-08-20T10:54:53Z</time>
      </trkpt>
      <trkpt lat="46.51862" lon="5.3765">
        <ele>229.6</ele>
        <time>2022-08-20T10:55:00Z</time>
      </trkpt>
      <trkpt lat="46.51874" lon="5.3765">
        <ele>229.8</ele>
        <time>2022-08-20T10:55:02Z</time>
      </trkpt>
      <trkpt lat="46.51914" lon="5.37648">
        <ele>230.2</ele>
        <time>2022-08-20T10:55:08Z</time>
      </trkpt>
      <trkpt lat="46.51968" lon="5.37638">
        <ele>229.6</ele>
        <time>2022-08-20T10:55:16Z</time>
      </trkpt>
      <trkpt lat="46.51992" lon="5.37633">
        <ele>229.4</ele>
        <time>2022-08-20T10:55:20Z</time>
      </trkpt>
      <trkpt lat="46.52005" lon="5.37631">
        <ele>229.4</ele>
        <time>2022-08-20T10:55:22Z</time>
      </trkpt>
      <trkpt lat="46.52014" lon="5.37632">
        <ele>229.6</ele>
        <time>2022-08-20T10:55:24Z</time>
      </trkpt>
      <trkpt lat="46.52019" lon="5.37631">
        <ele>229.6</ele>
        <time>2022-08-20T10:55:25Z</time>
      </trkpt>
      <trkpt lat="46.52021" lon="5.37628">
        <ele>229.6</ele>
        <time>2022-08-20T10:55:26Z</time>
      </trkpt>
      <trkpt lat="46.52027" lon="5.37615">
        <ele>229.6</ele>
        <time>2022-08-20T10:55:28Z</time>
      </trkpt>
      <trkpt lat="46.52038" lon="5.37569">
        <ele>229.8</ele>
        <time>2022-08-20T10:55:33Z</time>
      </trkpt>
      <trkpt lat="46.52054" lon="5.37492">
        <ele>229.4</ele>
        <time>2022-08-20T10:55:41Z</time>
      </trkpt>
      <trkpt lat="46.52059" lon="5.37471">
        <ele>229</ele>
        <time>2022-08-20T10:55:43Z</time>
      </trkpt>
      <trkpt lat="46.52074" lon="5.37401">
        <ele>228.8</ele>
        <time>2022-08-20T10:55:51Z</time>
      </trkpt>
      <trkpt lat="46.52083" lon="5.37365">
        <ele>229</ele>
        <time>2022-08-20T10:55:55Z</time>
      </trkpt>
      <trkpt lat="46.5209" lon="5.37349">
        <ele>228.8</ele>
        <time>2022-08-20T10:55:57Z</time>
      </trkpt>
      <trkpt lat="46.52096" lon="5.37342">
        <ele>228.8</ele>
        <time>2022-08-20T10:55:58Z</time>
      </trkpt>
      <trkpt lat="46.52103" lon="5.37336">
        <ele>228.6</ele>
        <time>2022-08-20T10:55:59Z</time>
      </trkpt>
      <trkpt lat="46.52118" lon="5.37325">
        <ele>228</ele>
        <time>2022-08-20T10:56:01Z</time>
      </trkpt>
      <trkpt lat="46.52126" lon="5.3732">
        <ele>227.6</ele>
        <time>2022-08-20T10:56:02Z</time>
      </trkpt>
      <trkpt lat="46.52158" lon="5.37298">
        <ele>226.4</ele>
        <time>2022-08-20T10:56:06Z</time>
      </trkpt>
      <trkpt lat="46.52167" lon="5.37293">
        <ele>226</ele>
        <time>2022-08-20T10:56:07Z</time>
      </trkpt>
      <trkpt lat="46.52183" lon="5.3728">
        <ele>224.8</ele>
        <time>2022-08-20T10:56:09Z</time>
      </trkpt>
      <trkpt lat="46.522" lon="5.37268">
        <ele>223.6</ele>
        <time>2022-08-20T10:56:11Z</time>
      </trkpt>
      <trkpt lat="46.52225" lon="5.37247">
        <ele>222.6</ele>
        <time>2022-08-20T10:56:14Z</time>
      </trkpt>
      <trkpt lat="46.52233" lon="5.3724">
        <ele>222.4</ele>
        <time>2022-08-20T10:56:15Z</time>
      </trkpt>
      <trkpt lat="46.52247" lon="5.37227">
        <ele>221</ele>
        <time>2022-08-20T10:56:17Z</time>
      </trkpt>
      <trkpt lat="46.52264" lon="5.37209">
        <ele>219.6</ele>
        <time>2022-08-20T10:56:19Z</time>
      </trkpt>
      <trkpt lat="46.52277" lon="5.37195">
        <ele>218.8</ele>
        <time>2022-08-20T10:56:21Z</time>
      </trkpt>
      <trkpt lat="46.52286" lon="5.37185">
        <ele>218.4</ele>
        <time>2022-08-20T10:56:22Z</time>
      </trkpt>
      <trkpt lat="46.52307" lon="5.37163">
        <ele>217</ele>
        <time>2022-08-20T10:56:25Z</time>
      </trkpt>
      <trkpt lat="46.52331" lon="5.37137">
        <ele>216</ele>
        <time>2022-08-20T10:56:28Z</time>
      </trkpt>
      <trkpt lat="46.52353" lon="5.37115">
        <ele>214.8</ele>
        <time>2022-08-20T10:56:31Z</time>
      </trkpt>
      <trkpt lat="46.52377" lon="5.37091">
        <ele>213.2</ele>
        <time>2022-08-20T10:56:34Z</time>
      </trkpt>
      <trkpt lat="46.52393" lon="5.37072">
        <ele>212.4</ele>
        <time>2022-08-20T10:56:36Z</time>
      </trkpt>
      <trkpt lat="46.52398" lon="5.37065">
        <ele>212</ele>
        <time>2022-08-20T10:56:37Z</time>
      </trkpt>
      <trkpt lat="46.52415" lon="5.37037">
        <ele>211.2</ele>
        <time>2022-08-20T10:56:40Z</time>
      </trkpt>
      <trkpt lat="46.5243" lon="5.37007">
        <ele>210.8</ele>
        <time>2022-08-20T10:56:43Z</time>
      </trkpt>
      <trkpt lat="46.52442" lon="5.36977">
        <ele>210.8</ele>
        <time>2022-08-20T10:56:46Z</time>
      </trkpt>
      <trkpt lat="46.52451" lon="5.36921">
        <ele>211</ele>
        <time>2022-08-20T10:56:51Z</time>
      </trkpt>
      <trkpt lat="46.52462" lon="5.36846">
        <ele>210.8</ele>
        <time>2022-08-20T10:56:58Z</time>
      </trkpt>
      <trkpt lat="46.52468" lon="5.36788">
        <ele>211</ele>
        <time>2022-08-20T10:57:04Z</time>
      </trkpt>
      <trkpt lat="46.52472" lon="5.36713">
        <ele>210.8</ele>
        <time>2022-08-20T10:57:11Z</time>
      </trkpt>
      <trkpt lat="46.52475" lon="5.36631">
        <ele>210.2</ele>
        <time>2022-08-20T10:57:19Z</time>
      </trkpt>
      <trkpt lat="46.52479" lon="5.3655">
        <ele>210.2</ele>
        <time>2022-08-20T10:57:27Z</time>
      </trkpt>
      <trkpt lat="46.52483" lon="5.36509">
        <ele>210.2</ele>
        <time>2022-08-20T10:57:31Z</time>
      </trkpt>
      <trkpt lat="46.52487" lon="5.36469">
        <ele>209.8</ele>
        <time>2022-08-20T10:57:35Z</time>
      </trkpt>
      <trkpt lat="46.52493" lon="5.36415">
        <ele>209</ele>
        <time>2022-08-20T10:57:40Z</time>
      </trkpt>
      <trkpt lat="46.52499" lon="5.36374">
        <ele>208.8</ele>
        <time>2022-08-20T10:57:44Z</time>
      </trkpt>
      <trkpt lat="46.52507" lon="5.36347">
        <ele>208.6</ele>
        <time>2022-08-20T10:57:47Z</time>
      </trkpt>
      <trkpt lat="46.52518" lon="5.3633">
        <ele>208.6</ele>
        <time>2022-08-20T10:57:49Z</time>
      </trkpt>
      <trkpt lat="46.52523" lon="5.36326">
        <ele>208.6</ele>
        <time>2022-08-20T10:57:50Z</time>
      </trkpt>
      <trkpt lat="46.52543" lon="5.36314">
        <ele>208.2</ele>
        <time>2022-08-20T10:57:53Z</time>
      </trkpt>
      <trkpt lat="46.52549" lon="5.36313">
        <ele>208</ele>
        <time>2022-08-20T10:57:54Z</time>
      </trkpt>
      <trkpt lat="46.52557" lon="5.36315">
        <ele>208.2</ele>
        <time>2022-08-20T10:57:55Z</time>
      </trkpt>
      <trkpt lat="46.52569" lon="5.36316">
        <ele>208</ele>
        <time>2022-08-20T10:57:57Z</time>
      </trkpt>
      <trkpt lat="46.52582" lon="5.36308">
        <ele>207.8</ele>
        <time>2022-08-20T10:57:59Z</time>
      </trkpt>
      <trkpt lat="46.52587" lon="5.36301">
        <ele>208</ele>
        <time>2022-08-20T10:58:00Z</time>
      </trkpt>
      <trkpt lat="46.526" lon="5.36287">
        <ele>208.2</ele>
        <time>2022-08-20T10:58:02Z</time>
      </trkpt>
      <trkpt lat="46.52611" lon="5.36278">
        <ele>208.2</ele>
        <time>2022-08-20T10:58:04Z</time>
      </trkpt>
      <trkpt lat="46.52658" lon="5.36249">
        <ele>208.4</ele>
        <time>2022-08-20T10:58:11Z</time>
      </trkpt>
      <trkpt lat="46.52694" lon="5.36222">
        <ele>208.2</ele>
        <time>2022-08-20T10:58:17Z</time>
      </trkpt>
      <trkpt lat="46.52709" lon="5.362">
        <ele>208.2</ele>
        <time>2022-08-20T10:58:20Z</time>
      </trkpt>
      <trkpt lat="46.52712" lon="5.36192">
        <ele>208.2</ele>
        <time>2022-08-20T10:58:21Z</time>
      </trkpt>
      <trkpt lat="46.52715" lon="5.36184">
        <ele>208</ele>
        <time>2022-08-20T10:58:22Z</time>
      </trkpt>
      <trkpt lat="46.52725" lon="5.36152">
        <ele>208</ele>
        <time>2022-08-20T10:58:26Z</time>
      </trkpt>
      <trkpt lat="46.52747" lon="5.36085">
        <ele>208.4</ele>
        <time>2022-08-20T10:58:34Z</time>
      </trkpt>
      <trkpt lat="46.52755" lon="5.36062">
        <ele>208.6</ele>
        <time>2022-08-20T10:58:37Z</time>
      </trkpt>
      <trkpt lat="46.52759" lon="5.36055">
        <ele>208.6</ele>
        <time>2022-08-20T10:58:38Z</time>
      </trkpt>
      <trkpt lat="46.52763" lon="5.3605">
        <ele>208.6</ele>
        <time>2022-08-20T10:58:39Z</time>
      </trkpt>
      <trkpt lat="46.52774" lon="5.36044">
        <ele>209</ele>
        <time>2022-08-20T10:58:41Z</time>
      </trkpt>
      <trkpt lat="46.52778" lon="5.36045">
        <ele>209.2</ele>
        <time>2022-08-20T10:58:42Z</time>
      </trkpt>
      <trkpt lat="46.52808" lon="5.36056">
        <ele>210.2</ele>
        <time>2022-08-20T10:58:48Z</time>
      </trkpt>
      <trkpt lat="46.52828" lon="5.36063">
        <ele>211</ele>
        <time>2022-08-20T10:58:53Z</time>
      </trkpt>
      <trkpt lat="46.52831" lon="5.36064">
        <ele>211.2</ele>
        <time>2022-08-20T10:58:54Z</time>
      </trkpt>
      <trkpt lat="46.52836" lon="5.36067">
        <ele>211.6</ele>
        <time>2022-08-20T10:58:56Z</time>
      </trkpt>
      <trkpt lat="46.52839" lon="5.36067">
        <ele>211.8</ele>
        <time>2022-08-20T10:58:57Z</time>
      </trkpt>
      <trkpt lat="46.52853" lon="5.36067">
        <ele>212.4</ele>
        <time>2022-08-20T10:59:00Z</time>
      </trkpt>
      <trkpt lat="46.52857" lon="5.36067">
        <ele>212.6</ele>
        <time>2022-08-20T10:59:01Z</time>
      </trkpt>
      <trkpt lat="46.52902" lon="5.36073">
        <ele>213.2</ele>
        <time>2022-08-20T10:59:10Z</time>
      </trkpt>
      <trkpt lat="46.52918" lon="5.36075">
        <ele>213.6</ele>
        <time>2022-08-20T10:59:13Z</time>
      </trkpt>
      <trkpt lat="46.52935" lon="5.3608">
        <ele>214.2</ele>
        <time>2022-08-20T10:59:17Z</time>
      </trkpt>
      <trkpt lat="46.52947" lon="5.36086">
        <ele>214.6</ele>
        <time>2022-08-20T10:59:20Z</time>
      </trkpt>
      <trkpt lat="46.52955" lon="5.36094">
        <ele>214.8</ele>
        <time>2022-08-20T10:59:22Z</time>
      </trkpt>
      <trkpt lat="46.52969" lon="5.36119">
        <ele>215.6</ele>
        <time>2022-08-20T10:59:27Z</time>
      </trkpt>
      <trkpt lat="46.52976" lon="5.36128">
        <ele>216.2</ele>
        <time>2022-08-20T10:59:29Z</time>
      </trkpt>
      <trkpt lat="46.52985" lon="5.36136">
        <ele>216.6</ele>
        <time>2022-08-20T10:59:31Z</time>
      </trkpt>
      <trkpt lat="46.5299" lon="5.36138">
        <ele>216.8</ele>
        <time>2022-08-20T10:59:32Z</time>
      </trkpt>
      <trkpt lat="46.52995" lon="5.3614">
        <ele>216.8</ele>
        <time>2022-08-20T10:59:33Z</time>
      </trkpt>
      <trkpt lat="46.5301" lon="5.36141">
        <ele>217.2</ele>
        <time>2022-08-20T10:59:36Z</time>
      </trkpt>
      <trkpt lat="46.53018" lon="5.36142">
        <ele>217.6</ele>
        <time>2022-08-20T10:59:38Z</time>
      </trkpt>
      <trkpt lat="46.53022" lon="5.36143">
        <ele>218.2</ele>
        <time>2022-08-20T10:59:39Z</time>
      </trkpt>
      <trkpt lat="46.53027" lon="5.36144">
        <ele>218.2</ele>
        <time>2022-08-20T10:59:40Z</time>
      </trkpt>
      <trkpt lat="46.53041" lon="5.36144">
        <ele>219</ele>
        <time>2022-08-20T10:59:43Z</time>
      </trkpt>
      <trkpt lat="46.53045" lon="5.36144">
        <ele>219.2</ele>
        <time>2022-08-20T10:59:44Z</time>
      </trkpt>
      <trkpt lat="46.5306" lon="5.36138">
        <ele>219.4</ele>
        <time>2022-08-20T10:59:47Z</time>
      </trkpt>
      <trkpt lat="46.53083" lon="5.36118">
        <ele>220.4</ele>
        <time>2022-08-20T10:59:53Z</time>
      </trkpt>
      <trkpt lat="46.53086" lon="5.36115">
        <ele>220.6</ele>
        <time>2022-08-20T10:59:54Z</time>
      </trkpt>
      <trkpt lat="46.53094" lon="5.36103">
        <ele>221.6</ele>
        <time>2022-08-20T10:59:57Z</time>
      </trkpt>
      <trkpt lat="46.53097" lon="5.36098">
        <ele>221.8</ele>
        <time>2022-08-20T10:59:58Z</time>
      </trkpt>
      <trkpt lat="46.53101" lon="5.36088">
        <ele>222</ele>
        <time>2022-08-20T11:00:00Z</time>
      </trkpt>
      <trkpt lat="46.53111" lon="5.36069">
        <ele>222.8</ele>
        <time>2022-08-20T11:00:04Z</time>
      </trkpt>
      <trkpt lat="46.53124" lon="5.36044">
        <ele>223.2</ele>
        <time>2022-08-20T11:00:09Z</time>
      </trkpt>
      <trkpt lat="46.5314" lon="5.3602">
        <ele>223.8</ele>
        <time>2022-08-20T11:00:14Z</time>
      </trkpt>
      <trkpt lat="46.53149" lon="5.36004">
        <ele>224.2</ele>
        <time>2022-08-20T11:00:17Z</time>
      </trkpt>
      <trkpt lat="46.53171" lon="5.35962">
        <ele>225</ele>
        <time>2022-08-20T11:00:25Z</time>
      </trkpt>
      <trkpt lat="46.5318" lon="5.35946">
        <ele>225.4</ele>
        <time>2022-08-20T11:00:28Z</time>
      </trkpt>
      <trkpt lat="46.53184" lon="5.35939">
        <ele>225.6</ele>
        <time>2022-08-20T11:00:29Z</time>
      </trkpt>
      <trkpt lat="46.53191" lon="5.35931">
        <ele>225.8</ele>
        <time>2022-08-20T11:00:31Z</time>
      </trkpt>
      <trkpt lat="46.53196" lon="5.35927">
        <ele>225.8</ele>
        <time>2022-08-20T11:00:32Z</time>
      </trkpt>
      <trkpt lat="46.53225" lon="5.35916">
        <ele>226</ele>
        <time>2022-08-20T11:00:37Z</time>
      </trkpt>
      <trkpt lat="46.53275" lon="5.35894">
        <ele>225.2</ele>
        <time>2022-08-20T11:00:45Z</time>
      </trkpt>
      <trkpt lat="46.5333" lon="5.35871">
        <ele>225.2</ele>
        <time>2022-08-20T11:00:54Z</time>
      </trkpt>
      <trkpt lat="46.53335" lon="5.35869">
        <ele>225.2</ele>
        <time>2022-08-20T11:00:55Z</time>
      </trkpt>
      <trkpt lat="46.53369" lon="5.35863">
        <ele>226</ele>
        <time>2022-08-20T11:01:01Z</time>
      </trkpt>
      <trkpt lat="46.53374" lon="5.35863">
        <ele>226.2</ele>
        <time>2022-08-20T11:01:02Z</time>
      </trkpt>
      <trkpt lat="46.53399" lon="5.35865">
        <ele>227.2</ele>
        <time>2022-08-20T11:01:07Z</time>
      </trkpt>
      <trkpt lat="46.5342" lon="5.35867">
        <ele>227.8</ele>
        <time>2022-08-20T11:01:11Z</time>
      </trkpt>
      <trkpt lat="46.53431" lon="5.35869">
        <ele>228.2</ele>
        <time>2022-08-20T11:01:13Z</time>
      </trkpt>
      <trkpt lat="46.53455" lon="5.35872">
        <ele>228.8</ele>
        <time>2022-08-20T11:01:18Z</time>
      </trkpt>
      <trkpt lat="46.5346" lon="5.35871">
        <ele>229.2</ele>
        <time>2022-08-20T11:01:19Z</time>
      </trkpt>
      <trkpt lat="46.53466" lon="5.35869">
        <ele>229.4</ele>
        <time>2022-08-20T11:01:20Z</time>
      </trkpt>
      <trkpt lat="46.53498" lon="5.35853">
        <ele>230.2</ele>
        <time>2022-08-20T11:01:27Z</time>
      </trkpt>
      <trkpt lat="46.5351" lon="5.3585">
        <ele>230.6</ele>
        <time>2022-08-20T11:01:29Z</time>
      </trkpt>
      <trkpt lat="46.53525" lon="5.3585">
        <ele>231</ele>
        <time>2022-08-20T11:01:32Z</time>
      </trkpt>
      <trkpt lat="46.53562" lon="5.35857">
        <ele>231</ele>
        <time>2022-08-20T11:01:38Z</time>
      </trkpt>
      <trkpt lat="46.53605" lon="5.35869">
        <ele>230.6</ele>
        <time>2022-08-20T11:01:45Z</time>
      </trkpt>
      <trkpt lat="46.53638" lon="5.35884">
        <ele>230</ele>
        <time>2022-08-20T11:01:51Z</time>
      </trkpt>
      <trkpt lat="46.53647" lon="5.35881">
        <ele>229.8</ele>
        <time>2022-08-20T11:01:54Z</time>
      </trkpt>
      <trkpt lat="46.53657" lon="5.35873">
        <ele>229.8</ele>
        <time>2022-08-20T11:01:56Z</time>
      </trkpt>
      <trkpt lat="46.53661" lon="5.35867">
        <ele>229.6</ele>
        <time>2022-08-20T11:01:57Z</time>
      </trkpt>
      <trkpt lat="46.53684" lon="5.35834">
        <ele>228.8</ele>
        <time>2022-08-20T11:02:01Z</time>
      </trkpt>
      <trkpt lat="46.53691" lon="5.35824">
        <ele>228.2</ele>
        <time>2022-08-20T11:02:02Z</time>
      </trkpt>
      <trkpt lat="46.53703" lon="5.35806">
        <ele>227</ele>
        <time>2022-08-20T11:02:04Z</time>
      </trkpt>
      <trkpt lat="46.53717" lon="5.35785">
        <ele>225.4</ele>
        <time>2022-08-20T11:02:06Z</time>
      </trkpt>
      <trkpt lat="46.53723" lon="5.35776">
        <ele>225</ele>
        <time>2022-08-20T11:02:07Z</time>
      </trkpt>
      <trkpt lat="46.53734" lon="5.35755">
        <ele>223.6</ele>
        <time>2022-08-20T11:02:09Z</time>
      </trkpt>
      <trkpt lat="46.53742" lon="5.35733">
        <ele>223</ele>
        <time>2022-08-20T11:02:11Z</time>
      </trkpt>
      <trkpt lat="46.53749" lon="5.35713">
        <ele>222.6</ele>
        <time>2022-08-20T11:02:13Z</time>
      </trkpt>
      <trkpt lat="46.53754" lon="5.35688">
        <ele>222.2</ele>
        <time>2022-08-20T11:02:15Z</time>
      </trkpt>
      <trkpt lat="46.53755" lon="5.35677">
        <ele>222.2</ele>
        <time>2022-08-20T11:02:16Z</time>
      </trkpt>
      <trkpt lat="46.53756" lon="5.35611">
        <ele>222.4</ele>
        <time>2022-08-20T11:02:22Z</time>
      </trkpt>
      <trkpt lat="46.53755" lon="5.356">
        <ele>222.4</ele>
        <time>2022-08-20T11:02:23Z</time>
      </trkpt>
      <trkpt lat="46.53747" lon="5.35571">
        <ele>222.4</ele>
        <time>2022-08-20T11:02:26Z</time>
      </trkpt>
      <trkpt lat="46.53728" lon="5.355">
        <ele>222.4</ele>
        <time>2022-08-20T11:02:33Z</time>
      </trkpt>
      <trkpt lat="46.53726" lon="5.35483">
        <ele>222.4</ele>
        <time>2022-08-20T11:02:35Z</time>
      </trkpt>
      <trkpt lat="46.53726" lon="5.35454">
        <ele>222.6</ele>
        <time>2022-08-20T11:02:38Z</time>
      </trkpt>
      <trkpt lat="46.5373" lon="5.35411">
        <ele>223.4</ele>
        <time>2022-08-20T11:02:43Z</time>
      </trkpt>
      <trkpt lat="46.53734" lon="5.35385">
        <ele>224.2</ele>
        <time>2022-08-20T11:02:46Z</time>
      </trkpt>
      <trkpt lat="46.53738" lon="5.35363">
        <ele>224.6</ele>
        <time>2022-08-20T11:02:49Z</time>
      </trkpt>
      <trkpt lat="46.53743" lon="5.35347">
        <ele>225.2</ele>
        <time>2022-08-20T11:02:51Z</time>
      </trkpt>
      <trkpt lat="46.53745" lon="5.35341">
        <ele>225.4</ele>
        <time>2022-08-20T11:02:52Z</time>
      </trkpt>
      <trkpt lat="46.53752" lon="5.35322">
        <ele>226.4</ele>
        <time>2022-08-20T11:02:55Z</time>
      </trkpt>
      <trkpt lat="46.53762" lon="5.35303">
        <ele>227.4</ele>
        <time>2022-08-20T11:02:58Z</time>
      </trkpt>
      <trkpt lat="46.53777" lon="5.3528">
        <ele>228</ele>
        <time>2022-08-20T11:03:02Z</time>
      </trkpt>
      <trkpt lat="46.53809" lon="5.35241">
        <ele>228.4</ele>
        <time>2022-08-20T11:03:09Z</time>
      </trkpt>
      <trkpt lat="46.53833" lon="5.3522">
        <ele>228</ele>
        <time>2022-08-20T11:03:13Z</time>
      </trkpt>
      <trkpt lat="46.53886" lon="5.35183">
        <ele>227.2</ele>
        <time>2022-08-20T11:03:21Z</time>
      </trkpt>
      <trkpt lat="46.53893" lon="5.35179">
        <ele>227.2</ele>
        <time>2022-08-20T11:03:22Z</time>
      </trkpt>
      <trkpt lat="46.53934" lon="5.35148">
        <ele>226.2</ele>
        <time>2022-08-20T11:03:28Z</time>
      </trkpt>
      <trkpt lat="46.5394" lon="5.35142">
        <ele>226</ele>
        <time>2022-08-20T11:03:29Z</time>
      </trkpt>
      <trkpt lat="46.53981" lon="5.35093">
        <ele>225.4</ele>
        <time>2022-08-20T11:03:36Z</time>
      </trkpt>
      <trkpt lat="46.54" lon="5.35072">
        <ele>225.2</ele>
        <time>2022-08-20T11:03:39Z</time>
      </trkpt>
      <trkpt lat="46.54019" lon="5.35053">
        <ele>224.6</ele>
        <time>2022-08-20T11:03:42Z</time>
      </trkpt>
      <trkpt lat="46.54047" lon="5.35031">
        <ele>224</ele>
        <time>2022-08-20T11:03:46Z</time>
      </trkpt>
      <trkpt lat="46.54063" lon="5.35022">
        <ele>223.6</ele>
        <time>2022-08-20T11:03:48Z</time>
      </trkpt>
      <trkpt lat="46.54087" lon="5.35011">
        <ele>222.8</ele>
        <time>2022-08-20T11:03:51Z</time>
      </trkpt>
      <trkpt lat="46.5411" lon="5.35001">
        <ele>221.6</ele>
        <time>2022-08-20T11:03:54Z</time>
      </trkpt>
      <trkpt lat="46.54133" lon="5.34989">
        <ele>221</ele>
        <time>2022-08-20T11:03:57Z</time>
      </trkpt>
      <trkpt lat="46.54147" lon="5.34977">
        <ele>220.6</ele>
        <time>2022-08-20T11:03:59Z</time>
      </trkpt>
      <trkpt lat="46.54161" lon="5.34962">
        <ele>220.6</ele>
        <time>2022-08-20T11:04:01Z</time>
      </trkpt>
      <trkpt lat="46.54195" lon="5.34923">
        <ele>219.4</ele>
        <time>2022-08-20T11:04:06Z</time>
      </trkpt>
      <trkpt lat="46.54217" lon="5.34904">
        <ele>218.8</ele>
        <time>2022-08-20T11:04:09Z</time>
      </trkpt>
      <trkpt lat="46.5423" lon="5.3489">
        <ele>218.6</ele>
        <time>2022-08-20T11:04:11Z</time>
      </trkpt>
      <trkpt lat="46.54242" lon="5.34871">
        <ele>218.2</ele>
        <time>2022-08-20T11:04:13Z</time>
      </trkpt>
      <trkpt lat="46.54258" lon="5.34843">
        <ele>218</ele>
        <time>2022-08-20T11:04:16Z</time>
      </trkpt>
      <trkpt lat="46.54275" lon="5.34818">
        <ele>217.8</ele>
        <time>2022-08-20T11:04:19Z</time>
      </trkpt>
      <trkpt lat="46.54295" lon="5.34797">
        <ele>217.2</ele>
        <time>2022-08-20T11:04:22Z</time>
      </trkpt>
      <trkpt lat="46.54327" lon="5.34765">
        <ele>217</ele>
        <time>2022-08-20T11:04:27Z</time>
      </trkpt>
      <trkpt lat="46.5434" lon="5.34754">
        <ele>217</ele>
        <time>2022-08-20T11:04:29Z</time>
      </trkpt>
      <trkpt lat="46.54347" lon="5.3475">
        <ele>217</ele>
        <time>2022-08-20T11:04:30Z</time>
      </trkpt>
      <trkpt lat="46.54354" lon="5.34747">
        <ele>217</ele>
        <time>2022-08-20T11:04:31Z</time>
      </trkpt>
      <trkpt lat="46.54362" lon="5.34744">
        <ele>217</ele>
        <time>2022-08-20T11:04:32Z</time>
      </trkpt>
      <trkpt lat="46.54382" lon="5.34738">
        <ele>217.2</ele>
        <time>2022-08-20T11:04:35Z</time>
      </trkpt>
      <trkpt lat="46.54393" lon="5.34734">
        <ele>217.2</ele>
        <time>2022-08-20T11:04:37Z</time>
      </trkpt>
      <trkpt lat="46.54411" lon="5.34724">
        <ele>217.8</ele>
        <time>2022-08-20T11:04:40Z</time>
      </trkpt>
      <trkpt lat="46.54442" lon="5.34707">
        <ele>218.2</ele>
        <time>2022-08-20T11:04:45Z</time>
      </trkpt>
      <trkpt lat="46.54467" lon="5.34691">
        <ele>218.4</ele>
        <time>2022-08-20T11:04:49Z</time>
      </trkpt>
      <trkpt lat="46.54485" lon="5.34675">
        <ele>218.4</ele>
        <time>2022-08-20T11:04:52Z</time>
      </trkpt>
      <trkpt lat="46.54495" lon="5.34663">
        <ele>218.4</ele>
        <time>2022-08-20T11:04:54Z</time>
      </trkpt>
      <trkpt lat="46.54517" lon="5.34628">
        <ele>218.6</ele>
        <time>2022-08-20T11:04:59Z</time>
      </trkpt>
      <trkpt lat="46.54522" lon="5.34621">
        <ele>218.6</ele>
        <time>2022-08-20T11:05:00Z</time>
      </trkpt>
      <trkpt lat="46.54549" lon="5.34594">
        <ele>218.6</ele>
        <time>2022-08-20T11:05:05Z</time>
      </trkpt>
      <trkpt lat="46.54576" lon="5.3457">
        <ele>219.2</ele>
        <time>2022-08-20T11:05:11Z</time>
      </trkpt>
      <trkpt lat="46.54586" lon="5.3456">
        <ele>220.4</ele>
        <time>2022-08-20T11:05:14Z</time>
      </trkpt>
      <trkpt lat="46.54597" lon="5.34549">
        <ele>221.4</ele>
        <time>2022-08-20T11:05:17Z</time>
      </trkpt>
      <trkpt lat="46.54601" lon="5.34545">
        <ele>222</ele>
        <time>2022-08-20T11:05:18Z</time>
      </trkpt>
      <trkpt lat="46.54615" lon="5.34534">
        <ele>223.2</ele>
        <time>2022-08-20T11:05:21Z</time>
      </trkpt>
      <trkpt lat="46.54639" lon="5.34514">
        <ele>223.8</ele>
        <time>2022-08-20T11:05:26Z</time>
      </trkpt>
      <trkpt lat="46.54657" lon="5.34501">
        <ele>224.2</ele>
        <time>2022-08-20T11:05:29Z</time>
      </trkpt>
      <trkpt lat="46.54679" lon="5.34486">
        <ele>224.6</ele>
        <time>2022-08-20T11:05:33Z</time>
      </trkpt>
      <trkpt lat="46.54716" lon="5.3447">
        <ele>224.6</ele>
        <time>2022-08-20T11:05:39Z</time>
      </trkpt>
      <trkpt lat="46.5476" lon="5.34458">
        <ele>224.2</ele>
        <time>2022-08-20T11:05:45Z</time>
      </trkpt>
      <trkpt lat="46.54813" lon="5.34441">
        <ele>223.4</ele>
        <time>2022-08-20T11:05:53Z</time>
      </trkpt>
      <trkpt lat="46.54844" lon="5.34426">
        <ele>223.4</ele>
        <time>2022-08-20T11:05:58Z</time>
      </trkpt>
      <trkpt lat="46.54872" lon="5.34407">
        <ele>223.8</ele>
        <time>2022-08-20T11:06:03Z</time>
      </trkpt>
      <trkpt lat="46.54909" lon="5.34376">
        <ele>225.2</ele>
        <time>2022-08-20T11:06:10Z</time>
      </trkpt>
      <trkpt lat="46.54935" lon="5.34351">
        <ele>225.2</ele>
        <time>2022-08-20T11:06:15Z</time>
      </trkpt>
      <trkpt lat="46.54974" lon="5.3431">
        <ele>225</ele>
        <time>2022-08-20T11:06:22Z</time>
      </trkpt>
      <trkpt lat="46.55016" lon="5.34254">
        <ele>224.4</ele>
        <time>2022-08-20T11:06:30Z</time>
      </trkpt>
      <trkpt lat="46.55062" lon="5.34202">
        <ele>223.8</ele>
        <time>2022-08-20T11:06:38Z</time>
      </trkpt>
      <trkpt lat="46.5508" lon="5.34184">
        <ele>223.4</ele>
        <time>2022-08-20T11:06:41Z</time>
      </trkpt>
      <trkpt lat="46.55086" lon="5.34178">
        <ele>223.2</ele>
        <time>2022-08-20T11:06:42Z</time>
      </trkpt>
      <trkpt lat="46.55114" lon="5.34147">
        <ele>223</ele>
        <time>2022-08-20T11:06:47Z</time>
      </trkpt>
      <trkpt lat="46.55125" lon="5.34134">
        <ele>222.8</ele>
        <time>2022-08-20T11:06:49Z</time>
      </trkpt>
      <trkpt lat="46.55158" lon="5.34087">
        <ele>223</ele>
        <time>2022-08-20T11:06:56Z</time>
      </trkpt>
      <trkpt lat="46.55178" lon="5.34058">
        <ele>223.2</ele>
        <time>2022-08-20T11:07:01Z</time>
      </trkpt>
      <trkpt lat="46.55183" lon="5.34055">
        <ele>223.2</ele>
        <time>2022-08-20T11:07:02Z</time>
      </trkpt>
      <trkpt lat="46.55187" lon="5.34055">
        <ele>223.4</ele>
        <time>2022-08-20T11:07:03Z</time>
      </trkpt>
      <trkpt lat="46.55196" lon="5.3406">
        <ele>223.6</ele>
        <time>2022-08-20T11:07:05Z</time>
      </trkpt>
      <trkpt lat="46.55202" lon="5.34071">
        <ele>223.6</ele>
        <time>2022-08-20T11:07:07Z</time>
      </trkpt>
      <trkpt lat="46.55205" lon="5.34077">
        <ele>223.6</ele>
        <time>2022-08-20T11:07:08Z</time>
      </trkpt>
      <trkpt lat="46.55211" lon="5.34091">
        <ele>223.8</ele>
        <time>2022-08-20T11:07:10Z</time>
      </trkpt>
      <trkpt lat="46.5522" lon="5.34113">
        <ele>223.8</ele>
        <time>2022-08-20T11:07:13Z</time>
      </trkpt>
      <trkpt lat="46.55223" lon="5.34121">
        <ele>223.8</ele>
        <time>2022-08-20T11:07:14Z</time>
      </trkpt>
      <trkpt lat="46.55226" lon="5.34139">
        <ele>224</ele>
        <time>2022-08-20T11:07:16Z</time>
      </trkpt>
      <trkpt lat="46.55227" lon="5.34148">
        <ele>224</ele>
        <time>2022-08-20T11:07:17Z</time>
      </trkpt>
      <trkpt lat="46.55228" lon="5.34157">
        <ele>224</ele>
        <time>2022-08-20T11:07:18Z</time>
      </trkpt>
      <trkpt lat="46.5523" lon="5.34174">
        <ele>224</ele>
        <time>2022-08-20T11:07:20Z</time>
      </trkpt>
      <trkpt lat="46.55234" lon="5.34193">
        <ele>224</ele>
        <time>2022-08-20T11:07:22Z</time>
      </trkpt>
      <trkpt lat="46.55238" lon="5.34216">
        <ele>224</ele>
        <time>2022-08-20T11:07:24Z</time>
      </trkpt>
      <trkpt lat="46.55244" lon="5.34236">
        <ele>223.8</ele>
        <time>2022-08-20T11:07:26Z</time>
      </trkpt>
      <trkpt lat="46.55255" lon="5.34256">
        <ele>223.4</ele>
        <time>2022-08-20T11:07:28Z</time>
      </trkpt>
      <trkpt lat="46.55272" lon="5.34271">
        <ele>222.8</ele>
        <time>2022-08-20T11:07:30Z</time>
      </trkpt>
      <trkpt lat="46.55281" lon="5.34279">
        <ele>222.4</ele>
        <time>2022-08-20T11:07:31Z</time>
      </trkpt>
      <trkpt lat="46.55298" lon="5.34292">
        <ele>222</ele>
        <time>2022-08-20T11:07:33Z</time>
      </trkpt>
      <trkpt lat="46.55305" lon="5.34298">
        <ele>221.8</ele>
        <time>2022-08-20T11:07:34Z</time>
      </trkpt>
      <trkpt lat="46.55331" lon="5.34324">
        <ele>221.2</ele>
        <time>2022-08-20T11:07:37Z</time>
      </trkpt>
      <trkpt lat="46.55342" lon="5.34341">
        <ele>220.6</ele>
        <time>2022-08-20T11:07:39Z</time>
      </trkpt>
      <trkpt lat="46.55351" lon="5.34358">
        <ele>219.8</ele>
        <time>2022-08-20T11:07:41Z</time>
      </trkpt>
      <trkpt lat="46.55364" lon="5.34372">
        <ele>219.4</ele>
        <time>2022-08-20T11:07:43Z</time>
      </trkpt>
      <trkpt lat="46.55392" lon="5.34402">
        <ele>218.4</ele>
        <time>2022-08-20T11:07:47Z</time>
      </trkpt>
      <trkpt lat="46.55401" lon="5.34411">
        <ele>218.4</ele>
        <time>2022-08-20T11:07:48Z</time>
      </trkpt>
      <trkpt lat="46.55447" lon="5.3446">
        <ele>218</ele>
        <time>2022-08-20T11:07:55Z</time>
      </trkpt>
      <trkpt lat="46.55497" lon="5.3451">
        <ele>217.6</ele>
        <time>2022-08-20T11:08:03Z</time>
      </trkpt>
      <trkpt lat="46.55542" lon="5.34544">
        <ele>217.6</ele>
        <time>2022-08-20T11:08:10Z</time>
      </trkpt>
      <trkpt lat="46.5558" lon="5.34557">
        <ele>217.2</ele>
        <time>2022-08-20T11:08:15Z</time>
      </trkpt>
      <trkpt lat="46.55587" lon="5.3456">
        <ele>217</ele>
        <time>2022-08-20T11:08:16Z</time>
      </trkpt>
      <trkpt lat="46.55622" lon="5.3457">
        <ele>216.2</ele>
        <time>2022-08-20T11:08:20Z</time>
      </trkpt>
      <trkpt lat="46.55631" lon="5.34573">
        <ele>215.8</ele>
        <time>2022-08-20T11:08:21Z</time>
      </trkpt>
      <trkpt lat="46.55657" lon="5.34577">
        <ele>215.2</ele>
        <time>2022-08-20T11:08:24Z</time>
      </trkpt>
      <trkpt lat="46.55669" lon="5.34576">
        <ele>214.6</ele>
        <time>2022-08-20T11:08:25Z</time>
      </trkpt>
      <trkpt lat="46.5569" lon="5.34576">
        <ele>213.2</ele>
        <time>2022-08-20T11:08:27Z</time>
      </trkpt>
      <trkpt lat="46.55711" lon="5.34577">
        <ele>212</ele>
        <time>2022-08-20T11:08:29Z</time>
      </trkpt>
      <trkpt lat="46.55722" lon="5.34579">
        <ele>211.4</ele>
        <time>2022-08-20T11:08:30Z</time>
      </trkpt>
      <trkpt lat="46.55741" lon="5.34583">
        <ele>210.4</ele>
        <time>2022-08-20T11:08:32Z</time>
      </trkpt>
      <trkpt lat="46.55765" lon="5.34589">
        <ele>208.8</ele>
        <time>2022-08-20T11:08:34Z</time>
      </trkpt>
      <trkpt lat="46.55785" lon="5.34595">
        <ele>207.6</ele>
        <time>2022-08-20T11:08:36Z</time>
      </trkpt>
      <trkpt lat="46.55794" lon="5.34597">
        <ele>206.8</ele>
        <time>2022-08-20T11:08:37Z</time>
      </trkpt>
      <trkpt lat="46.55806" lon="5.346">
        <ele>206.4</ele>
        <time>2022-08-20T11:08:38Z</time>
      </trkpt>
      <trkpt lat="46.55844" lon="5.34607">
        <ele>205.4</ele>
        <time>2022-08-20T11:08:42Z</time>
      </trkpt>
      <trkpt lat="46.55853" lon="5.3461">
        <ele>205.4</ele>
        <time>2022-08-20T11:08:43Z</time>
      </trkpt>
      <trkpt lat="46.55906" lon="5.34622">
        <ele>204.8</ele>
        <time>2022-08-20T11:08:49Z</time>
      </trkpt>
      <trkpt lat="46.55959" lon="5.34637">
        <ele>204.8</ele>
        <time>2022-08-20T11:08:55Z</time>
      </trkpt>
      <trkpt lat="46.55967" lon="5.34639">
        <ele>204.6</ele>
        <time>2022-08-20T11:08:56Z</time>
      </trkpt>
      <trkpt lat="46.56021" lon="5.34653">
        <ele>204.4</ele>
        <time>2022-08-20T11:09:03Z</time>
      </trkpt>
      <trkpt lat="46.56075" lon="5.34665">
        <ele>205.2</ele>
        <time>2022-08-20T11:09:10Z</time>
      </trkpt>
      <trkpt lat="46.56083" lon="5.34667">
        <ele>205</ele>
        <time>2022-08-20T11:09:11Z</time>
      </trkpt>
      <trkpt lat="46.56125" lon="5.34677">
        <ele>205.4</ele>
        <time>2022-08-20T11:09:17Z</time>
      </trkpt>
      <trkpt lat="46.56161" lon="5.34679">
        <ele>206.4</ele>
        <time>2022-08-20T11:09:23Z</time>
      </trkpt>
      <trkpt lat="46.56167" lon="5.34679">
        <ele>206.8</ele>
        <time>2022-08-20T11:09:24Z</time>
      </trkpt>
      <trkpt lat="46.56195" lon="5.34674">
        <ele>207.4</ele>
        <time>2022-08-20T11:09:29Z</time>
      </trkpt>
      <trkpt lat="46.56205" lon="5.34671">
        <ele>208</ele>
        <time>2022-08-20T11:09:31Z</time>
      </trkpt>
      <trkpt lat="46.5622" lon="5.34666">
        <ele>209</ele>
        <time>2022-08-20T11:09:34Z</time>
      </trkpt>
      <trkpt lat="46.56236" lon="5.34661">
        <ele>210</ele>
        <time>2022-08-20T11:09:37Z</time>
      </trkpt>
      <trkpt lat="46.56239" lon="5.3466">
        <ele>210.2</ele>
        <time>2022-08-20T11:09:38Z</time>
      </trkpt>
      <trkpt lat="46.56269" lon="5.34651">
        <ele>211.2</ele>
        <time>2022-08-20T11:09:44Z</time>
      </trkpt>
      <trkpt lat="46.56274" lon="5.3465">
        <ele>211.4</ele>
        <time>2022-08-20T11:09:45Z</time>
      </trkpt>
      <trkpt lat="46.56298" lon="5.34646">
        <ele>212.4</ele>
        <time>2022-08-20T11:09:50Z</time>
      </trkpt>
      <trkpt lat="46.56311" lon="5.34647">
        <ele>213.4</ele>
        <time>2022-08-20T11:09:53Z</time>
      </trkpt>
      <trkpt lat="46.56315" lon="5.34648">
        <ele>213.6</ele>
        <time>2022-08-20T11:09:54Z</time>
      </trkpt>
      <trkpt lat="46.56345" lon="5.34659">
        <ele>214.6</ele>
        <time>2022-08-20T11:10:00Z</time>
      </trkpt>
      <trkpt lat="46.5635" lon="5.34662">
        <ele>214.8</ele>
        <time>2022-08-20T11:10:01Z</time>
      </trkpt>
      <trkpt lat="46.56367" lon="5.3467">
        <ele>215.2</ele>
        <time>2022-08-20T11:10:04Z</time>
      </trkpt>
      <trkpt lat="46.56378" lon="5.34674">
        <ele>215.2</ele>
        <time>2022-08-20T11:10:06Z</time>
      </trkpt>
      <trkpt lat="46.5642" lon="5.34685">
        <ele>214.6</ele>
        <time>2022-08-20T11:10:12Z</time>
      </trkpt>
      <trkpt lat="46.56449" lon="5.34701">
        <ele>213.6</ele>
        <time>2022-08-20T11:10:16Z</time>
      </trkpt>
      <trkpt lat="46.56472" lon="5.34714">
        <ele>212.8</ele>
        <time>2022-08-20T11:10:19Z</time>
      </trkpt>
      <trkpt lat="46.56513" lon="5.34737">
        <ele>211.6</ele>
        <time>2022-08-20T11:10:24Z</time>
      </trkpt>
      <trkpt lat="46.5653" lon="5.34746">
        <ele>210.8</ele>
        <time>2022-08-20T11:10:26Z</time>
      </trkpt>
      <trkpt lat="46.56539" lon="5.34751">
        <ele>210.4</ele>
        <time>2022-08-20T11:10:27Z</time>
      </trkpt>
      <trkpt lat="46.56567" lon="5.34766">
        <ele>209.4</ele>
        <time>2022-08-20T11:10:30Z</time>
      </trkpt>
      <trkpt lat="46.56578" lon="5.3477">
        <ele>209</ele>
        <time>2022-08-20T11:10:31Z</time>
      </trkpt>
      <trkpt lat="46.56586" lon="5.34771">
        <ele>208.4</ele>
        <time>2022-08-20T11:10:32Z</time>
      </trkpt>
      <trkpt lat="46.566" lon="5.3477">
        <ele>208.2</ele>
        <time>2022-08-20T11:10:33Z</time>
      </trkpt>
      <trkpt lat="46.56622" lon="5.34765">
        <ele>207</ele>
        <time>2022-08-20T11:10:35Z</time>
      </trkpt>
      <trkpt lat="46.56639" lon="5.34754">
        <ele>205.8</ele>
        <time>2022-08-20T11:10:37Z</time>
      </trkpt>
      <trkpt lat="46.56658" lon="5.34735">
        <ele>204.6</ele>
        <time>2022-08-20T11:10:39Z</time>
      </trkpt>
      <trkpt lat="46.56672" lon="5.34717">
        <ele>203.2</ele>
        <time>2022-08-20T11:10:41Z</time>
      </trkpt>
      <trkpt lat="46.56688" lon="5.34704">
        <ele>202.2</ele>
        <time>2022-08-20T11:10:43Z</time>
      </trkpt>
      <trkpt lat="46.56698" lon="5.34698">
        <ele>202</ele>
        <time>2022-08-20T11:10:44Z</time>
      </trkpt>
      <trkpt lat="46.56737" lon="5.34673">
        <ele>201.2</ele>
        <time>2022-08-20T11:10:49Z</time>
      </trkpt>
      <trkpt lat="46.56753" lon="5.34666">
        <ele>201.2</ele>
        <time>2022-08-20T11:10:51Z</time>
      </trkpt>
      <trkpt lat="46.56761" lon="5.34666">
        <ele>201.2</ele>
        <time>2022-08-20T11:10:52Z</time>
      </trkpt>
      <trkpt lat="46.56768" lon="5.3467">
        <ele>201.2</ele>
        <time>2022-08-20T11:10:53Z</time>
      </trkpt>
      <trkpt lat="46.56773" lon="5.34678">
        <ele>201.2</ele>
        <time>2022-08-20T11:10:54Z</time>
      </trkpt>
      <trkpt lat="46.56777" lon="5.34685">
        <ele>201.2</ele>
        <time>2022-08-20T11:10:55Z</time>
      </trkpt>
      <trkpt lat="46.56783" lon="5.34708">
        <ele>201.2</ele>
        <time>2022-08-20T11:10:57Z</time>
      </trkpt>
      <trkpt lat="46.56794" lon="5.34762">
        <ele>201</ele>
        <time>2022-08-20T11:11:02Z</time>
      </trkpt>
      <trkpt lat="46.56807" lon="5.34842">
        <ele>201.2</ele>
        <time>2022-08-20T11:11:09Z</time>
      </trkpt>
      <trkpt lat="46.56817" lon="5.34896">
        <ele>201</ele>
        <time>2022-08-20T11:11:14Z</time>
      </trkpt>
      <trkpt lat="46.56823" lon="5.34925">
        <ele>201.4</ele>
        <time>2022-08-20T11:11:17Z</time>
      </trkpt>
      <trkpt lat="46.56833" lon="5.34977">
        <ele>202.2</ele>
        <time>2022-08-20T11:11:23Z</time>
      </trkpt>
      <trkpt lat="46.56847" lon="5.35012">
        <ele>203.8</ele>
        <time>2022-08-20T11:11:28Z</time>
      </trkpt>
      <trkpt lat="46.56852" lon="5.35024">
        <ele>204.6</ele>
        <time>2022-08-20T11:11:30Z</time>
      </trkpt>
      <trkpt lat="46.56857" lon="5.35036">
        <ele>205</ele>
        <time>2022-08-20T11:11:32Z</time>
      </trkpt>
      <trkpt lat="46.56859" lon="5.35042">
        <ele>205</ele>
        <time>2022-08-20T11:11:33Z</time>
      </trkpt>
      <trkpt lat="46.56863" lon="5.35052">
        <ele>205.8</ele>
        <time>2022-08-20T11:11:35Z</time>
      </trkpt>
      <trkpt lat="46.56865" lon="5.35059">
        <ele>206</ele>
        <time>2022-08-20T11:11:36Z</time>
      </trkpt>
      <trkpt lat="46.56872" lon="5.35077">
        <ele>207</ele>
        <time>2022-08-20T11:11:39Z</time>
      </trkpt>
      <trkpt lat="46.56874" lon="5.35083">
        <ele>207.2</ele>
        <time>2022-08-20T11:11:40Z</time>
      </trkpt>
      <trkpt lat="46.56879" lon="5.35094">
        <ele>208.4</ele>
        <time>2022-08-20T11:11:42Z</time>
      </trkpt>
      <trkpt lat="46.56881" lon="5.35098">
        <ele>208.6</ele>
        <time>2022-08-20T11:11:43Z</time>
      </trkpt>
      <trkpt lat="46.5689" lon="5.35115">
        <ele>209.6</ele>
        <time>2022-08-20T11:11:46Z</time>
      </trkpt>
      <trkpt lat="46.56904" lon="5.35142">
        <ele>211</ele>
        <time>2022-08-20T11:11:51Z</time>
      </trkpt>
      <trkpt lat="46.56906" lon="5.35147">
        <ele>211</ele>
        <time>2022-08-20T11:11:52Z</time>
      </trkpt>
      <trkpt lat="46.56916" lon="5.35161">
        <ele>212.2</ele>
        <time>2022-08-20T11:11:55Z</time>
      </trkpt>
      <trkpt lat="46.56927" lon="5.35169">
        <ele>212.6</ele>
        <time>2022-08-20T11:11:57Z</time>
      </trkpt>
      <trkpt lat="46.56942" lon="5.35181">
        <ele>213.2</ele>
        <time>2022-08-20T11:12:00Z</time>
      </trkpt>
      <trkpt lat="46.56954" lon="5.35192">
        <ele>213.4</ele>
        <time>2022-08-20T11:12:02Z</time>
      </trkpt>
      <trkpt lat="46.56966" lon="5.35207">
        <ele>213.4</ele>
        <time>2022-08-20T11:12:04Z</time>
      </trkpt>
      <trkpt lat="46.56971" lon="5.35218">
        <ele>213.2</ele>
        <time>2022-08-20T11:12:05Z</time>
      </trkpt>
      <trkpt lat="46.56974" lon="5.3523">
        <ele>213.2</ele>
        <time>2022-08-20T11:12:06Z</time>
      </trkpt>
      <trkpt lat="46.56978" lon="5.35257">
        <ele>212.2</ele>
        <time>2022-08-20T11:12:08Z</time>
      </trkpt>
      <trkpt lat="46.5698" lon="5.35269">
        <ele>211.8</ele>
        <time>2022-08-20T11:12:09Z</time>
      </trkpt>
      <trkpt lat="46.56987" lon="5.35294">
        <ele>211</ele>
        <time>2022-08-20T11:12:11Z</time>
      </trkpt>
      <trkpt lat="46.56994" lon="5.35318">
        <ele>210.2</ele>
        <time>2022-08-20T11:12:13Z</time>
      </trkpt>
      <trkpt lat="46.56998" lon="5.3533">
        <ele>209.8</ele>
        <time>2022-08-20T11:12:14Z</time>
      </trkpt>
      <trkpt lat="46.57006" lon="5.35352">
        <ele>208.8</ele>
        <time>2022-08-20T11:12:16Z</time>
      </trkpt>
      <trkpt lat="46.57013" lon="5.35375">
        <ele>207.8</ele>
        <time>2022-08-20T11:12:18Z</time>
      </trkpt>
      <trkpt lat="46.57028" lon="5.3542">
        <ele>206.6</ele>
        <time>2022-08-20T11:12:22Z</time>
      </trkpt>
      <trkpt lat="46.57031" lon="5.35432">
        <ele>206.6</ele>
        <time>2022-08-20T11:12:23Z</time>
      </trkpt>
      <trkpt lat="46.57033" lon="5.35444">
        <ele>206.4</ele>
        <time>2022-08-20T11:12:24Z</time>
      </trkpt>
      <trkpt lat="46.57038" lon="5.35492">
        <ele>206</ele>
        <time>2022-08-20T11:12:28Z</time>
      </trkpt>
      <trkpt lat="46.57045" lon="5.35578">
        <ele>206.4</ele>
        <time>2022-08-20T11:12:35Z</time>
      </trkpt>
      <trkpt lat="46.57047" lon="5.35591">
        <ele>206.4</ele>
        <time>2022-08-20T11:12:36Z</time>
      </trkpt>
      <trkpt lat="46.57049" lon="5.35603">
        <ele>206.4</ele>
        <time>2022-08-20T11:12:37Z</time>
      </trkpt>
      <trkpt lat="46.57052" lon="5.35615">
        <ele>206</ele>
        <time>2022-08-20T11:12:38Z</time>
      </trkpt>
      <trkpt lat="46.57057" lon="5.35626">
        <ele>205.8</ele>
        <time>2022-08-20T11:12:39Z</time>
      </trkpt>
      <trkpt lat="46.57062" lon="5.35636">
        <ele>205.2</ele>
        <time>2022-08-20T11:12:40Z</time>
      </trkpt>
      <trkpt lat="46.57074" lon="5.35652">
        <ele>204.8</ele>
        <time>2022-08-20T11:12:42Z</time>
      </trkpt>
      <trkpt lat="46.571" lon="5.35683">
        <ele>204.6</ele>
        <time>2022-08-20T11:12:46Z</time>
      </trkpt>
      <trkpt lat="46.57113" lon="5.35698">
        <ele>204.8</ele>
        <time>2022-08-20T11:12:48Z</time>
      </trkpt>
      <trkpt lat="46.57125" lon="5.35712">
        <ele>205</ele>
        <time>2022-08-20T11:12:50Z</time>
      </trkpt>
      <trkpt lat="46.57138" lon="5.35726">
        <ele>205.4</ele>
        <time>2022-08-20T11:12:52Z</time>
      </trkpt>
      <trkpt lat="46.57172" lon="5.35752">
        <ele>205.6</ele>
        <time>2022-08-20T11:12:57Z</time>
      </trkpt>
      <trkpt lat="46.57228" lon="5.35787">
        <ele>205.4</ele>
        <time>2022-08-20T11:13:05Z</time>
      </trkpt>
      <trkpt lat="46.57248" lon="5.358">
        <ele>205.4</ele>
        <time>2022-08-20T11:13:08Z</time>
      </trkpt>
      <trkpt lat="46.57294" lon="5.35829">
        <ele>206.2</ele>
        <time>2022-08-20T11:13:15Z</time>
      </trkpt>
      <trkpt lat="46.57328" lon="5.3584">
        <ele>206.8</ele>
        <time>2022-08-20T11:13:20Z</time>
      </trkpt>
      <trkpt lat="46.57335" lon="5.3584">
        <ele>206.8</ele>
        <time>2022-08-20T11:13:21Z</time>
      </trkpt>
      <trkpt lat="46.57341" lon="5.3584">
        <ele>206.8</ele>
        <time>2022-08-20T11:13:22Z</time>
      </trkpt>
      <trkpt lat="46.57348" lon="5.35838">
        <ele>206.6</ele>
        <time>2022-08-20T11:13:23Z</time>
      </trkpt>
      <trkpt lat="46.57354" lon="5.35835">
        <ele>206.6</ele>
        <time>2022-08-20T11:13:24Z</time>
      </trkpt>
      <trkpt lat="46.57359" lon="5.35831">
        <ele>206.8</ele>
        <time>2022-08-20T11:13:25Z</time>
      </trkpt>
      <trkpt lat="46.57369" lon="5.3582">
        <ele>206.8</ele>
        <time>2022-08-20T11:13:27Z</time>
      </trkpt>
      <trkpt lat="46.57374" lon="5.35813">
        <ele>206.8</ele>
        <time>2022-08-20T11:13:28Z</time>
      </trkpt>
      <trkpt lat="46.57388" lon="5.35789">
        <ele>207.4</ele>
        <time>2022-08-20T11:13:32Z</time>
      </trkpt>
      <trkpt lat="46.57391" lon="5.35783">
        <ele>207.8</ele>
        <time>2022-08-20T11:13:33Z</time>
      </trkpt>
      <trkpt lat="46.57394" lon="5.35776">
        <ele>208.4</ele>
        <time>2022-08-20T11:13:34Z</time>
      </trkpt>
      <trkpt lat="46.574" lon="5.35764">
        <ele>209.2</ele>
        <time>2022-08-20T11:13:36Z</time>
      </trkpt>
      <trkpt lat="46.5741" lon="5.35753">
        <ele>209.6</ele>
        <time>2022-08-20T11:13:38Z</time>
      </trkpt>
      <trkpt lat="46.57422" lon="5.35743">
        <ele>210</ele>
        <time>2022-08-20T11:13:40Z</time>
      </trkpt>
      <trkpt lat="46.57437" lon="5.35735">
        <ele>210</ele>
        <time>2022-08-20T11:13:42Z</time>
      </trkpt>
      <trkpt lat="46.57479" lon="5.35709">
        <ele>208.6</ele>
        <time>2022-08-20T11:13:47Z</time>
      </trkpt>
      <trkpt lat="46.57488" lon="5.35703">
        <ele>207.6</ele>
        <time>2022-08-20T11:13:48Z</time>
      </trkpt>
      <trkpt lat="46.57506" lon="5.35691">
        <ele>206.2</ele>
        <time>2022-08-20T11:13:50Z</time>
      </trkpt>
      <trkpt lat="46.57524" lon="5.35678">
        <ele>205</ele>
        <time>2022-08-20T11:13:52Z</time>
      </trkpt>
      <trkpt lat="46.57533" lon="5.3567">
        <ele>204.6</ele>
        <time>2022-08-20T11:13:53Z</time>
      </trkpt>
      <trkpt lat="46.57549" lon="5.35652">
        <ele>203.6</ele>
        <time>2022-08-20T11:13:55Z</time>
      </trkpt>
      <trkpt lat="46.57562" lon="5.35631">
        <ele>202.6</ele>
        <time>2022-08-20T11:13:57Z</time>
      </trkpt>
      <trkpt lat="46.57585" lon="5.35601">
        <ele>200.6</ele>
        <time>2022-08-20T11:14:00Z</time>
      </trkpt>
      <trkpt lat="46.57593" lon="5.35594">
        <ele>200.4</ele>
        <time>2022-08-20T11:14:01Z</time>
      </trkpt>
      <trkpt lat="46.57618" lon="5.35572">
        <ele>199.4</ele>
        <time>2022-08-20T11:14:04Z</time>
      </trkpt>
      <trkpt lat="46.57632" lon="5.35556">
        <ele>199.4</ele>
        <time>2022-08-20T11:14:06Z</time>
      </trkpt>
      <trkpt lat="46.57669" lon="5.35523">
        <ele>199</ele>
        <time>2022-08-20T11:14:11Z</time>
      </trkpt>
      <trkpt lat="46.57711" lon="5.35495">
        <ele>199.4</ele>
        <time>2022-08-20T11:14:17Z</time>
      </trkpt>
      <trkpt lat="46.57737" lon="5.35477">
        <ele>200.8</ele>
        <time>2022-08-20T11:14:22Z</time>
      </trkpt>
      <trkpt lat="46.57741" lon="5.35474">
        <ele>201.8</ele>
        <time>2022-08-20T11:14:23Z</time>
      </trkpt>
      <trkpt lat="46.57746" lon="5.3547">
        <ele>202.4</ele>
        <time>2022-08-20T11:14:24Z</time>
      </trkpt>
      <trkpt lat="46.57755" lon="5.35464">
        <ele>203.4</ele>
        <time>2022-08-20T11:14:26Z</time>
      </trkpt>
      <trkpt lat="46.57763" lon="5.35459">
        <ele>204.2</ele>
        <time>2022-08-20T11:14:28Z</time>
      </trkpt>
      <trkpt lat="46.57766" lon="5.35456">
        <ele>204.4</ele>
        <time>2022-08-20T11:14:29Z</time>
      </trkpt>
      <trkpt lat="46.57769" lon="5.35454">
        <ele>204.8</ele>
        <time>2022-08-20T11:14:30Z</time>
      </trkpt>
      <trkpt lat="46.57779" lon="5.35447">
        <ele>206</ele>
        <time>2022-08-20T11:14:33Z</time>
      </trkpt>
      <trkpt lat="46.57787" lon="5.35441">
        <ele>206.4</ele>
        <time>2022-08-20T11:14:35Z</time>
      </trkpt>
      <trkpt lat="46.57798" lon="5.35433">
        <ele>207.4</ele>
        <time>2022-08-20T11:14:38Z</time>
      </trkpt>
      <trkpt lat="46.57808" lon="5.35428">
        <ele>208.6</ele>
        <time>2022-08-20T11:14:41Z</time>
      </trkpt>
      <trkpt lat="46.57815" lon="5.35432">
        <ele>209</ele>
        <time>2022-08-20T11:14:43Z</time>
      </trkpt>
      <trkpt lat="46.5782" lon="5.35442">
        <ele>209.6</ele>
        <time>2022-08-20T11:14:45Z</time>
      </trkpt>
      <trkpt lat="46.57822" lon="5.35463">
        <ele>210.2</ele>
        <time>2022-08-20T11:14:48Z</time>
      </trkpt>
      <trkpt lat="46.57824" lon="5.35472">
        <ele>210.6</ele>
        <time>2022-08-20T11:14:49Z</time>
      </trkpt>
      <trkpt lat="46.57824" lon="5.35478">
        <ele>210.6</ele>
        <time>2022-08-20T11:14:50Z</time>
      </trkpt>
      <trkpt lat="46.57827" lon="5.35496">
        <ele>210.8</ele>
        <time>2022-08-20T11:14:52Z</time>
      </trkpt>
      <trkpt lat="46.57829" lon="5.35503">
        <ele>210.8</ele>
        <time>2022-08-20T11:14:53Z</time>
      </trkpt>
      <trkpt lat="46.57836" lon="5.35524">
        <ele>210.8</ele>
        <time>2022-08-20T11:14:55Z</time>
      </trkpt>
      <trkpt lat="46.57845" lon="5.35543">
        <ele>210.6</ele>
        <time>2022-08-20T11:14:57Z</time>
      </trkpt>
      <trkpt lat="46.57865" lon="5.35586">
        <ele>209.2</ele>
        <time>2022-08-20T11:15:01Z</time>
      </trkpt>
      <trkpt lat="46.57868" lon="5.35596">
        <ele>209</ele>
        <time>2022-08-20T11:15:02Z</time>
      </trkpt>
      <trkpt lat="46.57872" lon="5.35611">
        <ele>208.4</ele>
        <time>2022-08-20T11:15:03Z</time>
      </trkpt>
      <trkpt lat="46.57873" lon="5.35621">
        <ele>208</ele>
        <time>2022-08-20T11:15:04Z</time>
      </trkpt>
      <trkpt lat="46.57875" lon="5.35632">
        <ele>207.6</ele>
        <time>2022-08-20T11:15:05Z</time>
      </trkpt>
      <trkpt lat="46.57884" lon="5.35686">
        <ele>207.2</ele>
        <time>2022-08-20T11:15:10Z</time>
      </trkpt>
      <trkpt lat="46.57902" lon="5.35727">
        <ele>208</ele>
        <time>2022-08-20T11:15:15Z</time>
      </trkpt>
      <trkpt lat="46.57935" lon="5.35802">
        <ele>208.4</ele>
        <time>2022-08-20T11:15:23Z</time>
      </trkpt>
      <trkpt lat="46.57938" lon="5.35825">
        <ele>208.2</ele>
        <time>2022-08-20T11:15:25Z</time>
      </trkpt>
      <trkpt lat="46.57937" lon="5.35837">
        <ele>208.2</ele>
        <time>2022-08-20T11:15:26Z</time>
      </trkpt>
      <trkpt lat="46.57935" lon="5.35845">
        <ele>207.8</ele>
        <time>2022-08-20T11:15:27Z</time>
      </trkpt>
      <trkpt lat="46.57927" lon="5.35878">
        <ele>207.2</ele>
        <time>2022-08-20T11:15:30Z</time>
      </trkpt>
      <trkpt lat="46.57924" lon="5.35889">
        <ele>206.8</ele>
        <time>2022-08-20T11:15:31Z</time>
      </trkpt>
      <trkpt lat="46.57911" lon="5.35946">
        <ele>206.2</ele>
        <time>2022-08-20T11:15:36Z</time>
      </trkpt>
      <trkpt lat="46.57911" lon="5.35958">
        <ele>206</ele>
        <time>2022-08-20T11:15:37Z</time>
      </trkpt>
      <trkpt lat="46.57918" lon="5.35983">
        <ele>205.8</ele>
        <time>2022-08-20T11:15:39Z</time>
      </trkpt>
      <trkpt lat="46.57941" lon="5.36005">
        <ele>204.8</ele>
        <time>2022-08-20T11:15:42Z</time>
      </trkpt>
      <trkpt lat="46.57962" lon="5.36027">
        <ele>203.8</ele>
        <time>2022-08-20T11:15:45Z</time>
      </trkpt>
      <trkpt lat="46.57968" lon="5.36035">
        <ele>203.8</ele>
        <time>2022-08-20T11:15:46Z</time>
      </trkpt>
      <trkpt lat="46.57974" lon="5.36043">
        <ele>203.8</ele>
        <time>2022-08-20T11:15:47Z</time>
      </trkpt>
      <trkpt lat="46.5799" lon="5.36069">
        <ele>203.6</ele>
        <time>2022-08-20T11:15:50Z</time>
      </trkpt>
      <trkpt lat="46.5801" lon="5.36114">
        <ele>204.2</ele>
        <time>2022-08-20T11:15:55Z</time>
      </trkpt>
      <trkpt lat="46.58016" lon="5.36135">
        <ele>204.6</ele>
        <time>2022-08-20T11:15:57Z</time>
      </trkpt>
      <trkpt lat="46.58018" lon="5.36154">
        <ele>204.8</ele>
        <time>2022-08-20T11:15:59Z</time>
      </trkpt>
      <trkpt lat="46.58017" lon="5.36206">
        <ele>206</ele>
        <time>2022-08-20T11:16:04Z</time>
      </trkpt>
      <trkpt lat="46.58016" lon="5.36264">
        <ele>206.6</ele>
        <time>2022-08-20T11:16:10Z</time>
      </trkpt>
      <trkpt lat="46.58017" lon="5.36275">
        <ele>206.6</ele>
        <time>2022-08-20T11:16:11Z</time>
      </trkpt>
      <trkpt lat="46.58019" lon="5.36316">
        <ele>206.6</ele>
        <time>2022-08-20T11:16:15Z</time>
      </trkpt>
      <trkpt lat="46.58026" lon="5.36333">
        <ele>206.6</ele>
        <time>2022-08-20T11:16:17Z</time>
      </trkpt>
      <trkpt lat="46.5803" lon="5.36342">
        <ele>206.6</ele>
        <time>2022-08-20T11:16:18Z</time>
      </trkpt>
      <trkpt lat="46.58034" lon="5.3635">
        <ele>206.6</ele>
        <time>2022-08-20T11:16:19Z</time>
      </trkpt>
      <trkpt lat="46.58044" lon="5.36365">
        <ele>206.6</ele>
        <time>2022-08-20T11:16:21Z</time>
      </trkpt>
      <trkpt lat="46.58055" lon="5.36378">
        <ele>206.8</ele>
        <time>2022-08-20T11:16:23Z</time>
      </trkpt>
      <trkpt lat="46.58074" lon="5.36408">
        <ele>206.8</ele>
        <time>2022-08-20T11:16:27Z</time>
      </trkpt>
      <trkpt lat="46.58081" lon="5.36423">
        <ele>207</ele>
        <time>2022-08-20T11:16:29Z</time>
      </trkpt>
      <trkpt lat="46.58089" lon="5.36437">
        <ele>207</ele>
        <time>2022-08-20T11:16:31Z</time>
      </trkpt>
      <trkpt lat="46.5811" lon="5.36485">
        <ele>207.6</ele>
        <time>2022-08-20T11:16:37Z</time>
      </trkpt>
      <trkpt lat="46.58116" lon="5.365">
        <ele>207.8</ele>
        <time>2022-08-20T11:16:39Z</time>
      </trkpt>
      <trkpt lat="46.58123" lon="5.36537">
        <ele>207.8</ele>
        <time>2022-08-20T11:16:43Z</time>
      </trkpt>
      <trkpt lat="46.58123" lon="5.36582">
        <ele>208.4</ele>
        <time>2022-08-20T11:16:48Z</time>
      </trkpt>
      <trkpt lat="46.58125" lon="5.366">
        <ele>208.6</ele>
        <time>2022-08-20T11:16:50Z</time>
      </trkpt>
      <trkpt lat="46.5813" lon="5.36616">
        <ele>208.8</ele>
        <time>2022-08-20T11:16:52Z</time>
      </trkpt>
      <trkpt lat="46.58133" lon="5.36624">
        <ele>208.8</ele>
        <time>2022-08-20T11:16:53Z</time>
      </trkpt>
      <trkpt lat="46.58154" lon="5.36681">
        <ele>209.2</ele>
        <time>2022-08-20T11:17:00Z</time>
      </trkpt>
      <trkpt lat="46.58178" lon="5.36733">
        <ele>209</ele>
        <time>2022-08-20T11:17:06Z</time>
      </trkpt>
      <trkpt lat="46.58202" lon="5.36793">
        <ele>208.4</ele>
        <time>2022-08-20T11:17:13Z</time>
      </trkpt>
      <trkpt lat="46.58231" lon="5.36866">
        <ele>209</ele>
        <time>2022-08-20T11:17:22Z</time>
      </trkpt>
      <trkpt lat="46.58237" lon="5.36881">
        <ele>209.4</ele>
        <time>2022-08-20T11:17:24Z</time>
      </trkpt>
      <trkpt lat="46.58256" lon="5.36923">
        <ele>210</ele>
        <time>2022-08-20T11:17:30Z</time>
      </trkpt>
      <trkpt lat="46.58281" lon="5.36973">
        <ele>211</ele>
        <time>2022-08-20T11:17:37Z</time>
      </trkpt>
      <trkpt lat="46.58286" lon="5.36979">
        <ele>211</ele>
        <time>2022-08-20T11:17:38Z</time>
      </trkpt>
      <trkpt lat="46.58291" lon="5.36984">
        <ele>211.2</ele>
        <time>2022-08-20T11:17:39Z</time>
      </trkpt>
      <trkpt lat="46.58297" lon="5.36989">
        <ele>211.2</ele>
        <time>2022-08-20T11:17:40Z</time>
      </trkpt>
      <trkpt lat="46.58303" lon="5.36992">
        <ele>211.4</ele>
        <time>2022-08-20T11:17:41Z</time>
      </trkpt>
      <trkpt lat="46.58342" lon="5.3701">
        <ele>212.2</ele>
        <time>2022-08-20T11:17:48Z</time>
      </trkpt>
      <trkpt lat="46.58369" lon="5.37023">
        <ele>213.4</ele>
        <time>2022-08-20T11:17:53Z</time>
      </trkpt>
      <trkpt lat="46.5839" lon="5.37034">
        <ele>214.2</ele>
        <time>2022-08-20T11:17:57Z</time>
      </trkpt>
      <trkpt lat="46.58401" lon="5.37038">
        <ele>214.4</ele>
        <time>2022-08-20T11:17:59Z</time>
      </trkpt>
      <trkpt lat="46.58431" lon="5.37052">
        <ele>215.6</ele>
        <time>2022-08-20T11:18:05Z</time>
      </trkpt>
      <trkpt lat="46.5845" lon="5.37063">
        <ele>216.6</ele>
        <time>2022-08-20T11:18:09Z</time>
      </trkpt>
      <trkpt lat="46.58463" lon="5.37071">
        <ele>217</ele>
        <time>2022-08-20T11:18:12Z</time>
      </trkpt>
      <trkpt lat="46.58476" lon="5.37079">
        <ele>217.8</ele>
        <time>2022-08-20T11:18:15Z</time>
      </trkpt>
      <trkpt lat="46.5849" lon="5.3709">
        <ele>218.4</ele>
        <time>2022-08-20T11:18:18Z</time>
      </trkpt>
      <trkpt lat="46.58497" lon="5.37097">
        <ele>218.8</ele>
        <time>2022-08-20T11:18:20Z</time>
      </trkpt>
      <trkpt lat="46.58527" lon="5.37133">
        <ele>219</ele>
        <time>2022-08-20T11:18:27Z</time>
      </trkpt>
      <trkpt lat="46.58541" lon="5.37153">
        <ele>219</ele>
        <time>2022-08-20T11:18:30Z</time>
      </trkpt>
      <trkpt lat="46.58547" lon="5.37163">
        <ele>218.8</ele>
        <time>2022-08-20T11:18:31Z</time>
      </trkpt>
      <trkpt lat="46.58551" lon="5.37172">
        <ele>218.4</ele>
        <time>2022-08-20T11:18:32Z</time>
      </trkpt>
      <trkpt lat="46.5857" lon="5.3722">
        <ele>217.6</ele>
        <time>2022-08-20T11:18:37Z</time>
      </trkpt>
      <trkpt lat="46.58577" lon="5.37239">
        <ele>217.2</ele>
        <time>2022-08-20T11:18:39Z</time>
      </trkpt>
      <trkpt lat="46.58596" lon="5.37307">
        <ele>217.2</ele>
        <time>2022-08-20T11:18:46Z</time>
      </trkpt>
      <trkpt lat="46.58613" lon="5.37382">
        <ele>217.6</ele>
        <time>2022-08-20T11:18:54Z</time>
      </trkpt>
      <trkpt lat="46.58636" lon="5.37461">
        <ele>218</ele>
        <time>2022-08-20T11:19:02Z</time>
      </trkpt>
      <trkpt lat="46.58665" lon="5.37515">
        <ele>218</ele>
        <time>2022-08-20T11:19:08Z</time>
      </trkpt>
      <trkpt lat="46.58696" lon="5.37556">
        <ele>218</ele>
        <time>2022-08-20T11:19:14Z</time>
      </trkpt>
      <trkpt lat="46.5872" lon="5.37585">
        <ele>218.6</ele>
        <time>2022-08-20T11:19:19Z</time>
      </trkpt>
      <trkpt lat="46.58745" lon="5.37616">
        <ele>219.6</ele>
        <time>2022-08-20T11:19:25Z</time>
      </trkpt>
      <trkpt lat="46.5875" lon="5.37621">
        <ele>220</ele>
        <time>2022-08-20T11:19:26Z</time>
      </trkpt>
      <trkpt lat="46.58759" lon="5.37631">
        <ele>220.4</ele>
        <time>2022-08-20T11:19:28Z</time>
      </trkpt>
      <trkpt lat="46.58771" lon="5.37649">
        <ele>220.8</ele>
        <time>2022-08-20T11:19:31Z</time>
      </trkpt>
      <trkpt lat="46.58775" lon="5.37657">
        <ele>220.8</ele>
        <time>2022-08-20T11:19:32Z</time>
      </trkpt>
      <trkpt lat="46.58809" lon="5.37725">
        <ele>221.8</ele>
        <time>2022-08-20T11:19:41Z</time>
      </trkpt>
      <trkpt lat="46.58813" lon="5.37733">
        <ele>221.8</ele>
        <time>2022-08-20T11:19:42Z</time>
      </trkpt>
      <trkpt lat="46.58847" lon="5.37804">
        <ele>221.8</ele>
        <time>2022-08-20T11:19:51Z</time>
      </trkpt>
      <trkpt lat="46.58856" lon="5.37821">
        <ele>221.8</ele>
        <time>2022-08-20T11:19:53Z</time>
      </trkpt>
      <trkpt lat="46.58885" lon="5.37859">
        <ele>221.8</ele>
        <time>2022-08-20T11:19:59Z</time>
      </trkpt>
      <trkpt lat="46.58913" lon="5.37884">
        <ele>222.2</ele>
        <time>2022-08-20T11:20:04Z</time>
      </trkpt>
      <trkpt lat="46.58926" lon="5.37893">
        <ele>222</ele>
        <time>2022-08-20T11:20:06Z</time>
      </trkpt>
      <trkpt lat="46.58945" lon="5.37908">
        <ele>221.8</ele>
        <time>2022-08-20T11:20:09Z</time>
      </trkpt>
      <trkpt lat="46.58957" lon="5.37925">
        <ele>221.8</ele>
        <time>2022-08-20T11:20:11Z</time>
      </trkpt>
      <trkpt lat="46.58979" lon="5.37979">
        <ele>221.4</ele>
        <time>2022-08-20T11:20:17Z</time>
      </trkpt>
      <trkpt lat="46.59008" lon="5.38056">
        <ele>221</ele>
        <time>2022-08-20T11:20:25Z</time>
      </trkpt>
      <trkpt lat="46.59019" lon="5.38085">
        <ele>221.2</ele>
        <time>2022-08-20T11:20:28Z</time>
      </trkpt>
      <trkpt lat="46.59022" lon="5.38095">
        <ele>221</ele>
        <time>2022-08-20T11:20:29Z</time>
      </trkpt>
      <trkpt lat="46.59044" lon="5.38155">
        <ele>221.2</ele>
        <time>2022-08-20T11:20:35Z</time>
      </trkpt>
      <trkpt lat="46.59072" lon="5.38234">
        <ele>221.6</ele>
        <time>2022-08-20T11:20:43Z</time>
      </trkpt>
      <trkpt lat="46.59086" lon="5.38274">
        <ele>221.4</ele>
        <time>2022-08-20T11:20:47Z</time>
      </trkpt>
      <trkpt lat="46.59111" lon="5.38354">
        <ele>220.6</ele>
        <time>2022-08-20T11:20:55Z</time>
      </trkpt>
      <trkpt lat="46.59114" lon="5.38364">
        <ele>220.6</ele>
        <time>2022-08-20T11:20:56Z</time>
      </trkpt>
      <trkpt lat="46.59135" lon="5.38431">
        <ele>220.2</ele>
        <time>2022-08-20T11:21:03Z</time>
      </trkpt>
      <trkpt lat="46.59141" lon="5.38448">
        <ele>220.4</ele>
        <time>2022-08-20T11:21:05Z</time>
      </trkpt>
      <trkpt lat="46.59153" lon="5.3847">
        <ele>220.4</ele>
        <time>2022-08-20T11:21:08Z</time>
      </trkpt>
      <trkpt lat="46.59183" lon="5.38515">
        <ele>221.2</ele>
        <time>2022-08-20T11:21:15Z</time>
      </trkpt>
      <trkpt lat="46.59197" lon="5.3853">
        <ele>221.8</ele>
        <time>2022-08-20T11:21:18Z</time>
      </trkpt>
      <trkpt lat="46.59207" lon="5.38539">
        <ele>222</ele>
        <time>2022-08-20T11:21:20Z</time>
      </trkpt>
      <trkpt lat="46.59216" lon="5.3855">
        <ele>222.4</ele>
        <time>2022-08-20T11:21:22Z</time>
      </trkpt>
      <trkpt lat="46.59239" lon="5.38573">
        <ele>222.8</ele>
        <time>2022-08-20T11:21:26Z</time>
      </trkpt>
      <trkpt lat="46.59286" lon="5.38625">
        <ele>222.8</ele>
        <time>2022-08-20T11:21:34Z</time>
      </trkpt>
      <trkpt lat="46.59292" lon="5.38631">
        <ele>222.8</ele>
        <time>2022-08-20T11:21:35Z</time>
      </trkpt>
      <trkpt lat="46.59338" lon="5.38681">
        <ele>222.2</ele>
        <time>2022-08-20T11:21:43Z</time>
      </trkpt>
      <trkpt lat="46.59349" lon="5.38693">
        <ele>222.2</ele>
        <time>2022-08-20T11:21:45Z</time>
      </trkpt>
      <trkpt lat="46.59398" lon="5.38745">
        <ele>222.4</ele>
        <time>2022-08-20T11:21:54Z</time>
      </trkpt>
      <trkpt lat="46.59429" lon="5.38781">
        <ele>222.6</ele>
        <time>2022-08-20T11:22:00Z</time>
      </trkpt>
      <trkpt lat="46.59434" lon="5.38788">
        <ele>222.8</ele>
        <time>2022-08-20T11:22:01Z</time>
      </trkpt>
      <trkpt lat="46.59441" lon="5.38803">
        <ele>222.8</ele>
        <time>2022-08-20T11:22:03Z</time>
      </trkpt>
      <trkpt lat="46.59446" lon="5.38823">
        <ele>223</ele>
        <time>2022-08-20T11:22:05Z</time>
      </trkpt>
      <trkpt lat="46.59447" lon="5.38833">
        <ele>223.2</ele>
        <time>2022-08-20T11:22:06Z</time>
      </trkpt>
      <trkpt lat="46.59449" lon="5.38861">
        <ele>223.2</ele>
        <time>2022-08-20T11:22:09Z</time>
      </trkpt>
      <trkpt lat="46.59451" lon="5.38881">
        <ele>223.2</ele>
        <time>2022-08-20T11:22:11Z</time>
      </trkpt>
      <trkpt lat="46.59454" lon="5.38899">
        <ele>223.2</ele>
        <time>2022-08-20T11:22:13Z</time>
      </trkpt>
      <trkpt lat="46.59457" lon="5.38909">
        <ele>223.2</ele>
        <time>2022-08-20T11:22:14Z</time>
      </trkpt>
      <trkpt lat="46.59475" lon="5.38959">
        <ele>223</ele>
        <time>2022-08-20T11:22:19Z</time>
      </trkpt>
      <trkpt lat="46.5948" lon="5.38981">
        <ele>222.8</ele>
        <time>2022-08-20T11:22:21Z</time>
      </trkpt>
      <trkpt lat="46.59484" lon="5.39014">
        <ele>222.6</ele>
        <time>2022-08-20T11:22:24Z</time>
      </trkpt>
      <trkpt lat="46.59492" lon="5.39092">
        <ele>222.2</ele>
        <time>2022-08-20T11:22:31Z</time>
      </trkpt>
      <trkpt lat="46.59495" lon="5.39121">
        <ele>222.2</ele>
        <time>2022-08-20T11:22:34Z</time>
      </trkpt>
      <trkpt lat="46.59505" lon="5.3918">
        <ele>222.8</ele>
        <time>2022-08-20T11:22:40Z</time>
      </trkpt>
      <trkpt lat="46.59508" lon="5.39188">
        <ele>222.8</ele>
        <time>2022-08-20T11:22:41Z</time>
      </trkpt>
      <trkpt lat="46.59518" lon="5.39201">
        <ele>223</ele>
        <time>2022-08-20T11:22:43Z</time>
      </trkpt>
      <trkpt lat="46.5953" lon="5.3921">
        <ele>223</ele>
        <time>2022-08-20T11:22:45Z</time>
      </trkpt>
      <trkpt lat="46.59538" lon="5.39212">
        <ele>223</ele>
        <time>2022-08-20T11:22:46Z</time>
      </trkpt>
      <trkpt lat="46.59545" lon="5.39213">
        <ele>223</ele>
        <time>2022-08-20T11:22:47Z</time>
      </trkpt>
      <trkpt lat="46.59567" lon="5.3921">
        <ele>223.2</ele>
        <time>2022-08-20T11:22:50Z</time>
      </trkpt>
      <trkpt lat="46.59579" lon="5.39206">
        <ele>223.4</ele>
        <time>2022-08-20T11:22:52Z</time>
      </trkpt>
      <trkpt lat="46.59586" lon="5.39203">
        <ele>223.4</ele>
        <time>2022-08-20T11:22:53Z</time>
      </trkpt>
      <trkpt lat="46.59606" lon="5.39193">
        <ele>223.4</ele>
        <time>2022-08-20T11:22:56Z</time>
      </trkpt>
      <trkpt lat="46.59619" lon="5.39189">
        <ele>223.6</ele>
        <time>2022-08-20T11:22:58Z</time>
      </trkpt>
      <trkpt lat="46.5963" lon="5.39189">
        <ele>223.6</ele>
        <time>2022-08-20T11:23:00Z</time>
      </trkpt>
      <trkpt lat="46.59682" lon="5.39197">
        <ele>224.2</ele>
        <time>2022-08-20T11:23:08Z</time>
      </trkpt>
      <trkpt lat="46.59688" lon="5.39199">
        <ele>224.4</ele>
        <time>2022-08-20T11:23:09Z</time>
      </trkpt>
      <trkpt lat="46.59718" lon="5.39206">
        <ele>224.8</ele>
        <time>2022-08-20T11:23:14Z</time>
      </trkpt>
      <trkpt lat="46.59729" lon="5.39216">
        <ele>224.8</ele>
        <time>2022-08-20T11:23:16Z</time>
      </trkpt>
      <trkpt lat="46.59738" lon="5.39225">
        <ele>225</ele>
        <time>2022-08-20T11:23:18Z</time>
      </trkpt>
      <trkpt lat="46.59743" lon="5.39225">
        <ele>225</ele>
        <time>2022-08-20T11:23:19Z</time>
      </trkpt>
      <trkpt lat="46.59748" lon="5.39223">
        <ele>225</ele>
        <time>2022-08-20T11:23:20Z</time>
      </trkpt>
      <trkpt lat="46.59759" lon="5.39215">
        <ele>224.8</ele>
        <time>2022-08-20T11:23:22Z</time>
      </trkpt>
      <trkpt lat="46.59764" lon="5.39211">
        <ele>224.6</ele>
        <time>2022-08-20T11:23:23Z</time>
      </trkpt>
      <trkpt lat="46.59772" lon="5.39205">
        <ele>224.6</ele>
        <time>2022-08-20T11:23:24Z</time>
      </trkpt>
      <trkpt lat="46.59791" lon="5.39198">
        <ele>224.4</ele>
        <time>2022-08-20T11:23:27Z</time>
      </trkpt>
      <trkpt lat="46.59798" lon="5.39196">
        <ele>224</ele>
        <time>2022-08-20T11:23:28Z</time>
      </trkpt>
      <trkpt lat="46.5982" lon="5.39195">
        <ele>223.6</ele>
        <time>2022-08-20T11:23:31Z</time>
      </trkpt>
      <trkpt lat="46.59842" lon="5.39198">
        <ele>223.4</ele>
        <time>2022-08-20T11:23:34Z</time>
      </trkpt>
      <trkpt lat="46.59873" lon="5.39199">
        <ele>223.2</ele>
        <time>2022-08-20T11:23:38Z</time>
      </trkpt>
      <trkpt lat="46.59911" lon="5.39189">
        <ele>222.8</ele>
        <time>2022-08-20T11:23:43Z</time>
      </trkpt>
      <trkpt lat="46.59918" lon="5.39187">
        <ele>222.8</ele>
        <time>2022-08-20T11:23:44Z</time>
      </trkpt>
      <trkpt lat="46.5995" lon="5.39185">
        <ele>222.2</ele>
        <time>2022-08-20T11:23:48Z</time>
      </trkpt>
      <trkpt lat="46.59967" lon="5.39186">
        <ele>221.8</ele>
        <time>2022-08-20T11:23:50Z</time>
      </trkpt>
      <trkpt lat="46.59976" lon="5.39187">
        <ele>221.6</ele>
        <time>2022-08-20T11:23:51Z</time>
      </trkpt>
      <trkpt lat="46.59992" lon="5.39192">
        <ele>221.2</ele>
        <time>2022-08-20T11:23:53Z</time>
      </trkpt>
      <trkpt lat="46.6" lon="5.39195">
        <ele>221</ele>
        <time>2022-08-20T11:23:54Z</time>
      </trkpt>
      <trkpt lat="46.60015" lon="5.39205">
        <ele>220.4</ele>
        <time>2022-08-20T11:23:56Z</time>
      </trkpt>
      <trkpt lat="46.60029" lon="5.39219">
        <ele>220.2</ele>
        <time>2022-08-20T11:23:58Z</time>
      </trkpt>
      <trkpt lat="46.60035" lon="5.39228">
        <ele>220.2</ele>
        <time>2022-08-20T11:23:59Z</time>
      </trkpt>
      <trkpt lat="46.60041" lon="5.39238">
        <ele>220</ele>
        <time>2022-08-20T11:24:00Z</time>
      </trkpt>
      <trkpt lat="46.60045" lon="5.39249">
        <ele>219.8</ele>
        <time>2022-08-20T11:24:01Z</time>
      </trkpt>
      <trkpt lat="46.60049" lon="5.39262">
        <ele>219.6</ele>
        <time>2022-08-20T11:24:02Z</time>
      </trkpt>
      <trkpt lat="46.60053" lon="5.39291">
        <ele>218.8</ele>
        <time>2022-08-20T11:24:04Z</time>
      </trkpt>
      <trkpt lat="46.60053" lon="5.39336">
        <ele>217.2</ele>
        <time>2022-08-20T11:24:07Z</time>
      </trkpt>
      <trkpt lat="46.60052" lon="5.39351">
        <ele>217</ele>
        <time>2022-08-20T11:24:08Z</time>
      </trkpt>
      <trkpt lat="46.60046" lon="5.39383">
        <ele>215.2</ele>
        <time>2022-08-20T11:24:10Z</time>
      </trkpt>
      <trkpt lat="46.60038" lon="5.39421">
        <ele>214.2</ele>
        <time>2022-08-20T11:24:13Z</time>
      </trkpt>
      <trkpt lat="46.60036" lon="5.39433">
        <ele>214</ele>
        <time>2022-08-20T11:24:14Z</time>
      </trkpt>
      <trkpt lat="46.60034" lon="5.39457">
        <ele>214.4</ele>
        <time>2022-08-20T11:24:16Z</time>
      </trkpt>
      <trkpt lat="46.60035" lon="5.39468">
        <ele>214.4</ele>
        <time>2022-08-20T11:24:17Z</time>
      </trkpt>
      <trkpt lat="46.60036" lon="5.3948">
        <ele>214.6</ele>
        <time>2022-08-20T11:24:18Z</time>
      </trkpt>
      <trkpt lat="46.60041" lon="5.39502">
        <ele>214.6</ele>
        <time>2022-08-20T11:24:20Z</time>
      </trkpt>
      <trkpt lat="46.60066" lon="5.39557">
        <ele>214.2</ele>
        <time>2022-08-20T11:24:25Z</time>
      </trkpt>
      <trkpt lat="46.60081" lon="5.39592">
        <ele>212.6</ele>
        <time>2022-08-20T11:24:28Z</time>
      </trkpt>
      <trkpt lat="46.60084" lon="5.39605">
        <ele>212.4</ele>
        <time>2022-08-20T11:24:29Z</time>
      </trkpt>
      <trkpt lat="46.60088" lon="5.39619">
        <ele>212</ele>
        <time>2022-08-20T11:24:30Z</time>
      </trkpt>
      <trkpt lat="46.60088" lon="5.39633">
        <ele>211.6</ele>
        <time>2022-08-20T11:24:31Z</time>
      </trkpt>
      <trkpt lat="46.60085" lon="5.39663">
        <ele>210.8</ele>
        <time>2022-08-20T11:24:33Z</time>
      </trkpt>
      <trkpt lat="46.60074" lon="5.39692">
        <ele>210</ele>
        <time>2022-08-20T11:24:35Z</time>
      </trkpt>
      <trkpt lat="46.6007" lon="5.39702">
        <ele>209.6</ele>
        <time>2022-08-20T11:24:36Z</time>
      </trkpt>
      <trkpt lat="46.60065" lon="5.39715">
        <ele>209</ele>
        <time>2022-08-20T11:24:37Z</time>
      </trkpt>
      <trkpt lat="46.60062" lon="5.39732">
        <ele>208.6</ele>
        <time>2022-08-20T11:24:38Z</time>
      </trkpt>
      <trkpt lat="46.60063" lon="5.39746">
        <ele>208.4</ele>
        <time>2022-08-20T11:24:39Z</time>
      </trkpt>
      <trkpt lat="46.60066" lon="5.39759">
        <ele>208</ele>
        <time>2022-08-20T11:24:40Z</time>
      </trkpt>
      <trkpt lat="46.6007" lon="5.39771">
        <ele>207.8</ele>
        <time>2022-08-20T11:24:41Z</time>
      </trkpt>
      <trkpt lat="46.60079" lon="5.39796">
        <ele>206.8</ele>
        <time>2022-08-20T11:24:43Z</time>
      </trkpt>
      <trkpt lat="46.60085" lon="5.39807">
        <ele>206.4</ele>
        <time>2022-08-20T11:24:44Z</time>
      </trkpt>
      <trkpt lat="46.60098" lon="5.39827">
        <ele>206</ele>
        <time>2022-08-20T11:24:46Z</time>
      </trkpt>
      <trkpt lat="46.60113" lon="5.39842">
        <ele>205.8</ele>
        <time>2022-08-20T11:24:48Z</time>
      </trkpt>
      <trkpt lat="46.60134" lon="5.39861">
        <ele>205.4</ele>
        <time>2022-08-20T11:24:51Z</time>
      </trkpt>
      <trkpt lat="46.60169" lon="5.39896">
        <ele>205.4</ele>
        <time>2022-08-20T11:24:56Z</time>
      </trkpt>
      <trkpt lat="46.60178" lon="5.39914">
        <ele>205.6</ele>
        <time>2022-08-20T11:24:58Z</time>
      </trkpt>
      <trkpt lat="46.60184" lon="5.39932">
        <ele>205.6</ele>
        <time>2022-08-20T11:25:00Z</time>
      </trkpt>
      <trkpt lat="46.60187" lon="5.39971">
        <ele>206.4</ele>
        <time>2022-08-20T11:25:04Z</time>
      </trkpt>
      <trkpt lat="46.60188" lon="5.39998">
        <ele>206.8</ele>
        <time>2022-08-20T11:25:07Z</time>
      </trkpt>
      <trkpt lat="46.6019" lon="5.40023">
        <ele>207.6</ele>
        <time>2022-08-20T11:25:10Z</time>
      </trkpt>
      <trkpt lat="46.60191" lon="5.4004">
        <ele>208</ele>
        <time>2022-08-20T11:25:12Z</time>
      </trkpt>
      <trkpt lat="46.60192" lon="5.40057">
        <ele>208.4</ele>
        <time>2022-08-20T11:25:14Z</time>
      </trkpt>
      <trkpt lat="46.60191" lon="5.40084">
        <ele>208.8</ele>
        <time>2022-08-20T11:25:17Z</time>
      </trkpt>
      <trkpt lat="46.60192" lon="5.40102">
        <ele>209</ele>
        <time>2022-08-20T11:25:19Z</time>
      </trkpt>
      <trkpt lat="46.60191" lon="5.40113">
        <ele>209.2</ele>
        <time>2022-08-20T11:25:20Z</time>
      </trkpt>
      <trkpt lat="46.60188" lon="5.40136">
        <ele>209.8</ele>
        <time>2022-08-20T11:25:23Z</time>
      </trkpt>
      <trkpt lat="46.60187" lon="5.40144">
        <ele>210</ele>
        <time>2022-08-20T11:25:24Z</time>
      </trkpt>
      <trkpt lat="46.60177" lon="5.40189">
        <ele>210.8</ele>
        <time>2022-08-20T11:25:29Z</time>
      </trkpt>
      <trkpt lat="46.60176" lon="5.40199">
        <ele>210.8</ele>
        <time>2022-08-20T11:25:30Z</time>
      </trkpt>
      <trkpt lat="46.60177" lon="5.4023">
        <ele>210.8</ele>
        <time>2022-08-20T11:25:33Z</time>
      </trkpt>
      <trkpt lat="46.60182" lon="5.40248">
        <ele>210.8</ele>
        <time>2022-08-20T11:25:35Z</time>
      </trkpt>
      <trkpt lat="46.60188" lon="5.40265">
        <ele>210.8</ele>
        <time>2022-08-20T11:25:37Z</time>
      </trkpt>
      <trkpt lat="46.6021" lon="5.40324">
        <ele>210.6</ele>
        <time>2022-08-20T11:25:44Z</time>
      </trkpt>
      <trkpt lat="46.6022" lon="5.40366">
        <ele>210.6</ele>
        <time>2022-08-20T11:25:49Z</time>
      </trkpt>
      <trkpt lat="46.60221" lon="5.40375">
        <ele>210.8</ele>
        <time>2022-08-20T11:25:50Z</time>
      </trkpt>
      <trkpt lat="46.6022" lon="5.40418">
        <ele>210.8</ele>
        <time>2022-08-20T11:25:54Z</time>
      </trkpt>
      <trkpt lat="46.6022" lon="5.40484">
        <ele>209.8</ele>
        <time>2022-08-20T11:25:59Z</time>
      </trkpt>
      <trkpt lat="46.60224" lon="5.40511">
        <ele>209</ele>
        <time>2022-08-20T11:26:01Z</time>
      </trkpt>
      <trkpt lat="46.6023" lon="5.40538">
        <ele>207.6</ele>
        <time>2022-08-20T11:26:03Z</time>
      </trkpt>
      <trkpt lat="46.60233" lon="5.40551">
        <ele>207.2</ele>
        <time>2022-08-20T11:26:04Z</time>
      </trkpt>
      <trkpt lat="46.60235" lon="5.40564">
        <ele>206.8</ele>
        <time>2022-08-20T11:26:05Z</time>
      </trkpt>
      <trkpt lat="46.60235" lon="5.40578">
        <ele>206</ele>
        <time>2022-08-20T11:26:06Z</time>
      </trkpt>
      <trkpt lat="46.60235" lon="5.40591">
        <ele>205.6</ele>
        <time>2022-08-20T11:26:07Z</time>
      </trkpt>
      <trkpt lat="46.6023" lon="5.40616">
        <ele>205.4</ele>
        <time>2022-08-20T11:26:09Z</time>
      </trkpt>
      <trkpt lat="46.60225" lon="5.40628">
        <ele>205.2</ele>
        <time>2022-08-20T11:26:10Z</time>
      </trkpt>
      <trkpt lat="46.60196" lon="5.40678">
        <ele>205.4</ele>
        <time>2022-08-20T11:26:15Z</time>
      </trkpt>
      <trkpt lat="46.6018" lon="5.40708">
        <ele>205.6</ele>
        <time>2022-08-20T11:26:18Z</time>
      </trkpt>
      <trkpt lat="46.60173" lon="5.40732">
        <ele>205.4</ele>
        <time>2022-08-20T11:26:20Z</time>
      </trkpt>
      <trkpt lat="46.60171" lon="5.40757">
        <ele>205.2</ele>
        <time>2022-08-20T11:26:22Z</time>
      </trkpt>
      <trkpt lat="46.60171" lon="5.40769">
        <ele>205.2</ele>
        <time>2022-08-20T11:26:23Z</time>
      </trkpt>
      <trkpt lat="46.60173" lon="5.40782">
        <ele>205</ele>
        <time>2022-08-20T11:26:24Z</time>
      </trkpt>
      <trkpt lat="46.60181" lon="5.40804">
        <ele>204.8</ele>
        <time>2022-08-20T11:26:26Z</time>
      </trkpt>
      <trkpt lat="46.60192" lon="5.40822">
        <ele>204.8</ele>
        <time>2022-08-20T11:26:28Z</time>
      </trkpt>
      <trkpt lat="46.60198" lon="5.40829">
        <ele>205</ele>
        <time>2022-08-20T11:26:29Z</time>
      </trkpt>
      <trkpt lat="46.60232" lon="5.40858">
        <ele>205.4</ele>
        <time>2022-08-20T11:26:34Z</time>
      </trkpt>
      <trkpt lat="46.60262" lon="5.40881">
        <ele>205.8</ele>
        <time>2022-08-20T11:26:39Z</time>
      </trkpt>
      <trkpt lat="46.60274" lon="5.40889">
        <ele>205.8</ele>
        <time>2022-08-20T11:26:41Z</time>
      </trkpt>
      <trkpt lat="46.60288" lon="5.40903">
        <ele>206.2</ele>
        <time>2022-08-20T11:26:44Z</time>
      </trkpt>
      <trkpt lat="46.60302" lon="5.4092">
        <ele>207</ele>
        <time>2022-08-20T11:26:47Z</time>
      </trkpt>
      <trkpt lat="46.60306" lon="5.40926">
        <ele>207.4</ele>
        <time>2022-08-20T11:26:48Z</time>
      </trkpt>
      <trkpt lat="46.6031" lon="5.40932">
        <ele>207.8</ele>
        <time>2022-08-20T11:26:49Z</time>
      </trkpt>
      <trkpt lat="46.60322" lon="5.40955">
        <ele>209</ele>
        <time>2022-08-20T11:26:53Z</time>
      </trkpt>
      <trkpt lat="46.60325" lon="5.4096">
        <ele>209.2</ele>
        <time>2022-08-20T11:26:54Z</time>
      </trkpt>
      <trkpt lat="46.6033" lon="5.4097">
        <ele>210</ele>
        <time>2022-08-20T11:26:56Z</time>
      </trkpt>
      <trkpt lat="46.60342" lon="5.40987">
        <ele>211.6</ele>
        <time>2022-08-20T11:27:00Z</time>
      </trkpt>
      <trkpt lat="46.60353" lon="5.40997">
        <ele>212.6</ele>
        <time>2022-08-20T11:27:03Z</time>
      </trkpt>
      <trkpt lat="46.60367" lon="5.41008">
        <ele>213.6</ele>
        <time>2022-08-20T11:27:07Z</time>
      </trkpt>
      <trkpt lat="46.60387" lon="5.41021">
        <ele>214.8</ele>
        <time>2022-08-20T11:27:12Z</time>
      </trkpt>
      <trkpt lat="46.60391" lon="5.41025">
        <ele>215</ele>
        <time>2022-08-20T11:27:13Z</time>
      </trkpt>
      <trkpt lat="46.60398" lon="5.41032">
        <ele>215.4</ele>
        <time>2022-08-20T11:27:15Z</time>
      </trkpt>
      <trkpt lat="46.60405" lon="5.4104">
        <ele>216</ele>
        <time>2022-08-20T11:27:17Z</time>
      </trkpt>
      <trkpt lat="46.60408" lon="5.41045">
        <ele>216</ele>
        <time>2022-08-20T11:27:18Z</time>
      </trkpt>
      <trkpt lat="46.60414" lon="5.41055">
        <ele>216.6</ele>
        <time>2022-08-20T11:27:20Z</time>
      </trkpt>
      <trkpt lat="46.60416" lon="5.4106">
        <ele>217</ele>
        <time>2022-08-20T11:27:21Z</time>
      </trkpt>
      <trkpt lat="46.60418" lon="5.41066">
        <ele>217</ele>
        <time>2022-08-20T11:27:22Z</time>
      </trkpt>
      <trkpt lat="46.60421" lon="5.41078">
        <ele>217.4</ele>
        <time>2022-08-20T11:27:24Z</time>
      </trkpt>
      <trkpt lat="46.60428" lon="5.41098">
        <ele>217.6</ele>
        <time>2022-08-20T11:27:27Z</time>
      </trkpt>
      <trkpt lat="46.60435" lon="5.41111">
        <ele>217.6</ele>
        <time>2022-08-20T11:27:29Z</time>
      </trkpt>
      <trkpt lat="46.60444" lon="5.41123">
        <ele>217.6</ele>
        <time>2022-08-20T11:27:31Z</time>
      </trkpt>
      <trkpt lat="46.60455" lon="5.41131">
        <ele>217.6</ele>
        <time>2022-08-20T11:27:33Z</time>
      </trkpt>
      <trkpt lat="46.60468" lon="5.41136">
        <ele>217.2</ele>
        <time>2022-08-20T11:27:35Z</time>
      </trkpt>
      <trkpt lat="46.60503" lon="5.41139">
        <ele>216.2</ele>
        <time>2022-08-20T11:27:40Z</time>
      </trkpt>
      <trkpt lat="46.60525" lon="5.41139">
        <ele>216</ele>
        <time>2022-08-20T11:27:43Z</time>
      </trkpt>
      <trkpt lat="46.60541" lon="5.41141">
        <ele>214.8</ele>
        <time>2022-08-20T11:27:45Z</time>
      </trkpt>
      <trkpt lat="46.60549" lon="5.41143">
        <ele>214.6</ele>
        <time>2022-08-20T11:27:46Z</time>
      </trkpt>
      <trkpt lat="46.60566" lon="5.41146">
        <ele>213.8</ele>
        <time>2022-08-20T11:27:48Z</time>
      </trkpt>
      <trkpt lat="46.60597" lon="5.41153">
        <ele>212.4</ele>
        <time>2022-08-20T11:27:52Z</time>
      </trkpt>
      <trkpt lat="46.60613" lon="5.41157">
        <ele>212</ele>
        <time>2022-08-20T11:27:54Z</time>
      </trkpt>
      <trkpt lat="46.60628" lon="5.41163">
        <ele>211.4</ele>
        <time>2022-08-20T11:27:56Z</time>
      </trkpt>
      <trkpt lat="46.60661" lon="5.41174">
        <ele>210.4</ele>
        <time>2022-08-20T11:28:00Z</time>
      </trkpt>
      <trkpt lat="46.60685" lon="5.41185">
        <ele>209.6</ele>
        <time>2022-08-20T11:28:03Z</time>
      </trkpt>
      <trkpt lat="46.60712" lon="5.41212">
        <ele>209.6</ele>
        <time>2022-08-20T11:28:07Z</time>
      </trkpt>
      <trkpt lat="46.60746" lon="5.41255">
        <ele>209.8</ele>
        <time>2022-08-20T11:28:13Z</time>
      </trkpt>
      <trkpt lat="46.60785" lon="5.41297">
        <ele>210.2</ele>
        <time>2022-08-20T11:28:20Z</time>
      </trkpt>
      <trkpt lat="46.60811" lon="5.41322">
        <ele>209.8</ele>
        <time>2022-08-20T11:28:24Z</time>
      </trkpt>
      <trkpt lat="46.60819" lon="5.41328">
        <ele>209.6</ele>
        <time>2022-08-20T11:28:25Z</time>
      </trkpt>
      <trkpt lat="46.60828" lon="5.41331">
        <ele>209.2</ele>
        <time>2022-08-20T11:28:26Z</time>
      </trkpt>
      <trkpt lat="46.60837" lon="5.41334">
        <ele>208.4</ele>
        <time>2022-08-20T11:28:27Z</time>
      </trkpt>
      <trkpt lat="46.60843" lon="5.41332">
        <ele>208</ele>
        <time>2022-08-20T11:28:28Z</time>
      </trkpt>
      <trkpt lat="46.60848" lon="5.4133">
        <ele>207.6</ele>
        <time>2022-08-20T11:28:29Z</time>
      </trkpt>
      <trkpt lat="46.60862" lon="5.4132">
        <ele>206.6</ele>
        <time>2022-08-20T11:28:31Z</time>
      </trkpt>
      <trkpt lat="46.60874" lon="5.41306">
        <ele>206.2</ele>
        <time>2022-08-20T11:28:33Z</time>
      </trkpt>
      <trkpt lat="46.60897" lon="5.41277">
        <ele>205.6</ele>
        <time>2022-08-20T11:28:37Z</time>
      </trkpt>
      <trkpt lat="46.60929" lon="5.41239">
        <ele>205.2</ele>
        <time>2022-08-20T11:28:42Z</time>
      </trkpt>
      <trkpt lat="46.60949" lon="5.41218">
        <ele>204.8</ele>
        <time>2022-08-20T11:28:45Z</time>
      </trkpt>
      <trkpt lat="46.60983" lon="5.41185">
        <ele>204</ele>
        <time>2022-08-20T11:28:50Z</time>
      </trkpt>
      <trkpt lat="46.60997" lon="5.41173">
        <ele>203.6</ele>
        <time>2022-08-20T11:28:52Z</time>
      </trkpt>
      <trkpt lat="46.6101" lon="5.41162">
        <ele>203.2</ele>
        <time>2022-08-20T11:28:54Z</time>
      </trkpt>
      <trkpt lat="46.61024" lon="5.41154">
        <ele>203</ele>
        <time>2022-08-20T11:28:56Z</time>
      </trkpt>
      <trkpt lat="46.61038" lon="5.41153">
        <ele>203</ele>
        <time>2022-08-20T11:28:58Z</time>
      </trkpt>
      <trkpt lat="46.61046" lon="5.41155">
        <ele>203</ele>
        <time>2022-08-20T11:28:59Z</time>
      </trkpt>
      <trkpt lat="46.61051" lon="5.41162">
        <ele>203</ele>
        <time>2022-08-20T11:29:00Z</time>
      </trkpt>
      <trkpt lat="46.61054" lon="5.41171">
        <ele>203.2</ele>
        <time>2022-08-20T11:29:01Z</time>
      </trkpt>
      <trkpt lat="46.6107" lon="5.41231">
        <ele>203.2</ele>
        <time>2022-08-20T11:29:07Z</time>
      </trkpt>
      <trkpt lat="46.61085" lon="5.41265">
        <ele>203.4</ele>
        <time>2022-08-20T11:29:11Z</time>
      </trkpt>
      <trkpt lat="46.61093" lon="5.41278">
        <ele>203.2</ele>
        <time>2022-08-20T11:29:13Z</time>
      </trkpt>
      <trkpt lat="46.6111" lon="5.41312">
        <ele>203</ele>
        <time>2022-08-20T11:29:17Z</time>
      </trkpt>
      <trkpt lat="46.61113" lon="5.41321">
        <ele>202.8</ele>
        <time>2022-08-20T11:29:18Z</time>
      </trkpt>
      <trkpt lat="46.61115" lon="5.4133">
        <ele>202.8</ele>
        <time>2022-08-20T11:29:19Z</time>
      </trkpt>
      <trkpt lat="46.61118" lon="5.41366">
        <ele>202.6</ele>
        <time>2022-08-20T11:29:23Z</time>
      </trkpt>
      <trkpt lat="46.61128" lon="5.41444">
        <ele>203.4</ele>
        <time>2022-08-20T11:29:31Z</time>
      </trkpt>
      <trkpt lat="46.61133" lon="5.41463">
        <ele>203.6</ele>
        <time>2022-08-20T11:29:33Z</time>
      </trkpt>
      <trkpt lat="46.61146" lon="5.41496">
        <ele>203.8</ele>
        <time>2022-08-20T11:29:37Z</time>
      </trkpt>
      <trkpt lat="46.61177" lon="5.41546">
        <ele>203.6</ele>
        <time>2022-08-20T11:29:44Z</time>
      </trkpt>
      <trkpt lat="46.61213" lon="5.41606">
        <ele>203.6</ele>
        <time>2022-08-20T11:29:52Z</time>
      </trkpt>
      <trkpt lat="46.61246" lon="5.41674">
        <ele>204</ele>
        <time>2022-08-20T11:30:01Z</time>
      </trkpt>
      <trkpt lat="46.6128" lon="5.41733">
        <ele>204</ele>
        <time>2022-08-20T11:30:09Z</time>
      </trkpt>
      <trkpt lat="46.6132" lon="5.41787">
        <ele>204.2</ele>
        <time>2022-08-20T11:30:17Z</time>
      </trkpt>
      <trkpt lat="46.61364" lon="5.41846">
        <ele>204.4</ele>
        <time>2022-08-20T11:30:26Z</time>
      </trkpt>
      <trkpt lat="46.61406" lon="5.41893">
        <ele>204.4</ele>
        <time>2022-08-20T11:30:34Z</time>
      </trkpt>
      <trkpt lat="46.6141" lon="5.41901">
        <ele>204.4</ele>
        <time>2022-08-20T11:30:35Z</time>
      </trkpt>
      <trkpt lat="46.61442" lon="5.41966">
        <ele>204.2</ele>
        <time>2022-08-20T11:30:43Z</time>
      </trkpt>
      <trkpt lat="46.61471" lon="5.42032">
        <ele>204.2</ele>
        <time>2022-08-20T11:30:51Z</time>
      </trkpt>
      <trkpt lat="46.6148" lon="5.42047">
        <ele>204.2</ele>
        <time>2022-08-20T11:30:53Z</time>
      </trkpt>
      <trkpt lat="46.6149" lon="5.4206">
        <ele>204.2</ele>
        <time>2022-08-20T11:30:55Z</time>
      </trkpt>
      <trkpt lat="46.615" lon="5.42072">
        <ele>204.2</ele>
        <time>2022-08-20T11:30:57Z</time>
      </trkpt>
      <trkpt lat="46.61503" lon="5.42078">
        <ele>204.2</ele>
        <time>2022-08-20T11:30:58Z</time>
      </trkpt>
      <trkpt lat="46.61515" lon="5.42103">
        <ele>204.6</ele>
        <time>2022-08-20T11:31:01Z</time>
      </trkpt>
      <trkpt lat="46.6153" lon="5.42147">
        <ele>204.6</ele>
        <time>2022-08-20T11:31:06Z</time>
      </trkpt>
      <trkpt lat="46.61535" lon="5.42164">
        <ele>205</ele>
        <time>2022-08-20T11:31:08Z</time>
      </trkpt>
      <trkpt lat="46.61555" lon="5.42246">
        <ele>205.2</ele>
        <time>2022-08-20T11:31:17Z</time>
      </trkpt>
      <trkpt lat="46.61567" lon="5.42332">
        <ele>204.6</ele>
        <time>2022-08-20T11:31:26Z</time>
      </trkpt>
      <trkpt lat="46.61578" lon="5.42417">
        <ele>204.6</ele>
        <time>2022-08-20T11:31:35Z</time>
      </trkpt>
      <trkpt lat="46.6158" lon="5.42424">
        <ele>204.6</ele>
        <time>2022-08-20T11:31:36Z</time>
      </trkpt>
      <trkpt lat="46.61602" lon="5.42487">
        <ele>205.4</ele>
        <time>2022-08-20T11:31:44Z</time>
      </trkpt>
      <trkpt lat="46.61605" lon="5.42493">
        <ele>205.6</ele>
        <time>2022-08-20T11:31:45Z</time>
      </trkpt>
      <trkpt lat="46.61611" lon="5.42505">
        <ele>206</ele>
        <time>2022-08-20T11:31:47Z</time>
      </trkpt>
      <trkpt lat="46.61619" lon="5.42515">
        <ele>206.4</ele>
        <time>2022-08-20T11:31:49Z</time>
      </trkpt>
      <trkpt lat="46.61624" lon="5.42519">
        <ele>206.6</ele>
        <time>2022-08-20T11:31:50Z</time>
      </trkpt>
      <trkpt lat="46.61638" lon="5.4253">
        <ele>207</ele>
        <time>2022-08-20T11:31:53Z</time>
      </trkpt>
      <trkpt lat="46.61647" lon="5.42536">
        <ele>207.2</ele>
        <time>2022-08-20T11:31:55Z</time>
      </trkpt>
      <trkpt lat="46.61676" lon="5.42558">
        <ele>208</ele>
        <time>2022-08-20T11:32:02Z</time>
      </trkpt>
      <trkpt lat="46.6169" lon="5.42571">
        <ele>209.4</ele>
        <time>2022-08-20T11:32:06Z</time>
      </trkpt>
      <trkpt lat="46.61698" lon="5.42579">
        <ele>209.6</ele>
        <time>2022-08-20T11:32:08Z</time>
      </trkpt>
      <trkpt lat="46.61706" lon="5.42587">
        <ele>210.4</ele>
        <time>2022-08-20T11:32:10Z</time>
      </trkpt>
      <trkpt lat="46.61724" lon="5.42608">
        <ele>211.4</ele>
        <time>2022-08-20T11:32:15Z</time>
      </trkpt>
      <trkpt lat="46.61727" lon="5.42613">
        <ele>211.4</ele>
        <time>2022-08-20T11:32:16Z</time>
      </trkpt>
      <trkpt lat="46.61733" lon="5.42624">
        <ele>211.8</ele>
        <time>2022-08-20T11:32:18Z</time>
      </trkpt>
      <trkpt lat="46.61736" lon="5.42637">
        <ele>212.2</ele>
        <time>2022-08-20T11:32:20Z</time>
      </trkpt>
      <trkpt lat="46.61739" lon="5.42649">
        <ele>212.6</ele>
        <time>2022-08-20T11:32:22Z</time>
      </trkpt>
      <trkpt lat="46.61741" lon="5.42656">
        <ele>212.8</ele>
        <time>2022-08-20T11:32:23Z</time>
      </trkpt>
      <trkpt lat="46.61747" lon="5.42666">
        <ele>213</ele>
        <time>2022-08-20T11:32:25Z</time>
      </trkpt>
      <trkpt lat="46.61759" lon="5.42678">
        <ele>213</ele>
        <time>2022-08-20T11:32:28Z</time>
      </trkpt>
      <trkpt lat="46.61765" lon="5.42685">
        <ele>213.2</ele>
        <time>2022-08-20T11:32:30Z</time>
      </trkpt>
      <trkpt lat="46.6177" lon="5.42689">
        <ele>213.2</ele>
        <time>2022-08-20T11:32:31Z</time>
      </trkpt>
      <trkpt lat="46.61777" lon="5.42696">
        <ele>213.4</ele>
        <time>2022-08-20T11:32:33Z</time>
      </trkpt>
      <trkpt lat="46.6178" lon="5.42699">
        <ele>213.6</ele>
        <time>2022-08-20T11:32:34Z</time>
      </trkpt>
      <trkpt lat="46.61791" lon="5.42708">
        <ele>214.4</ele>
        <time>2022-08-20T11:32:37Z</time>
      </trkpt>
      <trkpt lat="46.61799" lon="5.42714">
        <ele>214.8</ele>
        <time>2022-08-20T11:32:39Z</time>
      </trkpt>
      <trkpt lat="46.61829" lon="5.42733">
        <ele>216.2</ele>
        <time>2022-08-20T11:32:46Z</time>
      </trkpt>
      <trkpt lat="46.61864" lon="5.4275">
        <ele>217.2</ele>
        <time>2022-08-20T11:32:53Z</time>
      </trkpt>
      <trkpt lat="46.61873" lon="5.42755">
        <ele>217.2</ele>
        <time>2022-08-20T11:32:55Z</time>
      </trkpt>
      <trkpt lat="46.61897" lon="5.42774">
        <ele>217.6</ele>
        <time>2022-08-20T11:33:00Z</time>
      </trkpt>
      <trkpt lat="46.61926" lon="5.4281">
        <ele>218.2</ele>
        <time>2022-08-20T11:33:07Z</time>
      </trkpt>
      <trkpt lat="46.6194" lon="5.4283">
        <ele>218.4</ele>
        <time>2022-08-20T11:33:11Z</time>
      </trkpt>
      <trkpt lat="46.61958" lon="5.42859">
        <ele>218.8</ele>
        <time>2022-08-20T11:33:16Z</time>
      </trkpt>
      <trkpt lat="46.61982" lon="5.42895">
        <ele>219.6</ele>
        <time>2022-08-20T11:33:23Z</time>
      </trkpt>
      <trkpt lat="46.61989" lon="5.42906">
        <ele>219.8</ele>
        <time>2022-08-20T11:33:25Z</time>
      </trkpt>
      <trkpt lat="46.62024" lon="5.42945">
        <ele>220.2</ele>
        <time>2022-08-20T11:33:33Z</time>
      </trkpt>
      <trkpt lat="46.62052" lon="5.4297">
        <ele>219.8</ele>
        <time>2022-08-20T11:33:38Z</time>
      </trkpt>
      <trkpt lat="46.62059" lon="5.42975">
        <ele>219.6</ele>
        <time>2022-08-20T11:33:39Z</time>
      </trkpt>
      <trkpt lat="46.62086" lon="5.42999">
        <ele>219.2</ele>
        <time>2022-08-20T11:33:43Z</time>
      </trkpt>
      <trkpt lat="46.621" lon="5.43009">
        <ele>218.6</ele>
        <time>2022-08-20T11:33:45Z</time>
      </trkpt>
      <trkpt lat="46.62121" lon="5.43026">
        <ele>218</ele>
        <time>2022-08-20T11:33:48Z</time>
      </trkpt>
      <trkpt lat="46.62128" lon="5.43034">
        <ele>217.2</ele>
        <time>2022-08-20T11:33:49Z</time>
      </trkpt>
      <trkpt lat="46.6215" lon="5.43066">
        <ele>216.4</ele>
        <time>2022-08-20T11:33:53Z</time>
      </trkpt>
      <trkpt lat="46.62159" lon="5.43082">
        <ele>216.2</ele>
        <time>2022-08-20T11:33:55Z</time>
      </trkpt>
      <trkpt lat="46.62166" lon="5.43099">
        <ele>216.4</ele>
        <time>2022-08-20T11:33:57Z</time>
      </trkpt>
      <trkpt lat="46.62173" lon="5.43114">
        <ele>216.6</ele>
        <time>2022-08-20T11:33:59Z</time>
      </trkpt>
      <trkpt lat="46.62182" lon="5.43135">
        <ele>216.8</ele>
        <time>2022-08-20T11:34:02Z</time>
      </trkpt>
      <trkpt lat="46.62191" lon="5.43156">
        <ele>218.8</ele>
        <time>2022-08-20T11:34:05Z</time>
      </trkpt>
      <trkpt lat="46.62198" lon="5.43176">
        <ele>220</ele>
        <time>2022-08-20T11:34:08Z</time>
      </trkpt>
      <trkpt lat="46.62204" lon="5.43196">
        <ele>221</ele>
        <time>2022-08-20T11:34:13Z</time>
      </trkpt>
      <trkpt lat="46.62204" lon="5.43197">
        <ele>221.4</ele>
        <time>2022-08-20T11:34:15Z</time>
      </trkpt>
      <trkpt lat="46.62206" lon="5.43201">
        <ele>222.6</ele>
        <time>2022-08-20T11:35:02Z</time>
      </trkpt>
      <trkpt lat="46.62208" lon="5.43204">
        <ele>222.6</ele>
        <time>2022-08-20T11:35:03Z</time>
      </trkpt>
      <trkpt lat="46.62221" lon="5.43228">
        <ele>222.6</ele>
        <time>2022-08-20T11:35:08Z</time>
      </trkpt>
      <trkpt lat="46.62241" lon="5.43263">
        <ele>222</ele>
        <time>2022-08-20T11:35:13Z</time>
      </trkpt>
      <trkpt lat="46.62251" lon="5.43276">
        <ele>221.8</ele>
        <time>2022-08-20T11:35:15Z</time>
      </trkpt>
      <trkpt lat="46.62268" lon="5.43294">
        <ele>221.4</ele>
        <time>2022-08-20T11:35:18Z</time>
      </trkpt>
      <trkpt lat="46.62298" lon="5.43327">
        <ele>220</ele>
        <time>2022-08-20T11:35:23Z</time>
      </trkpt>
      <trkpt lat="46.62304" lon="5.43334">
        <ele>219.8</ele>
        <time>2022-08-20T11:35:24Z</time>
      </trkpt>
      <trkpt lat="46.6233" lon="5.43362">
        <ele>218.8</ele>
        <time>2022-08-20T11:35:28Z</time>
      </trkpt>
      <trkpt lat="46.62349" lon="5.43384">
        <ele>218.4</ele>
        <time>2022-08-20T11:35:31Z</time>
      </trkpt>
      <trkpt lat="46.62367" lon="5.43404">
        <ele>217.6</ele>
        <time>2022-08-20T11:35:34Z</time>
      </trkpt>
      <trkpt lat="46.62407" lon="5.43446">
        <ele>217.2</ele>
        <time>2022-08-20T11:35:40Z</time>
      </trkpt>
      <trkpt lat="46.62438" lon="5.43481">
        <ele>216.6</ele>
        <time>2022-08-20T11:35:45Z</time>
      </trkpt>
      <trkpt lat="46.62455" lon="5.435">
        <ele>216.2</ele>
        <time>2022-08-20T11:35:48Z</time>
      </trkpt>
      <trkpt lat="46.62499" lon="5.43549">
        <ele>216</ele>
        <time>2022-08-20T11:35:55Z</time>
      </trkpt>
      <trkpt lat="46.62505" lon="5.43556">
        <ele>216</ele>
        <time>2022-08-20T11:35:56Z</time>
      </trkpt>
      <trkpt lat="46.62548" lon="5.43602">
        <ele>215.4</ele>
        <time>2022-08-20T11:36:03Z</time>
      </trkpt>
      <trkpt lat="46.62574" lon="5.4363">
        <ele>214.2</ele>
        <time>2022-08-20T11:36:07Z</time>
      </trkpt>
      <trkpt lat="46.626" lon="5.4366">
        <ele>213.2</ele>
        <time>2022-08-20T11:36:11Z</time>
      </trkpt>
      <trkpt lat="46.62606" lon="5.43668">
        <ele>213</ele>
        <time>2022-08-20T11:36:12Z</time>
      </trkpt>
      <trkpt lat="46.62612" lon="5.43677">
        <ele>212.8</ele>
        <time>2022-08-20T11:36:13Z</time>
      </trkpt>
      <trkpt lat="46.62621" lon="5.43697">
        <ele>212.6</ele>
        <time>2022-08-20T11:36:15Z</time>
      </trkpt>
      <trkpt lat="46.62626" lon="5.43722">
        <ele>212.4</ele>
        <time>2022-08-20T11:36:17Z</time>
      </trkpt>
      <trkpt lat="46.62628" lon="5.43744">
        <ele>212.4</ele>
        <time>2022-08-20T11:36:19Z</time>
      </trkpt>
      <trkpt lat="46.6263" lon="5.43808">
        <ele>212</ele>
        <time>2022-08-20T11:36:25Z</time>
      </trkpt>
      <trkpt lat="46.6263" lon="5.43831">
        <ele>212</ele>
        <time>2022-08-20T11:36:27Z</time>
      </trkpt>
      <trkpt lat="46.62631" lon="5.43863">
        <ele>212</ele>
        <time>2022-08-20T11:36:30Z</time>
      </trkpt>
      <trkpt lat="46.62636" lon="5.43891">
        <ele>212.2</ele>
        <time>2022-08-20T11:36:33Z</time>
      </trkpt>
      <trkpt lat="46.62643" lon="5.43907">
        <ele>212.6</ele>
        <time>2022-08-20T11:36:35Z</time>
      </trkpt>
      <trkpt lat="46.62653" lon="5.4392">
        <ele>213</ele>
        <time>2022-08-20T11:36:37Z</time>
      </trkpt>
      <trkpt lat="46.62658" lon="5.43925">
        <ele>213.2</ele>
        <time>2022-08-20T11:36:38Z</time>
      </trkpt>
      <trkpt lat="46.62679" lon="5.43948">
        <ele>213.6</ele>
        <time>2022-08-20T11:36:42Z</time>
      </trkpt>
      <trkpt lat="46.62706" lon="5.43987">
        <ele>214</ele>
        <time>2022-08-20T11:36:48Z</time>
      </trkpt>
      <trkpt lat="46.62719" lon="5.44008">
        <ele>214.2</ele>
        <time>2022-08-20T11:36:51Z</time>
      </trkpt>
      <trkpt lat="46.62723" lon="5.44017">
        <ele>214.4</ele>
        <time>2022-08-20T11:36:52Z</time>
      </trkpt>
      <trkpt lat="46.6273" lon="5.44034">
        <ele>214.6</ele>
        <time>2022-08-20T11:36:54Z</time>
      </trkpt>
      <trkpt lat="46.6274" lon="5.44066">
        <ele>215.4</ele>
        <time>2022-08-20T11:36:58Z</time>
      </trkpt>
      <trkpt lat="46.62747" lon="5.4409">
        <ele>216</ele>
        <time>2022-08-20T11:37:01Z</time>
      </trkpt>
      <trkpt lat="46.62758" lon="5.44114">
        <ele>216.8</ele>
        <time>2022-08-20T11:37:04Z</time>
      </trkpt>
      <trkpt lat="46.62768" lon="5.44135">
        <ele>217.4</ele>
        <time>2022-08-20T11:37:07Z</time>
      </trkpt>
      <trkpt lat="46.62797" lon="5.44177">
        <ele>217.6</ele>
        <time>2022-08-20T11:37:13Z</time>
      </trkpt>
      <trkpt lat="46.62813" lon="5.44203">
        <ele>217.4</ele>
        <time>2022-08-20T11:37:16Z</time>
      </trkpt>
      <trkpt lat="46.62818" lon="5.44214">
        <ele>217</ele>
        <time>2022-08-20T11:37:17Z</time>
      </trkpt>
      <trkpt lat="46.62834" lon="5.44257">
        <ele>215.4</ele>
        <time>2022-08-20T11:37:21Z</time>
      </trkpt>
      <trkpt lat="46.62841" lon="5.44281">
        <ele>214.4</ele>
        <time>2022-08-20T11:37:23Z</time>
      </trkpt>
      <trkpt lat="46.62843" lon="5.44294">
        <ele>214</ele>
        <time>2022-08-20T11:37:24Z</time>
      </trkpt>
      <trkpt lat="46.62844" lon="5.44307">
        <ele>213.6</ele>
        <time>2022-08-20T11:37:25Z</time>
      </trkpt>
      <trkpt lat="46.62845" lon="5.44335">
        <ele>213</ele>
        <time>2022-08-20T11:37:27Z</time>
      </trkpt>
      <trkpt lat="46.62845" lon="5.4442">
        <ele>212.2</ele>
        <time>2022-08-20T11:37:34Z</time>
      </trkpt>
      <trkpt lat="46.62845" lon="5.44443">
        <ele>212.2</ele>
        <time>2022-08-20T11:37:36Z</time>
      </trkpt>
      <trkpt lat="46.62844" lon="5.44474">
        <ele>212.4</ele>
        <time>2022-08-20T11:37:39Z</time>
      </trkpt>
      <trkpt lat="46.62841" lon="5.44494">
        <ele>212.4</ele>
        <time>2022-08-20T11:37:41Z</time>
      </trkpt>
      <trkpt lat="46.62839" lon="5.44503">
        <ele>212.6</ele>
        <time>2022-08-20T11:37:42Z</time>
      </trkpt>
      <trkpt lat="46.62832" lon="5.44519">
        <ele>212.6</ele>
        <time>2022-08-20T11:37:44Z</time>
      </trkpt>
      <trkpt lat="46.62828" lon="5.44527">
        <ele>212.6</ele>
        <time>2022-08-20T11:37:45Z</time>
      </trkpt>
      <trkpt lat="46.62824" lon="5.44535">
        <ele>212.6</ele>
        <time>2022-08-20T11:37:46Z</time>
      </trkpt>
      <trkpt lat="46.62822" lon="5.44554">
        <ele>212.6</ele>
        <time>2022-08-20T11:37:48Z</time>
      </trkpt>
      <trkpt lat="46.62829" lon="5.44572">
        <ele>212.6</ele>
        <time>2022-08-20T11:37:50Z</time>
      </trkpt>
      <trkpt lat="46.62835" lon="5.4458">
        <ele>212.4</ele>
        <time>2022-08-20T11:37:51Z</time>
      </trkpt>
      <trkpt lat="46.6284" lon="5.44584">
        <ele>212.4</ele>
        <time>2022-08-20T11:37:52Z</time>
      </trkpt>
      <trkpt lat="46.62855" lon="5.44591">
        <ele>212.2</ele>
        <time>2022-08-20T11:37:54Z</time>
      </trkpt>
      <trkpt lat="46.62862" lon="5.44593">
        <ele>212</ele>
        <time>2022-08-20T11:37:55Z</time>
      </trkpt>
      <trkpt lat="46.62875" lon="5.44594">
        <ele>211.8</ele>
        <time>2022-08-20T11:37:57Z</time>
      </trkpt>
      <trkpt lat="46.62891" lon="5.44603">
        <ele>211.8</ele>
        <time>2022-08-20T11:37:59Z</time>
      </trkpt>
      <trkpt lat="46.62913" lon="5.44632">
        <ele>211.6</ele>
        <time>2022-08-20T11:38:03Z</time>
      </trkpt>
      <trkpt lat="46.62948" lon="5.4467">
        <ele>211.4</ele>
        <time>2022-08-20T11:38:09Z</time>
      </trkpt>
      <trkpt lat="46.62987" lon="5.44704">
        <ele>211.4</ele>
        <time>2022-08-20T11:38:15Z</time>
      </trkpt>
      <trkpt lat="46.63002" lon="5.4471">
        <ele>211.4</ele>
        <time>2022-08-20T11:38:17Z</time>
      </trkpt>
      <trkpt lat="46.63017" lon="5.44711">
        <ele>211</ele>
        <time>2022-08-20T11:38:19Z</time>
      </trkpt>
      <trkpt lat="46.63024" lon="5.44711">
        <ele>210.8</ele>
        <time>2022-08-20T11:38:20Z</time>
      </trkpt>
      <trkpt lat="46.63062" lon="5.44719">
        <ele>210.4</ele>
        <time>2022-08-20T11:38:25Z</time>
      </trkpt>
      <trkpt lat="46.63118" lon="5.44747">
        <ele>210.4</ele>
        <time>2022-08-20T11:38:33Z</time>
      </trkpt>
      <trkpt lat="46.63136" lon="5.44761">
        <ele>210.4</ele>
        <time>2022-08-20T11:38:36Z</time>
      </trkpt>
      <trkpt lat="46.63148" lon="5.44774">
        <ele>210.4</ele>
        <time>2022-08-20T11:38:38Z</time>
      </trkpt>
      <trkpt lat="46.63164" lon="5.44808">
        <ele>210.4</ele>
        <time>2022-08-20T11:38:42Z</time>
      </trkpt>
      <trkpt lat="46.63168" lon="5.44816">
        <ele>210.2</ele>
        <time>2022-08-20T11:38:43Z</time>
      </trkpt>
      <trkpt lat="46.63178" lon="5.4483">
        <ele>210.2</ele>
        <time>2022-08-20T11:38:45Z</time>
      </trkpt>
      <trkpt lat="46.63185" lon="5.44837">
        <ele>210.4</ele>
        <time>2022-08-20T11:38:46Z</time>
      </trkpt>
      <trkpt lat="46.63229" lon="5.4487">
        <ele>210.6</ele>
        <time>2022-08-20T11:38:53Z</time>
      </trkpt>
      <trkpt lat="46.6326" lon="5.44909">
        <ele>211.2</ele>
        <time>2022-08-20T11:38:59Z</time>
      </trkpt>
      <trkpt lat="46.63293" lon="5.44937">
        <ele>211.8</ele>
        <time>2022-08-20T11:39:05Z</time>
      </trkpt>
      <trkpt lat="46.63298" lon="5.44941">
        <ele>212</ele>
        <time>2022-08-20T11:39:06Z</time>
      </trkpt>
      <trkpt lat="46.63322" lon="5.44954">
        <ele>213</ele>
        <time>2022-08-20T11:39:11Z</time>
      </trkpt>
      <trkpt lat="46.63327" lon="5.44956">
        <ele>213.4</ele>
        <time>2022-08-20T11:39:12Z</time>
      </trkpt>
      <trkpt lat="46.6334" lon="5.44963">
        <ele>214.4</ele>
        <time>2022-08-20T11:39:15Z</time>
      </trkpt>
      <trkpt lat="46.63355" lon="5.4497">
        <ele>215.2</ele>
        <time>2022-08-20T11:39:18Z</time>
      </trkpt>
      <trkpt lat="46.6336" lon="5.44971">
        <ele>215.4</ele>
        <time>2022-08-20T11:39:19Z</time>
      </trkpt>
      <trkpt lat="46.63365" lon="5.44972">
        <ele>215.6</ele>
        <time>2022-08-20T11:39:20Z</time>
      </trkpt>
      <trkpt lat="46.6337" lon="5.44973">
        <ele>215.8</ele>
        <time>2022-08-20T11:39:21Z</time>
      </trkpt>
      <trkpt lat="46.63396" lon="5.44971">
        <ele>216.4</ele>
        <time>2022-08-20T11:39:26Z</time>
      </trkpt>
      <trkpt lat="46.63401" lon="5.4497">
        <ele>216.8</ele>
        <time>2022-08-20T11:39:27Z</time>
      </trkpt>
      <trkpt lat="46.63411" lon="5.4497">
        <ele>217.4</ele>
        <time>2022-08-20T11:39:29Z</time>
      </trkpt>
      <trkpt lat="46.63421" lon="5.44972">
        <ele>217.8</ele>
        <time>2022-08-20T11:39:31Z</time>
      </trkpt>
      <trkpt lat="46.63426" lon="5.44973">
        <ele>217.8</ele>
        <time>2022-08-20T11:39:32Z</time>
      </trkpt>
      <trkpt lat="46.63431" lon="5.44975">
        <ele>218.2</ele>
        <time>2022-08-20T11:39:33Z</time>
      </trkpt>
      <trkpt lat="46.63454" lon="5.44987">
        <ele>218.8</ele>
        <time>2022-08-20T11:39:38Z</time>
      </trkpt>
      <trkpt lat="46.63467" lon="5.44995">
        <ele>219.2</ele>
        <time>2022-08-20T11:39:41Z</time>
      </trkpt>
      <trkpt lat="46.63475" lon="5.45001">
        <ele>220.2</ele>
        <time>2022-08-20T11:39:43Z</time>
      </trkpt>
      <trkpt lat="46.63506" lon="5.45028">
        <ele>221.2</ele>
        <time>2022-08-20T11:39:50Z</time>
      </trkpt>
      <trkpt lat="46.6351" lon="5.45033">
        <ele>221.2</ele>
        <time>2022-08-20T11:39:51Z</time>
      </trkpt>
      <trkpt lat="46.63545" lon="5.45081">
        <ele>222</ele>
        <time>2022-08-20T11:40:00Z</time>
      </trkpt>
      <trkpt lat="46.63572" lon="5.45119">
        <ele>222</ele>
        <time>2022-08-20T11:40:06Z</time>
      </trkpt>
      <trkpt lat="46.63601" lon="5.4517">
        <ele>220.4</ele>
        <time>2022-08-20T11:40:12Z</time>
      </trkpt>
      <trkpt lat="46.63609" lon="5.45191">
        <ele>220.2</ele>
        <time>2022-08-20T11:40:14Z</time>
      </trkpt>
      <trkpt lat="46.6362" lon="5.45225">
        <ele>219</ele>
        <time>2022-08-20T11:40:17Z</time>
      </trkpt>
      <trkpt lat="46.63624" lon="5.45237">
        <ele>218.8</ele>
        <time>2022-08-20T11:40:18Z</time>
      </trkpt>
      <trkpt lat="46.63646" lon="5.45284">
        <ele>217.8</ele>
        <time>2022-08-20T11:40:22Z</time>
      </trkpt>
      <trkpt lat="46.63653" lon="5.45294">
        <ele>217</ele>
        <time>2022-08-20T11:40:23Z</time>
      </trkpt>
      <trkpt lat="46.63661" lon="5.45307">
        <ele>216.6</ele>
        <time>2022-08-20T11:40:24Z</time>
      </trkpt>
      <trkpt lat="46.63674" lon="5.45326">
        <ele>215.4</ele>
        <time>2022-08-20T11:40:26Z</time>
      </trkpt>
      <trkpt lat="46.6368" lon="5.4534">
        <ele>214.8</ele>
        <time>2022-08-20T11:40:27Z</time>
      </trkpt>
      <trkpt lat="46.63685" lon="5.45353">
        <ele>214.6</ele>
        <time>2022-08-20T11:40:28Z</time>
      </trkpt>
      <trkpt lat="46.63689" lon="5.45366">
        <ele>213.8</ele>
        <time>2022-08-20T11:40:29Z</time>
      </trkpt>
      <trkpt lat="46.63692" lon="5.45379">
        <ele>212.8</ele>
        <time>2022-08-20T11:40:30Z</time>
      </trkpt>
      <trkpt lat="46.63695" lon="5.4539">
        <ele>212.4</ele>
        <time>2022-08-20T11:40:31Z</time>
      </trkpt>
      <trkpt lat="46.63704" lon="5.45428">
        <ele>211</ele>
        <time>2022-08-20T11:40:34Z</time>
      </trkpt>
      <trkpt lat="46.63716" lon="5.45481">
        <ele>210.6</ele>
        <time>2022-08-20T11:40:38Z</time>
      </trkpt>
      <trkpt lat="46.63734" lon="5.45561">
        <ele>210.6</ele>
        <time>2022-08-20T11:40:45Z</time>
      </trkpt>
      <trkpt lat="46.63754" lon="5.45626">
        <ele>210.8</ele>
        <time>2022-08-20T11:40:51Z</time>
      </trkpt>
      <trkpt lat="46.63777" lon="5.45667">
        <ele>210.8</ele>
        <time>2022-08-20T11:40:56Z</time>
      </trkpt>
      <trkpt lat="46.63806" lon="5.45722">
        <ele>211</ele>
        <time>2022-08-20T11:41:02Z</time>
      </trkpt>
      <trkpt lat="46.63838" lon="5.45782">
        <ele>211</ele>
        <time>2022-08-20T11:41:09Z</time>
      </trkpt>
      <trkpt lat="46.63853" lon="5.45808">
        <ele>211</ele>
        <time>2022-08-20T11:41:12Z</time>
      </trkpt>
      <trkpt lat="46.63861" lon="5.45828">
        <ele>211</ele>
        <time>2022-08-20T11:41:14Z</time>
      </trkpt>
      <trkpt lat="46.63864" lon="5.45849">
        <ele>211</ele>
        <time>2022-08-20T11:41:16Z</time>
      </trkpt>
      <trkpt lat="46.63864" lon="5.45894">
        <ele>211.4</ele>
        <time>2022-08-20T11:41:20Z</time>
      </trkpt>
      <trkpt lat="46.63865" lon="5.45905">
        <ele>211.8</ele>
        <time>2022-08-20T11:41:21Z</time>
      </trkpt>
      <trkpt lat="46.63871" lon="5.45956">
        <ele>212</ele>
        <time>2022-08-20T11:41:26Z</time>
      </trkpt>
      <trkpt lat="46.63874" lon="5.45973">
        <ele>212.2</ele>
        <time>2022-08-20T11:41:28Z</time>
      </trkpt>
      <trkpt lat="46.63887" lon="5.46051">
        <ele>212.4</ele>
        <time>2022-08-20T11:41:36Z</time>
      </trkpt>
      <trkpt lat="46.63891" lon="5.4607">
        <ele>212.6</ele>
        <time>2022-08-20T11:41:38Z</time>
      </trkpt>
      <trkpt lat="46.63907" lon="5.46136">
        <ele>213</ele>
        <time>2022-08-20T11:41:45Z</time>
      </trkpt>
      <trkpt lat="46.63908" lon="5.46146">
        <ele>213.2</ele>
        <time>2022-08-20T11:41:46Z</time>
      </trkpt>
      <trkpt lat="46.63911" lon="5.46171">
        <ele>213.8</ele>
        <time>2022-08-20T11:41:49Z</time>
      </trkpt>
      <trkpt lat="46.63918" lon="5.46215">
        <ele>214.4</ele>
        <time>2022-08-20T11:41:54Z</time>
      </trkpt>
      <trkpt lat="46.63923" lon="5.46266">
        <ele>215.4</ele>
        <time>2022-08-20T11:42:00Z</time>
      </trkpt>
      <trkpt lat="46.63924" lon="5.46276">
        <ele>215.6</ele>
        <time>2022-08-20T11:42:01Z</time>
      </trkpt>
      <trkpt lat="46.63929" lon="5.46317">
        <ele>216.4</ele>
        <time>2022-08-20T11:42:06Z</time>
      </trkpt>
      <trkpt lat="46.63931" lon="5.46323">
        <ele>216.6</ele>
        <time>2022-08-20T11:42:07Z</time>
      </trkpt>
      <trkpt lat="46.63934" lon="5.46332">
        <ele>216.8</ele>
        <time>2022-08-20T11:42:08Z</time>
      </trkpt>
      <trkpt lat="46.63941" lon="5.46346">
        <ele>217.2</ele>
        <time>2022-08-20T11:42:10Z</time>
      </trkpt>
      <trkpt lat="46.63949" lon="5.46358">
        <ele>217.4</ele>
        <time>2022-08-20T11:42:12Z</time>
      </trkpt>
      <trkpt lat="46.63962" lon="5.46375">
        <ele>217.6</ele>
        <time>2022-08-20T11:42:15Z</time>
      </trkpt>
      <trkpt lat="46.63997" lon="5.46413">
        <ele>217.8</ele>
        <time>2022-08-20T11:42:22Z</time>
      </trkpt>
      <trkpt lat="46.64003" lon="5.46417">
        <ele>217.8</ele>
        <time>2022-08-20T11:42:23Z</time>
      </trkpt>
      <trkpt lat="46.64028" lon="5.46429">
        <ele>218</ele>
        <time>2022-08-20T11:42:27Z</time>
      </trkpt>
      <trkpt lat="46.64035" lon="5.46432">
        <ele>218</ele>
        <time>2022-08-20T11:42:28Z</time>
      </trkpt>
      <trkpt lat="46.64085" lon="5.46455">
        <ele>217.8</ele>
        <time>2022-08-20T11:42:35Z</time>
      </trkpt>
      <trkpt lat="46.64121" lon="5.46468">
        <ele>217.2</ele>
        <time>2022-08-20T11:42:40Z</time>
      </trkpt>
      <trkpt lat="46.64127" lon="5.46471">
        <ele>217.2</ele>
        <time>2022-08-20T11:42:41Z</time>
      </trkpt>
      <trkpt lat="46.64133" lon="5.46475">
        <ele>217</ele>
        <time>2022-08-20T11:42:42Z</time>
      </trkpt>
      <trkpt lat="46.64143" lon="5.46486">
        <ele>217</ele>
        <time>2022-08-20T11:42:44Z</time>
      </trkpt>
      <trkpt lat="46.64147" lon="5.46493">
        <ele>217</ele>
        <time>2022-08-20T11:42:45Z</time>
      </trkpt>
      <trkpt lat="46.64165" lon="5.46532">
        <ele>217</ele>
        <time>2022-08-20T11:42:50Z</time>
      </trkpt>
      <trkpt lat="46.64184" lon="5.46568">
        <ele>217</ele>
        <time>2022-08-20T11:42:55Z</time>
      </trkpt>
      <trkpt lat="46.64193" lon="5.46579">
        <ele>217</ele>
        <time>2022-08-20T11:42:57Z</time>
      </trkpt>
      <trkpt lat="46.64198" lon="5.46591">
        <ele>217.2</ele>
        <time>2022-08-20T11:42:59Z</time>
      </trkpt>
      <trkpt lat="46.64196" lon="5.46596">
        <ele>217.2</ele>
        <time>2022-08-20T11:43:00Z</time>
      </trkpt>
      <trkpt lat="46.64178" lon="5.46614">
        <ele>217.8</ele>
        <time>2022-08-20T11:43:05Z</time>
      </trkpt>
      <trkpt lat="46.64165" lon="5.46626">
        <ele>218.6</ele>
        <time>2022-08-20T11:43:09Z</time>
      </trkpt>
      <trkpt lat="46.64154" lon="5.46635">
        <ele>219.2</ele>
        <time>2022-08-20T11:43:12Z</time>
      </trkpt>
      <trkpt lat="46.64141" lon="5.46648">
        <ele>219.8</ele>
        <time>2022-08-20T11:43:16Z</time>
      </trkpt>
      <trkpt lat="46.64132" lon="5.46658">
        <ele>220.6</ele>
        <time>2022-08-20T11:43:19Z</time>
      </trkpt>
      <trkpt lat="46.64129" lon="5.46661">
        <ele>221</ele>
        <time>2022-08-20T11:43:20Z</time>
      </trkpt>
      <trkpt lat="46.6412" lon="5.46671">
        <ele>222.2</ele>
        <time>2022-08-20T11:43:23Z</time>
      </trkpt>
      <trkpt lat="46.64109" lon="5.46683">
        <ele>223</ele>
        <time>2022-08-20T11:43:27Z</time>
      </trkpt>
      <trkpt lat="46.64106" lon="5.46686">
        <ele>223.2</ele>
        <time>2022-08-20T11:43:28Z</time>
      </trkpt>
      <trkpt lat="46.64095" lon="5.46699">
        <ele>224.6</ele>
        <time>2022-08-20T11:43:32Z</time>
      </trkpt>
      <trkpt lat="46.64088" lon="5.46708">
        <ele>225.2</ele>
        <time>2022-08-20T11:43:35Z</time>
      </trkpt>
      <trkpt lat="46.64084" lon="5.46713">
        <ele>225.8</ele>
        <time>2022-08-20T11:43:37Z</time>
      </trkpt>
      <trkpt lat="46.64085" lon="5.46716">
        <ele>226</ele>
        <time>2022-08-20T11:43:38Z</time>
      </trkpt>
      <trkpt lat="46.64093" lon="5.46722">
        <ele>227.2</ele>
        <time>2022-08-20T11:43:41Z</time>
      </trkpt>
      <trkpt lat="46.64097" lon="5.46725">
        <ele>227.4</ele>
        <time>2022-08-20T11:43:42Z</time>
      </trkpt>
      <trkpt lat="46.64112" lon="5.46737">
        <ele>228.2</ele>
        <time>2022-08-20T11:43:46Z</time>
      </trkpt>
      <trkpt lat="46.64116" lon="5.4674">
        <ele>228.4</ele>
        <time>2022-08-20T11:43:47Z</time>
      </trkpt>
      <trkpt lat="46.64128" lon="5.46752">
        <ele>229</ele>
        <time>2022-08-20T11:43:50Z</time>
      </trkpt>
      <trkpt lat="46.64141" lon="5.46764">
        <ele>229.2</ele>
        <time>2022-08-20T11:43:53Z</time>
      </trkpt>
      <trkpt lat="46.64145" lon="5.46768">
        <ele>229.4</ele>
        <time>2022-08-20T11:43:54Z</time>
      </trkpt>
      <trkpt lat="46.64152" lon="5.46778">
        <ele>229.4</ele>
        <time>2022-08-20T11:43:56Z</time>
      </trkpt>
      <trkpt lat="46.64183" lon="5.46825">
        <ele>230.2</ele>
        <time>2022-08-20T11:44:05Z</time>
      </trkpt>
      <trkpt lat="46.64186" lon="5.46831">
        <ele>230.4</ele>
        <time>2022-08-20T11:44:06Z</time>
      </trkpt>
      <trkpt lat="46.64203" lon="5.46863">
        <ele>231.6</ele>
        <time>2022-08-20T11:44:12Z</time>
      </trkpt>
      <trkpt lat="46.64208" lon="5.46874">
        <ele>231.8</ele>
        <time>2022-08-20T11:44:14Z</time>
      </trkpt>
      <trkpt lat="46.64221" lon="5.469">
        <ele>232.8</ele>
        <time>2022-08-20T11:44:19Z</time>
      </trkpt>
      <trkpt lat="46.64225" lon="5.46905">
        <ele>233</ele>
        <time>2022-08-20T11:44:20Z</time>
      </trkpt>
      <trkpt lat="46.64234" lon="5.46922">
        <ele>233.8</ele>
        <time>2022-08-20T11:44:23Z</time>
      </trkpt>
      <trkpt lat="46.64257" lon="5.46959">
        <ele>234.6</ele>
        <time>2022-08-20T11:44:30Z</time>
      </trkpt>
      <trkpt lat="46.64268" lon="5.46976">
        <ele>234.8</ele>
        <time>2022-08-20T11:44:33Z</time>
      </trkpt>
      <trkpt lat="46.64291" lon="5.4701">
        <ele>235.2</ele>
        <time>2022-08-20T11:44:39Z</time>
      </trkpt>
      <trkpt lat="46.64303" lon="5.4703">
        <ele>235.4</ele>
        <time>2022-08-20T11:44:42Z</time>
      </trkpt>
      <trkpt lat="46.64312" lon="5.47043">
        <ele>235.4</ele>
        <time>2022-08-20T11:44:44Z</time>
      </trkpt>
      <trkpt lat="46.64317" lon="5.4705">
        <ele>235.4</ele>
        <time>2022-08-20T11:44:45Z</time>
      </trkpt>
      <trkpt lat="46.64327" lon="5.47063">
        <ele>235.4</ele>
        <time>2022-08-20T11:44:47Z</time>
      </trkpt>
      <trkpt lat="46.6434" lon="5.47072">
        <ele>235.2</ele>
        <time>2022-08-20T11:44:49Z</time>
      </trkpt>
      <trkpt lat="46.64353" lon="5.47084">
        <ele>234.8</ele>
        <time>2022-08-20T11:44:51Z</time>
      </trkpt>
      <trkpt lat="46.64364" lon="5.47099">
        <ele>234</ele>
        <time>2022-08-20T11:44:53Z</time>
      </trkpt>
      <trkpt lat="46.64375" lon="5.47129">
        <ele>233.8</ele>
        <time>2022-08-20T11:44:56Z</time>
      </trkpt>
      <trkpt lat="46.64378" lon="5.4714">
        <ele>233.8</ele>
        <time>2022-08-20T11:44:57Z</time>
      </trkpt>
      <trkpt lat="46.64398" lon="5.47209">
        <ele>234.4</ele>
        <time>2022-08-20T11:45:04Z</time>
      </trkpt>
      <trkpt lat="46.64425" lon="5.47288">
        <ele>234.6</ele>
        <time>2022-08-20T11:45:12Z</time>
      </trkpt>
      <trkpt lat="46.64436" lon="5.47319">
        <ele>235</ele>
        <time>2022-08-20T11:45:15Z</time>
      </trkpt>
      <trkpt lat="46.64459" lon="5.4739">
        <ele>235</ele>
        <time>2022-08-20T11:45:22Z</time>
      </trkpt>
      <trkpt lat="46.64463" lon="5.47399">
        <ele>235</ele>
        <time>2022-08-20T11:45:23Z</time>
      </trkpt>
      <trkpt lat="46.64486" lon="5.47465">
        <ele>235.4</ele>
        <time>2022-08-20T11:45:30Z</time>
      </trkpt>
      <trkpt lat="46.64501" lon="5.47511">
        <ele>236</ele>
        <time>2022-08-20T11:45:35Z</time>
      </trkpt>
      <trkpt lat="46.64511" lon="5.47537">
        <ele>236.4</ele>
        <time>2022-08-20T11:45:38Z</time>
      </trkpt>
      <trkpt lat="46.64521" lon="5.47571">
        <ele>237</ele>
        <time>2022-08-20T11:45:42Z</time>
      </trkpt>
      <trkpt lat="46.64532" lon="5.47602">
        <ele>238</ele>
        <time>2022-08-20T11:45:46Z</time>
      </trkpt>
      <trkpt lat="46.64535" lon="5.47609">
        <ele>238.2</ele>
        <time>2022-08-20T11:45:47Z</time>
      </trkpt>
      <trkpt lat="46.6455" lon="5.47655">
        <ele>239.4</ele>
        <time>2022-08-20T11:45:53Z</time>
      </trkpt>
      <trkpt lat="46.64556" lon="5.47671">
        <ele>239.6</ele>
        <time>2022-08-20T11:45:55Z</time>
      </trkpt>
      <trkpt lat="46.64583" lon="5.47746">
        <ele>240.4</ele>
        <time>2022-08-20T11:46:04Z</time>
      </trkpt>
      <trkpt lat="46.64586" lon="5.47754">
        <ele>240.4</ele>
        <time>2022-08-20T11:46:05Z</time>
      </trkpt>
      <trkpt lat="46.64612" lon="5.4783">
        <ele>240.2</ele>
        <time>2022-08-20T11:46:14Z</time>
      </trkpt>
      <trkpt lat="46.6462" lon="5.47856">
        <ele>240.2</ele>
        <time>2022-08-20T11:46:17Z</time>
      </trkpt>
      <trkpt lat="46.64636" lon="5.47936">
        <ele>240.4</ele>
        <time>2022-08-20T11:46:26Z</time>
      </trkpt>
      <trkpt lat="46.64637" lon="5.47945">
        <ele>240.4</ele>
        <time>2022-08-20T11:46:27Z</time>
      </trkpt>
      <trkpt lat="46.64648" lon="5.48017">
        <ele>241</ele>
        <time>2022-08-20T11:46:35Z</time>
      </trkpt>
      <trkpt lat="46.64654" lon="5.48052">
        <ele>241.6</ele>
        <time>2022-08-20T11:46:39Z</time>
      </trkpt>
      <trkpt lat="46.64662" lon="5.48097">
        <ele>242</ele>
        <time>2022-08-20T11:46:44Z</time>
      </trkpt>
      <trkpt lat="46.64673" lon="5.48171">
        <ele>242.8</ele>
        <time>2022-08-20T11:46:53Z</time>
      </trkpt>
      <trkpt lat="46.64676" lon="5.48194">
        <ele>243.6</ele>
        <time>2022-08-20T11:46:56Z</time>
      </trkpt>
      <trkpt lat="46.64678" lon="5.4821">
        <ele>244.2</ele>
        <time>2022-08-20T11:46:58Z</time>
      </trkpt>
      <trkpt lat="46.64685" lon="5.48239">
        <ele>244.6</ele>
        <time>2022-08-20T11:47:02Z</time>
      </trkpt>
      <trkpt lat="46.64693" lon="5.48249">
        <ele>244.6</ele>
        <time>2022-08-20T11:47:04Z</time>
      </trkpt>
      <trkpt lat="46.64699" lon="5.48251">
        <ele>244.6</ele>
        <time>2022-08-20T11:47:05Z</time>
      </trkpt>
      <trkpt lat="46.64727" lon="5.48259">
        <ele>244.8</ele>
        <time>2022-08-20T11:47:10Z</time>
      </trkpt>
      <trkpt lat="46.64733" lon="5.48263">
        <ele>244.8</ele>
        <time>2022-08-20T11:47:11Z</time>
      </trkpt>
      <trkpt lat="46.64763" lon="5.48286">
        <ele>245.2</ele>
        <time>2022-08-20T11:47:17Z</time>
      </trkpt>
      <trkpt lat="46.64773" lon="5.48293">
        <ele>245.4</ele>
        <time>2022-08-20T11:47:19Z</time>
      </trkpt>
      <trkpt lat="46.64808" lon="5.48319">
        <ele>246.2</ele>
        <time>2022-08-20T11:47:26Z</time>
      </trkpt>
      <trkpt lat="46.64813" lon="5.48322">
        <ele>246.2</ele>
        <time>2022-08-20T11:47:27Z</time>
      </trkpt>
      <trkpt lat="46.64853" lon="5.48352">
        <ele>246.2</ele>
        <time>2022-08-20T11:47:34Z</time>
      </trkpt>
      <trkpt lat="46.64895" lon="5.48385">
        <ele>245.2</ele>
        <time>2022-08-20T11:47:41Z</time>
      </trkpt>
      <trkpt lat="46.649" lon="5.4839">
        <ele>245.2</ele>
        <time>2022-08-20T11:47:42Z</time>
      </trkpt>
      <trkpt lat="46.64939" lon="5.48427">
        <ele>245.2</ele>
        <time>2022-08-20T11:47:49Z</time>
      </trkpt>
      <trkpt lat="46.64979" lon="5.48462">
        <ele>245.2</ele>
        <time>2022-08-20T11:47:56Z</time>
      </trkpt>
      <trkpt lat="46.6501" lon="5.48484">
        <ele>245</ele>
        <time>2022-08-20T11:48:01Z</time>
      </trkpt>
      <trkpt lat="46.65037" lon="5.48504">
        <ele>244.6</ele>
        <time>2022-08-20T11:48:05Z</time>
      </trkpt>
      <trkpt lat="46.65057" lon="5.48517">
        <ele>244.2</ele>
        <time>2022-08-20T11:48:08Z</time>
      </trkpt>
      <trkpt lat="46.65097" lon="5.48541">
        <ele>243.8</ele>
        <time>2022-08-20T11:48:14Z</time>
      </trkpt>
      <trkpt lat="46.65152" lon="5.48572">
        <ele>243.2</ele>
        <time>2022-08-20T11:48:22Z</time>
      </trkpt>
      <trkpt lat="46.65158" lon="5.48575">
        <ele>243.2</ele>
        <time>2022-08-20T11:48:23Z</time>
      </trkpt>
      <trkpt lat="46.65188" lon="5.48587">
        <ele>243</ele>
        <time>2022-08-20T11:48:28Z</time>
      </trkpt>
      <trkpt lat="46.65208" lon="5.48594">
        <ele>243</ele>
        <time>2022-08-20T11:48:31Z</time>
      </trkpt>
      <trkpt lat="46.6522" lon="5.48602">
        <ele>243</ele>
        <time>2022-08-20T11:48:33Z</time>
      </trkpt>
      <trkpt lat="46.65255" lon="5.48626">
        <ele>243.4</ele>
        <time>2022-08-20T11:48:39Z</time>
      </trkpt>
      <trkpt lat="46.65267" lon="5.48635">
        <ele>243.4</ele>
        <time>2022-08-20T11:48:41Z</time>
      </trkpt>
      <trkpt lat="46.65279" lon="5.48643">
        <ele>243.4</ele>
        <time>2022-08-20T11:48:43Z</time>
      </trkpt>
      <trkpt lat="46.65298" lon="5.48651">
        <ele>243</ele>
        <time>2022-08-20T11:48:46Z</time>
      </trkpt>
      <trkpt lat="46.65312" lon="5.48652">
        <ele>243</ele>
        <time>2022-08-20T11:48:48Z</time>
      </trkpt>
      <trkpt lat="46.65334" lon="5.48656">
        <ele>242.8</ele>
        <time>2022-08-20T11:48:51Z</time>
      </trkpt>
      <trkpt lat="46.65357" lon="5.48662">
        <ele>242</ele>
        <time>2022-08-20T11:48:54Z</time>
      </trkpt>
      <trkpt lat="46.65377" lon="5.48671">
        <ele>241.2</ele>
        <time>2022-08-20T11:48:56Z</time>
      </trkpt>
      <trkpt lat="46.65387" lon="5.48678">
        <ele>240.8</ele>
        <time>2022-08-20T11:48:57Z</time>
      </trkpt>
      <trkpt lat="46.65414" lon="5.48698">
        <ele>239.2</ele>
        <time>2022-08-20T11:49:00Z</time>
      </trkpt>
      <trkpt lat="46.65424" lon="5.48704">
        <ele>239</ele>
        <time>2022-08-20T11:49:01Z</time>
      </trkpt>
      <trkpt lat="46.65436" lon="5.48709">
        <ele>237.8</ele>
        <time>2022-08-20T11:49:02Z</time>
      </trkpt>
      <trkpt lat="46.65455" lon="5.48711">
        <ele>236.6</ele>
        <time>2022-08-20T11:49:04Z</time>
      </trkpt>
      <trkpt lat="46.65465" lon="5.48709">
        <ele>235.2</ele>
        <time>2022-08-20T11:49:05Z</time>
      </trkpt>
      <trkpt lat="46.65486" lon="5.48705">
        <ele>233.2</ele>
        <time>2022-08-20T11:49:07Z</time>
      </trkpt>
      <trkpt lat="46.65496" lon="5.48704">
        <ele>232.8</ele>
        <time>2022-08-20T11:49:08Z</time>
      </trkpt>
      <trkpt lat="46.65507" lon="5.48703">
        <ele>232</ele>
        <time>2022-08-20T11:49:09Z</time>
      </trkpt>
      <trkpt lat="46.6554" lon="5.48699">
        <ele>231</ele>
        <time>2022-08-20T11:49:13Z</time>
      </trkpt>
      <trkpt lat="46.65547" lon="5.48699">
        <ele>230.8</ele>
        <time>2022-08-20T11:49:14Z</time>
      </trkpt>
      <trkpt lat="46.65554" lon="5.48699">
        <ele>230.8</ele>
        <time>2022-08-20T11:49:15Z</time>
      </trkpt>
      <trkpt lat="46.65567" lon="5.48703">
        <ele>230.6</ele>
        <time>2022-08-20T11:49:17Z</time>
      </trkpt>
      <trkpt lat="46.65579" lon="5.48712">
        <ele>230.4</ele>
        <time>2022-08-20T11:49:19Z</time>
      </trkpt>
      <trkpt lat="46.65589" lon="5.48722">
        <ele>230.4</ele>
        <time>2022-08-20T11:49:21Z</time>
      </trkpt>
      <trkpt lat="46.65611" lon="5.4875">
        <ele>230.8</ele>
        <time>2022-08-20T11:49:26Z</time>
      </trkpt>
      <trkpt lat="46.65627" lon="5.48771">
        <ele>231.2</ele>
        <time>2022-08-20T11:49:30Z</time>
      </trkpt>
      <trkpt lat="46.65647" lon="5.48799">
        <ele>232</ele>
        <time>2022-08-20T11:49:35Z</time>
      </trkpt>
      <trkpt lat="46.6565" lon="5.48805">
        <ele>232</ele>
        <time>2022-08-20T11:49:36Z</time>
      </trkpt>
      <trkpt lat="46.65659" lon="5.48821">
        <ele>233</ele>
        <time>2022-08-20T11:49:39Z</time>
      </trkpt>
      <trkpt lat="46.65662" lon="5.48827">
        <ele>233.4</ele>
        <time>2022-08-20T11:49:40Z</time>
      </trkpt>
      <trkpt lat="46.65668" lon="5.48845">
        <ele>234</ele>
        <time>2022-08-20T11:49:43Z</time>
      </trkpt>
      <trkpt lat="46.6567" lon="5.48851">
        <ele>234.6</ele>
        <time>2022-08-20T11:49:44Z</time>
      </trkpt>
      <trkpt lat="46.65672" lon="5.48863">
        <ele>235</ele>
        <time>2022-08-20T11:49:46Z</time>
      </trkpt>
      <trkpt lat="46.65675" lon="5.48875">
        <ele>235.6</ele>
        <time>2022-08-20T11:49:48Z</time>
      </trkpt>
      <trkpt lat="46.65676" lon="5.4888">
        <ele>236</ele>
        <time>2022-08-20T11:49:49Z</time>
      </trkpt>
      <trkpt lat="46.65678" lon="5.48893">
        <ele>237</ele>
        <time>2022-08-20T11:49:51Z</time>
      </trkpt>
      <trkpt lat="46.6568" lon="5.48906">
        <ele>237.6</ele>
        <time>2022-08-20T11:49:53Z</time>
      </trkpt>
      <trkpt lat="46.65681" lon="5.48919">
        <ele>238</ele>
        <time>2022-08-20T11:49:55Z</time>
      </trkpt>
      <trkpt lat="46.65681" lon="5.48926">
        <ele>238.6</ele>
        <time>2022-08-20T11:49:56Z</time>
      </trkpt>
      <trkpt lat="46.65682" lon="5.48932">
        <ele>238.8</ele>
        <time>2022-08-20T11:49:57Z</time>
      </trkpt>
      <trkpt lat="46.65683" lon="5.48939">
        <ele>239</ele>
        <time>2022-08-20T11:49:58Z</time>
      </trkpt>
      <trkpt lat="46.65685" lon="5.48959">
        <ele>240.2</ele>
        <time>2022-08-20T11:50:01Z</time>
      </trkpt>
      <trkpt lat="46.6569" lon="5.49005">
        <ele>241.4</ele>
        <time>2022-08-20T11:50:08Z</time>
      </trkpt>
      <trkpt lat="46.65691" lon="5.49012">
        <ele>241.4</ele>
        <time>2022-08-20T11:50:09Z</time>
      </trkpt>
      <trkpt lat="46.65695" lon="5.49045">
        <ele>242</ele>
        <time>2022-08-20T11:50:14Z</time>
      </trkpt>
      <trkpt lat="46.65696" lon="5.49052">
        <ele>242.6</ele>
        <time>2022-08-20T11:50:15Z</time>
      </trkpt>
      <trkpt lat="46.65703" lon="5.49085">
        <ele>243.6</ele>
        <time>2022-08-20T11:50:20Z</time>
      </trkpt>
      <trkpt lat="46.65708" lon="5.49105">
        <ele>243.8</ele>
        <time>2022-08-20T11:50:23Z</time>
      </trkpt>
      <trkpt lat="46.65713" lon="5.49126">
        <ele>244.2</ele>
        <time>2022-08-20T11:50:26Z</time>
      </trkpt>
      <trkpt lat="46.65723" lon="5.49164">
        <ele>244.2</ele>
        <time>2022-08-20T11:50:31Z</time>
      </trkpt>
      <trkpt lat="46.65742" lon="5.49236">
        <ele>244.4</ele>
        <time>2022-08-20T11:50:40Z</time>
      </trkpt>
      <trkpt lat="46.6576" lon="5.49301">
        <ele>244.8</ele>
        <time>2022-08-20T11:50:48Z</time>
      </trkpt>
      <trkpt lat="46.65781" lon="5.49376">
        <ele>245</ele>
        <time>2022-08-20T11:50:57Z</time>
      </trkpt>
      <trkpt lat="46.65783" lon="5.49385">
        <ele>245</ele>
        <time>2022-08-20T11:50:58Z</time>
      </trkpt>
      <trkpt lat="46.65806" lon="5.49463">
        <ele>245.4</ele>
        <time>2022-08-20T11:51:07Z</time>
      </trkpt>
      <trkpt lat="46.65818" lon="5.49495">
        <ele>245.8</ele>
        <time>2022-08-20T11:51:11Z</time>
      </trkpt>
      <trkpt lat="46.6583" lon="5.49538">
        <ele>246.2</ele>
        <time>2022-08-20T11:51:16Z</time>
      </trkpt>
      <trkpt lat="46.65846" lon="5.4962">
        <ele>246.6</ele>
        <time>2022-08-20T11:51:25Z</time>
      </trkpt>
      <trkpt lat="46.65848" lon="5.49629">
        <ele>246.8</ele>
        <time>2022-08-20T11:51:26Z</time>
      </trkpt>
      <trkpt lat="46.65849" lon="5.49638">
        <ele>246.8</ele>
        <time>2022-08-20T11:51:27Z</time>
      </trkpt>
      <trkpt lat="46.65864" lon="5.49712">
        <ele>247.2</ele>
        <time>2022-08-20T11:51:35Z</time>
      </trkpt>
      <trkpt lat="46.65877" lon="5.49777">
        <ele>247.4</ele>
        <time>2022-08-20T11:51:42Z</time>
      </trkpt>
      <trkpt lat="46.65879" lon="5.49787">
        <ele>247.4</ele>
        <time>2022-08-20T11:51:43Z</time>
      </trkpt>
      <trkpt lat="46.65886" lon="5.49824">
        <ele>247.4</ele>
        <time>2022-08-20T11:51:47Z</time>
      </trkpt>
      <trkpt lat="46.65894" lon="5.49859">
        <ele>247.8</ele>
        <time>2022-08-20T11:51:51Z</time>
      </trkpt>
      <trkpt lat="46.65902" lon="5.49892">
        <ele>248.2</ele>
        <time>2022-08-20T11:51:55Z</time>
      </trkpt>
      <trkpt lat="46.65897" lon="5.49905">
        <ele>248.4</ele>
        <time>2022-08-20T11:51:57Z</time>
      </trkpt>
      <trkpt lat="46.65875" lon="5.49917">
        <ele>248.6</ele>
        <time>2022-08-20T11:52:01Z</time>
      </trkpt>
      <trkpt lat="46.65848" lon="5.49932">
        <ele>249</ele>
        <time>2022-08-20T11:52:05Z</time>
      </trkpt>
      <trkpt lat="46.65829" lon="5.49943">
        <ele>249</ele>
        <time>2022-08-20T11:52:08Z</time>
      </trkpt>
      <trkpt lat="46.65823" lon="5.49946">
        <ele>249</ele>
        <time>2022-08-20T11:52:09Z</time>
      </trkpt>
      <trkpt lat="46.65813" lon="5.49954">
        <ele>249.2</ele>
        <time>2022-08-20T11:52:11Z</time>
      </trkpt>
      <trkpt lat="46.65806" lon="5.49956">
        <ele>249</ele>
        <time>2022-08-20T11:52:12Z</time>
      </trkpt>
      <trkpt lat="46.658" lon="5.49959">
        <ele>249</ele>
        <time>2022-08-20T11:52:13Z</time>
      </trkpt>
      <trkpt lat="46.65782" lon="5.49971">
        <ele>249</ele>
        <time>2022-08-20T11:52:16Z</time>
      </trkpt>
      <trkpt lat="46.65734" lon="5.50002">
        <ele>248.8</ele>
        <time>2022-08-20T11:52:23Z</time>
      </trkpt>
      <trkpt lat="46.65712" lon="5.5002">
        <ele>247.6</ele>
        <time>2022-08-20T11:52:26Z</time>
      </trkpt>
      <trkpt lat="46.65695" lon="5.50036">
        <ele>247</ele>
        <time>2022-08-20T11:52:28Z</time>
      </trkpt>
      <trkpt lat="46.65689" lon="5.50044">
        <ele>246.6</ele>
        <time>2022-08-20T11:52:29Z</time>
      </trkpt>
      <trkpt lat="46.65681" lon="5.50057">
        <ele>246.2</ele>
        <time>2022-08-20T11:52:30Z</time>
      </trkpt>
      <trkpt lat="46.65677" lon="5.50068">
        <ele>245.8</ele>
        <time>2022-08-20T11:52:31Z</time>
      </trkpt>
      <trkpt lat="46.65672" lon="5.50084">
        <ele>245</ele>
        <time>2022-08-20T11:52:32Z</time>
      </trkpt>
      <trkpt lat="46.65665" lon="5.50107">
        <ele>243.6</ele>
        <time>2022-08-20T11:52:34Z</time>
      </trkpt>
      <trkpt lat="46.65661" lon="5.50122">
        <ele>243</ele>
        <time>2022-08-20T11:52:35Z</time>
      </trkpt>
      <trkpt lat="46.6566" lon="5.50135">
        <ele>242.8</ele>
        <time>2022-08-20T11:52:36Z</time>
      </trkpt>
      <trkpt lat="46.65661" lon="5.50145">
        <ele>242.2</ele>
        <time>2022-08-20T11:52:37Z</time>
      </trkpt>
      <trkpt lat="46.65667" lon="5.50171">
        <ele>241.6</ele>
        <time>2022-08-20T11:52:39Z</time>
      </trkpt>
      <trkpt lat="46.65674" lon="5.50199">
        <ele>241.2</ele>
        <time>2022-08-20T11:52:41Z</time>
      </trkpt>
      <trkpt lat="46.65686" lon="5.5026">
        <ele>240.2</ele>
        <time>2022-08-20T11:52:46Z</time>
      </trkpt>
      <trkpt lat="46.65695" lon="5.50337">
        <ele>239.6</ele>
        <time>2022-08-20T11:52:52Z</time>
      </trkpt>
      <trkpt lat="46.65697" lon="5.50371">
        <ele>239.2</ele>
        <time>2022-08-20T11:52:55Z</time>
      </trkpt>
      <trkpt lat="46.65699" lon="5.50449">
        <ele>239.2</ele>
        <time>2022-08-20T11:53:02Z</time>
      </trkpt>
      <trkpt lat="46.65704" lon="5.50522">
        <ele>240</ele>
        <time>2022-08-20T11:53:09Z</time>
      </trkpt>
      <trkpt lat="46.65709" lon="5.50543">
        <ele>240.2</ele>
        <time>2022-08-20T11:53:11Z</time>
      </trkpt>
      <trkpt lat="46.65717" lon="5.5057">
        <ele>240.4</ele>
        <time>2022-08-20T11:53:14Z</time>
      </trkpt>
      <trkpt lat="46.6572" lon="5.50582">
        <ele>240.4</ele>
        <time>2022-08-20T11:53:15Z</time>
      </trkpt>
      <trkpt lat="46.65722" lon="5.5061">
        <ele>240.6</ele>
        <time>2022-08-20T11:53:18Z</time>
      </trkpt>
      <trkpt lat="46.65722" lon="5.50622">
        <ele>240.6</ele>
        <time>2022-08-20T11:53:19Z</time>
      </trkpt>
      <trkpt lat="46.65717" lon="5.50641">
        <ele>240.8</ele>
        <time>2022-08-20T11:53:21Z</time>
      </trkpt>
      <trkpt lat="46.65704" lon="5.50686">
        <ele>241.4</ele>
        <time>2022-08-20T11:53:26Z</time>
      </trkpt>
      <trkpt lat="46.65693" lon="5.50729">
        <ele>242.4</ele>
        <time>2022-08-20T11:53:31Z</time>
      </trkpt>
      <trkpt lat="46.65692" lon="5.50741">
        <ele>242.4</ele>
        <time>2022-08-20T11:53:32Z</time>
      </trkpt>
      <trkpt lat="46.65691" lon="5.5077">
        <ele>242.8</ele>
        <time>2022-08-20T11:53:35Z</time>
      </trkpt>
      <trkpt lat="46.6569" lon="5.50779">
        <ele>243</ele>
        <time>2022-08-20T11:53:36Z</time>
      </trkpt>
      <trkpt lat="46.65689" lon="5.50787">
        <ele>243</ele>
        <time>2022-08-20T11:53:37Z</time>
      </trkpt>
      <trkpt lat="46.65691" lon="5.50802">
        <ele>243</ele>
        <time>2022-08-20T11:53:39Z</time>
      </trkpt>
      <trkpt lat="46.65692" lon="5.5081">
        <ele>243.2</ele>
        <time>2022-08-20T11:53:40Z</time>
      </trkpt>
      <trkpt lat="46.65695" lon="5.50818">
        <ele>243.6</ele>
        <time>2022-08-20T11:53:41Z</time>
      </trkpt>
      <trkpt lat="46.657" lon="5.50832">
        <ele>244.2</ele>
        <time>2022-08-20T11:53:43Z</time>
      </trkpt>
      <trkpt lat="46.65707" lon="5.50843">
        <ele>245</ele>
        <time>2022-08-20T11:53:45Z</time>
      </trkpt>
      <trkpt lat="46.65711" lon="5.50848">
        <ele>245.2</ele>
        <time>2022-08-20T11:53:46Z</time>
      </trkpt>
      <trkpt lat="46.65719" lon="5.50856">
        <ele>246</ele>
        <time>2022-08-20T11:53:48Z</time>
      </trkpt>
      <trkpt lat="46.65723" lon="5.50859">
        <ele>246.2</ele>
        <time>2022-08-20T11:53:49Z</time>
      </trkpt>
      <trkpt lat="46.65727" lon="5.50862">
        <ele>246.6</ele>
        <time>2022-08-20T11:53:50Z</time>
      </trkpt>
      <trkpt lat="46.6574" lon="5.5087">
        <ele>247.2</ele>
        <time>2022-08-20T11:53:53Z</time>
      </trkpt>
      <trkpt lat="46.65749" lon="5.50875">
        <ele>248</ele>
        <time>2022-08-20T11:53:55Z</time>
      </trkpt>
      <trkpt lat="46.65753" lon="5.50878">
        <ele>248.2</ele>
        <time>2022-08-20T11:53:56Z</time>
      </trkpt>
      <trkpt lat="46.65757" lon="5.50882">
        <ele>248.8</ele>
        <time>2022-08-20T11:53:57Z</time>
      </trkpt>
      <trkpt lat="46.65766" lon="5.50894">
        <ele>249.4</ele>
        <time>2022-08-20T11:54:00Z</time>
      </trkpt>
      <trkpt lat="46.65769" lon="5.509">
        <ele>249.8</ele>
        <time>2022-08-20T11:54:01Z</time>
      </trkpt>
      <trkpt lat="46.65771" lon="5.50904">
        <ele>250.2</ele>
        <time>2022-08-20T11:54:02Z</time>
      </trkpt>
      <trkpt lat="46.65774" lon="5.50917">
        <ele>250.8</ele>
        <time>2022-08-20T11:54:04Z</time>
      </trkpt>
      <trkpt lat="46.65775" lon="5.50928">
        <ele>251.4</ele>
        <time>2022-08-20T11:54:06Z</time>
      </trkpt>
      <trkpt lat="46.65776" lon="5.50939">
        <ele>252</ele>
        <time>2022-08-20T11:54:08Z</time>
      </trkpt>
      <trkpt lat="46.65775" lon="5.50956">
        <ele>253.2</ele>
        <time>2022-08-20T11:54:11Z</time>
      </trkpt>
      <trkpt lat="46.65773" lon="5.5098">
        <ele>254.4</ele>
        <time>2022-08-20T11:54:15Z</time>
      </trkpt>
      <trkpt lat="46.65773" lon="5.50986">
        <ele>254.6</ele>
        <time>2022-08-20T11:54:16Z</time>
      </trkpt>
      <trkpt lat="46.65772" lon="5.51">
        <ele>255.2</ele>
        <time>2022-08-20T11:54:18Z</time>
      </trkpt>
      <trkpt lat="46.65772" lon="5.51013">
        <ele>255.4</ele>
        <time>2022-08-20T11:54:20Z</time>
      </trkpt>
      <trkpt lat="46.65772" lon="5.51033">
        <ele>256.2</ele>
        <time>2022-08-20T11:54:23Z</time>
      </trkpt>
      <trkpt lat="46.65772" lon="5.51046">
        <ele>256.6</ele>
        <time>2022-08-20T11:54:25Z</time>
      </trkpt>
      <trkpt lat="46.65773" lon="5.51079">
        <ele>257.4</ele>
        <time>2022-08-20T11:54:30Z</time>
      </trkpt>
      <trkpt lat="46.65773" lon="5.51093">
        <ele>257.8</ele>
        <time>2022-08-20T11:54:32Z</time>
      </trkpt>
      <trkpt lat="46.65776" lon="5.51158">
        <ele>258.8</ele>
        <time>2022-08-20T11:54:41Z</time>
      </trkpt>
      <trkpt lat="46.65776" lon="5.51173">
        <ele>258.8</ele>
        <time>2022-08-20T11:54:43Z</time>
      </trkpt>
      <trkpt lat="46.65779" lon="5.51233">
        <ele>259.6</ele>
        <time>2022-08-20T11:54:51Z</time>
      </trkpt>
      <trkpt lat="46.65779" lon="5.51279">
        <ele>260</ele>
        <time>2022-08-20T11:54:57Z</time>
      </trkpt>
      <trkpt lat="46.6578" lon="5.51309">
        <ele>260</ele>
        <time>2022-08-20T11:55:01Z</time>
      </trkpt>
      <trkpt lat="46.65782" lon="5.51365">
        <ele>260.4</ele>
        <time>2022-08-20T11:55:09Z</time>
      </trkpt>
      <trkpt lat="46.65783" lon="5.51401">
        <ele>260.8</ele>
        <time>2022-08-20T11:55:15Z</time>
      </trkpt>
      <trkpt lat="46.65784" lon="5.51405">
        <ele>261</ele>
        <time>2022-08-20T11:55:16Z</time>
      </trkpt>
      <trkpt lat="46.65786" lon="5.51407">
        <ele>261.2</ele>
        <time>2022-08-20T11:55:17Z</time>
      </trkpt>
      <trkpt lat="46.65787" lon="5.51392">
        <ele>261.4</ele>
        <time>2022-08-20T11:55:20Z</time>
      </trkpt>
      <trkpt lat="46.65786" lon="5.51365">
        <ele>261.6</ele>
        <time>2022-08-20T11:55:23Z</time>
      </trkpt>
      <trkpt lat="46.65785" lon="5.51345">
        <ele>261.6</ele>
        <time>2022-08-20T11:55:25Z</time>
      </trkpt>
      <trkpt lat="46.65786" lon="5.51306">
        <ele>262</ele>
        <time>2022-08-20T11:55:29Z</time>
      </trkpt>
      <trkpt lat="46.65785" lon="5.51296">
        <ele>262</ele>
        <time>2022-08-20T11:55:30Z</time>
      </trkpt>
      <trkpt lat="46.65784" lon="5.51243">
        <ele>261.8</ele>
        <time>2022-08-20T11:55:35Z</time>
      </trkpt>
      <trkpt lat="46.65781" lon="5.51176">
        <ele>260</ele>
        <time>2022-08-20T11:55:41Z</time>
      </trkpt>
      <trkpt lat="46.65781" lon="5.51164">
        <ele>259.8</ele>
        <time>2022-08-20T11:55:42Z</time>
      </trkpt>
      <trkpt lat="46.65778" lon="5.51083">
        <ele>259</ele>
        <time>2022-08-20T11:55:49Z</time>
      </trkpt>
      <trkpt lat="46.65777" lon="5.51059">
        <ele>258.8</ele>
        <time>2022-08-20T11:55:51Z</time>
      </trkpt>
      <trkpt lat="46.65776" lon="5.51009">
        <ele>257.8</ele>
        <time>2022-08-20T11:55:55Z</time>
      </trkpt>
      <trkpt lat="46.65776" lon="5.50983">
        <ele>257.4</ele>
        <time>2022-08-20T11:55:57Z</time>
      </trkpt>
      <trkpt lat="46.65779" lon="5.50941">
        <ele>256.6</ele>
        <time>2022-08-20T11:56:00Z</time>
      </trkpt>
      <trkpt lat="46.65778" lon="5.50927">
        <ele>256.2</ele>
        <time>2022-08-20T11:56:01Z</time>
      </trkpt>
      <trkpt lat="46.65777" lon="5.50912">
        <ele>256</ele>
        <time>2022-08-20T11:56:02Z</time>
      </trkpt>
      <trkpt lat="46.65773" lon="5.50898">
        <ele>255.4</ele>
        <time>2022-08-20T11:56:03Z</time>
      </trkpt>
      <trkpt lat="46.6576" lon="5.50876">
        <ele>253.6</ele>
        <time>2022-08-20T11:56:05Z</time>
      </trkpt>
      <trkpt lat="46.6574" lon="5.50861">
        <ele>252.6</ele>
        <time>2022-08-20T11:56:07Z</time>
      </trkpt>
      <trkpt lat="46.65728" lon="5.50853">
        <ele>252</ele>
        <time>2022-08-20T11:56:08Z</time>
      </trkpt>
      <trkpt lat="46.65708" lon="5.50835">
        <ele>251.2</ele>
        <time>2022-08-20T11:56:10Z</time>
      </trkpt>
      <trkpt lat="46.657" lon="5.50821">
        <ele>250.8</ele>
        <time>2022-08-20T11:56:11Z</time>
      </trkpt>
      <trkpt lat="46.65695" lon="5.50808">
        <ele>249.8</ele>
        <time>2022-08-20T11:56:12Z</time>
      </trkpt>
      <trkpt lat="46.65691" lon="5.50787">
        <ele>249.4</ele>
        <time>2022-08-20T11:56:13Z</time>
      </trkpt>
      <trkpt lat="46.6569" lon="5.50769">
        <ele>248.2</ele>
        <time>2022-08-20T11:56:14Z</time>
      </trkpt>
      <trkpt lat="46.6569" lon="5.5075">
        <ele>246.8</ele>
        <time>2022-08-20T11:56:15Z</time>
      </trkpt>
      <trkpt lat="46.65692" lon="5.50733">
        <ele>246.4</ele>
        <time>2022-08-20T11:56:16Z</time>
      </trkpt>
      <trkpt lat="46.65694" lon="5.50716">
        <ele>244.6</ele>
        <time>2022-08-20T11:56:17Z</time>
      </trkpt>
      <trkpt lat="46.65702" lon="5.50684">
        <ele>242.4</ele>
        <time>2022-08-20T11:56:19Z</time>
      </trkpt>
      <trkpt lat="46.65711" lon="5.50658">
        <ele>241.4</ele>
        <time>2022-08-20T11:56:21Z</time>
      </trkpt>
      <trkpt lat="46.65722" lon="5.50616">
        <ele>240.8</ele>
        <time>2022-08-20T11:56:24Z</time>
      </trkpt>
      <trkpt lat="46.65721" lon="5.50572">
        <ele>240.6</ele>
        <time>2022-08-20T11:56:27Z</time>
      </trkpt>
      <trkpt lat="46.65708" lon="5.50518">
        <ele>240.6</ele>
        <time>2022-08-20T11:56:31Z</time>
      </trkpt>
      <trkpt lat="46.65705" lon="5.50502">
        <ele>240.6</ele>
        <time>2022-08-20T11:56:32Z</time>
      </trkpt>
      <trkpt lat="46.65702" lon="5.50461">
        <ele>240.6</ele>
        <time>2022-08-20T11:56:35Z</time>
      </trkpt>
      <trkpt lat="46.65702" lon="5.50421">
        <ele>240.2</ele>
        <time>2022-08-20T11:56:38Z</time>
      </trkpt>
      <trkpt lat="46.657" lon="5.50359">
        <ele>239.6</ele>
        <time>2022-08-20T11:56:43Z</time>
      </trkpt>
      <trkpt lat="46.65697" lon="5.50309">
        <ele>239</ele>
        <time>2022-08-20T11:56:47Z</time>
      </trkpt>
      <trkpt lat="46.6569" lon="5.50251">
        <ele>238.8</ele>
        <time>2022-08-20T11:56:52Z</time>
      </trkpt>
      <trkpt lat="46.65676" lon="5.50183">
        <ele>239.2</ele>
        <time>2022-08-20T11:56:58Z</time>
      </trkpt>
      <trkpt lat="46.65666" lon="5.50144">
        <ele>240</ele>
        <time>2022-08-20T11:57:02Z</time>
      </trkpt>
      <trkpt lat="46.65664" lon="5.50134">
        <ele>240.2</ele>
        <time>2022-08-20T11:57:03Z</time>
      </trkpt>
      <trkpt lat="46.65663" lon="5.50124">
        <ele>240.4</ele>
        <time>2022-08-20T11:57:04Z</time>
      </trkpt>
      <trkpt lat="46.65664" lon="5.50116">
        <ele>240.6</ele>
        <time>2022-08-20T11:57:05Z</time>
      </trkpt>
      <trkpt lat="46.65669" lon="5.50099">
        <ele>240.8</ele>
        <time>2022-08-20T11:57:07Z</time>
      </trkpt>
      <trkpt lat="46.65675" lon="5.50081">
        <ele>241</ele>
        <time>2022-08-20T11:57:09Z</time>
      </trkpt>
      <trkpt lat="46.65688" lon="5.50048">
        <ele>241.2</ele>
        <time>2022-08-20T11:57:13Z</time>
      </trkpt>
      <trkpt lat="46.65696" lon="5.50036">
        <ele>241.2</ele>
        <time>2022-08-20T11:57:15Z</time>
      </trkpt>
      <trkpt lat="46.65706" lon="5.50028">
        <ele>241.2</ele>
        <time>2022-08-20T11:57:17Z</time>
      </trkpt>
      <trkpt lat="46.65727" lon="5.50012">
        <ele>242.6</ele>
        <time>2022-08-20T11:57:22Z</time>
      </trkpt>
      <trkpt lat="46.65731" lon="5.5001">
        <ele>243</ele>
        <time>2022-08-20T11:57:23Z</time>
      </trkpt>
      <trkpt lat="46.65738" lon="5.50004">
        <ele>243.8</ele>
        <time>2022-08-20T11:57:25Z</time>
      </trkpt>
      <trkpt lat="46.65748" lon="5.49997">
        <ele>245</ele>
        <time>2022-08-20T11:57:28Z</time>
      </trkpt>
      <trkpt lat="46.65755" lon="5.49992">
        <ele>246</ele>
        <time>2022-08-20T11:57:30Z</time>
      </trkpt>
      <trkpt lat="46.65758" lon="5.4999">
        <ele>246.6</ele>
        <time>2022-08-20T11:57:31Z</time>
      </trkpt>
      <trkpt lat="46.65775" lon="5.49978">
        <ele>247.2</ele>
        <time>2022-08-20T11:57:35Z</time>
      </trkpt>
      <trkpt lat="46.65783" lon="5.49972">
        <ele>247.6</ele>
        <time>2022-08-20T11:57:37Z</time>
      </trkpt>
      <trkpt lat="46.65792" lon="5.49966">
        <ele>248</ele>
        <time>2022-08-20T11:57:39Z</time>
      </trkpt>
      <trkpt lat="46.65802" lon="5.49961">
        <ele>248.4</ele>
        <time>2022-08-20T11:57:41Z</time>
      </trkpt>
      <trkpt lat="46.65811" lon="5.49955">
        <ele>248.4</ele>
        <time>2022-08-20T11:57:43Z</time>
      </trkpt>
      <trkpt lat="46.65825" lon="5.49946">
        <ele>248.6</ele>
        <time>2022-08-20T11:57:46Z</time>
      </trkpt>
      <trkpt lat="46.65855" lon="5.49929">
        <ele>248.6</ele>
        <time>2022-08-20T11:57:52Z</time>
      </trkpt>
      <trkpt lat="46.65866" lon="5.49924">
        <ele>248.4</ele>
        <time>2022-08-20T11:57:54Z</time>
      </trkpt>
      <trkpt lat="46.65887" lon="5.49913">
        <ele>248.4</ele>
        <time>2022-08-20T11:57:58Z</time>
      </trkpt>
      <trkpt lat="46.65896" lon="5.49907">
        <ele>248.2</ele>
        <time>2022-08-20T11:58:00Z</time>
      </trkpt>
      <trkpt lat="46.65905" lon="5.49907">
        <ele>248</ele>
        <time>2022-08-20T11:58:02Z</time>
      </trkpt>
      <trkpt lat="46.65915" lon="5.49908">
        <ele>248</ele>
        <time>2022-08-20T11:58:04Z</time>
      </trkpt>
      <trkpt lat="46.65928" lon="5.49904">
        <ele>248.2</ele>
        <time>2022-08-20T11:58:06Z</time>
      </trkpt>
      <trkpt lat="46.65962" lon="5.49895">
        <ele>248</ele>
        <time>2022-08-20T11:58:12Z</time>
      </trkpt>
      <trkpt lat="46.66007" lon="5.49881">
        <ele>248.6</ele>
        <time>2022-08-20T11:58:20Z</time>
      </trkpt>
      <trkpt lat="46.66019" lon="5.49877">
        <ele>248.8</ele>
        <time>2022-08-20T11:58:22Z</time>
      </trkpt>
      <trkpt lat="46.66049" lon="5.49867">
        <ele>249.6</ele>
        <time>2022-08-20T11:58:27Z</time>
      </trkpt>
      <trkpt lat="46.66062" lon="5.49863">
        <ele>249.8</ele>
        <time>2022-08-20T11:58:29Z</time>
      </trkpt>
      <trkpt lat="46.66107" lon="5.49851">
        <ele>250</ele>
        <time>2022-08-20T11:58:36Z</time>
      </trkpt>
      <trkpt lat="46.66163" lon="5.49845">
        <ele>249.8</ele>
        <time>2022-08-20T11:58:44Z</time>
      </trkpt>
      <trkpt lat="46.6622" lon="5.49846">
        <ele>250</ele>
        <time>2022-08-20T11:58:52Z</time>
      </trkpt>
      <trkpt lat="46.66227" lon="5.49846">
        <ele>250</ele>
        <time>2022-08-20T11:58:53Z</time>
      </trkpt>
      <trkpt lat="46.66281" lon="5.49849">
        <ele>249.4</ele>
        <time>2022-08-20T11:59:00Z</time>
      </trkpt>
      <trkpt lat="46.66338" lon="5.49853">
        <ele>249</ele>
        <time>2022-08-20T11:59:07Z</time>
      </trkpt>
      <trkpt lat="46.66346" lon="5.49854">
        <ele>249</ele>
        <time>2022-08-20T11:59:08Z</time>
      </trkpt>
      <trkpt lat="46.66403" lon="5.49862">
        <ele>249</ele>
        <time>2022-08-20T11:59:16Z</time>
      </trkpt>
      <trkpt lat="46.66412" lon="5.49864">
        <ele>249</ele>
        <time>2022-08-20T11:59:17Z</time>
      </trkpt>
      <trkpt lat="46.66471" lon="5.4988">
        <ele>249.6</ele>
        <time>2022-08-20T11:59:26Z</time>
      </trkpt>
      <trkpt lat="46.66499" lon="5.49892">
        <ele>250.4</ele>
        <time>2022-08-20T11:59:31Z</time>
      </trkpt>
      <trkpt lat="46.6651" lon="5.49895">
        <ele>250.6</ele>
        <time>2022-08-20T11:59:33Z</time>
      </trkpt>
      <trkpt lat="46.66521" lon="5.49898">
        <ele>251</ele>
        <time>2022-08-20T11:59:35Z</time>
      </trkpt>
      <trkpt lat="46.66548" lon="5.49904">
        <ele>252</ele>
        <time>2022-08-20T11:59:40Z</time>
      </trkpt>
      <trkpt lat="46.66554" lon="5.49904">
        <ele>252.2</ele>
        <time>2022-08-20T11:59:41Z</time>
      </trkpt>
      <trkpt lat="46.66576" lon="5.49908">
        <ele>253.2</ele>
        <time>2022-08-20T11:59:45Z</time>
      </trkpt>
      <trkpt lat="46.66599" lon="5.4991">
        <ele>254.2</ele>
        <time>2022-08-20T11:59:49Z</time>
      </trkpt>
      <trkpt lat="46.66648" lon="5.49909">
        <ele>254.8</ele>
        <time>2022-08-20T11:59:57Z</time>
      </trkpt>
      <trkpt lat="46.66683" lon="5.49904">
        <ele>254.4</ele>
        <time>2022-08-20T12:00:02Z</time>
      </trkpt>
      <trkpt lat="46.66698" lon="5.49896">
        <ele>254.2</ele>
        <time>2022-08-20T12:00:04Z</time>
      </trkpt>
      <trkpt lat="46.66713" lon="5.49885">
        <ele>254</ele>
        <time>2022-08-20T12:00:06Z</time>
      </trkpt>
      <trkpt lat="46.6673" lon="5.49875">
        <ele>253.2</ele>
        <time>2022-08-20T12:00:08Z</time>
      </trkpt>
      <trkpt lat="46.66749" lon="5.49868">
        <ele>251.6</ele>
        <time>2022-08-20T12:00:10Z</time>
      </trkpt>
      <trkpt lat="46.66781" lon="5.49867">
        <ele>250.4</ele>
        <time>2022-08-20T12:00:13Z</time>
      </trkpt>
      <trkpt lat="46.66791" lon="5.49868">
        <ele>249.4</ele>
        <time>2022-08-20T12:00:14Z</time>
      </trkpt>
      <trkpt lat="46.66802" lon="5.49867">
        <ele>248</ele>
        <time>2022-08-20T12:00:15Z</time>
      </trkpt>
      <trkpt lat="46.66823" lon="5.49864">
        <ele>246.4</ele>
        <time>2022-08-20T12:00:17Z</time>
      </trkpt>
      <trkpt lat="46.66845" lon="5.49859">
        <ele>244.8</ele>
        <time>2022-08-20T12:00:19Z</time>
      </trkpt>
      <trkpt lat="46.66865" lon="5.49854">
        <ele>243.2</ele>
        <time>2022-08-20T12:00:21Z</time>
      </trkpt>
      <trkpt lat="46.66888" lon="5.49847">
        <ele>242</ele>
        <time>2022-08-20T12:00:23Z</time>
      </trkpt>
      <trkpt lat="46.66903" lon="5.49842">
        <ele>240.2</ele>
        <time>2022-08-20T12:00:24Z</time>
      </trkpt>
      <trkpt lat="46.66913" lon="5.49838">
        <ele>239.4</ele>
        <time>2022-08-20T12:00:25Z</time>
      </trkpt>
      <trkpt lat="46.66926" lon="5.49832">
        <ele>238.2</ele>
        <time>2022-08-20T12:00:26Z</time>
      </trkpt>
      <trkpt lat="46.6695" lon="5.49814">
        <ele>237.2</ele>
        <time>2022-08-20T12:00:28Z</time>
      </trkpt>
      <trkpt lat="46.66961" lon="5.49802">
        <ele>236.6</ele>
        <time>2022-08-20T12:00:29Z</time>
      </trkpt>
      <trkpt lat="46.66969" lon="5.4979">
        <ele>236</ele>
        <time>2022-08-20T12:00:30Z</time>
      </trkpt>
      <trkpt lat="46.66973" lon="5.49777">
        <ele>234.8</ele>
        <time>2022-08-20T12:00:31Z</time>
      </trkpt>
      <trkpt lat="46.66982" lon="5.49742">
        <ele>233.2</ele>
        <time>2022-08-20T12:00:33Z</time>
      </trkpt>
      <trkpt lat="46.66992" lon="5.49717">
        <ele>233</ele>
        <time>2022-08-20T12:00:35Z</time>
      </trkpt>
      <trkpt lat="46.67009" lon="5.49697">
        <ele>233</ele>
        <time>2022-08-20T12:00:37Z</time>
      </trkpt>
      <trkpt lat="46.67018" lon="5.4969">
        <ele>233</ele>
        <time>2022-08-20T12:00:38Z</time>
      </trkpt>
      <trkpt lat="46.67052" lon="5.49667">
        <ele>233.4</ele>
        <time>2022-08-20T12:00:43Z</time>
      </trkpt>
      <trkpt lat="46.67056" lon="5.49656">
        <ele>233.8</ele>
        <time>2022-08-20T12:00:45Z</time>
      </trkpt>
      <trkpt lat="46.67055" lon="5.49649">
        <ele>234</ele>
        <time>2022-08-20T12:00:46Z</time>
      </trkpt>
      <trkpt lat="46.67053" lon="5.4964">
        <ele>234</ele>
        <time>2022-08-20T12:00:47Z</time>
      </trkpt>
      <trkpt lat="46.67053" lon="5.49622">
        <ele>234</ele>
        <time>2022-08-20T12:00:49Z</time>
      </trkpt>
      <trkpt lat="46.67063" lon="5.49578">
        <ele>233.6</ele>
        <time>2022-08-20T12:00:53Z</time>
      </trkpt>
      <trkpt lat="46.6708" lon="5.49516">
        <ele>232.8</ele>
        <time>2022-08-20T12:00:59Z</time>
      </trkpt>
      <trkpt lat="46.67085" lon="5.49494">
        <ele>232.6</ele>
        <time>2022-08-20T12:01:01Z</time>
      </trkpt>
      <trkpt lat="46.67091" lon="5.49474">
        <ele>232.6</ele>
        <time>2022-08-20T12:01:03Z</time>
      </trkpt>
      <trkpt lat="46.671" lon="5.49456">
        <ele>232.4</ele>
        <time>2022-08-20T12:01:05Z</time>
      </trkpt>
      <trkpt lat="46.67111" lon="5.49439">
        <ele>232.4</ele>
        <time>2022-08-20T12:01:07Z</time>
      </trkpt>
      <trkpt lat="46.6712" lon="5.49422">
        <ele>232.2</ele>
        <time>2022-08-20T12:01:09Z</time>
      </trkpt>
      <trkpt lat="46.67125" lon="5.49413">
        <ele>232.2</ele>
        <time>2022-08-20T12:01:10Z</time>
      </trkpt>
      <trkpt lat="46.67128" lon="5.49402">
        <ele>232.4</ele>
        <time>2022-08-20T12:01:11Z</time>
      </trkpt>
      <trkpt lat="46.67136" lon="5.49369">
        <ele>232.2</ele>
        <time>2022-08-20T12:01:14Z</time>
      </trkpt>
      <trkpt lat="46.6715" lon="5.49283">
        <ele>232.2</ele>
        <time>2022-08-20T12:01:22Z</time>
      </trkpt>
      <trkpt lat="46.67151" lon="5.49272">
        <ele>232.2</ele>
        <time>2022-08-20T12:01:23Z</time>
      </trkpt>
      <trkpt lat="46.67156" lon="5.49251">
        <ele>232.2</ele>
        <time>2022-08-20T12:01:25Z</time>
      </trkpt>
      <trkpt lat="46.67167" lon="5.49221">
        <ele>232.2</ele>
        <time>2022-08-20T12:01:28Z</time>
      </trkpt>
      <trkpt lat="46.67174" lon="5.49201">
        <ele>232.2</ele>
        <time>2022-08-20T12:01:30Z</time>
      </trkpt>
      <trkpt lat="46.67179" lon="5.4918">
        <ele>232.4</ele>
        <time>2022-08-20T12:01:32Z</time>
      </trkpt>
      <trkpt lat="46.6718" lon="5.49157">
        <ele>232.6</ele>
        <time>2022-08-20T12:01:34Z</time>
      </trkpt>
      <trkpt lat="46.67178" lon="5.49123">
        <ele>232.6</ele>
        <time>2022-08-20T12:01:37Z</time>
      </trkpt>
      <trkpt lat="46.67177" lon="5.49043">
        <ele>233.2</ele>
        <time>2022-08-20T12:01:44Z</time>
      </trkpt>
      <trkpt lat="46.67178" lon="5.49008">
        <ele>233.4</ele>
        <time>2022-08-20T12:01:47Z</time>
      </trkpt>
      <trkpt lat="46.6718" lon="5.48997">
        <ele>233.6</ele>
        <time>2022-08-20T12:01:48Z</time>
      </trkpt>
      <trkpt lat="46.67182" lon="5.48989">
        <ele>233.6</ele>
        <time>2022-08-20T12:01:49Z</time>
      </trkpt>
      <trkpt lat="46.67189" lon="5.48967">
        <ele>233.8</ele>
        <time>2022-08-20T12:01:51Z</time>
      </trkpt>
      <trkpt lat="46.67204" lon="5.48922">
        <ele>234.2</ele>
        <time>2022-08-20T12:01:56Z</time>
      </trkpt>
      <trkpt lat="46.67206" lon="5.48912">
        <ele>234.4</ele>
        <time>2022-08-20T12:01:57Z</time>
      </trkpt>
      <trkpt lat="46.67211" lon="5.48882">
        <ele>234.6</ele>
        <time>2022-08-20T12:02:00Z</time>
      </trkpt>
      <trkpt lat="46.67216" lon="5.48863">
        <ele>234.8</ele>
        <time>2022-08-20T12:02:02Z</time>
      </trkpt>
      <trkpt lat="46.67219" lon="5.48854">
        <ele>235</ele>
        <time>2022-08-20T12:02:03Z</time>
      </trkpt>
      <trkpt lat="46.67227" lon="5.4882">
        <ele>235.6</ele>
        <time>2022-08-20T12:02:07Z</time>
      </trkpt>
      <trkpt lat="46.67229" lon="5.48812">
        <ele>235.8</ele>
        <time>2022-08-20T12:02:08Z</time>
      </trkpt>
      <trkpt lat="46.67236" lon="5.48778">
        <ele>237</ele>
        <time>2022-08-20T12:02:12Z</time>
      </trkpt>
      <trkpt lat="46.6724" lon="5.48762">
        <ele>237.4</ele>
        <time>2022-08-20T12:02:14Z</time>
      </trkpt>
      <trkpt lat="46.67243" lon="5.48747">
        <ele>238.2</ele>
        <time>2022-08-20T12:02:16Z</time>
      </trkpt>
      <trkpt lat="46.6725" lon="5.48726">
        <ele>239.2</ele>
        <time>2022-08-20T12:02:19Z</time>
      </trkpt>
      <trkpt lat="46.67252" lon="5.48719">
        <ele>239.2</ele>
        <time>2022-08-20T12:02:20Z</time>
      </trkpt>
      <trkpt lat="46.67259" lon="5.48691">
        <ele>240.2</ele>
        <time>2022-08-20T12:02:24Z</time>
      </trkpt>
      <trkpt lat="46.67272" lon="5.48649">
        <ele>241.4</ele>
        <time>2022-08-20T12:02:30Z</time>
      </trkpt>
      <trkpt lat="46.67287" lon="5.48597">
        <ele>242.4</ele>
        <time>2022-08-20T12:02:37Z</time>
      </trkpt>
      <trkpt lat="46.67305" lon="5.48531">
        <ele>242.4</ele>
        <time>2022-08-20T12:02:45Z</time>
      </trkpt>
      <trkpt lat="46.67327" lon="5.48463">
        <ele>242.4</ele>
        <time>2022-08-20T12:02:53Z</time>
      </trkpt>
      <trkpt lat="46.67348" lon="5.484">
        <ele>242.2</ele>
        <time>2022-08-20T12:03:00Z</time>
      </trkpt>
      <trkpt lat="46.67352" lon="5.48359">
        <ele>242</ele>
        <time>2022-08-20T12:03:04Z</time>
      </trkpt>
      <trkpt lat="46.67352" lon="5.48348">
        <ele>242</ele>
        <time>2022-08-20T12:03:05Z</time>
      </trkpt>
      <trkpt lat="46.67346" lon="5.48282">
        <ele>241.6</ele>
        <time>2022-08-20T12:03:11Z</time>
      </trkpt>
      <trkpt lat="46.67343" lon="5.48249">
        <ele>241.4</ele>
        <time>2022-08-20T12:03:14Z</time>
      </trkpt>
      <trkpt lat="46.67339" lon="5.48182">
        <ele>241</ele>
        <time>2022-08-20T12:03:20Z</time>
      </trkpt>
      <trkpt lat="46.6734" lon="5.4816">
        <ele>241</ele>
        <time>2022-08-20T12:03:22Z</time>
      </trkpt>
      <trkpt lat="46.67345" lon="5.4814">
        <ele>241.2</ele>
        <time>2022-08-20T12:03:24Z</time>
      </trkpt>
      <trkpt lat="46.67355" lon="5.48127">
        <ele>241.4</ele>
        <time>2022-08-20T12:03:26Z</time>
      </trkpt>
      <trkpt lat="46.67361" lon="5.48122">
        <ele>241.4</ele>
        <time>2022-08-20T12:03:27Z</time>
      </trkpt>
      <trkpt lat="46.67367" lon="5.48119">
        <ele>241.4</ele>
        <time>2022-08-20T12:03:28Z</time>
      </trkpt>
      <trkpt lat="46.6738" lon="5.48116">
        <ele>241.4</ele>
        <time>2022-08-20T12:03:30Z</time>
      </trkpt>
      <trkpt lat="46.67385" lon="5.48115">
        <ele>241.6</ele>
        <time>2022-08-20T12:03:31Z</time>
      </trkpt>
      <trkpt lat="46.6739" lon="5.48115">
        <ele>241.8</ele>
        <time>2022-08-20T12:03:32Z</time>
      </trkpt>
      <trkpt lat="46.67397" lon="5.48118">
        <ele>242</ele>
        <time>2022-08-20T12:03:34Z</time>
      </trkpt>
      <trkpt lat="46.67408" lon="5.48109">
        <ele>242</ele>
        <time>2022-08-20T12:03:37Z</time>
      </trkpt>
      <trkpt lat="46.67419" lon="5.48103">
        <ele>242.2</ele>
        <time>2022-08-20T12:03:40Z</time>
      </trkpt>
      <trkpt lat="46.67425" lon="5.48088">
        <ele>242.2</ele>
        <time>2022-08-20T12:03:43Z</time>
      </trkpt>
      <trkpt lat="46.67438" lon="5.48063">
        <ele>242.2</ele>
        <time>2022-08-20T12:03:47Z</time>
      </trkpt>
      <trkpt lat="46.67453" lon="5.4802">
        <ele>242.2</ele>
        <time>2022-08-20T12:03:52Z</time>
      </trkpt>
      <trkpt lat="46.67469" lon="5.47958">
        <ele>242.2</ele>
        <time>2022-08-20T12:03:58Z</time>
      </trkpt>
      <trkpt lat="46.67473" lon="5.47948">
        <ele>242.2</ele>
        <time>2022-08-20T12:03:59Z</time>
      </trkpt>
      <trkpt lat="46.67477" lon="5.47939">
        <ele>242.2</ele>
        <time>2022-08-20T12:04:00Z</time>
      </trkpt>
      <trkpt lat="46.67492" lon="5.47914">
        <ele>242.2</ele>
        <time>2022-08-20T12:04:03Z</time>
      </trkpt>
      <trkpt lat="46.67522" lon="5.4786">
        <ele>242</ele>
        <time>2022-08-20T12:04:10Z</time>
      </trkpt>
      <trkpt lat="46.67553" lon="5.47816">
        <ele>242</ele>
        <time>2022-08-20T12:04:16Z</time>
      </trkpt>
      <trkpt lat="46.67603" lon="5.47761">
        <ele>241.8</ele>
        <time>2022-08-20T12:04:24Z</time>
      </trkpt>
      <trkpt lat="46.67649" lon="5.47709">
        <ele>241.8</ele>
        <time>2022-08-20T12:04:32Z</time>
      </trkpt>
      <trkpt lat="46.67661" lon="5.47694">
        <ele>241.8</ele>
        <time>2022-08-20T12:04:34Z</time>
      </trkpt>
      <trkpt lat="46.67704" lon="5.47639">
        <ele>241.8</ele>
        <time>2022-08-20T12:04:42Z</time>
      </trkpt>
      <trkpt lat="46.67711" lon="5.4763">
        <ele>241.8</ele>
        <time>2022-08-20T12:04:43Z</time>
      </trkpt>
      <trkpt lat="46.67754" lon="5.47589">
        <ele>241.8</ele>
        <time>2022-08-20T12:04:50Z</time>
      </trkpt>
      <trkpt lat="46.67804" lon="5.47548">
        <ele>241.2</ele>
        <time>2022-08-20T12:04:58Z</time>
      </trkpt>
      <trkpt lat="46.67845" lon="5.47512">
        <ele>240.6</ele>
        <time>2022-08-20T12:05:05Z</time>
      </trkpt>
      <trkpt lat="46.6787" lon="5.47488">
        <ele>240.4</ele>
        <time>2022-08-20T12:05:09Z</time>
      </trkpt>
      <trkpt lat="46.67888" lon="5.47467">
        <ele>240.4</ele>
        <time>2022-08-20T12:05:12Z</time>
      </trkpt>
      <trkpt lat="46.67893" lon="5.47459">
        <ele>240.4</ele>
        <time>2022-08-20T12:05:13Z</time>
      </trkpt>
      <trkpt lat="46.67912" lon="5.47423">
        <ele>239.8</ele>
        <time>2022-08-20T12:05:17Z</time>
      </trkpt>
      <trkpt lat="46.6792" lon="5.47403">
        <ele>239.4</ele>
        <time>2022-08-20T12:05:19Z</time>
      </trkpt>
      <trkpt lat="46.67944" lon="5.47344">
        <ele>238.6</ele>
        <time>2022-08-20T12:05:25Z</time>
      </trkpt>
      <trkpt lat="46.67948" lon="5.47334">
        <ele>238.6</ele>
        <time>2022-08-20T12:05:26Z</time>
      </trkpt>
      <trkpt lat="46.67952" lon="5.47313">
        <ele>238.6</ele>
        <time>2022-08-20T12:05:28Z</time>
      </trkpt>
      <trkpt lat="46.67953" lon="5.47303">
        <ele>238.4</ele>
        <time>2022-08-20T12:05:29Z</time>
      </trkpt>
      <trkpt lat="46.67952" lon="5.47292">
        <ele>238.4</ele>
        <time>2022-08-20T12:05:30Z</time>
      </trkpt>
      <trkpt lat="46.67949" lon="5.47272">
        <ele>238.6</ele>
        <time>2022-08-20T12:05:32Z</time>
      </trkpt>
      <trkpt lat="46.67929" lon="5.47204">
        <ele>238.8</ele>
        <time>2022-08-20T12:05:39Z</time>
      </trkpt>
      <trkpt lat="46.67919" lon="5.47142">
        <ele>239.2</ele>
        <time>2022-08-20T12:05:45Z</time>
      </trkpt>
      <trkpt lat="46.67919" lon="5.47131">
        <ele>239.2</ele>
        <time>2022-08-20T12:05:46Z</time>
      </trkpt>
      <trkpt lat="46.67922" lon="5.47087">
        <ele>239.2</ele>
        <time>2022-08-20T12:05:50Z</time>
      </trkpt>
      <trkpt lat="46.67932" lon="5.47001">
        <ele>238.8</ele>
        <time>2022-08-20T12:05:58Z</time>
      </trkpt>
      <trkpt lat="46.67951" lon="5.4692">
        <ele>238.6</ele>
        <time>2022-08-20T12:06:06Z</time>
      </trkpt>
      <trkpt lat="46.67975" lon="5.46841">
        <ele>238.6</ele>
        <time>2022-08-20T12:06:14Z</time>
      </trkpt>
      <trkpt lat="46.67982" lon="5.46821">
        <ele>238.4</ele>
        <time>2022-08-20T12:06:16Z</time>
      </trkpt>
      <trkpt lat="46.67993" lon="5.46792">
        <ele>238.4</ele>
        <time>2022-08-20T12:06:19Z</time>
      </trkpt>
      <trkpt lat="46.68004" lon="5.46775">
        <ele>238.2</ele>
        <time>2022-08-20T12:06:21Z</time>
      </trkpt>
      <trkpt lat="46.68036" lon="5.46742">
        <ele>237.8</ele>
        <time>2022-08-20T12:06:26Z</time>
      </trkpt>
      <trkpt lat="46.68083" lon="5.46686">
        <ele>237.8</ele>
        <time>2022-08-20T12:06:34Z</time>
      </trkpt>
      <trkpt lat="46.68126" lon="5.46626">
        <ele>238</ele>
        <time>2022-08-20T12:06:42Z</time>
      </trkpt>
      <trkpt lat="46.68132" lon="5.46618">
        <ele>238</ele>
        <time>2022-08-20T12:06:43Z</time>
      </trkpt>
      <trkpt lat="46.68144" lon="5.46592">
        <ele>237.8</ele>
        <time>2022-08-20T12:06:46Z</time>
      </trkpt>
      <trkpt lat="46.68147" lon="5.46583">
        <ele>237.8</ele>
        <time>2022-08-20T12:06:47Z</time>
      </trkpt>
      <trkpt lat="46.68153" lon="5.46564">
        <ele>237.4</ele>
        <time>2022-08-20T12:06:49Z</time>
      </trkpt>
      <trkpt lat="46.68157" lon="5.46555">
        <ele>237.4</ele>
        <time>2022-08-20T12:06:50Z</time>
      </trkpt>
      <trkpt lat="46.68166" lon="5.46541">
        <ele>237.4</ele>
        <time>2022-08-20T12:06:52Z</time>
      </trkpt>
      <trkpt lat="46.68179" lon="5.46536">
        <ele>237.2</ele>
        <time>2022-08-20T12:06:54Z</time>
      </trkpt>
      <trkpt lat="46.68187" lon="5.46537">
        <ele>237.2</ele>
        <time>2022-08-20T12:06:55Z</time>
      </trkpt>
      <trkpt lat="46.68194" lon="5.46541">
        <ele>237</ele>
        <time>2022-08-20T12:06:56Z</time>
      </trkpt>
      <trkpt lat="46.68208" lon="5.46553">
        <ele>237</ele>
        <time>2022-08-20T12:06:58Z</time>
      </trkpt>
      <trkpt lat="46.68216" lon="5.4656">
        <ele>236.8</ele>
        <time>2022-08-20T12:06:59Z</time>
      </trkpt>
      <trkpt lat="46.68238" lon="5.46579">
        <ele>236.4</ele>
        <time>2022-08-20T12:07:02Z</time>
      </trkpt>
      <trkpt lat="46.68253" lon="5.46592">
        <ele>235.8</ele>
        <time>2022-08-20T12:07:04Z</time>
      </trkpt>
      <trkpt lat="46.68268" lon="5.46604">
        <ele>235.2</ele>
        <time>2022-08-20T12:07:06Z</time>
      </trkpt>
      <trkpt lat="46.68317" lon="5.46645">
        <ele>234</ele>
        <time>2022-08-20T12:07:12Z</time>
      </trkpt>
      <trkpt lat="46.68341" lon="5.46671">
        <ele>232.2</ele>
        <time>2022-08-20T12:07:15Z</time>
      </trkpt>
      <trkpt lat="46.68357" lon="5.4669">
        <ele>231.8</ele>
        <time>2022-08-20T12:07:17Z</time>
      </trkpt>
      <trkpt lat="46.68376" lon="5.46719">
        <ele>231.2</ele>
        <time>2022-08-20T12:07:20Z</time>
      </trkpt>
      <trkpt lat="46.68388" lon="5.46737">
        <ele>230.4</ele>
        <time>2022-08-20T12:07:22Z</time>
      </trkpt>
      <trkpt lat="46.68398" lon="5.46755">
        <ele>230</ele>
        <time>2022-08-20T12:07:24Z</time>
      </trkpt>
      <trkpt lat="46.68413" lon="5.46778">
        <ele>230</ele>
        <time>2022-08-20T12:07:27Z</time>
      </trkpt>
      <trkpt lat="46.68431" lon="5.46807">
        <ele>231.6</ele>
        <time>2022-08-20T12:07:31Z</time>
      </trkpt>
      <trkpt lat="46.68443" lon="5.46826">
        <ele>232.4</ele>
        <time>2022-08-20T12:07:34Z</time>
      </trkpt>
      <trkpt lat="46.68451" lon="5.4684">
        <ele>232.8</ele>
        <time>2022-08-20T12:07:36Z</time>
      </trkpt>
      <trkpt lat="46.68467" lon="5.46869">
        <ele>234</ele>
        <time>2022-08-20T12:07:40Z</time>
      </trkpt>
      <trkpt lat="46.68471" lon="5.46876">
        <ele>234.2</ele>
        <time>2022-08-20T12:07:41Z</time>
      </trkpt>
      <trkpt lat="46.68497" lon="5.46924">
        <ele>234.8</ele>
        <time>2022-08-20T12:07:48Z</time>
      </trkpt>
      <trkpt lat="46.68501" lon="5.46932">
        <ele>234.8</ele>
        <time>2022-08-20T12:07:49Z</time>
      </trkpt>
      <trkpt lat="46.68516" lon="5.46957">
        <ele>235</ele>
        <time>2022-08-20T12:07:53Z</time>
      </trkpt>
      <trkpt lat="46.6852" lon="5.46964">
        <ele>235</ele>
        <time>2022-08-20T12:07:54Z</time>
      </trkpt>
      <trkpt lat="46.68548" lon="5.47012">
        <ele>235.8</ele>
        <time>2022-08-20T12:08:02Z</time>
      </trkpt>
      <trkpt lat="46.68565" lon="5.47044">
        <ele>236</ele>
        <time>2022-08-20T12:08:07Z</time>
      </trkpt>
      <trkpt lat="46.68587" lon="5.47082">
        <ele>236.8</ele>
        <time>2022-08-20T12:08:13Z</time>
      </trkpt>
      <trkpt lat="46.68603" lon="5.4711">
        <ele>237.2</ele>
        <time>2022-08-20T12:08:17Z</time>
      </trkpt>
      <trkpt lat="46.68626" lon="5.47153">
        <ele>237.2</ele>
        <time>2022-08-20T12:08:23Z</time>
      </trkpt>
      <trkpt lat="46.68659" lon="5.47212">
        <ele>236.6</ele>
        <time>2022-08-20T12:08:31Z</time>
      </trkpt>
      <trkpt lat="46.68675" lon="5.47242">
        <ele>236</ele>
        <time>2022-08-20T12:08:35Z</time>
      </trkpt>
      <trkpt lat="46.68697" lon="5.47284">
        <ele>236</ele>
        <time>2022-08-20T12:08:40Z</time>
      </trkpt>
      <trkpt lat="46.68727" lon="5.47336">
        <ele>235.6</ele>
        <time>2022-08-20T12:08:46Z</time>
      </trkpt>
      <trkpt lat="46.68738" lon="5.47346">
        <ele>235</ele>
        <time>2022-08-20T12:08:48Z</time>
      </trkpt>
      <trkpt lat="46.68769" lon="5.47352">
        <ele>234</ele>
        <time>2022-08-20T12:08:52Z</time>
      </trkpt>
      <trkpt lat="46.68778" lon="5.47353">
        <ele>233.8</ele>
        <time>2022-08-20T12:08:53Z</time>
      </trkpt>
      <trkpt lat="46.68818" lon="5.47361">
        <ele>233.2</ele>
        <time>2022-08-20T12:08:58Z</time>
      </trkpt>
      <trkpt lat="46.68831" lon="5.47367">
        <ele>233.2</ele>
        <time>2022-08-20T12:09:00Z</time>
      </trkpt>
      <trkpt lat="46.68848" lon="5.47379">
        <ele>233.4</ele>
        <time>2022-08-20T12:09:03Z</time>
      </trkpt>
      <trkpt lat="46.68881" lon="5.47409">
        <ele>235</ele>
        <time>2022-08-20T12:09:09Z</time>
      </trkpt>
      <trkpt lat="46.68885" lon="5.47414">
        <ele>235.2</ele>
        <time>2022-08-20T12:09:10Z</time>
      </trkpt>
      <trkpt lat="46.68889" lon="5.47419">
        <ele>235.2</ele>
        <time>2022-08-20T12:09:11Z</time>
      </trkpt>
      <trkpt lat="46.689" lon="5.47436">
        <ele>236</ele>
        <time>2022-08-20T12:09:14Z</time>
      </trkpt>
      <trkpt lat="46.68908" lon="5.47447">
        <ele>236.4</ele>
        <time>2022-08-20T12:09:16Z</time>
      </trkpt>
      <trkpt lat="46.68928" lon="5.47478">
        <ele>237.2</ele>
        <time>2022-08-20T12:09:21Z</time>
      </trkpt>
      <trkpt lat="46.68937" lon="5.47491">
        <ele>237.8</ele>
        <time>2022-08-20T12:09:23Z</time>
      </trkpt>
      <trkpt lat="46.68953" lon="5.47519">
        <ele>238.4</ele>
        <time>2022-08-20T12:09:27Z</time>
      </trkpt>
      <trkpt lat="46.68966" lon="5.4754">
        <ele>238.6</ele>
        <time>2022-08-20T12:09:30Z</time>
      </trkpt>
      <trkpt lat="46.69002" lon="5.47597">
        <ele>238.6</ele>
        <time>2022-08-20T12:09:38Z</time>
      </trkpt>
      <trkpt lat="46.69043" lon="5.47662">
        <ele>238.6</ele>
        <time>2022-08-20T12:09:47Z</time>
      </trkpt>
      <trkpt lat="46.69052" lon="5.47677">
        <ele>238.6</ele>
        <time>2022-08-20T12:09:49Z</time>
      </trkpt>
      <trkpt lat="46.69092" lon="5.47742">
        <ele>238.6</ele>
        <time>2022-08-20T12:09:58Z</time>
      </trkpt>
      <trkpt lat="46.69097" lon="5.47749">
        <ele>238.6</ele>
        <time>2022-08-20T12:09:59Z</time>
      </trkpt>
      <trkpt lat="46.69138" lon="5.47813">
        <ele>238.6</ele>
        <time>2022-08-20T12:10:08Z</time>
      </trkpt>
      <trkpt lat="46.69142" lon="5.4782">
        <ele>238.8</ele>
        <time>2022-08-20T12:10:09Z</time>
      </trkpt>
      <trkpt lat="46.6918" lon="5.4788">
        <ele>238.4</ele>
        <time>2022-08-20T12:10:17Z</time>
      </trkpt>
      <trkpt lat="46.69215" lon="5.47937">
        <ele>237.2</ele>
        <time>2022-08-20T12:10:24Z</time>
      </trkpt>
      <trkpt lat="46.69221" lon="5.47946">
        <ele>237</ele>
        <time>2022-08-20T12:10:25Z</time>
      </trkpt>
      <trkpt lat="46.69227" lon="5.47952">
        <ele>236.4</ele>
        <time>2022-08-20T12:10:26Z</time>
      </trkpt>
      <trkpt lat="46.69234" lon="5.47957">
        <ele>236</ele>
        <time>2022-08-20T12:10:27Z</time>
      </trkpt>
      <trkpt lat="46.6925" lon="5.47955">
        <ele>235.8</ele>
        <time>2022-08-20T12:10:29Z</time>
      </trkpt>
      <trkpt lat="46.69278" lon="5.47928">
        <ele>235.6</ele>
        <time>2022-08-20T12:10:33Z</time>
      </trkpt>
      <trkpt lat="46.69301" lon="5.47907">
        <ele>235.2</ele>
        <time>2022-08-20T12:10:36Z</time>
      </trkpt>
      <trkpt lat="46.6931" lon="5.47902">
        <ele>235</ele>
        <time>2022-08-20T12:10:37Z</time>
      </trkpt>
      <trkpt lat="46.69317" lon="5.47899">
        <ele>234</ele>
        <time>2022-08-20T12:10:38Z</time>
      </trkpt>
      <trkpt lat="46.69328" lon="5.47897">
        <ele>233.8</ele>
        <time>2022-08-20T12:10:39Z</time>
      </trkpt>
      <trkpt lat="46.69363" lon="5.47894">
        <ele>233</ele>
        <time>2022-08-20T12:10:43Z</time>
      </trkpt>
      <trkpt lat="46.6938" lon="5.47892">
        <ele>232.8</ele>
        <time>2022-08-20T12:10:45Z</time>
      </trkpt>
      <trkpt lat="46.69429" lon="5.47883">
        <ele>232.6</ele>
        <time>2022-08-20T12:10:51Z</time>
      </trkpt>
      <trkpt lat="46.69482" lon="5.47876">
        <ele>232.4</ele>
        <time>2022-08-20T12:10:58Z</time>
      </trkpt>
      <trkpt lat="46.69511" lon="5.47883">
        <ele>232.8</ele>
        <time>2022-08-20T12:11:02Z</time>
      </trkpt>
      <trkpt lat="46.69544" lon="5.47894">
        <ele>233.8</ele>
        <time>2022-08-20T12:11:08Z</time>
      </trkpt>
      <trkpt lat="46.69553" lon="5.47887">
        <ele>234.6</ele>
        <time>2022-08-20T12:11:10Z</time>
      </trkpt>
      <trkpt lat="46.69557" lon="5.47881">
        <ele>235</ele>
        <time>2022-08-20T12:11:11Z</time>
      </trkpt>
      <trkpt lat="46.6956" lon="5.47875">
        <ele>235.2</ele>
        <time>2022-08-20T12:11:12Z</time>
      </trkpt>
      <trkpt lat="46.69567" lon="5.47849">
        <ele>236</ele>
        <time>2022-08-20T12:11:15Z</time>
      </trkpt>
      <trkpt lat="46.6957" lon="5.47841">
        <ele>236.2</ele>
        <time>2022-08-20T12:11:16Z</time>
      </trkpt>
      <trkpt lat="46.69576" lon="5.47826">
        <ele>236.6</ele>
        <time>2022-08-20T12:11:18Z</time>
      </trkpt>
      <trkpt lat="46.69579" lon="5.47818">
        <ele>236.6</ele>
        <time>2022-08-20T12:11:19Z</time>
      </trkpt>
      <trkpt lat="46.69597" lon="5.47768">
        <ele>237.2</ele>
        <time>2022-08-20T12:11:25Z</time>
      </trkpt>
      <trkpt lat="46.696" lon="5.47759">
        <ele>237.2</ele>
        <time>2022-08-20T12:11:26Z</time>
      </trkpt>
      <trkpt lat="46.69627" lon="5.47688">
        <ele>237.4</ele>
        <time>2022-08-20T12:11:34Z</time>
      </trkpt>
      <trkpt lat="46.69659" lon="5.4762">
        <ele>236.8</ele>
        <time>2022-08-20T12:11:42Z</time>
      </trkpt>
      <trkpt lat="46.6969" lon="5.47578">
        <ele>236.4</ele>
        <time>2022-08-20T12:11:48Z</time>
      </trkpt>
      <trkpt lat="46.69704" lon="5.47564">
        <ele>236.2</ele>
        <time>2022-08-20T12:11:50Z</time>
      </trkpt>
      <trkpt lat="46.69732" lon="5.47529">
        <ele>236</ele>
        <time>2022-08-20T12:11:55Z</time>
      </trkpt>
      <trkpt lat="46.69773" lon="5.47467">
        <ele>236.4</ele>
        <time>2022-08-20T12:12:03Z</time>
      </trkpt>
      <trkpt lat="46.69784" lon="5.47452">
        <ele>236.4</ele>
        <time>2022-08-20T12:12:05Z</time>
      </trkpt>
      <trkpt lat="46.69815" lon="5.47415">
        <ele>235.8</ele>
        <time>2022-08-20T12:12:10Z</time>
      </trkpt>
      <trkpt lat="46.69821" lon="5.47406">
        <ele>235.8</ele>
        <time>2022-08-20T12:12:11Z</time>
      </trkpt>
      <trkpt lat="46.69827" lon="5.47396">
        <ele>235.4</ele>
        <time>2022-08-20T12:12:12Z</time>
      </trkpt>
      <trkpt lat="46.69836" lon="5.47371">
        <ele>234.8</ele>
        <time>2022-08-20T12:12:14Z</time>
      </trkpt>
      <trkpt lat="46.69842" lon="5.47324">
        <ele>234.2</ele>
        <time>2022-08-20T12:12:17Z</time>
      </trkpt>
      <trkpt lat="46.69845" lon="5.47307">
        <ele>233.4</ele>
        <time>2022-08-20T12:12:18Z</time>
      </trkpt>
      <trkpt lat="46.69849" lon="5.4729">
        <ele>232.4</ele>
        <time>2022-08-20T12:12:19Z</time>
      </trkpt>
      <trkpt lat="46.69855" lon="5.47274">
        <ele>231.8</ele>
        <time>2022-08-20T12:12:20Z</time>
      </trkpt>
      <trkpt lat="46.69863" lon="5.4726">
        <ele>230.4</ele>
        <time>2022-08-20T12:12:21Z</time>
      </trkpt>
      <trkpt lat="46.69872" lon="5.47247">
        <ele>229.4</ele>
        <time>2022-08-20T12:12:22Z</time>
      </trkpt>
      <trkpt lat="46.69881" lon="5.47235">
        <ele>227.8</ele>
        <time>2022-08-20T12:12:23Z</time>
      </trkpt>
      <trkpt lat="46.69889" lon="5.47222">
        <ele>227.4</ele>
        <time>2022-08-20T12:12:24Z</time>
      </trkpt>
      <trkpt lat="46.69892" lon="5.47208">
        <ele>226.4</ele>
        <time>2022-08-20T12:12:25Z</time>
      </trkpt>
      <trkpt lat="46.69908" lon="5.47184">
        <ele>225.4</ele>
        <time>2022-08-20T12:12:27Z</time>
      </trkpt>
      <trkpt lat="46.69917" lon="5.47174">
        <ele>224.8</ele>
        <time>2022-08-20T12:12:28Z</time>
      </trkpt>
      <trkpt lat="46.69927" lon="5.47165">
        <ele>225</ele>
        <time>2022-08-20T12:12:29Z</time>
      </trkpt>
      <trkpt lat="46.69954" lon="5.47141">
        <ele>224.4</ele>
        <time>2022-08-20T12:12:32Z</time>
      </trkpt>
      <trkpt lat="46.6999" lon="5.47117">
        <ele>224.2</ele>
        <time>2022-08-20T12:12:36Z</time>
      </trkpt>
      <trkpt lat="46.70008" lon="5.47109">
        <ele>224.2</ele>
        <time>2022-08-20T12:12:38Z</time>
      </trkpt>
      <trkpt lat="46.70029" lon="5.47105">
        <ele>224</ele>
        <time>2022-08-20T12:12:40Z</time>
      </trkpt>
      <trkpt lat="46.70068" lon="5.47102">
        <ele>223.8</ele>
        <time>2022-08-20T12:12:44Z</time>
      </trkpt>
      <trkpt lat="46.70076" lon="5.47102">
        <ele>223.8</ele>
        <time>2022-08-20T12:12:45Z</time>
      </trkpt>
      <trkpt lat="46.70124" lon="5.47098">
        <ele>224</ele>
        <time>2022-08-20T12:12:51Z</time>
      </trkpt>
      <trkpt lat="46.70137" lon="5.47096">
        <ele>224.6</ele>
        <time>2022-08-20T12:12:53Z</time>
      </trkpt>
      <trkpt lat="46.70143" lon="5.47095">
        <ele>225.4</ele>
        <time>2022-08-20T12:12:54Z</time>
      </trkpt>
      <trkpt lat="46.70154" lon="5.47092">
        <ele>226.6</ele>
        <time>2022-08-20T12:12:56Z</time>
      </trkpt>
      <trkpt lat="46.70182" lon="5.47084">
        <ele>227.6</ele>
        <time>2022-08-20T12:13:01Z</time>
      </trkpt>
      <trkpt lat="46.702" lon="5.47079">
        <ele>228.2</ele>
        <time>2022-08-20T12:13:04Z</time>
      </trkpt>
      <trkpt lat="46.70206" lon="5.47077">
        <ele>229</ele>
        <time>2022-08-20T12:13:05Z</time>
      </trkpt>
      <trkpt lat="46.70228" lon="5.47073">
        <ele>230.2</ele>
        <time>2022-08-20T12:13:09Z</time>
      </trkpt>
      <trkpt lat="46.7026" lon="5.47062">
        <ele>231</ele>
        <time>2022-08-20T12:13:15Z</time>
      </trkpt>
      <trkpt lat="46.70271" lon="5.47056">
        <ele>231.4</ele>
        <time>2022-08-20T12:13:17Z</time>
      </trkpt>
      <trkpt lat="46.70285" lon="5.47046">
        <ele>232.2</ele>
        <time>2022-08-20T12:13:20Z</time>
      </trkpt>
      <trkpt lat="46.7029" lon="5.47044">
        <ele>232.2</ele>
        <time>2022-08-20T12:13:21Z</time>
      </trkpt>
      <trkpt lat="46.70311" lon="5.47035">
        <ele>232.4</ele>
        <time>2022-08-20T12:13:25Z</time>
      </trkpt>
      <trkpt lat="46.70328" lon="5.47033">
        <ele>232.6</ele>
        <time>2022-08-20T12:13:28Z</time>
      </trkpt>
      <trkpt lat="46.70383" lon="5.47029">
        <ele>232.8</ele>
        <time>2022-08-20T12:13:37Z</time>
      </trkpt>
      <trkpt lat="46.70389" lon="5.47027">
        <ele>232.8</ele>
        <time>2022-08-20T12:13:38Z</time>
      </trkpt>
      <trkpt lat="46.70439" lon="5.47014">
        <ele>233.6</ele>
        <time>2022-08-20T12:13:46Z</time>
      </trkpt>
      <trkpt lat="46.70496" lon="5.47">
        <ele>234.4</ele>
        <time>2022-08-20T12:13:55Z</time>
      </trkpt>
      <trkpt lat="46.70502" lon="5.46998">
        <ele>234.2</ele>
        <time>2022-08-20T12:13:56Z</time>
      </trkpt>
      <trkpt lat="46.7054" lon="5.46979">
        <ele>233.8</ele>
        <time>2022-08-20T12:14:02Z</time>
      </trkpt>
      <trkpt lat="46.7058" lon="5.46947">
        <ele>233.4</ele>
        <time>2022-08-20T12:14:08Z</time>
      </trkpt>
      <trkpt lat="46.70587" lon="5.46937">
        <ele>233</ele>
        <time>2022-08-20T12:14:09Z</time>
      </trkpt>
      <trkpt lat="46.70592" lon="5.46929">
        <ele>232.2</ele>
        <time>2022-08-20T12:14:10Z</time>
      </trkpt>
      <trkpt lat="46.70601" lon="5.4691">
        <ele>231.6</ele>
        <time>2022-08-20T12:14:12Z</time>
      </trkpt>
      <trkpt lat="46.70605" lon="5.46888">
        <ele>231.4</ele>
        <time>2022-08-20T12:14:14Z</time>
      </trkpt>
      <trkpt lat="46.70605" lon="5.46877">
        <ele>231.2</ele>
        <time>2022-08-20T12:14:15Z</time>
      </trkpt>
      <trkpt lat="46.706" lon="5.46804">
        <ele>231.6</ele>
        <time>2022-08-20T12:14:22Z</time>
      </trkpt>
      <trkpt lat="46.70597" lon="5.46777">
        <ele>232.4</ele>
        <time>2022-08-20T12:14:25Z</time>
      </trkpt>
      <trkpt lat="46.70595" lon="5.46744">
        <ele>232.8</ele>
        <time>2022-08-20T12:14:28Z</time>
      </trkpt>
      <trkpt lat="46.70599" lon="5.46679">
        <ele>232.8</ele>
        <time>2022-08-20T12:14:34Z</time>
      </trkpt>
      <trkpt lat="46.70603" lon="5.46634">
        <ele>232.4</ele>
        <time>2022-08-20T12:14:38Z</time>
      </trkpt>
      <trkpt lat="46.70607" lon="5.46598">
        <ele>231.8</ele>
        <time>2022-08-20T12:14:41Z</time>
      </trkpt>
      <trkpt lat="46.70614" lon="5.46562">
        <ele>231.2</ele>
        <time>2022-08-20T12:14:44Z</time>
      </trkpt>
      <trkpt lat="46.70622" lon="5.46539">
        <ele>230.8</ele>
        <time>2022-08-20T12:14:46Z</time>
      </trkpt>
      <trkpt lat="46.70641" lon="5.46499">
        <ele>230</ele>
        <time>2022-08-20T12:14:50Z</time>
      </trkpt>
      <trkpt lat="46.70653" lon="5.46482">
        <ele>229.6</ele>
        <time>2022-08-20T12:14:52Z</time>
      </trkpt>
      <trkpt lat="46.70665" lon="5.46469">
        <ele>229.4</ele>
        <time>2022-08-20T12:14:54Z</time>
      </trkpt>
      <trkpt lat="46.70678" lon="5.46465">
        <ele>229</ele>
        <time>2022-08-20T12:14:56Z</time>
      </trkpt>
      <trkpt lat="46.70687" lon="5.46468">
        <ele>229</ele>
        <time>2022-08-20T12:14:57Z</time>
      </trkpt>
      <trkpt lat="46.707" lon="5.46477">
        <ele>229.4</ele>
        <time>2022-08-20T12:14:59Z</time>
      </trkpt>
      <trkpt lat="46.7072" lon="5.46487">
        <ele>230</ele>
        <time>2022-08-20T12:15:02Z</time>
      </trkpt>
      <trkpt lat="46.70732" lon="5.46495">
        <ele>230.4</ele>
        <time>2022-08-20T12:15:04Z</time>
      </trkpt>
      <trkpt lat="46.70743" lon="5.46503">
        <ele>230.8</ele>
        <time>2022-08-20T12:15:06Z</time>
      </trkpt>
      <trkpt lat="46.70749" lon="5.46506">
        <ele>231</ele>
        <time>2022-08-20T12:15:07Z</time>
      </trkpt>
      <trkpt lat="46.70777" lon="5.46525">
        <ele>232.2</ele>
        <time>2022-08-20T12:15:12Z</time>
      </trkpt>
      <trkpt lat="46.70826" lon="5.46552">
        <ele>233.4</ele>
        <time>2022-08-20T12:15:20Z</time>
      </trkpt>
      <trkpt lat="46.70832" lon="5.46555">
        <ele>233.6</ele>
        <time>2022-08-20T12:15:21Z</time>
      </trkpt>
      <trkpt lat="46.70838" lon="5.46559">
        <ele>233.6</ele>
        <time>2022-08-20T12:15:22Z</time>
      </trkpt>
      <trkpt lat="46.70867" lon="5.46577">
        <ele>233.8</ele>
        <time>2022-08-20T12:15:27Z</time>
      </trkpt>
      <trkpt lat="46.70895" lon="5.46594">
        <ele>233.8</ele>
        <time>2022-08-20T12:15:32Z</time>
      </trkpt>
      <trkpt lat="46.7094" lon="5.46622">
        <ele>232.2</ele>
        <time>2022-08-20T12:15:39Z</time>
      </trkpt>
      <trkpt lat="46.70947" lon="5.46625">
        <ele>232</ele>
        <time>2022-08-20T12:15:40Z</time>
      </trkpt>
      <trkpt lat="46.70967" lon="5.46637">
        <ele>231.8</ele>
        <time>2022-08-20T12:15:43Z</time>
      </trkpt>
      <trkpt lat="46.70979" lon="5.46648">
        <ele>231.6</ele>
        <time>2022-08-20T12:15:45Z</time>
      </trkpt>
      <trkpt lat="46.70995" lon="5.4668">
        <ele>231.4</ele>
        <time>2022-08-20T12:15:49Z</time>
      </trkpt>
      <trkpt lat="46.71008" lon="5.46712">
        <ele>231.4</ele>
        <time>2022-08-20T12:15:53Z</time>
      </trkpt>
      <trkpt lat="46.71011" lon="5.46721">
        <ele>231.6</ele>
        <time>2022-08-20T12:15:54Z</time>
      </trkpt>
      <trkpt lat="46.71016" lon="5.46733">
        <ele>231.8</ele>
        <time>2022-08-20T12:15:56Z</time>
      </trkpt>
      <trkpt lat="46.71021" lon="5.46746">
        <ele>232</ele>
        <time>2022-08-20T12:15:58Z</time>
      </trkpt>
      <trkpt lat="46.71022" lon="5.46752">
        <ele>232.2</ele>
        <time>2022-08-20T12:15:59Z</time>
      </trkpt>
      <trkpt lat="46.71023" lon="5.46761">
        <ele>233</ele>
        <time>2022-08-20T12:16:01Z</time>
      </trkpt>
      <trkpt lat="46.71025" lon="5.46765">
        <ele>233</ele>
        <time>2022-08-20T12:16:02Z</time>
      </trkpt>
      <trkpt lat="46.71029" lon="5.46766">
        <ele>233.4</ele>
        <time>2022-08-20T12:16:03Z</time>
      </trkpt>
      <trkpt lat="46.71032" lon="5.46765">
        <ele>233.4</ele>
        <time>2022-08-20T12:16:04Z</time>
      </trkpt>
      <trkpt lat="46.71052" lon="5.46749">
        <ele>234.2</ele>
        <time>2022-08-20T12:16:08Z</time>
      </trkpt>
      <trkpt lat="46.71063" lon="5.46742">
        <ele>234.4</ele>
        <time>2022-08-20T12:16:10Z</time>
      </trkpt>
      <trkpt lat="46.71087" lon="5.46726">
        <ele>234.4</ele>
        <time>2022-08-20T12:16:14Z</time>
      </trkpt>
      <trkpt lat="46.71131" lon="5.46699">
        <ele>234</ele>
        <time>2022-08-20T12:16:21Z</time>
      </trkpt>
      <trkpt lat="46.71175" lon="5.4666">
        <ele>233.4</ele>
        <time>2022-08-20T12:16:28Z</time>
      </trkpt>
      <trkpt lat="46.71204" lon="5.46617">
        <ele>233.2</ele>
        <time>2022-08-20T12:16:34Z</time>
      </trkpt>
      <trkpt lat="46.71213" lon="5.46602">
        <ele>233.2</ele>
        <time>2022-08-20T12:16:36Z</time>
      </trkpt>
      <trkpt lat="46.71225" lon="5.46592">
        <ele>233.4</ele>
        <time>2022-08-20T12:16:38Z</time>
      </trkpt>
      <trkpt lat="46.71264" lon="5.46566">
        <ele>233.4</ele>
        <time>2022-08-20T12:16:44Z</time>
      </trkpt>
      <trkpt lat="46.7131" lon="5.46524">
        <ele>232.6</ele>
        <time>2022-08-20T12:16:51Z</time>
      </trkpt>
      <trkpt lat="46.71317" lon="5.46517">
        <ele>232.4</ele>
        <time>2022-08-20T12:16:52Z</time>
      </trkpt>
      <trkpt lat="46.7135" lon="5.46476">
        <ele>231.2</ele>
        <time>2022-08-20T12:16:57Z</time>
      </trkpt>
      <trkpt lat="46.71365" lon="5.46461">
        <ele>230.4</ele>
        <time>2022-08-20T12:16:59Z</time>
      </trkpt>
      <trkpt lat="46.7138" lon="5.46445">
        <ele>229.8</ele>
        <time>2022-08-20T12:17:01Z</time>
      </trkpt>
      <trkpt lat="46.71402" lon="5.4642">
        <ele>228.4</ele>
        <time>2022-08-20T12:17:04Z</time>
      </trkpt>
      <trkpt lat="46.71426" lon="5.46398">
        <ele>227.6</ele>
        <time>2022-08-20T12:17:07Z</time>
      </trkpt>
      <trkpt lat="46.71435" lon="5.46392">
        <ele>227.2</ele>
        <time>2022-08-20T12:17:08Z</time>
      </trkpt>
      <trkpt lat="46.71453" lon="5.46384">
        <ele>226.6</ele>
        <time>2022-08-20T12:17:10Z</time>
      </trkpt>
      <trkpt lat="46.71462" lon="5.46381">
        <ele>226.2</ele>
        <time>2022-08-20T12:17:11Z</time>
      </trkpt>
      <trkpt lat="46.71491" lon="5.46369">
        <ele>225.2</ele>
        <time>2022-08-20T12:17:14Z</time>
      </trkpt>
      <trkpt lat="46.7151" lon="5.46357">
        <ele>224.6</ele>
        <time>2022-08-20T12:17:16Z</time>
      </trkpt>
      <trkpt lat="46.7152" lon="5.46351">
        <ele>224.2</ele>
        <time>2022-08-20T12:17:17Z</time>
      </trkpt>
      <trkpt lat="46.71549" lon="5.46332">
        <ele>222.6</ele>
        <time>2022-08-20T12:17:20Z</time>
      </trkpt>
      <trkpt lat="46.71559" lon="5.46325">
        <ele>222.2</ele>
        <time>2022-08-20T12:17:21Z</time>
      </trkpt>
      <trkpt lat="46.71569" lon="5.46318">
        <ele>221.6</ele>
        <time>2022-08-20T12:17:22Z</time>
      </trkpt>
      <trkpt lat="46.71579" lon="5.46311">
        <ele>221</ele>
        <time>2022-08-20T12:17:23Z</time>
      </trkpt>
      <trkpt lat="46.71588" lon="5.46301">
        <ele>220.4</ele>
        <time>2022-08-20T12:17:24Z</time>
      </trkpt>
      <trkpt lat="46.71594" lon="5.4629">
        <ele>219.8</ele>
        <time>2022-08-20T12:17:25Z</time>
      </trkpt>
      <trkpt lat="46.71599" lon="5.46276">
        <ele>219.2</ele>
        <time>2022-08-20T12:17:26Z</time>
      </trkpt>
      <trkpt lat="46.71599" lon="5.46261">
        <ele>218</ele>
        <time>2022-08-20T12:17:27Z</time>
      </trkpt>
      <trkpt lat="46.71597" lon="5.46229">
        <ele>216.2</ele>
        <time>2022-08-20T12:17:29Z</time>
      </trkpt>
      <trkpt lat="46.71601" lon="5.46198">
        <ele>215.4</ele>
        <time>2022-08-20T12:17:31Z</time>
      </trkpt>
      <trkpt lat="46.71607" lon="5.46184">
        <ele>214.8</ele>
        <time>2022-08-20T12:17:32Z</time>
      </trkpt>
      <trkpt lat="46.71615" lon="5.46173">
        <ele>214.6</ele>
        <time>2022-08-20T12:17:33Z</time>
      </trkpt>
      <trkpt lat="46.71641" lon="5.46148">
        <ele>213.4</ele>
        <time>2022-08-20T12:17:36Z</time>
      </trkpt>
      <trkpt lat="46.71661" lon="5.46119">
        <ele>212.2</ele>
        <time>2022-08-20T12:17:39Z</time>
      </trkpt>
      <trkpt lat="46.71687" lon="5.46064">
        <ele>212</ele>
        <time>2022-08-20T12:17:44Z</time>
      </trkpt>
      <trkpt lat="46.71692" lon="5.46055">
        <ele>212</ele>
        <time>2022-08-20T12:17:45Z</time>
      </trkpt>
      <trkpt lat="46.71703" lon="5.46045">
        <ele>212</ele>
        <time>2022-08-20T12:17:47Z</time>
      </trkpt>
      <trkpt lat="46.71713" lon="5.46046">
        <ele>212</ele>
        <time>2022-08-20T12:17:49Z</time>
      </trkpt>
      <trkpt lat="46.71717" lon="5.4605">
        <ele>212.2</ele>
        <time>2022-08-20T12:17:50Z</time>
      </trkpt>
      <trkpt lat="46.71721" lon="5.46054">
        <ele>212.2</ele>
        <time>2022-08-20T12:17:51Z</time>
      </trkpt>
      <trkpt lat="46.71732" lon="5.46066">
        <ele>212.2</ele>
        <time>2022-08-20T12:17:53Z</time>
      </trkpt>
      <trkpt lat="46.71771" lon="5.461">
        <ele>211.8</ele>
        <time>2022-08-20T12:17:59Z</time>
      </trkpt>
      <trkpt lat="46.718" lon="5.46116">
        <ele>211.4</ele>
        <time>2022-08-20T12:18:03Z</time>
      </trkpt>
      <trkpt lat="46.71808" lon="5.46119">
        <ele>211</ele>
        <time>2022-08-20T12:18:04Z</time>
      </trkpt>
      <trkpt lat="46.71815" lon="5.46121">
        <ele>210.8</ele>
        <time>2022-08-20T12:18:05Z</time>
      </trkpt>
      <trkpt lat="46.71853" lon="5.46131">
        <ele>210.6</ele>
        <time>2022-08-20T12:18:10Z</time>
      </trkpt>
      <trkpt lat="46.71861" lon="5.46131">
        <ele>210.6</ele>
        <time>2022-08-20T12:18:11Z</time>
      </trkpt>
      <trkpt lat="46.71915" lon="5.46138">
        <ele>211.2</ele>
        <time>2022-08-20T12:18:18Z</time>
      </trkpt>
      <trkpt lat="46.71969" lon="5.46151">
        <ele>211.2</ele>
        <time>2022-08-20T12:18:25Z</time>
      </trkpt>
      <trkpt lat="46.71976" lon="5.46154">
        <ele>211.2</ele>
        <time>2022-08-20T12:18:26Z</time>
      </trkpt>
      <trkpt lat="46.72031" lon="5.46167">
        <ele>211.6</ele>
        <time>2022-08-20T12:18:33Z</time>
      </trkpt>
      <trkpt lat="46.72054" lon="5.46173">
        <ele>211.8</ele>
        <time>2022-08-20T12:18:36Z</time>
      </trkpt>
      <trkpt lat="46.72069" lon="5.46176">
        <ele>212</ele>
        <time>2022-08-20T12:18:38Z</time>
      </trkpt>
      <trkpt lat="46.72116" lon="5.46189">
        <ele>212</ele>
        <time>2022-08-20T12:18:44Z</time>
      </trkpt>
      <trkpt lat="46.7217" lon="5.46203">
        <ele>211.8</ele>
        <time>2022-08-20T12:18:51Z</time>
      </trkpt>
      <trkpt lat="46.72178" lon="5.46205">
        <ele>211.8</ele>
        <time>2022-08-20T12:18:52Z</time>
      </trkpt>
      <trkpt lat="46.72239" lon="5.4622">
        <ele>212.2</ele>
        <time>2022-08-20T12:19:00Z</time>
      </trkpt>
      <trkpt lat="46.72246" lon="5.46222">
        <ele>212.2</ele>
        <time>2022-08-20T12:19:01Z</time>
      </trkpt>
      <trkpt lat="46.7226" lon="5.46225">
        <ele>212</ele>
        <time>2022-08-20T12:19:03Z</time>
      </trkpt>
      <trkpt lat="46.72317" lon="5.4624">
        <ele>212.4</ele>
        <time>2022-08-20T12:19:11Z</time>
      </trkpt>
      <trkpt lat="46.72324" lon="5.46242">
        <ele>212.4</ele>
        <time>2022-08-20T12:19:12Z</time>
      </trkpt>
      <trkpt lat="46.72385" lon="5.46256">
        <ele>212.4</ele>
        <time>2022-08-20T12:19:20Z</time>
      </trkpt>
      <trkpt lat="46.72443" lon="5.46274">
        <ele>212</ele>
        <time>2022-08-20T12:19:27Z</time>
      </trkpt>
      <trkpt lat="46.72466" lon="5.46282">
        <ele>211.6</ele>
        <time>2022-08-20T12:19:30Z</time>
      </trkpt>
      <trkpt lat="46.72481" lon="5.46287">
        <ele>211.2</ele>
        <time>2022-08-20T12:19:32Z</time>
      </trkpt>
      <trkpt lat="46.72524" lon="5.46302">
        <ele>210.8</ele>
        <time>2022-08-20T12:19:38Z</time>
      </trkpt>
      <trkpt lat="46.72539" lon="5.46307">
        <ele>210.8</ele>
        <time>2022-08-20T12:19:40Z</time>
      </trkpt>
      <trkpt lat="46.72581" lon="5.46322">
        <ele>211.4</ele>
        <time>2022-08-20T12:19:46Z</time>
      </trkpt>
      <trkpt lat="46.72639" lon="5.46337">
        <ele>211</ele>
        <time>2022-08-20T12:19:54Z</time>
      </trkpt>
      <trkpt lat="46.72698" lon="5.46351">
        <ele>211</ele>
        <time>2022-08-20T12:20:02Z</time>
      </trkpt>
      <trkpt lat="46.72705" lon="5.46352">
        <ele>211</ele>
        <time>2022-08-20T12:20:03Z</time>
      </trkpt>
      <trkpt lat="46.72762" lon="5.46365">
        <ele>211</ele>
        <time>2022-08-20T12:20:11Z</time>
      </trkpt>
      <trkpt lat="46.72775" lon="5.46367">
        <ele>211</ele>
        <time>2022-08-20T12:20:13Z</time>
      </trkpt>
      <trkpt lat="46.72834" lon="5.46377">
        <ele>211.2</ele>
        <time>2022-08-20T12:20:21Z</time>
      </trkpt>
      <trkpt lat="46.72847" lon="5.46379">
        <ele>211.4</ele>
        <time>2022-08-20T12:20:23Z</time>
      </trkpt>
      <trkpt lat="46.72907" lon="5.46387">
        <ele>211.4</ele>
        <time>2022-08-20T12:20:31Z</time>
      </trkpt>
      <trkpt lat="46.72922" lon="5.46388">
        <ele>211.4</ele>
        <time>2022-08-20T12:20:33Z</time>
      </trkpt>
      <trkpt lat="46.72957" lon="5.46382">
        <ele>211.4</ele>
        <time>2022-08-20T12:20:38Z</time>
      </trkpt>
      <trkpt lat="46.73005" lon="5.4636">
        <ele>211.8</ele>
        <time>2022-08-20T12:20:45Z</time>
      </trkpt>
      <trkpt lat="46.7306" lon="5.46334">
        <ele>212</ele>
        <time>2022-08-20T12:20:53Z</time>
      </trkpt>
      <trkpt lat="46.73067" lon="5.4633">
        <ele>212</ele>
        <time>2022-08-20T12:20:54Z</time>
      </trkpt>
      <trkpt lat="46.73121" lon="5.46298">
        <ele>211.8</ele>
        <time>2022-08-20T12:21:02Z</time>
      </trkpt>
      <trkpt lat="46.73135" lon="5.4629">
        <ele>211.8</ele>
        <time>2022-08-20T12:21:04Z</time>
      </trkpt>
      <trkpt lat="46.73169" lon="5.46274">
        <ele>211.8</ele>
        <time>2022-08-20T12:21:09Z</time>
      </trkpt>
      <trkpt lat="46.73184" lon="5.46272">
        <ele>212</ele>
        <time>2022-08-20T12:21:11Z</time>
      </trkpt>
      <trkpt lat="46.73221" lon="5.46278">
        <ele>212</ele>
        <time>2022-08-20T12:21:16Z</time>
      </trkpt>
      <trkpt lat="46.73273" lon="5.46287">
        <ele>211.8</ele>
        <time>2022-08-20T12:21:23Z</time>
      </trkpt>
      <trkpt lat="46.73317" lon="5.46295">
        <ele>212</ele>
        <time>2022-08-20T12:21:29Z</time>
      </trkpt>
      <trkpt lat="46.73377" lon="5.46301">
        <ele>211.6</ele>
        <time>2022-08-20T12:21:37Z</time>
      </trkpt>
      <trkpt lat="46.73432" lon="5.46301">
        <ele>212</ele>
        <time>2022-08-20T12:21:45Z</time>
      </trkpt>
      <trkpt lat="46.73439" lon="5.46301">
        <ele>212</ele>
        <time>2022-08-20T12:21:46Z</time>
      </trkpt>
      <trkpt lat="46.73474" lon="5.46304">
        <ele>212.2</ele>
        <time>2022-08-20T12:21:51Z</time>
      </trkpt>
      <trkpt lat="46.73487" lon="5.46309">
        <ele>212.2</ele>
        <time>2022-08-20T12:21:53Z</time>
      </trkpt>
      <trkpt lat="46.73494" lon="5.46311">
        <ele>212.2</ele>
        <time>2022-08-20T12:21:54Z</time>
      </trkpt>
      <trkpt lat="46.73521" lon="5.46318">
        <ele>212.2</ele>
        <time>2022-08-20T12:21:58Z</time>
      </trkpt>
      <trkpt lat="46.73556" lon="5.46326">
        <ele>212</ele>
        <time>2022-08-20T12:22:03Z</time>
      </trkpt>
      <trkpt lat="46.73563" lon="5.46328">
        <ele>212</ele>
        <time>2022-08-20T12:22:04Z</time>
      </trkpt>
      <trkpt lat="46.73601" lon="5.46336">
        <ele>212</ele>
        <time>2022-08-20T12:22:10Z</time>
      </trkpt>
      <trkpt lat="46.7364" lon="5.46342">
        <ele>212.2</ele>
        <time>2022-08-20T12:22:16Z</time>
      </trkpt>
      <trkpt lat="46.73676" lon="5.46341">
        <ele>212</ele>
        <time>2022-08-20T12:22:22Z</time>
      </trkpt>
      <trkpt lat="46.73681" lon="5.46342">
        <ele>212</ele>
        <time>2022-08-20T12:22:23Z</time>
      </trkpt>
      <trkpt lat="46.73686" lon="5.46345">
        <ele>212.2</ele>
        <time>2022-08-20T12:22:25Z</time>
      </trkpt>
      <trkpt lat="46.73687" lon="5.46348">
        <ele>212.4</ele>
        <time>2022-08-20T12:22:26Z</time>
      </trkpt>
      <trkpt lat="46.73689" lon="5.46359">
        <ele>212.6</ele>
        <time>2022-08-20T12:22:28Z</time>
      </trkpt>
      <trkpt lat="46.7369" lon="5.46366">
        <ele>212.6</ele>
        <time>2022-08-20T12:22:29Z</time>
      </trkpt>
      <trkpt lat="46.73692" lon="5.46381">
        <ele>212.6</ele>
        <time>2022-08-20T12:22:31Z</time>
      </trkpt>
      <trkpt lat="46.73693" lon="5.46395">
        <ele>212.6</ele>
        <time>2022-08-20T12:22:33Z</time>
      </trkpt>
      <trkpt lat="46.73693" lon="5.46402">
        <ele>212.6</ele>
        <time>2022-08-20T12:22:34Z</time>
      </trkpt>
      <trkpt lat="46.73696" lon="5.46413">
        <ele>213</ele>
        <time>2022-08-20T12:22:37Z</time>
      </trkpt>
      <trkpt lat="46.737" lon="5.46417">
        <ele>213</ele>
        <time>2022-08-20T12:22:39Z</time>
      </trkpt>
      <trkpt lat="46.73706" lon="5.46412">
        <ele>213</ele>
        <time>2022-08-20T12:22:41Z</time>
      </trkpt>
      <trkpt lat="46.73725" lon="5.4639">
        <ele>213</ele>
        <time>2022-08-20T12:22:45Z</time>
      </trkpt>
      <trkpt lat="46.73762" lon="5.46351">
        <ele>212.6</ele>
        <time>2022-08-20T12:22:52Z</time>
      </trkpt>
      <trkpt lat="46.73797" lon="5.46338">
        <ele>212.2</ele>
        <time>2022-08-20T12:22:57Z</time>
      </trkpt>
      <trkpt lat="46.73844" lon="5.46319">
        <ele>211.8</ele>
        <time>2022-08-20T12:23:04Z</time>
      </trkpt>
      <trkpt lat="46.73851" lon="5.46314">
        <ele>211.8</ele>
        <time>2022-08-20T12:23:05Z</time>
      </trkpt>
      <trkpt lat="46.73862" lon="5.46301">
        <ele>211.8</ele>
        <time>2022-08-20T12:23:07Z</time>
      </trkpt>
      <trkpt lat="46.73866" lon="5.46293">
        <ele>211.8</ele>
        <time>2022-08-20T12:23:08Z</time>
      </trkpt>
      <trkpt lat="46.73897" lon="5.46233">
        <ele>212</ele>
        <time>2022-08-20T12:23:15Z</time>
      </trkpt>
      <trkpt lat="46.73935" lon="5.46179">
        <ele>211.8</ele>
        <time>2022-08-20T12:23:22Z</time>
      </trkpt>
      <trkpt lat="46.73953" lon="5.46159">
        <ele>211.4</ele>
        <time>2022-08-20T12:23:25Z</time>
      </trkpt>
      <trkpt lat="46.73978" lon="5.46133">
        <ele>210.8</ele>
        <time>2022-08-20T12:23:29Z</time>
      </trkpt>
      <trkpt lat="46.74023" lon="5.46093">
        <ele>210.8</ele>
        <time>2022-08-20T12:23:36Z</time>
      </trkpt>
      <trkpt lat="46.74073" lon="5.4607">
        <ele>210.8</ele>
        <time>2022-08-20T12:23:43Z</time>
      </trkpt>
      <trkpt lat="46.74127" lon="5.46054">
        <ele>211.4</ele>
        <time>2022-08-20T12:23:50Z</time>
      </trkpt>
      <trkpt lat="46.74148" lon="5.46048">
        <ele>211.4</ele>
        <time>2022-08-20T12:23:53Z</time>
      </trkpt>
      <trkpt lat="46.74201" lon="5.46032">
        <ele>211</ele>
        <time>2022-08-20T12:24:00Z</time>
      </trkpt>
      <trkpt lat="46.74216" lon="5.46027">
        <ele>210.8</ele>
        <time>2022-08-20T12:24:02Z</time>
      </trkpt>
      <trkpt lat="46.74274" lon="5.46001">
        <ele>210.8</ele>
        <time>2022-08-20T12:24:10Z</time>
      </trkpt>
      <trkpt lat="46.74288" lon="5.45993">
        <ele>210.8</ele>
        <time>2022-08-20T12:24:12Z</time>
      </trkpt>
      <trkpt lat="46.74336" lon="5.45959">
        <ele>210.8</ele>
        <time>2022-08-20T12:24:19Z</time>
      </trkpt>
      <trkpt lat="46.74351" lon="5.45946">
        <ele>211.2</ele>
        <time>2022-08-20T12:24:21Z</time>
      </trkpt>
      <trkpt lat="46.74401" lon="5.459">
        <ele>211.2</ele>
        <time>2022-08-20T12:24:29Z</time>
      </trkpt>
      <trkpt lat="46.74452" lon="5.45853">
        <ele>211.4</ele>
        <time>2022-08-20T12:24:37Z</time>
      </trkpt>
      <trkpt lat="46.74456" lon="5.45849">
        <ele>211.4</ele>
        <time>2022-08-20T12:24:38Z</time>
      </trkpt>
      <trkpt lat="46.74498" lon="5.45812">
        <ele>212.4</ele>
        <time>2022-08-20T12:24:45Z</time>
      </trkpt>
      <trkpt lat="46.74511" lon="5.45801">
        <ele>212.4</ele>
        <time>2022-08-20T12:24:47Z</time>
      </trkpt>
      <trkpt lat="46.74564" lon="5.45755">
        <ele>211.4</ele>
        <time>2022-08-20T12:24:55Z</time>
      </trkpt>
      <trkpt lat="46.74599" lon="5.45728">
        <ele>211.4</ele>
        <time>2022-08-20T12:25:01Z</time>
      </trkpt>
      <trkpt lat="46.74643" lon="5.45697">
        <ele>211.6</ele>
        <time>2022-08-20T12:25:08Z</time>
      </trkpt>
      <trkpt lat="46.7466" lon="5.45687">
        <ele>211.4</ele>
        <time>2022-08-20T12:25:11Z</time>
      </trkpt>
      <trkpt lat="46.74666" lon="5.45686">
        <ele>211.4</ele>
        <time>2022-08-20T12:25:12Z</time>
      </trkpt>
      <trkpt lat="46.74674" lon="5.45686">
        <ele>211.4</ele>
        <time>2022-08-20T12:25:13Z</time>
      </trkpt>
      <trkpt lat="46.7468" lon="5.45684">
        <ele>211.6</ele>
        <time>2022-08-20T12:25:14Z</time>
      </trkpt>
      <trkpt lat="46.74688" lon="5.45674">
        <ele>211.6</ele>
        <time>2022-08-20T12:25:16Z</time>
      </trkpt>
      <trkpt lat="46.74689" lon="5.45657">
        <ele>211.6</ele>
        <time>2022-08-20T12:25:18Z</time>
      </trkpt>
      <trkpt lat="46.74681" lon="5.45647">
        <ele>211.8</ele>
        <time>2022-08-20T12:25:20Z</time>
      </trkpt>
      <trkpt lat="46.74672" lon="5.45633">
        <ele>211.8</ele>
        <time>2022-08-20T12:25:22Z</time>
      </trkpt>
      <trkpt lat="46.74668" lon="5.45624">
        <ele>212</ele>
        <time>2022-08-20T12:25:23Z</time>
      </trkpt>
      <trkpt lat="46.7465" lon="5.45558">
        <ele>212</ele>
        <time>2022-08-20T12:25:30Z</time>
      </trkpt>
      <trkpt lat="46.74631" lon="5.45476">
        <ele>212</ele>
        <time>2022-08-20T12:25:38Z</time>
      </trkpt>
      <trkpt lat="46.74629" lon="5.45464">
        <ele>212</ele>
        <time>2022-08-20T12:25:39Z</time>
      </trkpt>
      <trkpt lat="46.74612" lon="5.45388">
        <ele>212</ele>
        <time>2022-08-20T12:25:46Z</time>
      </trkpt>
      <trkpt lat="46.7461" lon="5.45377">
        <ele>211.8</ele>
        <time>2022-08-20T12:25:47Z</time>
      </trkpt>
      <trkpt lat="46.74593" lon="5.45302">
        <ele>211.6</ele>
        <time>2022-08-20T12:25:54Z</time>
      </trkpt>
      <trkpt lat="46.74591" lon="5.45293">
        <ele>211.8</ele>
        <time>2022-08-20T12:25:55Z</time>
      </trkpt>
      <trkpt lat="46.74574" lon="5.45218">
        <ele>211.8</ele>
        <time>2022-08-20T12:26:02Z</time>
      </trkpt>
      <trkpt lat="46.74567" lon="5.45184">
        <ele>211.8</ele>
        <time>2022-08-20T12:26:05Z</time>
      </trkpt>
      <trkpt lat="46.74551" lon="5.45109">
        <ele>211.6</ele>
        <time>2022-08-20T12:26:12Z</time>
      </trkpt>
      <trkpt lat="46.74545" lon="5.45067">
        <ele>212</ele>
        <time>2022-08-20T12:26:16Z</time>
      </trkpt>
      <trkpt lat="46.74545" lon="5.45056">
        <ele>212</ele>
        <time>2022-08-20T12:26:17Z</time>
      </trkpt>
      <trkpt lat="46.74546" lon="5.4497">
        <ele>212.4</ele>
        <time>2022-08-20T12:26:25Z</time>
      </trkpt>
      <trkpt lat="46.74547" lon="5.44882">
        <ele>212</ele>
        <time>2022-08-20T12:26:33Z</time>
      </trkpt>
      <trkpt lat="46.74547" lon="5.44796">
        <ele>212</ele>
        <time>2022-08-20T12:26:41Z</time>
      </trkpt>
      <trkpt lat="46.74548" lon="5.44773">
        <ele>211.8</ele>
        <time>2022-08-20T12:26:43Z</time>
      </trkpt>
      <trkpt lat="46.7455" lon="5.44694">
        <ele>211.4</ele>
        <time>2022-08-20T12:26:50Z</time>
      </trkpt>
      <trkpt lat="46.7455" lon="5.44613">
        <ele>211.2</ele>
        <time>2022-08-20T12:26:57Z</time>
      </trkpt>
      <trkpt lat="46.74549" lon="5.4459">
        <ele>211</ele>
        <time>2022-08-20T12:26:59Z</time>
      </trkpt>
      <trkpt lat="46.7455" lon="5.44543">
        <ele>210.6</ele>
        <time>2022-08-20T12:27:03Z</time>
      </trkpt>
      <trkpt lat="46.74551" lon="5.44483">
        <ele>210.4</ele>
        <time>2022-08-20T12:27:08Z</time>
      </trkpt>
      <trkpt lat="46.74551" lon="5.4446">
        <ele>210.4</ele>
        <time>2022-08-20T12:27:10Z</time>
      </trkpt>
      <trkpt lat="46.7455" lon="5.44384">
        <ele>210.6</ele>
        <time>2022-08-20T12:27:17Z</time>
      </trkpt>
      <trkpt lat="46.74549" lon="5.44363">
        <ele>211</ele>
        <time>2022-08-20T12:27:19Z</time>
      </trkpt>
      <trkpt lat="46.74546" lon="5.44344">
        <ele>211.2</ele>
        <time>2022-08-20T12:27:21Z</time>
      </trkpt>
      <trkpt lat="46.74543" lon="5.44336">
        <ele>211.8</ele>
        <time>2022-08-20T12:27:22Z</time>
      </trkpt>
      <trkpt lat="46.74539" lon="5.44331">
        <ele>212.2</ele>
        <time>2022-08-20T12:27:23Z</time>
      </trkpt>
      <trkpt lat="46.74519" lon="5.44303">
        <ele>212.6</ele>
        <time>2022-08-20T12:27:27Z</time>
      </trkpt>
      <trkpt lat="46.74513" lon="5.44295">
        <ele>212.8</ele>
        <time>2022-08-20T12:27:28Z</time>
      </trkpt>
      <trkpt lat="46.7448" lon="5.44255">
        <ele>213</ele>
        <time>2022-08-20T12:27:34Z</time>
      </trkpt>
      <trkpt lat="46.7443" lon="5.44219">
        <ele>211.8</ele>
        <time>2022-08-20T12:27:42Z</time>
      </trkpt>
      <trkpt lat="46.74422" lon="5.44213">
        <ele>211.6</ele>
        <time>2022-08-20T12:27:43Z</time>
      </trkpt>
      <trkpt lat="46.74377" lon="5.44185">
        <ele>211.6</ele>
        <time>2022-08-20T12:27:50Z</time>
      </trkpt>
      <trkpt lat="46.74325" lon="5.4415">
        <ele>212</ele>
        <time>2022-08-20T12:27:58Z</time>
      </trkpt>
      <trkpt lat="46.7428" lon="5.44121">
        <ele>212</ele>
        <time>2022-08-20T12:28:05Z</time>
      </trkpt>
      <trkpt lat="46.7423" lon="5.44087">
        <ele>212.4</ele>
        <time>2022-08-20T12:28:13Z</time>
      </trkpt>
      <trkpt lat="46.74224" lon="5.44083">
        <ele>212.6</ele>
        <time>2022-08-20T12:28:14Z</time>
      </trkpt>
      <trkpt lat="46.74199" lon="5.44064">
        <ele>212.8</ele>
        <time>2022-08-20T12:28:18Z</time>
      </trkpt>
      <trkpt lat="46.7416" lon="5.44034">
        <ele>212.4</ele>
        <time>2022-08-20T12:28:24Z</time>
      </trkpt>
      <trkpt lat="46.74115" lon="5.43992">
        <ele>212.2</ele>
        <time>2022-08-20T12:28:31Z</time>
      </trkpt>
      <trkpt lat="46.74109" lon="5.43985">
        <ele>212.2</ele>
        <time>2022-08-20T12:28:32Z</time>
      </trkpt>
      <trkpt lat="46.74079" lon="5.43956">
        <ele>212</ele>
        <time>2022-08-20T12:28:37Z</time>
      </trkpt>
      <trkpt lat="46.74049" lon="5.43923">
        <ele>211.6</ele>
        <time>2022-08-20T12:28:42Z</time>
      </trkpt>
      <trkpt lat="46.74025" lon="5.43895">
        <ele>211.8</ele>
        <time>2022-08-20T12:28:46Z</time>
      </trkpt>
      <trkpt lat="46.73983" lon="5.43838">
        <ele>212.2</ele>
        <time>2022-08-20T12:28:54Z</time>
      </trkpt>
      <trkpt lat="46.73947" lon="5.4377">
        <ele>212.4</ele>
        <time>2022-08-20T12:29:02Z</time>
      </trkpt>
      <trkpt lat="46.73942" lon="5.43762">
        <ele>212.4</ele>
        <time>2022-08-20T12:29:03Z</time>
      </trkpt>
      <trkpt lat="46.73908" lon="5.43697">
        <ele>212.4</ele>
        <time>2022-08-20T12:29:11Z</time>
      </trkpt>
      <trkpt lat="46.73903" lon="5.43689">
        <ele>212.4</ele>
        <time>2022-08-20T12:29:12Z</time>
      </trkpt>
      <trkpt lat="46.73874" lon="5.43631">
        <ele>212.8</ele>
        <time>2022-08-20T12:29:19Z</time>
      </trkpt>
      <trkpt lat="46.73869" lon="5.43621">
        <ele>212.8</ele>
        <time>2022-08-20T12:29:20Z</time>
      </trkpt>
      <trkpt lat="46.73862" lon="5.43606">
        <ele>212.8</ele>
        <time>2022-08-20T12:29:22Z</time>
      </trkpt>
      <trkpt lat="46.73831" lon="5.43534">
        <ele>212.2</ele>
        <time>2022-08-20T12:29:30Z</time>
      </trkpt>
      <trkpt lat="46.73827" lon="5.43525">
        <ele>212.2</ele>
        <time>2022-08-20T12:29:31Z</time>
      </trkpt>
      <trkpt lat="46.73816" lon="5.43496">
        <ele>211.6</ele>
        <time>2022-08-20T12:29:34Z</time>
      </trkpt>
      <trkpt lat="46.73795" lon="5.43434">
        <ele>211</ele>
        <time>2022-08-20T12:29:40Z</time>
      </trkpt>
      <trkpt lat="46.73786" lon="5.43401">
        <ele>210.6</ele>
        <time>2022-08-20T12:29:43Z</time>
      </trkpt>
      <trkpt lat="46.73779" lon="5.43365">
        <ele>210.4</ele>
        <time>2022-08-20T12:29:46Z</time>
      </trkpt>
      <trkpt lat="46.73766" lon="5.43284">
        <ele>209.4</ele>
        <time>2022-08-20T12:29:53Z</time>
      </trkpt>
      <trkpt lat="46.73764" lon="5.43272">
        <ele>209.2</ele>
        <time>2022-08-20T12:29:54Z</time>
      </trkpt>
      <trkpt lat="46.73748" lon="5.43188">
        <ele>208.4</ele>
        <time>2022-08-20T12:30:01Z</time>
      </trkpt>
      <trkpt lat="46.73745" lon="5.43179">
        <ele>208.4</ele>
        <time>2022-08-20T12:30:02Z</time>
      </trkpt>
      <trkpt lat="46.7374" lon="5.43167">
        <ele>208.4</ele>
        <time>2022-08-20T12:30:03Z</time>
      </trkpt>
      <trkpt lat="46.73735" lon="5.4316">
        <ele>208.4</ele>
        <time>2022-08-20T12:30:04Z</time>
      </trkpt>
      <trkpt lat="46.73728" lon="5.4315">
        <ele>208.4</ele>
        <time>2022-08-20T12:30:05Z</time>
      </trkpt>
      <trkpt lat="46.73714" lon="5.43137">
        <ele>208.4</ele>
        <time>2022-08-20T12:30:07Z</time>
      </trkpt>
      <trkpt lat="46.73698" lon="5.43131">
        <ele>208.4</ele>
        <time>2022-08-20T12:30:09Z</time>
      </trkpt>
      <trkpt lat="46.73683" lon="5.4313">
        <ele>208.6</ele>
        <time>2022-08-20T12:30:11Z</time>
      </trkpt>
      <trkpt lat="46.7365" lon="5.43128">
        <ele>208.6</ele>
        <time>2022-08-20T12:30:15Z</time>
      </trkpt>
      <trkpt lat="46.73633" lon="5.43132">
        <ele>208.4</ele>
        <time>2022-08-20T12:30:17Z</time>
      </trkpt>
      <trkpt lat="46.73577" lon="5.43163">
        <ele>207.4</ele>
        <time>2022-08-20T12:30:24Z</time>
      </trkpt>
      <trkpt lat="46.73521" lon="5.43193">
        <ele>206.6</ele>
        <time>2022-08-20T12:30:31Z</time>
      </trkpt>
      <trkpt lat="46.73514" lon="5.43195">
        <ele>206.6</ele>
        <time>2022-08-20T12:30:32Z</time>
      </trkpt>
      <trkpt lat="46.73497" lon="5.43199">
        <ele>206.6</ele>
        <time>2022-08-20T12:30:34Z</time>
      </trkpt>
      <trkpt lat="46.73489" lon="5.43198">
        <ele>206.6</ele>
        <time>2022-08-20T12:30:35Z</time>
      </trkpt>
      <trkpt lat="46.73481" lon="5.43197">
        <ele>206.6</ele>
        <time>2022-08-20T12:30:36Z</time>
      </trkpt>
      <trkpt lat="46.73465" lon="5.43189">
        <ele>206.8</ele>
        <time>2022-08-20T12:30:38Z</time>
      </trkpt>
      <trkpt lat="46.7345" lon="5.43178">
        <ele>207</ele>
        <time>2022-08-20T12:30:40Z</time>
      </trkpt>
      <trkpt lat="46.73401" lon="5.43133">
        <ele>207.2</ele>
        <time>2022-08-20T12:30:47Z</time>
      </trkpt>
      <trkpt lat="46.73373" lon="5.43107">
        <ele>207.4</ele>
        <time>2022-08-20T12:30:51Z</time>
      </trkpt>
      <trkpt lat="46.73348" lon="5.43076">
        <ele>207.4</ele>
        <time>2022-08-20T12:30:55Z</time>
      </trkpt>
      <trkpt lat="46.73343" lon="5.43066">
        <ele>207.4</ele>
        <time>2022-08-20T12:30:56Z</time>
      </trkpt>
      <trkpt lat="46.7331" lon="5.42996">
        <ele>207.2</ele>
        <time>2022-08-20T12:31:03Z</time>
      </trkpt>
      <trkpt lat="46.73295" lon="5.42964">
        <ele>207</ele>
        <time>2022-08-20T12:31:06Z</time>
      </trkpt>
      <trkpt lat="46.73263" lon="5.42893">
        <ele>206.8</ele>
        <time>2022-08-20T12:31:13Z</time>
      </trkpt>
      <trkpt lat="46.73254" lon="5.42873">
        <ele>206.8</ele>
        <time>2022-08-20T12:31:15Z</time>
      </trkpt>
      <trkpt lat="46.73222" lon="5.42802">
        <ele>207</ele>
        <time>2022-08-20T12:31:22Z</time>
      </trkpt>
      <trkpt lat="46.73217" lon="5.42792">
        <ele>207</ele>
        <time>2022-08-20T12:31:23Z</time>
      </trkpt>
      <trkpt lat="46.73185" lon="5.42722">
        <ele>206.8</ele>
        <time>2022-08-20T12:31:30Z</time>
      </trkpt>
      <trkpt lat="46.73147" lon="5.42653">
        <ele>206.8</ele>
        <time>2022-08-20T12:31:37Z</time>
      </trkpt>
      <trkpt lat="46.73141" lon="5.42645">
        <ele>207</ele>
        <time>2022-08-20T12:31:38Z</time>
      </trkpt>
      <trkpt lat="46.73128" lon="5.4263">
        <ele>207</ele>
        <time>2022-08-20T12:31:40Z</time>
      </trkpt>
      <trkpt lat="46.73105" lon="5.42614">
        <ele>207.2</ele>
        <time>2022-08-20T12:31:43Z</time>
      </trkpt>
      <trkpt lat="46.73053" lon="5.4258">
        <ele>207.4</ele>
        <time>2022-08-20T12:31:50Z</time>
      </trkpt>
      <trkpt lat="46.7303" lon="5.42564">
        <ele>207.4</ele>
        <time>2022-08-20T12:31:53Z</time>
      </trkpt>
      <trkpt lat="46.73016" lon="5.42551">
        <ele>207.4</ele>
        <time>2022-08-20T12:31:55Z</time>
      </trkpt>
      <trkpt lat="46.73003" lon="5.42534">
        <ele>207.4</ele>
        <time>2022-08-20T12:31:57Z</time>
      </trkpt>
      <trkpt lat="46.72986" lon="5.42493">
        <ele>207.2</ele>
        <time>2022-08-20T12:32:01Z</time>
      </trkpt>
      <trkpt lat="46.72961" lon="5.42416">
        <ele>207.2</ele>
        <time>2022-08-20T12:32:08Z</time>
      </trkpt>
      <trkpt lat="46.72957" lon="5.42405">
        <ele>207.2</ele>
        <time>2022-08-20T12:32:09Z</time>
      </trkpt>
      <trkpt lat="46.72932" lon="5.42327">
        <ele>207.2</ele>
        <time>2022-08-20T12:32:16Z</time>
      </trkpt>
      <trkpt lat="46.72917" lon="5.42282">
        <ele>207.2</ele>
        <time>2022-08-20T12:32:20Z</time>
      </trkpt>
      <trkpt lat="46.72892" lon="5.42205">
        <ele>207</ele>
        <time>2022-08-20T12:32:27Z</time>
      </trkpt>
      <trkpt lat="46.72878" lon="5.42163">
        <ele>207</ele>
        <time>2022-08-20T12:32:31Z</time>
      </trkpt>
      <trkpt lat="46.72855" lon="5.42087">
        <ele>207</ele>
        <time>2022-08-20T12:32:38Z</time>
      </trkpt>
      <trkpt lat="46.72837" lon="5.42035">
        <ele>206.8</ele>
        <time>2022-08-20T12:32:43Z</time>
      </trkpt>
      <trkpt lat="46.72813" lon="5.41991">
        <ele>207</ele>
        <time>2022-08-20T12:32:48Z</time>
      </trkpt>
      <trkpt lat="46.72778" lon="5.41957">
        <ele>207.2</ele>
        <time>2022-08-20T12:32:53Z</time>
      </trkpt>
      <trkpt lat="46.72739" lon="5.41939">
        <ele>206.8</ele>
        <time>2022-08-20T12:32:58Z</time>
      </trkpt>
      <trkpt lat="46.72731" lon="5.41937">
        <ele>206.8</ele>
        <time>2022-08-20T12:32:59Z</time>
      </trkpt>
      <trkpt lat="46.72678" lon="5.41917">
        <ele>206.2</ele>
        <time>2022-08-20T12:33:06Z</time>
      </trkpt>
      <trkpt lat="46.72645" lon="5.41905">
        <ele>206</ele>
        <time>2022-08-20T12:33:10Z</time>
      </trkpt>
      <trkpt lat="46.72592" lon="5.41886">
        <ele>206</ele>
        <time>2022-08-20T12:33:17Z</time>
      </trkpt>
      <trkpt lat="46.72561" lon="5.41873">
        <ele>206</ele>
        <time>2022-08-20T12:33:21Z</time>
      </trkpt>
      <trkpt lat="46.72516" lon="5.41848">
        <ele>205.8</ele>
        <time>2022-08-20T12:33:27Z</time>
      </trkpt>
      <trkpt lat="46.72473" lon="5.41807">
        <ele>205.8</ele>
        <time>2022-08-20T12:33:33Z</time>
      </trkpt>
      <trkpt lat="46.72432" lon="5.41751">
        <ele>206</ele>
        <time>2022-08-20T12:33:40Z</time>
      </trkpt>
      <trkpt lat="46.72395" lon="5.41683">
        <ele>205.8</ele>
        <time>2022-08-20T12:33:47Z</time>
      </trkpt>
      <trkpt lat="46.7239" lon="5.41674">
        <ele>205.8</ele>
        <time>2022-08-20T12:33:48Z</time>
      </trkpt>
      <trkpt lat="46.72355" lon="5.4161">
        <ele>205.8</ele>
        <time>2022-08-20T12:33:55Z</time>
      </trkpt>
      <trkpt lat="46.72346" lon="5.41593">
        <ele>205.8</ele>
        <time>2022-08-20T12:33:57Z</time>
      </trkpt>
      <trkpt lat="46.72331" lon="5.41566">
        <ele>205.6</ele>
        <time>2022-08-20T12:34:00Z</time>
      </trkpt>
      <trkpt lat="46.72303" lon="5.41515">
        <ele>205.4</ele>
        <time>2022-08-20T12:34:06Z</time>
      </trkpt>
      <trkpt lat="46.72268" lon="5.4145">
        <ele>205.4</ele>
        <time>2022-08-20T12:34:14Z</time>
      </trkpt>
      <trkpt lat="46.72237" lon="5.41385">
        <ele>206</ele>
        <time>2022-08-20T12:34:22Z</time>
      </trkpt>
      <trkpt lat="46.72206" lon="5.41315">
        <ele>205.8</ele>
        <time>2022-08-20T12:34:30Z</time>
      </trkpt>
      <trkpt lat="46.72202" lon="5.41305">
        <ele>205.8</ele>
        <time>2022-08-20T12:34:31Z</time>
      </trkpt>
      <trkpt lat="46.72175" lon="5.41245">
        <ele>205.8</ele>
        <time>2022-08-20T12:34:38Z</time>
      </trkpt>
      <trkpt lat="46.72145" lon="5.41187">
        <ele>206</ele>
        <time>2022-08-20T12:34:45Z</time>
      </trkpt>
      <trkpt lat="46.72102" lon="5.41131">
        <ele>205.8</ele>
        <time>2022-08-20T12:34:53Z</time>
      </trkpt>
      <trkpt lat="46.72062" lon="5.41089">
        <ele>205.6</ele>
        <time>2022-08-20T12:35:00Z</time>
      </trkpt>
      <trkpt lat="46.72044" lon="5.41069">
        <ele>205.6</ele>
        <time>2022-08-20T12:35:03Z</time>
      </trkpt>
      <trkpt lat="46.71998" lon="5.4102">
        <ele>205.6</ele>
        <time>2022-08-20T12:35:11Z</time>
      </trkpt>
      <trkpt lat="46.71992" lon="5.41014">
        <ele>205.6</ele>
        <time>2022-08-20T12:35:12Z</time>
      </trkpt>
      <trkpt lat="46.71947" lon="5.40959">
        <ele>205.6</ele>
        <time>2022-08-20T12:35:20Z</time>
      </trkpt>
      <trkpt lat="46.71928" lon="5.40945">
        <ele>205.8</ele>
        <time>2022-08-20T12:35:23Z</time>
      </trkpt>
      <trkpt lat="46.7192" lon="5.40942">
        <ele>205.8</ele>
        <time>2022-08-20T12:35:24Z</time>
      </trkpt>
      <trkpt lat="46.71869" lon="5.4092">
        <ele>206</ele>
        <time>2022-08-20T12:35:31Z</time>
      </trkpt>
      <trkpt lat="46.7184" lon="5.40907">
        <ele>205.6</ele>
        <time>2022-08-20T12:35:35Z</time>
      </trkpt>
      <trkpt lat="46.71803" lon="5.40892">
        <ele>205.6</ele>
        <time>2022-08-20T12:35:40Z</time>
      </trkpt>
      <trkpt lat="46.71744" lon="5.40868">
        <ele>205.4</ele>
        <time>2022-08-20T12:35:48Z</time>
      </trkpt>
      <trkpt lat="46.71725" lon="5.4086">
        <ele>205.6</ele>
        <time>2022-08-20T12:35:51Z</time>
      </trkpt>
      <trkpt lat="46.71692" lon="5.40845">
        <ele>206</ele>
        <time>2022-08-20T12:35:56Z</time>
      </trkpt>
      <trkpt lat="46.71686" lon="5.4084">
        <ele>206</ele>
        <time>2022-08-20T12:35:57Z</time>
      </trkpt>
      <trkpt lat="46.71679" lon="5.40834">
        <ele>206.2</ele>
        <time>2022-08-20T12:35:58Z</time>
      </trkpt>
      <trkpt lat="46.71668" lon="5.4082">
        <ele>206.2</ele>
        <time>2022-08-20T12:36:00Z</time>
      </trkpt>
      <trkpt lat="46.71664" lon="5.40813">
        <ele>206.4</ele>
        <time>2022-08-20T12:36:01Z</time>
      </trkpt>
      <trkpt lat="46.71653" lon="5.40792">
        <ele>207</ele>
        <time>2022-08-20T12:36:04Z</time>
      </trkpt>
      <trkpt lat="46.7164" lon="5.4077">
        <ele>207.8</ele>
        <time>2022-08-20T12:36:07Z</time>
      </trkpt>
      <trkpt lat="46.71637" lon="5.40766">
        <ele>208</ele>
        <time>2022-08-20T12:36:08Z</time>
      </trkpt>
      <trkpt lat="46.71618" lon="5.40746">
        <ele>208.6</ele>
        <time>2022-08-20T12:36:12Z</time>
      </trkpt>
      <trkpt lat="46.71607" lon="5.4074">
        <ele>209.4</ele>
        <time>2022-08-20T12:36:14Z</time>
      </trkpt>
      <trkpt lat="46.71586" lon="5.40731">
        <ele>210.2</ele>
        <time>2022-08-20T12:36:18Z</time>
      </trkpt>
      <trkpt lat="46.71581" lon="5.4073">
        <ele>210.6</ele>
        <time>2022-08-20T12:36:19Z</time>
      </trkpt>
      <trkpt lat="46.71575" lon="5.40729">
        <ele>210.8</ele>
        <time>2022-08-20T12:36:20Z</time>
      </trkpt>
      <trkpt lat="46.71554" lon="5.40726">
        <ele>211.8</ele>
        <time>2022-08-20T12:36:24Z</time>
      </trkpt>
      <trkpt lat="46.71538" lon="5.40725">
        <ele>212.4</ele>
        <time>2022-08-20T12:36:27Z</time>
      </trkpt>
      <trkpt lat="46.71527" lon="5.40724">
        <ele>212.8</ele>
        <time>2022-08-20T12:36:29Z</time>
      </trkpt>
      <trkpt lat="46.71502" lon="5.40717">
        <ele>214.2</ele>
        <time>2022-08-20T12:36:34Z</time>
      </trkpt>
      <trkpt lat="46.71476" lon="5.40702">
        <ele>215.4</ele>
        <time>2022-08-20T12:36:39Z</time>
      </trkpt>
      <trkpt lat="46.71467" lon="5.40694">
        <ele>215.6</ele>
        <time>2022-08-20T12:36:41Z</time>
      </trkpt>
      <trkpt lat="46.71456" lon="5.40682">
        <ele>215.8</ele>
        <time>2022-08-20T12:36:43Z</time>
      </trkpt>
      <trkpt lat="46.71447" lon="5.40666">
        <ele>215.8</ele>
        <time>2022-08-20T12:36:45Z</time>
      </trkpt>
      <trkpt lat="46.71442" lon="5.40657">
        <ele>215.8</ele>
        <time>2022-08-20T12:36:46Z</time>
      </trkpt>
      <trkpt lat="46.71425" lon="5.40615">
        <ele>214.4</ele>
        <time>2022-08-20T12:36:50Z</time>
      </trkpt>
      <trkpt lat="46.71421" lon="5.40604">
        <ele>214.2</ele>
        <time>2022-08-20T12:36:51Z</time>
      </trkpt>
      <trkpt lat="46.71408" lon="5.4057">
        <ele>213.2</ele>
        <time>2022-08-20T12:36:54Z</time>
      </trkpt>
      <trkpt lat="46.7139" lon="5.40525">
        <ele>212.2</ele>
        <time>2022-08-20T12:36:58Z</time>
      </trkpt>
      <trkpt lat="46.71386" lon="5.40514">
        <ele>212</ele>
        <time>2022-08-20T12:36:59Z</time>
      </trkpt>
      <trkpt lat="46.71359" lon="5.40446">
        <ele>211</ele>
        <time>2022-08-20T12:37:05Z</time>
      </trkpt>
      <trkpt lat="46.71354" lon="5.40435">
        <ele>210.6</ele>
        <time>2022-08-20T12:37:06Z</time>
      </trkpt>
      <trkpt lat="46.71337" lon="5.4039">
        <ele>210</ele>
        <time>2022-08-20T12:37:10Z</time>
      </trkpt>
      <trkpt lat="46.71319" lon="5.40347">
        <ele>209.4</ele>
        <time>2022-08-20T12:37:14Z</time>
      </trkpt>
      <trkpt lat="46.71288" lon="5.40271">
        <ele>209</ele>
        <time>2022-08-20T12:37:21Z</time>
      </trkpt>
      <trkpt lat="46.71279" lon="5.40249">
        <ele>209</ele>
        <time>2022-08-20T12:37:23Z</time>
      </trkpt>
      <trkpt lat="46.71271" lon="5.40228">
        <ele>208.8</ele>
        <time>2022-08-20T12:37:25Z</time>
      </trkpt>
      <trkpt lat="46.71262" lon="5.40206">
        <ele>208.8</ele>
        <time>2022-08-20T12:37:27Z</time>
      </trkpt>
      <trkpt lat="46.7124" lon="5.40154">
        <ele>208.4</ele>
        <time>2022-08-20T12:37:32Z</time>
      </trkpt>
      <trkpt lat="46.71219" lon="5.40101">
        <ele>207.8</ele>
        <time>2022-08-20T12:37:37Z</time>
      </trkpt>
      <trkpt lat="46.71195" lon="5.40041">
        <ele>207.4</ele>
        <time>2022-08-20T12:37:43Z</time>
      </trkpt>
      <trkpt lat="46.71172" lon="5.39982">
        <ele>207.2</ele>
        <time>2022-08-20T12:37:49Z</time>
      </trkpt>
      <trkpt lat="46.71145" lon="5.39914">
        <ele>207.2</ele>
        <time>2022-08-20T12:37:56Z</time>
      </trkpt>
      <trkpt lat="46.71141" lon="5.39904">
        <ele>207.2</ele>
        <time>2022-08-20T12:37:57Z</time>
      </trkpt>
      <trkpt lat="46.7111" lon="5.39826">
        <ele>207.2</ele>
        <time>2022-08-20T12:38:05Z</time>
      </trkpt>
      <trkpt lat="46.71106" lon="5.39816">
        <ele>207.2</ele>
        <time>2022-08-20T12:38:06Z</time>
      </trkpt>
      <trkpt lat="46.71074" lon="5.39737">
        <ele>207</ele>
        <time>2022-08-20T12:38:14Z</time>
      </trkpt>
      <trkpt lat="46.71045" lon="5.39664">
        <ele>206.8</ele>
        <time>2022-08-20T12:38:22Z</time>
      </trkpt>
      <trkpt lat="46.71041" lon="5.39654">
        <ele>206.6</ele>
        <time>2022-08-20T12:38:23Z</time>
      </trkpt>
      <trkpt lat="46.7101" lon="5.39577">
        <ele>207</ele>
        <time>2022-08-20T12:38:31Z</time>
      </trkpt>
      <trkpt lat="46.70999" lon="5.39548">
        <ele>207.2</ele>
        <time>2022-08-20T12:38:34Z</time>
      </trkpt>
      <trkpt lat="46.70971" lon="5.39481">
        <ele>207.2</ele>
        <time>2022-08-20T12:38:41Z</time>
      </trkpt>
      <trkpt lat="46.70967" lon="5.39472">
        <ele>207.2</ele>
        <time>2022-08-20T12:38:42Z</time>
      </trkpt>
      <trkpt lat="46.70959" lon="5.39453">
        <ele>207.2</ele>
        <time>2022-08-20T12:38:44Z</time>
      </trkpt>
      <trkpt lat="46.70924" lon="5.39391">
        <ele>207</ele>
        <time>2022-08-20T12:38:51Z</time>
      </trkpt>
      <trkpt lat="46.70886" lon="5.39333">
        <ele>206.6</ele>
        <time>2022-08-20T12:38:58Z</time>
      </trkpt>
      <trkpt lat="46.70865" lon="5.39301">
        <ele>206.8</ele>
        <time>2022-08-20T12:39:02Z</time>
      </trkpt>
      <trkpt lat="46.70831" lon="5.39248">
        <ele>207.2</ele>
        <time>2022-08-20T12:39:09Z</time>
      </trkpt>
      <trkpt lat="46.70793" lon="5.3919">
        <ele>208</ele>
        <time>2022-08-20T12:39:17Z</time>
      </trkpt>
      <trkpt lat="46.70756" lon="5.39133">
        <ele>209</ele>
        <time>2022-08-20T12:39:25Z</time>
      </trkpt>
      <trkpt lat="46.70748" lon="5.39119">
        <ele>209.4</ele>
        <time>2022-08-20T12:39:27Z</time>
      </trkpt>
      <trkpt lat="46.70735" lon="5.39099">
        <ele>210</ele>
        <time>2022-08-20T12:39:30Z</time>
      </trkpt>
      <trkpt lat="46.70718" lon="5.39072">
        <ele>210.8</ele>
        <time>2022-08-20T12:39:34Z</time>
      </trkpt>
      <trkpt lat="46.70714" lon="5.39066">
        <ele>211</ele>
        <time>2022-08-20T12:39:35Z</time>
      </trkpt>
      <trkpt lat="46.70688" lon="5.39026">
        <ele>212.2</ele>
        <time>2022-08-20T12:39:41Z</time>
      </trkpt>
      <trkpt lat="46.7068" lon="5.39012">
        <ele>212.4</ele>
        <time>2022-08-20T12:39:43Z</time>
      </trkpt>
      <trkpt lat="46.70642" lon="5.38953">
        <ele>213.2</ele>
        <time>2022-08-20T12:39:52Z</time>
      </trkpt>
      <trkpt lat="46.70637" lon="5.38946">
        <ele>213.4</ele>
        <time>2022-08-20T12:39:53Z</time>
      </trkpt>
      <trkpt lat="46.70633" lon="5.3894">
        <ele>213.4</ele>
        <time>2022-08-20T12:39:54Z</time>
      </trkpt>
      <trkpt lat="46.70603" lon="5.38892">
        <ele>213.8</ele>
        <time>2022-08-20T12:40:01Z</time>
      </trkpt>
      <trkpt lat="46.70564" lon="5.38831">
        <ele>214.2</ele>
        <time>2022-08-20T12:40:10Z</time>
      </trkpt>
      <trkpt lat="46.70555" lon="5.38817">
        <ele>214.4</ele>
        <time>2022-08-20T12:40:12Z</time>
      </trkpt>
      <trkpt lat="46.70529" lon="5.38776">
        <ele>214.8</ele>
        <time>2022-08-20T12:40:18Z</time>
      </trkpt>
      <trkpt lat="46.70508" lon="5.38742">
        <ele>215.8</ele>
        <time>2022-08-20T12:40:23Z</time>
      </trkpt>
      <trkpt lat="46.705" lon="5.38729">
        <ele>216</ele>
        <time>2022-08-20T12:40:25Z</time>
      </trkpt>
      <trkpt lat="46.70471" lon="5.38684">
        <ele>216.8</ele>
        <time>2022-08-20T12:40:32Z</time>
      </trkpt>
      <trkpt lat="46.70463" lon="5.38671">
        <ele>217</ele>
        <time>2022-08-20T12:40:34Z</time>
      </trkpt>
      <trkpt lat="46.70426" lon="5.38613">
        <ele>217.6</ele>
        <time>2022-08-20T12:40:43Z</time>
      </trkpt>
      <trkpt lat="46.70422" lon="5.38607">
        <ele>217.8</ele>
        <time>2022-08-20T12:40:44Z</time>
      </trkpt>
      <trkpt lat="46.70396" lon="5.38564">
        <ele>219</ele>
        <time>2022-08-20T12:40:51Z</time>
      </trkpt>
      <trkpt lat="46.70393" lon="5.38558">
        <ele>219.2</ele>
        <time>2022-08-20T12:40:52Z</time>
      </trkpt>
      <trkpt lat="46.70378" lon="5.38536">
        <ele>220.2</ele>
        <time>2022-08-20T12:40:56Z</time>
      </trkpt>
      <trkpt lat="46.70369" lon="5.38521">
        <ele>220.6</ele>
        <time>2022-08-20T12:40:59Z</time>
      </trkpt>
      <trkpt lat="46.70358" lon="5.38505">
        <ele>221.4</ele>
        <time>2022-08-20T12:41:02Z</time>
      </trkpt>
      <trkpt lat="46.70347" lon="5.38489">
        <ele>222.2</ele>
        <time>2022-08-20T12:41:05Z</time>
      </trkpt>
      <trkpt lat="46.70336" lon="5.38471">
        <ele>222.6</ele>
        <time>2022-08-20T12:41:08Z</time>
      </trkpt>
      <trkpt lat="46.70319" lon="5.38445">
        <ele>223.4</ele>
        <time>2022-08-20T12:41:12Z</time>
      </trkpt>
      <trkpt lat="46.70307" lon="5.38427">
        <ele>223.6</ele>
        <time>2022-08-20T12:41:15Z</time>
      </trkpt>
      <trkpt lat="46.70286" lon="5.38396">
        <ele>224</ele>
        <time>2022-08-20T12:41:20Z</time>
      </trkpt>
      <trkpt lat="46.70245" lon="5.38332">
        <ele>224.6</ele>
        <time>2022-08-20T12:41:29Z</time>
      </trkpt>
      <trkpt lat="46.70213" lon="5.38284">
        <ele>224.2</ele>
        <time>2022-08-20T12:41:35Z</time>
      </trkpt>
      <trkpt lat="46.70176" lon="5.38224">
        <ele>222.2</ele>
        <time>2022-08-20T12:41:41Z</time>
      </trkpt>
      <trkpt lat="46.70163" lon="5.38204">
        <ele>220.6</ele>
        <time>2022-08-20T12:41:43Z</time>
      </trkpt>
      <trkpt lat="46.70136" lon="5.38162">
        <ele>219.4</ele>
        <time>2022-08-20T12:41:47Z</time>
      </trkpt>
      <trkpt lat="46.70129" lon="5.38151">
        <ele>219</ele>
        <time>2022-08-20T12:41:48Z</time>
      </trkpt>
      <trkpt lat="46.70116" lon="5.38131">
        <ele>218.2</ele>
        <time>2022-08-20T12:41:50Z</time>
      </trkpt>
      <trkpt lat="46.7008" lon="5.38075">
        <ele>218</ele>
        <time>2022-08-20T12:41:56Z</time>
      </trkpt>
      <trkpt lat="46.70059" lon="5.3804">
        <ele>218</ele>
        <time>2022-08-20T12:42:00Z</time>
      </trkpt>
      <trkpt lat="46.70045" lon="5.38018">
        <ele>218.4</ele>
        <time>2022-08-20T12:42:03Z</time>
      </trkpt>
      <trkpt lat="46.7002" lon="5.3798">
        <ele>219.4</ele>
        <time>2022-08-20T12:42:08Z</time>
      </trkpt>
      <trkpt lat="46.70008" lon="5.37965">
        <ele>219.8</ele>
        <time>2022-08-20T12:42:10Z</time>
      </trkpt>
      <trkpt lat="46.70001" lon="5.37958">
        <ele>220</ele>
        <time>2022-08-20T12:42:11Z</time>
      </trkpt>
      <trkpt lat="46.69981" lon="5.3794">
        <ele>220</ele>
        <time>2022-08-20T12:42:14Z</time>
      </trkpt>
      <trkpt lat="46.69973" lon="5.37935">
        <ele>220</ele>
        <time>2022-08-20T12:42:15Z</time>
      </trkpt>
      <trkpt lat="46.69937" lon="5.37911">
        <ele>219.8</ele>
        <time>2022-08-20T12:42:20Z</time>
      </trkpt>
      <trkpt lat="46.69883" lon="5.37876">
        <ele>218.6</ele>
        <time>2022-08-20T12:42:27Z</time>
      </trkpt>
      <trkpt lat="46.69867" lon="5.37865">
        <ele>218.4</ele>
        <time>2022-08-20T12:42:29Z</time>
      </trkpt>
      <trkpt lat="46.69841" lon="5.37848">
        <ele>217.8</ele>
        <time>2022-08-20T12:42:32Z</time>
      </trkpt>
      <trkpt lat="46.69797" lon="5.37819">
        <ele>216.8</ele>
        <time>2022-08-20T12:42:37Z</time>
      </trkpt>
      <trkpt lat="46.6978" lon="5.37807">
        <ele>215.8</ele>
        <time>2022-08-20T12:42:39Z</time>
      </trkpt>
      <trkpt lat="46.69754" lon="5.37791">
        <ele>215</ele>
        <time>2022-08-20T12:42:42Z</time>
      </trkpt>
      <trkpt lat="46.6973" lon="5.37776">
        <ele>214.6</ele>
        <time>2022-08-20T12:42:44Z</time>
      </trkpt>
      <trkpt lat="46.6973" lon="5.37776">
        <ele>214.6</ele>
        <time>2022-08-20T12:42:45Z</time>
      </trkpt>
      <trkpt lat="46.69708" lon="5.37761">
        <ele>214.4</ele>
        <time>2022-08-20T12:42:48Z</time>
      </trkpt>
      <trkpt lat="46.69672" lon="5.37736">
        <ele>215.4</ele>
        <time>2022-08-20T12:42:54Z</time>
      </trkpt>
      <trkpt lat="46.6966" lon="5.37727">
        <ele>215.8</ele>
        <time>2022-08-20T12:42:56Z</time>
      </trkpt>
      <trkpt lat="46.69631" lon="5.37707">
        <ele>216.8</ele>
        <time>2022-08-20T12:43:01Z</time>
      </trkpt>
      <trkpt lat="46.69613" lon="5.37697">
        <ele>217.8</ele>
        <time>2022-08-20T12:43:04Z</time>
      </trkpt>
      <trkpt lat="46.69595" lon="5.37683">
        <ele>218</ele>
        <time>2022-08-20T12:43:07Z</time>
      </trkpt>
      <trkpt lat="46.69541" lon="5.37649">
        <ele>218.4</ele>
        <time>2022-08-20T12:43:14Z</time>
      </trkpt>
      <trkpt lat="46.69496" lon="5.37619">
        <ele>217.8</ele>
        <time>2022-08-20T12:43:20Z</time>
      </trkpt>
      <trkpt lat="46.69464" lon="5.37599">
        <ele>216.4</ele>
        <time>2022-08-20T12:43:24Z</time>
      </trkpt>
      <trkpt lat="46.69456" lon="5.37594">
        <ele>215.8</ele>
        <time>2022-08-20T12:43:26Z</time>
      </trkpt>
      <trkpt lat="46.69423" lon="5.37572">
        <ele>215.2</ele>
        <time>2022-08-20T12:43:29Z</time>
      </trkpt>
      <trkpt lat="46.69399" lon="5.37556">
        <ele>214.2</ele>
        <time>2022-08-20T12:43:33Z</time>
      </trkpt>
      <trkpt lat="46.69383" lon="5.37545">
        <ele>214</ele>
        <time>2022-08-20T12:43:34Z</time>
      </trkpt>
      <trkpt lat="46.69354" lon="5.37521">
        <ele>212.8</ele>
        <time>2022-08-20T12:43:38Z</time>
      </trkpt>
      <trkpt lat="46.69341" lon="5.37508">
        <ele>212.2</ele>
        <time>2022-08-20T12:43:40Z</time>
      </trkpt>
      <trkpt lat="46.69302" lon="5.37466">
        <ele>212.4</ele>
        <time>2022-08-20T12:43:47Z</time>
      </trkpt>
      <trkpt lat="46.69266" lon="5.37429">
        <ele>213.8</ele>
        <time>2022-08-20T12:43:54Z</time>
      </trkpt>
      <trkpt lat="46.69256" lon="5.37419">
        <ele>214.2</ele>
        <time>2022-08-20T12:43:56Z</time>
      </trkpt>
      <trkpt lat="46.69251" lon="5.37414">
        <ele>214.4</ele>
        <time>2022-08-20T12:43:57Z</time>
      </trkpt>
      <trkpt lat="46.69226" lon="5.37387">
        <ele>214.8</ele>
        <time>2022-08-20T12:44:02Z</time>
      </trkpt>
      <trkpt lat="46.69221" lon="5.37382">
        <ele>214.8</ele>
        <time>2022-08-20T12:44:03Z</time>
      </trkpt>
      <trkpt lat="46.69175" lon="5.37336">
        <ele>215.4</ele>
        <time>2022-08-20T12:44:12Z</time>
      </trkpt>
      <trkpt lat="46.69149" lon="5.37309">
        <ele>216</ele>
        <time>2022-08-20T12:44:17Z</time>
      </trkpt>
      <trkpt lat="46.69134" lon="5.37291">
        <ele>216.2</ele>
        <time>2022-08-20T12:44:20Z</time>
      </trkpt>
      <trkpt lat="46.69103" lon="5.3726">
        <ele>216.4</ele>
        <time>2022-08-20T12:44:26Z</time>
      </trkpt>
      <trkpt lat="46.69085" lon="5.37242">
        <ele>216.4</ele>
        <time>2022-08-20T12:44:30Z</time>
      </trkpt>
      <trkpt lat="46.6908" lon="5.37238">
        <ele>216.4</ele>
        <time>2022-08-20T12:44:31Z</time>
      </trkpt>
      <trkpt lat="46.69069" lon="5.37226">
        <ele>216.6</ele>
        <time>2022-08-20T12:44:34Z</time>
      </trkpt>
      <trkpt lat="46.69062" lon="5.37218">
        <ele>216.8</ele>
        <time>2022-08-20T12:44:36Z</time>
      </trkpt>
      <trkpt lat="46.69055" lon="5.37209">
        <ele>216.8</ele>
        <time>2022-08-20T12:44:38Z</time>
      </trkpt>
      <trkpt lat="46.69054" lon="5.37202">
        <ele>216.8</ele>
        <time>2022-08-20T12:44:39Z</time>
      </trkpt>
      <trkpt lat="46.69054" lon="5.37195">
        <ele>217</ele>
        <time>2022-08-20T12:44:40Z</time>
      </trkpt>
      <trkpt lat="46.69057" lon="5.37168">
        <ele>217</ele>
        <time>2022-08-20T12:44:43Z</time>
      </trkpt>
      <trkpt lat="46.69061" lon="5.3711">
        <ele>216.4</ele>
        <time>2022-08-20T12:44:49Z</time>
      </trkpt>
      <trkpt lat="46.69065" lon="5.37034">
        <ele>215</ele>
        <time>2022-08-20T12:44:56Z</time>
      </trkpt>
      <trkpt lat="46.69065" lon="5.37023">
        <ele>214.8</ele>
        <time>2022-08-20T12:44:57Z</time>
      </trkpt>
      <trkpt lat="46.69062" lon="5.36975">
        <ele>214.2</ele>
        <time>2022-08-20T12:45:01Z</time>
      </trkpt>
      <trkpt lat="46.6906" lon="5.36966">
        <ele>213.8</ele>
        <time>2022-08-20T12:45:02Z</time>
      </trkpt>
      <trkpt lat="46.6906" lon="5.36966">
        <ele>213.6</ele>
        <time>2022-08-20T12:45:03Z</time>
      </trkpt>
      <trkpt lat="46.69054" lon="5.36932">
        <ele>213.4</ele>
        <time>2022-08-20T12:45:05Z</time>
      </trkpt>
      <trkpt lat="46.69053" lon="5.36908">
        <ele>213</ele>
        <time>2022-08-20T12:45:07Z</time>
      </trkpt>
      <trkpt lat="46.69051" lon="5.36885">
        <ele>212.6</ele>
        <time>2022-08-20T12:45:09Z</time>
      </trkpt>
      <trkpt lat="46.69049" lon="5.36827">
        <ele>211.2</ele>
        <time>2022-08-20T12:45:14Z</time>
      </trkpt>
      <trkpt lat="46.69043" lon="5.36763">
        <ele>210.4</ele>
        <time>2022-08-20T12:45:20Z</time>
      </trkpt>
      <trkpt lat="46.69035" lon="5.36745">
        <ele>210.4</ele>
        <time>2022-08-20T12:45:22Z</time>
      </trkpt>
      <trkpt lat="46.69029" lon="5.36739">
        <ele>210.4</ele>
        <time>2022-08-20T12:45:23Z</time>
      </trkpt>
      <trkpt lat="46.68991" lon="5.36695">
        <ele>210.4</ele>
        <time>2022-08-20T12:45:30Z</time>
      </trkpt>
      <trkpt lat="46.68964" lon="5.36663">
        <ele>212</ele>
        <time>2022-08-20T12:45:36Z</time>
      </trkpt>
      <trkpt lat="46.6896" lon="5.36658">
        <ele>212.4</ele>
        <time>2022-08-20T12:45:37Z</time>
      </trkpt>
      <trkpt lat="46.68938" lon="5.36635">
        <ele>213.6</ele>
        <time>2022-08-20T12:45:42Z</time>
      </trkpt>
      <trkpt lat="46.68934" lon="5.3663">
        <ele>213.8</ele>
        <time>2022-08-20T12:45:43Z</time>
      </trkpt>
      <trkpt lat="46.68921" lon="5.36617">
        <ele>214.6</ele>
        <time>2022-08-20T12:45:46Z</time>
      </trkpt>
      <trkpt lat="46.68896" lon="5.36592">
        <ele>215.8</ele>
        <time>2022-08-20T12:45:52Z</time>
      </trkpt>
      <trkpt lat="46.68883" lon="5.3658">
        <ele>217</ele>
        <time>2022-08-20T12:45:55Z</time>
      </trkpt>
      <trkpt lat="46.6886" lon="5.36559">
        <ele>218</ele>
        <time>2022-08-20T12:46:00Z</time>
      </trkpt>
      <trkpt lat="46.68837" lon="5.36539">
        <ele>219</ele>
        <time>2022-08-20T12:46:05Z</time>
      </trkpt>
      <trkpt lat="46.68823" lon="5.36526">
        <ele>219.8</ele>
        <time>2022-08-20T12:46:09Z</time>
      </trkpt>
      <trkpt lat="46.68798" lon="5.36504">
        <ele>220.4</ele>
        <time>2022-08-20T12:46:13Z</time>
      </trkpt>
      <trkpt lat="46.68779" lon="5.36487">
        <ele>220.8</ele>
        <time>2022-08-20T12:46:17Z</time>
      </trkpt>
      <trkpt lat="46.68759" lon="5.3647">
        <ele>221.4</ele>
        <time>2022-08-20T12:46:22Z</time>
      </trkpt>
      <trkpt lat="46.68724" lon="5.3644">
        <ele>221.6</ele>
        <time>2022-08-20T12:46:28Z</time>
      </trkpt>
      <trkpt lat="46.68696" lon="5.36414">
        <ele>222.4</ele>
        <time>2022-08-20T12:46:35Z</time>
      </trkpt>
      <trkpt lat="46.68675" lon="5.36396">
        <ele>222.8</ele>
        <time>2022-08-20T12:46:38Z</time>
      </trkpt>
      <trkpt lat="46.68633" lon="5.3636">
        <ele>223.6</ele>
        <time>2022-08-20T12:46:46Z</time>
      </trkpt>
      <trkpt lat="46.68628" lon="5.36354">
        <ele>223.8</ele>
        <time>2022-08-20T12:46:47Z</time>
      </trkpt>
      <trkpt lat="46.68577" lon="5.36309">
        <ele>224.2</ele>
        <time>2022-08-20T12:46:56Z</time>
      </trkpt>
      <trkpt lat="46.6853" lon="5.36268">
        <ele>224.2</ele>
        <time>2022-08-20T12:47:04Z</time>
      </trkpt>
      <trkpt lat="46.68514" lon="5.36254">
        <ele>224.2</ele>
        <time>2022-08-20T12:47:07Z</time>
      </trkpt>
      <trkpt lat="46.68467" lon="5.36212">
        <ele>224.2</ele>
        <time>2022-08-20T12:47:15Z</time>
      </trkpt>
      <trkpt lat="46.68455" lon="5.36202">
        <ele>224.2</ele>
        <time>2022-08-20T12:47:17Z</time>
      </trkpt>
      <trkpt lat="46.68404" lon="5.36156">
        <ele>224.2</ele>
        <time>2022-08-20T12:47:25Z</time>
      </trkpt>
      <trkpt lat="46.68397" lon="5.36151">
        <ele>224.2</ele>
        <time>2022-08-20T12:47:26Z</time>
      </trkpt>
      <trkpt lat="46.68345" lon="5.36111">
        <ele>223.8</ele>
        <time>2022-08-20T12:47:34Z</time>
      </trkpt>
      <trkpt lat="46.68338" lon="5.36107">
        <ele>223.8</ele>
        <time>2022-08-20T12:47:35Z</time>
      </trkpt>
      <trkpt lat="46.68281" lon="5.36079">
        <ele>223.8</ele>
        <time>2022-08-20T12:47:43Z</time>
      </trkpt>
      <trkpt lat="46.68267" lon="5.36072">
        <ele>223.8</ele>
        <time>2022-08-20T12:47:45Z</time>
      </trkpt>
      <trkpt lat="46.6821" lon="5.36043">
        <ele>223.8</ele>
        <time>2022-08-20T12:47:53Z</time>
      </trkpt>
      <trkpt lat="46.68153" lon="5.36015">
        <ele>224</ele>
        <time>2022-08-20T12:48:01Z</time>
      </trkpt>
      <trkpt lat="46.6814" lon="5.36009">
        <ele>224</ele>
        <time>2022-08-20T12:48:03Z</time>
      </trkpt>
      <trkpt lat="46.68089" lon="5.35982">
        <ele>224</ele>
        <time>2022-08-20T12:48:10Z</time>
      </trkpt>
      <trkpt lat="46.68084" lon="5.35978">
        <ele>224</ele>
        <time>2022-08-20T12:48:11Z</time>
      </trkpt>
      <trkpt lat="46.68075" lon="5.35972">
        <ele>224</ele>
        <time>2022-08-20T12:48:12Z</time>
      </trkpt>
      <trkpt lat="46.6805" lon="5.35945">
        <ele>224</ele>
        <time>2022-08-20T12:48:16Z</time>
      </trkpt>
      <trkpt lat="46.68019" lon="5.35897">
        <ele>223.8</ele>
        <time>2022-08-20T12:48:22Z</time>
      </trkpt>
      <trkpt lat="46.67981" lon="5.35834">
        <ele>223.6</ele>
        <time>2022-08-20T12:48:29Z</time>
      </trkpt>
      <trkpt lat="46.67976" lon="5.35826">
        <ele>223.8</ele>
        <time>2022-08-20T12:48:31Z</time>
      </trkpt>
      <trkpt lat="46.67935" lon="5.35758">
        <ele>224.2</ele>
        <time>2022-08-20T12:48:38Z</time>
      </trkpt>
      <trkpt lat="46.67917" lon="5.35725">
        <ele>224.8</ele>
        <time>2022-08-20T12:48:42Z</time>
      </trkpt>
      <trkpt lat="46.67908" lon="5.35711">
        <ele>224.8</ele>
        <time>2022-08-20T12:48:44Z</time>
      </trkpt>
      <trkpt lat="46.67879" lon="5.35649">
        <ele>224.2</ele>
        <time>2022-08-20T12:48:51Z</time>
      </trkpt>
      <trkpt lat="46.67854" lon="5.35578">
        <ele>224</ele>
        <time>2022-08-20T12:48:58Z</time>
      </trkpt>
      <trkpt lat="46.67848" lon="5.35557">
        <ele>223.8</ele>
        <time>2022-08-20T12:49:00Z</time>
      </trkpt>
      <trkpt lat="46.67842" lon="5.35539">
        <ele>223.8</ele>
        <time>2022-08-20T12:49:02Z</time>
      </trkpt>
      <trkpt lat="46.67816" lon="5.35459">
        <ele>223</ele>
        <time>2022-08-20T12:49:10Z</time>
      </trkpt>
      <trkpt lat="46.67813" lon="5.3545">
        <ele>223</ele>
        <time>2022-08-20T12:49:11Z</time>
      </trkpt>
      <trkpt lat="46.678" lon="5.35408">
        <ele>222.8</ele>
        <time>2022-08-20T12:49:15Z</time>
      </trkpt>
      <trkpt lat="46.67778" lon="5.35342">
        <ele>222.4</ele>
        <time>2022-08-20T12:49:22Z</time>
      </trkpt>
      <trkpt lat="46.67754" lon="5.35266">
        <ele>222.8</ele>
        <time>2022-08-20T12:49:30Z</time>
      </trkpt>
      <trkpt lat="46.67745" lon="5.35237">
        <ele>222.8</ele>
        <time>2022-08-20T12:49:33Z</time>
      </trkpt>
      <trkpt lat="46.6772" lon="5.35163">
        <ele>222.6</ele>
        <time>2022-08-20T12:49:41Z</time>
      </trkpt>
      <trkpt lat="46.67696" lon="5.35086">
        <ele>222.2</ele>
        <time>2022-08-20T12:49:49Z</time>
      </trkpt>
      <trkpt lat="46.67672" lon="5.35011">
        <ele>222.2</ele>
        <time>2022-08-20T12:49:57Z</time>
      </trkpt>
      <trkpt lat="46.67669" lon="5.35001">
        <ele>222.2</ele>
        <time>2022-08-20T12:49:58Z</time>
      </trkpt>
      <trkpt lat="46.67646" lon="5.34946">
        <ele>222.2</ele>
        <time>2022-08-20T12:50:04Z</time>
      </trkpt>
      <trkpt lat="46.67624" lon="5.34916">
        <ele>221.8</ele>
        <time>2022-08-20T12:50:08Z</time>
      </trkpt>
      <trkpt lat="46.67612" lon="5.34902">
        <ele>221.6</ele>
        <time>2022-08-20T12:50:10Z</time>
      </trkpt>
      <trkpt lat="46.67578" lon="5.34862">
        <ele>221.2</ele>
        <time>2022-08-20T12:50:16Z</time>
      </trkpt>
      <trkpt lat="46.67532" lon="5.34809">
        <ele>221.2</ele>
        <time>2022-08-20T12:50:24Z</time>
      </trkpt>
      <trkpt lat="46.67526" lon="5.34802">
        <ele>221.4</ele>
        <time>2022-08-20T12:50:25Z</time>
      </trkpt>
      <trkpt lat="46.67484" lon="5.34755">
        <ele>222.2</ele>
        <time>2022-08-20T12:50:32Z</time>
      </trkpt>
      <trkpt lat="46.67461" lon="5.34726">
        <ele>222.2</ele>
        <time>2022-08-20T12:50:36Z</time>
      </trkpt>
      <trkpt lat="46.67437" lon="5.34698">
        <ele>222.6</ele>
        <time>2022-08-20T12:50:40Z</time>
      </trkpt>
      <trkpt lat="46.67415" lon="5.34669">
        <ele>222.2</ele>
        <time>2022-08-20T12:50:44Z</time>
      </trkpt>
      <trkpt lat="46.67406" lon="5.34652">
        <ele>222.4</ele>
        <time>2022-08-20T12:50:46Z</time>
      </trkpt>
      <trkpt lat="46.6738" lon="5.34585">
        <ele>221.6</ele>
        <time>2022-08-20T12:50:53Z</time>
      </trkpt>
      <trkpt lat="46.67354" lon="5.34513">
        <ele>221.2</ele>
        <time>2022-08-20T12:51:00Z</time>
      </trkpt>
      <trkpt lat="46.67328" lon="5.3444">
        <ele>221.4</ele>
        <time>2022-08-20T12:51:08Z</time>
      </trkpt>
      <trkpt lat="46.67321" lon="5.34422">
        <ele>221.4</ele>
        <time>2022-08-20T12:51:10Z</time>
      </trkpt>
      <trkpt lat="46.67293" lon="5.34344">
        <ele>221.6</ele>
        <time>2022-08-20T12:51:19Z</time>
      </trkpt>
      <trkpt lat="46.67265" lon="5.34266">
        <ele>221.6</ele>
        <time>2022-08-20T12:51:28Z</time>
      </trkpt>
      <trkpt lat="46.67258" lon="5.34248">
        <ele>221.6</ele>
        <time>2022-08-20T12:51:30Z</time>
      </trkpt>
      <trkpt lat="46.67243" lon="5.34212">
        <ele>221.2</ele>
        <time>2022-08-20T12:51:34Z</time>
      </trkpt>
      <trkpt lat="46.67217" lon="5.3414">
        <ele>221</ele>
        <time>2022-08-20T12:51:41Z</time>
      </trkpt>
      <trkpt lat="46.67213" lon="5.34129">
        <ele>220.8</ele>
        <time>2022-08-20T12:51:42Z</time>
      </trkpt>
      <trkpt lat="46.67185" lon="5.34053">
        <ele>219.8</ele>
        <time>2022-08-20T12:51:49Z</time>
      </trkpt>
      <trkpt lat="46.67182" lon="5.34044">
        <ele>219.8</ele>
        <time>2022-08-20T12:51:50Z</time>
      </trkpt>
      <trkpt lat="46.67158" lon="5.33976">
        <ele>219.8</ele>
        <time>2022-08-20T12:51:57Z</time>
      </trkpt>
      <trkpt lat="46.67134" lon="5.33911">
        <ele>220.8</ele>
        <time>2022-08-20T12:52:04Z</time>
      </trkpt>
      <trkpt lat="46.67123" lon="5.33881">
        <ele>220.8</ele>
        <time>2022-08-20T12:52:07Z</time>
      </trkpt>
      <trkpt lat="46.67095" lon="5.33804">
        <ele>221</ele>
        <time>2022-08-20T12:52:15Z</time>
      </trkpt>
      <trkpt lat="46.67068" lon="5.33728">
        <ele>220.8</ele>
        <time>2022-08-20T12:52:23Z</time>
      </trkpt>
      <trkpt lat="46.67061" lon="5.33709">
        <ele>220.8</ele>
        <time>2022-08-20T12:52:25Z</time>
      </trkpt>
      <trkpt lat="46.67055" lon="5.33688">
        <ele>220.6</ele>
        <time>2022-08-20T12:52:27Z</time>
      </trkpt>
      <trkpt lat="46.67045" lon="5.33659">
        <ele>220.4</ele>
        <time>2022-08-20T12:52:30Z</time>
      </trkpt>
      <trkpt lat="46.67019" lon="5.33595">
        <ele>220.4</ele>
        <time>2022-08-20T12:52:37Z</time>
      </trkpt>
      <trkpt lat="46.66982" lon="5.33523">
        <ele>220.4</ele>
        <time>2022-08-20T12:52:45Z</time>
      </trkpt>
      <trkpt lat="46.66949" lon="5.33459">
        <ele>220.4</ele>
        <time>2022-08-20T12:52:52Z</time>
      </trkpt>
      <trkpt lat="46.66944" lon="5.3345">
        <ele>220.4</ele>
        <time>2022-08-20T12:52:53Z</time>
      </trkpt>
      <trkpt lat="46.66924" lon="5.33412">
        <ele>220</ele>
        <time>2022-08-20T12:52:57Z</time>
      </trkpt>
      <trkpt lat="46.66914" lon="5.33394">
        <ele>219.8</ele>
        <time>2022-08-20T12:52:59Z</time>
      </trkpt>
      <trkpt lat="46.66895" lon="5.33357">
        <ele>219.2</ele>
        <time>2022-08-20T12:53:03Z</time>
      </trkpt>
      <trkpt lat="46.66884" lon="5.33337">
        <ele>219</ele>
        <time>2022-08-20T12:53:05Z</time>
      </trkpt>
      <trkpt lat="46.66851" lon="5.33273">
        <ele>218.2</ele>
        <time>2022-08-20T12:53:11Z</time>
      </trkpt>
      <trkpt lat="46.66846" lon="5.33263">
        <ele>218</ele>
        <time>2022-08-20T12:53:12Z</time>
      </trkpt>
      <trkpt lat="46.66841" lon="5.33255">
        <ele>217.8</ele>
        <time>2022-08-20T12:53:13Z</time>
      </trkpt>
      <trkpt lat="46.66817" lon="5.33209">
        <ele>216.6</ele>
        <time>2022-08-20T12:53:17Z</time>
      </trkpt>
      <trkpt lat="46.66794" lon="5.33166">
        <ele>215.4</ele>
        <time>2022-08-20T12:53:21Z</time>
      </trkpt>
      <trkpt lat="46.66758" lon="5.33095">
        <ele>214.8</ele>
        <time>2022-08-20T12:53:28Z</time>
      </trkpt>
      <trkpt lat="46.66753" lon="5.33084">
        <ele>214.6</ele>
        <time>2022-08-20T12:53:29Z</time>
      </trkpt>
      <trkpt lat="46.66743" lon="5.33051">
        <ele>214.6</ele>
        <time>2022-08-20T12:53:32Z</time>
      </trkpt>
      <trkpt lat="46.66741" lon="5.3304">
        <ele>214.8</ele>
        <time>2022-08-20T12:53:33Z</time>
      </trkpt>
      <trkpt lat="46.66739" lon="5.33029">
        <ele>214.8</ele>
        <time>2022-08-20T12:53:34Z</time>
      </trkpt>
      <trkpt lat="46.66738" lon="5.32994">
        <ele>214.8</ele>
        <time>2022-08-20T12:53:37Z</time>
      </trkpt>
      <trkpt lat="46.66737" lon="5.32905">
        <ele>214.8</ele>
        <time>2022-08-20T12:53:45Z</time>
      </trkpt>
      <trkpt lat="46.66739" lon="5.32861">
        <ele>214.6</ele>
        <time>2022-08-20T12:53:49Z</time>
      </trkpt>
      <trkpt lat="46.66741" lon="5.32851">
        <ele>214.6</ele>
        <time>2022-08-20T12:53:50Z</time>
      </trkpt>
      <trkpt lat="46.66748" lon="5.32819">
        <ele>214.2</ele>
        <time>2022-08-20T12:53:53Z</time>
      </trkpt>
      <trkpt lat="46.66759" lon="5.32789">
        <ele>214</ele>
        <time>2022-08-20T12:53:56Z</time>
      </trkpt>
      <trkpt lat="46.66774" lon="5.32763">
        <ele>214</ele>
        <time>2022-08-20T12:53:59Z</time>
      </trkpt>
      <trkpt lat="46.66781" lon="5.32757">
        <ele>213.6</ele>
        <time>2022-08-20T12:54:00Z</time>
      </trkpt>
      <trkpt lat="46.66786" lon="5.32753">
        <ele>213.6</ele>
        <time>2022-08-20T12:54:01Z</time>
      </trkpt>
      <trkpt lat="46.66794" lon="5.32749">
        <ele>213.2</ele>
        <time>2022-08-20T12:54:02Z</time>
      </trkpt>
      <trkpt lat="46.6681" lon="5.32738">
        <ele>212.8</ele>
        <time>2022-08-20T12:54:04Z</time>
      </trkpt>
      <trkpt lat="46.66823" lon="5.32724">
        <ele>212.6</ele>
        <time>2022-08-20T12:54:06Z</time>
      </trkpt>
      <trkpt lat="46.66834" lon="5.32705">
        <ele>212</ele>
        <time>2022-08-20T12:54:08Z</time>
      </trkpt>
      <trkpt lat="46.66865" lon="5.32632">
        <ele>211</ele>
        <time>2022-08-20T12:54:15Z</time>
      </trkpt>
      <trkpt lat="46.66898" lon="5.32565">
        <ele>209.8</ele>
        <time>2022-08-20T12:54:21Z</time>
      </trkpt>
      <trkpt lat="46.66916" lon="5.3254">
        <ele>208.6</ele>
        <time>2022-08-20T12:54:24Z</time>
      </trkpt>
      <trkpt lat="46.66928" lon="5.32522">
        <ele>208.2</ele>
        <time>2022-08-20T12:54:26Z</time>
      </trkpt>
      <trkpt lat="46.66933" lon="5.32509">
        <ele>208.2</ele>
        <time>2022-08-20T12:54:27Z</time>
      </trkpt>
      <trkpt lat="46.66939" lon="5.32489">
        <ele>207.8</ele>
        <time>2022-08-20T12:54:29Z</time>
      </trkpt>
      <trkpt lat="46.66942" lon="5.32465">
        <ele>207.4</ele>
        <time>2022-08-20T12:54:31Z</time>
      </trkpt>
      <trkpt lat="46.66943" lon="5.32441">
        <ele>207.6</ele>
        <time>2022-08-20T12:54:33Z</time>
      </trkpt>
      <trkpt lat="46.66944" lon="5.32418">
        <ele>207.6</ele>
        <time>2022-08-20T12:54:35Z</time>
      </trkpt>
      <trkpt lat="46.66941" lon="5.32393">
        <ele>207.4</ele>
        <time>2022-08-20T12:54:37Z</time>
      </trkpt>
      <trkpt lat="46.66931" lon="5.32361">
        <ele>207.6</ele>
        <time>2022-08-20T12:54:40Z</time>
      </trkpt>
      <trkpt lat="46.66928" lon="5.32353">
        <ele>207.6</ele>
        <time>2022-08-20T12:54:41Z</time>
      </trkpt>
      <trkpt lat="46.66901" lon="5.32312">
        <ele>208</ele>
        <time>2022-08-20T12:54:46Z</time>
      </trkpt>
      <trkpt lat="46.66858" lon="5.32259">
        <ele>208.2</ele>
        <time>2022-08-20T12:54:53Z</time>
      </trkpt>
      <trkpt lat="46.66853" lon="5.32252">
        <ele>208</ele>
        <time>2022-08-20T12:54:54Z</time>
      </trkpt>
      <trkpt lat="46.66836" lon="5.32229">
        <ele>208</ele>
        <time>2022-08-20T12:54:57Z</time>
      </trkpt>
      <trkpt lat="46.66833" lon="5.32223">
        <ele>208</ele>
        <time>2022-08-20T12:54:58Z</time>
      </trkpt>
      <trkpt lat="46.66824" lon="5.32197">
        <ele>208.4</ele>
        <time>2022-08-20T12:55:01Z</time>
      </trkpt>
      <trkpt lat="46.6682" lon="5.32183">
        <ele>208.6</ele>
        <time>2022-08-20T12:55:03Z</time>
      </trkpt>
      <trkpt lat="46.66803" lon="5.32145">
        <ele>210</ele>
        <time>2022-08-20T12:55:08Z</time>
      </trkpt>
      <trkpt lat="46.66801" lon="5.32138">
        <ele>210.4</ele>
        <time>2022-08-20T12:55:09Z</time>
      </trkpt>
      <trkpt lat="46.66799" lon="5.32121">
        <ele>210.6</ele>
        <time>2022-08-20T12:55:11Z</time>
      </trkpt>
      <trkpt lat="46.66804" lon="5.32104">
        <ele>210.8</ele>
        <time>2022-08-20T12:55:13Z</time>
      </trkpt>
      <trkpt lat="46.66808" lon="5.32095">
        <ele>210.8</ele>
        <time>2022-08-20T12:55:14Z</time>
      </trkpt>
      <trkpt lat="46.66835" lon="5.32058">
        <ele>210</ele>
        <time>2022-08-20T12:55:19Z</time>
      </trkpt>
      <trkpt lat="46.66864" lon="5.32016">
        <ele>209</ele>
        <time>2022-08-20T12:55:25Z</time>
      </trkpt>
      <trkpt lat="46.66875" lon="5.31992">
        <ele>209</ele>
        <time>2022-08-20T12:55:28Z</time>
      </trkpt>
      <trkpt lat="46.66878" lon="5.31985">
        <ele>209.2</ele>
        <time>2022-08-20T12:55:29Z</time>
      </trkpt>
      <trkpt lat="46.6688" lon="5.31977">
        <ele>209.2</ele>
        <time>2022-08-20T12:55:30Z</time>
      </trkpt>
      <trkpt lat="46.66883" lon="5.31961">
        <ele>209.4</ele>
        <time>2022-08-20T12:55:32Z</time>
      </trkpt>
      <trkpt lat="46.66884" lon="5.31945">
        <ele>210</ele>
        <time>2022-08-20T12:55:34Z</time>
      </trkpt>
      <trkpt lat="46.66882" lon="5.3193">
        <ele>210.6</ele>
        <time>2022-08-20T12:55:36Z</time>
      </trkpt>
      <trkpt lat="46.66878" lon="5.31916">
        <ele>211.2</ele>
        <time>2022-08-20T12:55:38Z</time>
      </trkpt>
      <trkpt lat="46.66868" lon="5.31885">
        <ele>212.4</ele>
        <time>2022-08-20T12:55:43Z</time>
      </trkpt>
      <trkpt lat="46.66863" lon="5.31872">
        <ele>213</ele>
        <time>2022-08-20T12:55:45Z</time>
      </trkpt>
      <trkpt lat="46.66856" lon="5.31862">
        <ele>213.4</ele>
        <time>2022-08-20T12:55:47Z</time>
      </trkpt>
      <trkpt lat="46.66852" lon="5.31857">
        <ele>213.8</ele>
        <time>2022-08-20T12:55:48Z</time>
      </trkpt>
      <trkpt lat="46.66844" lon="5.31849">
        <ele>214.2</ele>
        <time>2022-08-20T12:55:50Z</time>
      </trkpt>
      <trkpt lat="46.66831" lon="5.31836">
        <ele>215</ele>
        <time>2022-08-20T12:55:53Z</time>
      </trkpt>
      <trkpt lat="46.66815" lon="5.31812">
        <ele>215.4</ele>
        <time>2022-08-20T12:55:57Z</time>
      </trkpt>
      <trkpt lat="46.66808" lon="5.31793">
        <ele>215.6</ele>
        <time>2022-08-20T12:56:00Z</time>
      </trkpt>
      <trkpt lat="46.66802" lon="5.31772">
        <ele>216</ele>
        <time>2022-08-20T12:56:03Z</time>
      </trkpt>
      <trkpt lat="46.668" lon="5.31765">
        <ele>216</ele>
        <time>2022-08-20T12:56:04Z</time>
      </trkpt>
      <trkpt lat="46.66797" lon="5.31733">
        <ele>216.2</ele>
        <time>2022-08-20T12:56:08Z</time>
      </trkpt>
      <trkpt lat="46.66797" lon="5.31724">
        <ele>216.2</ele>
        <time>2022-08-20T12:56:09Z</time>
      </trkpt>
      <trkpt lat="46.66799" lon="5.31715">
        <ele>216.2</ele>
        <time>2022-08-20T12:56:10Z</time>
      </trkpt>
      <trkpt lat="46.66805" lon="5.31697">
        <ele>216.2</ele>
        <time>2022-08-20T12:56:12Z</time>
      </trkpt>
      <trkpt lat="46.66826" lon="5.31648">
        <ele>215</ele>
        <time>2022-08-20T12:56:17Z</time>
      </trkpt>
      <trkpt lat="46.6683" lon="5.31637">
        <ele>214.6</ele>
        <time>2022-08-20T12:56:18Z</time>
      </trkpt>
      <trkpt lat="46.66839" lon="5.31615">
        <ele>213.8</ele>
        <time>2022-08-20T12:56:20Z</time>
      </trkpt>
      <trkpt lat="46.66852" lon="5.31581">
        <ele>212.8</ele>
        <time>2022-08-20T12:56:23Z</time>
      </trkpt>
      <trkpt lat="46.66861" lon="5.31563">
        <ele>211.8</ele>
        <time>2022-08-20T12:56:25Z</time>
      </trkpt>
      <trkpt lat="46.66866" lon="5.31554">
        <ele>211.4</ele>
        <time>2022-08-20T12:56:26Z</time>
      </trkpt>
      <trkpt lat="46.66879" lon="5.31539">
        <ele>211.2</ele>
        <time>2022-08-20T12:56:28Z</time>
      </trkpt>
      <trkpt lat="46.66894" lon="5.31532">
        <ele>211.2</ele>
        <time>2022-08-20T12:56:30Z</time>
      </trkpt>
      <trkpt lat="46.66901" lon="5.31531">
        <ele>211.2</ele>
        <time>2022-08-20T12:56:31Z</time>
      </trkpt>
      <trkpt lat="46.66909" lon="5.31533">
        <ele>211.2</ele>
        <time>2022-08-20T12:56:32Z</time>
      </trkpt>
      <trkpt lat="46.66923" lon="5.31536">
        <ele>211.6</ele>
        <time>2022-08-20T12:56:34Z</time>
      </trkpt>
      <trkpt lat="46.6693" lon="5.31536">
        <ele>211.8</ele>
        <time>2022-08-20T12:56:35Z</time>
      </trkpt>
      <trkpt lat="46.66942" lon="5.31535">
        <ele>212.6</ele>
        <time>2022-08-20T12:56:37Z</time>
      </trkpt>
      <trkpt lat="46.66966" lon="5.31533">
        <ele>213.4</ele>
        <time>2022-08-20T12:56:41Z</time>
      </trkpt>
      <trkpt lat="46.66972" lon="5.31532">
        <ele>213.6</ele>
        <time>2022-08-20T12:56:42Z</time>
      </trkpt>
      <trkpt lat="46.66995" lon="5.31526">
        <ele>214</ele>
        <time>2022-08-20T12:56:46Z</time>
      </trkpt>
      <trkpt lat="46.67" lon="5.31523">
        <ele>214</ele>
        <time>2022-08-20T12:56:47Z</time>
      </trkpt>
      <trkpt lat="46.67005" lon="5.31519">
        <ele>214</ele>
        <time>2022-08-20T12:56:48Z</time>
      </trkpt>
      <trkpt lat="46.67022" lon="5.31497">
        <ele>214.8</ele>
        <time>2022-08-20T12:56:52Z</time>
      </trkpt>
      <trkpt lat="46.67029" lon="5.31485">
        <ele>215</ele>
        <time>2022-08-20T12:56:54Z</time>
      </trkpt>
      <trkpt lat="46.67043" lon="5.31462">
        <ele>215.4</ele>
        <time>2022-08-20T12:56:58Z</time>
      </trkpt>
      <trkpt lat="46.67054" lon="5.31444">
        <ele>215.8</ele>
        <time>2022-08-20T12:57:01Z</time>
      </trkpt>
      <trkpt lat="46.67066" lon="5.3142">
        <ele>216.4</ele>
        <time>2022-08-20T12:57:05Z</time>
      </trkpt>
      <trkpt lat="46.67069" lon="5.31414">
        <ele>217</ele>
        <time>2022-08-20T12:57:06Z</time>
      </trkpt>
      <trkpt lat="46.67083" lon="5.31371">
        <ele>217.8</ele>
        <time>2022-08-20T12:57:12Z</time>
      </trkpt>
      <trkpt lat="46.67086" lon="5.31364">
        <ele>218</ele>
        <time>2022-08-20T12:57:13Z</time>
      </trkpt>
      <trkpt lat="46.67095" lon="5.31343">
        <ele>218.6</ele>
        <time>2022-08-20T12:57:16Z</time>
      </trkpt>
      <trkpt lat="46.67103" lon="5.31332">
        <ele>218.8</ele>
        <time>2022-08-20T12:57:18Z</time>
      </trkpt>
      <trkpt lat="46.67113" lon="5.31322">
        <ele>219</ele>
        <time>2022-08-20T12:57:20Z</time>
      </trkpt>
      <trkpt lat="46.67129" lon="5.31311">
        <ele>219</ele>
        <time>2022-08-20T12:57:23Z</time>
      </trkpt>
      <trkpt lat="46.6714" lon="5.31303">
        <ele>219</ele>
        <time>2022-08-20T12:57:25Z</time>
      </trkpt>
      <trkpt lat="46.67146" lon="5.31299">
        <ele>219</ele>
        <time>2022-08-20T12:57:26Z</time>
      </trkpt>
      <trkpt lat="46.67155" lon="5.31287">
        <ele>219</ele>
        <time>2022-08-20T12:57:28Z</time>
      </trkpt>
      <trkpt lat="46.67159" lon="5.3128">
        <ele>219</ele>
        <time>2022-08-20T12:57:29Z</time>
      </trkpt>
      <trkpt lat="46.67188" lon="5.31217">
        <ele>219</ele>
        <time>2022-08-20T12:57:37Z</time>
      </trkpt>
      <trkpt lat="46.67222" lon="5.31146">
        <ele>218.4</ele>
        <time>2022-08-20T12:57:46Z</time>
      </trkpt>
      <trkpt lat="46.67256" lon="5.31084">
        <ele>218.4</ele>
        <time>2022-08-20T12:57:54Z</time>
      </trkpt>
      <trkpt lat="46.6726" lon="5.31077">
        <ele>218.4</ele>
        <time>2022-08-20T12:57:55Z</time>
      </trkpt>
      <trkpt lat="46.67286" lon="5.31028">
        <ele>218</ele>
        <time>2022-08-20T12:58:01Z</time>
      </trkpt>
      <trkpt lat="46.67295" lon="5.31012">
        <ele>218</ele>
        <time>2022-08-20T12:58:03Z</time>
      </trkpt>
      <trkpt lat="46.67322" lon="5.30954">
        <ele>218</ele>
        <time>2022-08-20T12:58:10Z</time>
      </trkpt>
      <trkpt lat="46.67327" lon="5.30935">
        <ele>218</ele>
        <time>2022-08-20T12:58:12Z</time>
      </trkpt>
      <trkpt lat="46.6733" lon="5.30905">
        <ele>218</ele>
        <time>2022-08-20T12:58:15Z</time>
      </trkpt>
      <trkpt lat="46.67338" lon="5.30822">
        <ele>218.8</ele>
        <time>2022-08-20T12:58:23Z</time>
      </trkpt>
      <trkpt lat="46.67345" lon="5.30783">
        <ele>218.4</ele>
        <time>2022-08-20T12:58:27Z</time>
      </trkpt>
      <trkpt lat="46.67348" lon="5.30774">
        <ele>218.4</ele>
        <time>2022-08-20T12:58:28Z</time>
      </trkpt>
      <trkpt lat="46.67351" lon="5.30765">
        <ele>218.2</ele>
        <time>2022-08-20T12:58:29Z</time>
      </trkpt>
      <trkpt lat="46.67366" lon="5.3074">
        <ele>217.8</ele>
        <time>2022-08-20T12:58:32Z</time>
      </trkpt>
      <trkpt lat="46.67393" lon="5.30696">
        <ele>216.8</ele>
        <time>2022-08-20T12:58:37Z</time>
      </trkpt>
      <trkpt lat="46.67409" lon="5.30671">
        <ele>216.2</ele>
        <time>2022-08-20T12:58:40Z</time>
      </trkpt>
      <trkpt lat="46.6742" lon="5.30654">
        <ele>215.8</ele>
        <time>2022-08-20T12:58:42Z</time>
      </trkpt>
      <trkpt lat="46.67432" lon="5.30638">
        <ele>215.2</ele>
        <time>2022-08-20T12:58:44Z</time>
      </trkpt>
      <trkpt lat="46.67446" lon="5.30625">
        <ele>215</ele>
        <time>2022-08-20T12:58:46Z</time>
      </trkpt>
      <trkpt lat="46.67467" lon="5.30603">
        <ele>214.6</ele>
        <time>2022-08-20T12:58:49Z</time>
      </trkpt>
      <trkpt lat="46.67494" lon="5.30569">
        <ele>213.2</ele>
        <time>2022-08-20T12:58:53Z</time>
      </trkpt>
      <trkpt lat="46.67517" lon="5.30528">
        <ele>212</ele>
        <time>2022-08-20T12:58:57Z</time>
      </trkpt>
      <trkpt lat="46.67528" lon="5.30507">
        <ele>211.4</ele>
        <time>2022-08-20T12:58:59Z</time>
      </trkpt>
      <trkpt lat="46.67551" lon="5.30465">
        <ele>211</ele>
        <time>2022-08-20T12:59:03Z</time>
      </trkpt>
      <trkpt lat="46.67569" lon="5.30436">
        <ele>210.8</ele>
        <time>2022-08-20T12:59:06Z</time>
      </trkpt>
      <trkpt lat="46.67588" lon="5.3041">
        <ele>210.6</ele>
        <time>2022-08-20T12:59:09Z</time>
      </trkpt>
      <trkpt lat="46.67596" lon="5.30404">
        <ele>210.2</ele>
        <time>2022-08-20T12:59:10Z</time>
      </trkpt>
      <trkpt lat="46.67604" lon="5.304">
        <ele>210.2</ele>
        <time>2022-08-20T12:59:11Z</time>
      </trkpt>
      <trkpt lat="46.67621" lon="5.30401">
        <ele>210</ele>
        <time>2022-08-20T12:59:13Z</time>
      </trkpt>
      <trkpt lat="46.67633" lon="5.30417">
        <ele>210</ele>
        <time>2022-08-20T12:59:15Z</time>
      </trkpt>
      <trkpt lat="46.67651" lon="5.3047">
        <ele>210.6</ele>
        <time>2022-08-20T12:59:20Z</time>
      </trkpt>
      <trkpt lat="46.67658" lon="5.3049">
        <ele>210.6</ele>
        <time>2022-08-20T12:59:22Z</time>
      </trkpt>
      <trkpt lat="46.67673" lon="5.30515">
        <ele>211</ele>
        <time>2022-08-20T12:59:25Z</time>
      </trkpt>
      <trkpt lat="46.67678" lon="5.30522">
        <ele>211.2</ele>
        <time>2022-08-20T12:59:26Z</time>
      </trkpt>
      <trkpt lat="46.67691" lon="5.30534">
        <ele>211.6</ele>
        <time>2022-08-20T12:59:28Z</time>
      </trkpt>
      <trkpt lat="46.67698" lon="5.30539">
        <ele>211.8</ele>
        <time>2022-08-20T12:59:29Z</time>
      </trkpt>
      <trkpt lat="46.67731" lon="5.30552">
        <ele>212</ele>
        <time>2022-08-20T12:59:34Z</time>
      </trkpt>
      <trkpt lat="46.67743" lon="5.30552">
        <ele>212.6</ele>
        <time>2022-08-20T12:59:36Z</time>
      </trkpt>
      <trkpt lat="46.67755" lon="5.3055">
        <ele>213</ele>
        <time>2022-08-20T12:59:38Z</time>
      </trkpt>
      <trkpt lat="46.67766" lon="5.30549">
        <ele>213.4</ele>
        <time>2022-08-20T12:59:40Z</time>
      </trkpt>
      <trkpt lat="46.67782" lon="5.30548">
        <ele>214.2</ele>
        <time>2022-08-20T12:59:43Z</time>
      </trkpt>
      <trkpt lat="46.67788" lon="5.30549">
        <ele>214.4</ele>
        <time>2022-08-20T12:59:44Z</time>
      </trkpt>
      <trkpt lat="46.67805" lon="5.30553">
        <ele>214.8</ele>
        <time>2022-08-20T12:59:47Z</time>
      </trkpt>
      <trkpt lat="46.6781" lon="5.30555">
        <ele>214.8</ele>
        <time>2022-08-20T12:59:48Z</time>
      </trkpt>
      <trkpt lat="46.67826" lon="5.30562">
        <ele>215.6</ele>
        <time>2022-08-20T12:59:51Z</time>
      </trkpt>
      <trkpt lat="46.67848" lon="5.30569">
        <ele>216</ele>
        <time>2022-08-20T12:59:54Z</time>
      </trkpt>
      <trkpt lat="46.6786" lon="5.30572">
        <ele>216.6</ele>
        <time>2022-08-20T12:59:56Z</time>
      </trkpt>
      <trkpt lat="46.67881" lon="5.30576">
        <ele>217.2</ele>
        <time>2022-08-20T12:59:59Z</time>
      </trkpt>
      <trkpt lat="46.67894" lon="5.30577">
        <ele>217.6</ele>
        <time>2022-08-20T13:00:01Z</time>
      </trkpt>
      <trkpt lat="46.67901" lon="5.30577">
        <ele>217.8</ele>
        <time>2022-08-20T13:00:02Z</time>
      </trkpt>
      <trkpt lat="46.67926" lon="5.30573">
        <ele>218</ele>
        <time>2022-08-20T13:00:06Z</time>
      </trkpt>
      <trkpt lat="46.67938" lon="5.30568">
        <ele>218</ele>
        <time>2022-08-20T13:00:08Z</time>
      </trkpt>
      <trkpt lat="46.67986" lon="5.30546">
        <ele>218.2</ele>
        <time>2022-08-20T13:00:16Z</time>
      </trkpt>
      <trkpt lat="46.68023" lon="5.30525">
        <ele>218.4</ele>
        <time>2022-08-20T13:00:22Z</time>
      </trkpt>
      <trkpt lat="46.68028" lon="5.3052">
        <ele>218.4</ele>
        <time>2022-08-20T13:00:23Z</time>
      </trkpt>
      <trkpt lat="46.68033" lon="5.30514">
        <ele>218.4</ele>
        <time>2022-08-20T13:00:24Z</time>
      </trkpt>
      <trkpt lat="46.68041" lon="5.30498">
        <ele>218.4</ele>
        <time>2022-08-20T13:00:26Z</time>
      </trkpt>
      <trkpt lat="46.68044" lon="5.30489">
        <ele>218.6</ele>
        <time>2022-08-20T13:00:27Z</time>
      </trkpt>
      <trkpt lat="46.68047" lon="5.30469">
        <ele>218.6</ele>
        <time>2022-08-20T13:00:29Z</time>
      </trkpt>
      <trkpt lat="46.68053" lon="5.3043">
        <ele>218.6</ele>
        <time>2022-08-20T13:00:33Z</time>
      </trkpt>
      <trkpt lat="46.68057" lon="5.30411">
        <ele>218.6</ele>
        <time>2022-08-20T13:00:35Z</time>
      </trkpt>
      <trkpt lat="46.68063" lon="5.30382">
        <ele>218.6</ele>
        <time>2022-08-20T13:00:38Z</time>
      </trkpt>
      <trkpt lat="46.68069" lon="5.30354">
        <ele>218.6</ele>
        <time>2022-08-20T13:00:41Z</time>
      </trkpt>
      <trkpt lat="46.68077" lon="5.30337">
        <ele>218.4</ele>
        <time>2022-08-20T13:00:43Z</time>
      </trkpt>
      <trkpt lat="46.68092" lon="5.30321">
        <ele>218.4</ele>
        <time>2022-08-20T13:00:46Z</time>
      </trkpt>
      <trkpt lat="46.68099" lon="5.30318">
        <ele>218.4</ele>
        <time>2022-08-20T13:00:47Z</time>
      </trkpt>
      <trkpt lat="46.68111" lon="5.30311">
        <ele>218.2</ele>
        <time>2022-08-20T13:00:49Z</time>
      </trkpt>
      <trkpt lat="46.68123" lon="5.30303">
        <ele>218.2</ele>
        <time>2022-08-20T13:00:51Z</time>
      </trkpt>
      <trkpt lat="46.68128" lon="5.30296">
        <ele>218.2</ele>
        <time>2022-08-20T13:00:52Z</time>
      </trkpt>
      <trkpt lat="46.68131" lon="5.30287">
        <ele>218.2</ele>
        <time>2022-08-20T13:00:53Z</time>
      </trkpt>
      <trkpt lat="46.68138" lon="5.30257">
        <ele>218.2</ele>
        <time>2022-08-20T13:00:56Z</time>
      </trkpt>
      <trkpt lat="46.68148" lon="5.30197">
        <ele>218.4</ele>
        <time>2022-08-20T13:01:02Z</time>
      </trkpt>
      <trkpt lat="46.68146" lon="5.30126">
        <ele>218.6</ele>
        <time>2022-08-20T13:01:09Z</time>
      </trkpt>
      <trkpt lat="46.68147" lon="5.30083">
        <ele>218.4</ele>
        <time>2022-08-20T13:01:13Z</time>
      </trkpt>
      <trkpt lat="46.6815" lon="5.30062">
        <ele>218.4</ele>
        <time>2022-08-20T13:01:15Z</time>
      </trkpt>
      <trkpt lat="46.68161" lon="5.30001">
        <ele>218</ele>
        <time>2022-08-20T13:01:21Z</time>
      </trkpt>
      <trkpt lat="46.68163" lon="5.29991">
        <ele>217.8</ele>
        <time>2022-08-20T13:01:22Z</time>
      </trkpt>
      <trkpt lat="46.68169" lon="5.29974">
        <ele>217.8</ele>
        <time>2022-08-20T13:01:24Z</time>
      </trkpt>
      <trkpt lat="46.68173" lon="5.29967">
        <ele>217.8</ele>
        <time>2022-08-20T13:01:25Z</time>
      </trkpt>
      <trkpt lat="46.68179" lon="5.29961">
        <ele>217.8</ele>
        <time>2022-08-20T13:01:26Z</time>
      </trkpt>
      <trkpt lat="46.68192" lon="5.2995">
        <ele>218</ele>
        <time>2022-08-20T13:01:28Z</time>
      </trkpt>
      <trkpt lat="46.68197" lon="5.29948">
        <ele>218</ele>
        <time>2022-08-20T13:01:29Z</time>
      </trkpt>
      <trkpt lat="46.68204" lon="5.29944">
        <ele>218</ele>
        <time>2022-08-20T13:01:30Z</time>
      </trkpt>
      <trkpt lat="46.6823" lon="5.29924">
        <ele>218.2</ele>
        <time>2022-08-20T13:01:34Z</time>
      </trkpt>
      <trkpt lat="46.68249" lon="5.29906">
        <ele>218.2</ele>
        <time>2022-08-20T13:01:37Z</time>
      </trkpt>
      <trkpt lat="46.68255" lon="5.29897">
        <ele>218.2</ele>
        <time>2022-08-20T13:01:38Z</time>
      </trkpt>
      <trkpt lat="46.68268" lon="5.2987">
        <ele>218.4</ele>
        <time>2022-08-20T13:01:41Z</time>
      </trkpt>
      <trkpt lat="46.68275" lon="5.29852">
        <ele>218.4</ele>
        <time>2022-08-20T13:01:43Z</time>
      </trkpt>
      <trkpt lat="46.68277" lon="5.29842">
        <ele>218.4</ele>
        <time>2022-08-20T13:01:44Z</time>
      </trkpt>
      <trkpt lat="46.68284" lon="5.29815">
        <ele>218.4</ele>
        <time>2022-08-20T13:01:47Z</time>
      </trkpt>
      <trkpt lat="46.683" lon="5.29777">
        <ele>218</ele>
        <time>2022-08-20T13:01:51Z</time>
      </trkpt>
      <trkpt lat="46.68321" lon="5.29746">
        <ele>218</ele>
        <time>2022-08-20T13:01:55Z</time>
      </trkpt>
      <trkpt lat="46.68326" lon="5.29736">
        <ele>217.8</ele>
        <time>2022-08-20T13:01:56Z</time>
      </trkpt>
      <trkpt lat="46.68335" lon="5.29707">
        <ele>217.8</ele>
        <time>2022-08-20T13:01:59Z</time>
      </trkpt>
      <trkpt lat="46.68353" lon="5.29641">
        <ele>217.6</ele>
        <time>2022-08-20T13:02:06Z</time>
      </trkpt>
      <trkpt lat="46.68368" lon="5.29586">
        <ele>217.6</ele>
        <time>2022-08-20T13:02:12Z</time>
      </trkpt>
      <trkpt lat="46.68383" lon="5.29531">
        <ele>217.8</ele>
        <time>2022-08-20T13:02:18Z</time>
      </trkpt>
      <trkpt lat="46.68392" lon="5.29495">
        <ele>217.8</ele>
        <time>2022-08-20T13:02:22Z</time>
      </trkpt>
      <trkpt lat="46.68393" lon="5.29477">
        <ele>217.8</ele>
        <time>2022-08-20T13:02:24Z</time>
      </trkpt>
      <trkpt lat="46.68387" lon="5.2946">
        <ele>217.8</ele>
        <time>2022-08-20T13:02:26Z</time>
      </trkpt>
      <trkpt lat="46.68382" lon="5.29454">
        <ele>217.8</ele>
        <time>2022-08-20T13:02:27Z</time>
      </trkpt>
      <trkpt lat="46.68372" lon="5.2944">
        <ele>218</ele>
        <time>2022-08-20T13:02:29Z</time>
      </trkpt>
      <trkpt lat="46.68367" lon="5.29423">
        <ele>218.2</ele>
        <time>2022-08-20T13:02:31Z</time>
      </trkpt>
      <trkpt lat="46.68368" lon="5.29403">
        <ele>218.2</ele>
        <time>2022-08-20T13:02:33Z</time>
      </trkpt>
      <trkpt lat="46.68369" lon="5.29394">
        <ele>218.2</ele>
        <time>2022-08-20T13:02:34Z</time>
      </trkpt>
      <trkpt lat="46.68387" lon="5.29319">
        <ele>218.2</ele>
        <time>2022-08-20T13:02:42Z</time>
      </trkpt>
      <trkpt lat="46.68392" lon="5.29302">
        <ele>218.2</ele>
        <time>2022-08-20T13:02:44Z</time>
      </trkpt>
      <trkpt lat="46.68398" lon="5.29285">
        <ele>218.4</ele>
        <time>2022-08-20T13:02:46Z</time>
      </trkpt>
      <trkpt lat="46.68408" lon="5.2927">
        <ele>218.2</ele>
        <time>2022-08-20T13:02:48Z</time>
      </trkpt>
      <trkpt lat="46.68419" lon="5.29261">
        <ele>218.2</ele>
        <time>2022-08-20T13:02:50Z</time>
      </trkpt>
      <trkpt lat="46.68432" lon="5.29255">
        <ele>218</ele>
        <time>2022-08-20T13:02:52Z</time>
      </trkpt>
      <trkpt lat="46.68457" lon="5.29243">
        <ele>217.8</ele>
        <time>2022-08-20T13:02:56Z</time>
      </trkpt>
      <trkpt lat="46.6847" lon="5.29234">
        <ele>218</ele>
        <time>2022-08-20T13:02:58Z</time>
      </trkpt>
      <trkpt lat="46.68501" lon="5.29195">
        <ele>218</ele>
        <time>2022-08-20T13:03:04Z</time>
      </trkpt>
      <trkpt lat="46.68506" lon="5.29187">
        <ele>218</ele>
        <time>2022-08-20T13:03:05Z</time>
      </trkpt>
      <trkpt lat="46.68528" lon="5.29145">
        <ele>218</ele>
        <time>2022-08-20T13:03:10Z</time>
      </trkpt>
      <trkpt lat="46.68541" lon="5.2912">
        <ele>217.4</ele>
        <time>2022-08-20T13:03:13Z</time>
      </trkpt>
      <trkpt lat="46.68548" lon="5.29101">
        <ele>217.2</ele>
        <time>2022-08-20T13:03:15Z</time>
      </trkpt>
      <trkpt lat="46.68575" lon="5.29029">
        <ele>217</ele>
        <time>2022-08-20T13:03:23Z</time>
      </trkpt>
      <trkpt lat="46.68597" lon="5.28977">
        <ele>217.2</ele>
        <time>2022-08-20T13:03:29Z</time>
      </trkpt>
      <trkpt lat="46.68612" lon="5.28932">
        <ele>217.2</ele>
        <time>2022-08-20T13:03:34Z</time>
      </trkpt>
      <trkpt lat="46.68641" lon="5.28863">
        <ele>217.2</ele>
        <time>2022-08-20T13:03:41Z</time>
      </trkpt>
      <trkpt lat="46.68645" lon="5.28854">
        <ele>217.2</ele>
        <time>2022-08-20T13:03:42Z</time>
      </trkpt>
      <trkpt lat="46.68676" lon="5.28788">
        <ele>216.6</ele>
        <time>2022-08-20T13:03:49Z</time>
      </trkpt>
      <trkpt lat="46.68685" lon="5.2877">
        <ele>216.4</ele>
        <time>2022-08-20T13:03:51Z</time>
      </trkpt>
      <trkpt lat="46.68719" lon="5.28699">
        <ele>215.8</ele>
        <time>2022-08-20T13:03:59Z</time>
      </trkpt>
      <trkpt lat="46.68724" lon="5.2869">
        <ele>215.6</ele>
        <time>2022-08-20T13:04:00Z</time>
      </trkpt>
      <trkpt lat="46.68746" lon="5.28643">
        <ele>216</ele>
        <time>2022-08-20T13:04:06Z</time>
      </trkpt>
      <trkpt lat="46.68749" lon="5.28638">
        <ele>216</ele>
        <time>2022-08-20T13:04:07Z</time>
      </trkpt>
      <trkpt lat="46.68757" lon="5.28626">
        <ele>216.2</ele>
        <time>2022-08-20T13:04:10Z</time>
      </trkpt>
      <trkpt lat="46.68759" lon="5.28624">
        <ele>216.2</ele>
        <time>2022-08-20T13:04:11Z</time>
      </trkpt>
      <trkpt lat="46.68759" lon="5.28617">
        <ele>216.4</ele>
        <time>2022-08-20T13:04:13Z</time>
      </trkpt>
      <trkpt lat="46.68754" lon="5.2861">
        <ele>216.6</ele>
        <time>2022-08-20T13:04:15Z</time>
      </trkpt>
      <trkpt lat="46.68748" lon="5.28602">
        <ele>216.8</ele>
        <time>2022-08-20T13:04:17Z</time>
      </trkpt>
      <trkpt lat="46.68738" lon="5.28592">
        <ele>217</ele>
        <time>2022-08-20T13:04:19Z</time>
      </trkpt>
      <trkpt lat="46.68727" lon="5.28578">
        <ele>217.2</ele>
        <time>2022-08-20T13:04:21Z</time>
      </trkpt>
      <trkpt lat="46.68696" lon="5.28538">
        <ele>216.2</ele>
        <time>2022-08-20T13:04:27Z</time>
      </trkpt>
      <trkpt lat="46.68679" lon="5.28514">
        <ele>215.6</ele>
        <time>2022-08-20T13:04:30Z</time>
      </trkpt>
      <trkpt lat="46.68653" lon="5.28477">
        <ele>215.2</ele>
        <time>2022-08-20T13:04:35Z</time>
      </trkpt>
      <trkpt lat="46.6861" lon="5.2842">
        <ele>215.2</ele>
        <time>2022-08-20T13:04:43Z</time>
      </trkpt>
      <trkpt lat="46.68605" lon="5.28413">
        <ele>215.2</ele>
        <time>2022-08-20T13:04:44Z</time>
      </trkpt>
      <trkpt lat="46.68573" lon="5.28368">
        <ele>216</ele>
        <time>2022-08-20T13:04:51Z</time>
      </trkpt>
      <trkpt lat="46.68554" lon="5.28344">
        <ele>216.8</ele>
        <time>2022-08-20T13:04:55Z</time>
      </trkpt>
      <trkpt lat="46.68549" lon="5.28338">
        <ele>217</ele>
        <time>2022-08-20T13:04:56Z</time>
      </trkpt>
      <trkpt lat="46.68543" lon="5.28333">
        <ele>217</ele>
        <time>2022-08-20T13:04:57Z</time>
      </trkpt>
      <trkpt lat="46.68519" lon="5.28317">
        <ele>217.2</ele>
        <time>2022-08-20T13:05:01Z</time>
      </trkpt>
      <trkpt lat="46.68465" lon="5.28295">
        <ele>217</ele>
        <time>2022-08-20T13:05:09Z</time>
      </trkpt>
      <trkpt lat="46.68428" lon="5.28274">
        <ele>217</ele>
        <time>2022-08-20T13:05:15Z</time>
      </trkpt>
      <trkpt lat="46.68422" lon="5.28267">
        <ele>217</ele>
        <time>2022-08-20T13:05:16Z</time>
      </trkpt>
      <trkpt lat="46.6839" lon="5.28217">
        <ele>217.2</ele>
        <time>2022-08-20T13:05:23Z</time>
      </trkpt>
      <trkpt lat="46.6835" lon="5.2815">
        <ele>216.6</ele>
        <time>2022-08-20T13:05:31Z</time>
      </trkpt>
      <trkpt lat="46.68317" lon="5.28096">
        <ele>215.6</ele>
        <time>2022-08-20T13:05:37Z</time>
      </trkpt>
      <trkpt lat="46.68297" lon="5.28062">
        <ele>215.2</ele>
        <time>2022-08-20T13:05:41Z</time>
      </trkpt>
      <trkpt lat="46.68261" lon="5.28002">
        <ele>215.4</ele>
        <time>2022-08-20T13:05:48Z</time>
      </trkpt>
      <trkpt lat="46.68255" lon="5.27993">
        <ele>215.6</ele>
        <time>2022-08-20T13:05:49Z</time>
      </trkpt>
      <trkpt lat="46.68219" lon="5.27931">
        <ele>215.4</ele>
        <time>2022-08-20T13:05:56Z</time>
      </trkpt>
      <trkpt lat="46.68206" lon="5.2791">
        <ele>215</ele>
        <time>2022-08-20T13:05:58Z</time>
      </trkpt>
      <trkpt lat="46.682" lon="5.279">
        <ele>214.6</ele>
        <time>2022-08-20T13:05:59Z</time>
      </trkpt>
      <trkpt lat="46.68166" lon="5.27843">
        <ele>213.4</ele>
        <time>2022-08-20T13:06:05Z</time>
      </trkpt>
      <trkpt lat="46.6815" lon="5.27817">
        <ele>213</ele>
        <time>2022-08-20T13:06:08Z</time>
      </trkpt>
      <trkpt lat="46.6811" lon="5.27757">
        <ele>212.8</ele>
        <time>2022-08-20T13:06:15Z</time>
      </trkpt>
      <trkpt lat="46.68065" lon="5.2771">
        <ele>213</ele>
        <time>2022-08-20T13:06:22Z</time>
      </trkpt>
      <trkpt lat="46.68058" lon="5.27702">
        <ele>213</ele>
        <time>2022-08-20T13:06:23Z</time>
      </trkpt>
      <trkpt lat="46.6802" lon="5.27665">
        <ele>213.8</ele>
        <time>2022-08-20T13:06:29Z</time>
      </trkpt>
      <trkpt lat="46.67974" lon="5.27623">
        <ele>214.4</ele>
        <time>2022-08-20T13:06:36Z</time>
      </trkpt>
      <trkpt lat="46.67967" lon="5.27618">
        <ele>214.4</ele>
        <time>2022-08-20T13:06:37Z</time>
      </trkpt>
      <trkpt lat="46.67962" lon="5.27613">
        <ele>214.6</ele>
        <time>2022-08-20T13:06:38Z</time>
      </trkpt>
      <trkpt lat="46.6791" lon="5.27575">
        <ele>214.6</ele>
        <time>2022-08-20T13:06:45Z</time>
      </trkpt>
      <trkpt lat="46.67896" lon="5.27565">
        <ele>214.4</ele>
        <time>2022-08-20T13:06:47Z</time>
      </trkpt>
      <trkpt lat="46.6785" lon="5.27531">
        <ele>213.4</ele>
        <time>2022-08-20T13:06:53Z</time>
      </trkpt>
      <trkpt lat="46.67827" lon="5.27513">
        <ele>213</ele>
        <time>2022-08-20T13:06:56Z</time>
      </trkpt>
      <trkpt lat="46.67804" lon="5.27494">
        <ele>212.4</ele>
        <time>2022-08-20T13:06:59Z</time>
      </trkpt>
      <trkpt lat="46.67757" lon="5.27455">
        <ele>211.2</ele>
        <time>2022-08-20T13:07:05Z</time>
      </trkpt>
      <trkpt lat="46.67707" lon="5.27411">
        <ele>210.2</ele>
        <time>2022-08-20T13:07:11Z</time>
      </trkpt>
      <trkpt lat="46.677" lon="5.27406">
        <ele>210</ele>
        <time>2022-08-20T13:07:12Z</time>
      </trkpt>
      <trkpt lat="46.67657" lon="5.27369">
        <ele>209</ele>
        <time>2022-08-20T13:07:17Z</time>
      </trkpt>
      <trkpt lat="46.67624" lon="5.27343">
        <ele>208.6</ele>
        <time>2022-08-20T13:07:21Z</time>
      </trkpt>
      <trkpt lat="46.67613" lon="5.27336">
        <ele>208.2</ele>
        <time>2022-08-20T13:07:22Z</time>
      </trkpt>
      <trkpt lat="46.67575" lon="5.27316">
        <ele>207</ele>
        <time>2022-08-20T13:07:26Z</time>
      </trkpt>
      <trkpt lat="46.67545" lon="5.27302">
        <ele>205.8</ele>
        <time>2022-08-20T13:07:29Z</time>
      </trkpt>
      <trkpt lat="46.67515" lon="5.27287">
        <ele>204.6</ele>
        <time>2022-08-20T13:07:32Z</time>
      </trkpt>
      <trkpt lat="46.67473" lon="5.27268">
        <ele>203.2</ele>
        <time>2022-08-20T13:07:36Z</time>
      </trkpt>
      <trkpt lat="46.67421" lon="5.27246">
        <ele>202</ele>
        <time>2022-08-20T13:07:41Z</time>
      </trkpt>
      <trkpt lat="46.67368" lon="5.27222">
        <ele>201</ele>
        <time>2022-08-20T13:07:46Z</time>
      </trkpt>
      <trkpt lat="46.67337" lon="5.27207">
        <ele>200</ele>
        <time>2022-08-20T13:07:49Z</time>
      </trkpt>
      <trkpt lat="46.67288" lon="5.27182">
        <ele>199.4</ele>
        <time>2022-08-20T13:07:54Z</time>
      </trkpt>
      <trkpt lat="46.67232" lon="5.27156">
        <ele>199</ele>
        <time>2022-08-20T13:08:00Z</time>
      </trkpt>
      <trkpt lat="46.67182" lon="5.27132">
        <ele>199.4</ele>
        <time>2022-08-20T13:08:06Z</time>
      </trkpt>
      <trkpt lat="46.67128" lon="5.27106">
        <ele>201</ele>
        <time>2022-08-20T13:08:13Z</time>
      </trkpt>
      <trkpt lat="46.67105" lon="5.27096">
        <ele>201.2</ele>
        <time>2022-08-20T13:08:16Z</time>
      </trkpt>
      <trkpt lat="46.67048" lon="5.27074">
        <ele>201.2</ele>
        <time>2022-08-20T13:08:23Z</time>
      </trkpt>
      <trkpt lat="46.66987" lon="5.27056">
        <ele>200.4</ele>
        <time>2022-08-20T13:08:30Z</time>
      </trkpt>
      <trkpt lat="46.6696" lon="5.27048">
        <ele>199.2</ele>
        <time>2022-08-20T13:08:33Z</time>
      </trkpt>
      <trkpt lat="46.66915" lon="5.27037">
        <ele>198</ele>
        <time>2022-08-20T13:08:38Z</time>
      </trkpt>
      <trkpt lat="46.66854" lon="5.2702">
        <ele>197</ele>
        <time>2022-08-20T13:08:45Z</time>
      </trkpt>
      <trkpt lat="46.66845" lon="5.27017">
        <ele>196.8</ele>
        <time>2022-08-20T13:08:46Z</time>
      </trkpt>
      <trkpt lat="46.66793" lon="5.27001">
        <ele>195.6</ele>
        <time>2022-08-20T13:08:52Z</time>
      </trkpt>
      <trkpt lat="46.66784" lon="5.26999">
        <ele>195.6</ele>
        <time>2022-08-20T13:08:53Z</time>
      </trkpt>
      <trkpt lat="46.66724" lon="5.26984">
        <ele>195.2</ele>
        <time>2022-08-20T13:09:00Z</time>
      </trkpt>
      <trkpt lat="46.66666" lon="5.26967">
        <ele>195.6</ele>
        <time>2022-08-20T13:09:07Z</time>
      </trkpt>
      <trkpt lat="46.66606" lon="5.26949">
        <ele>196</ele>
        <time>2022-08-20T13:09:14Z</time>
      </trkpt>
      <trkpt lat="46.66591" lon="5.26944">
        <ele>196</ele>
        <time>2022-08-20T13:09:16Z</time>
      </trkpt>
      <trkpt lat="46.66531" lon="5.26927">
        <ele>196</ele>
        <time>2022-08-20T13:09:23Z</time>
      </trkpt>
      <trkpt lat="46.66497" lon="5.26917">
        <ele>196</ele>
        <time>2022-08-20T13:09:27Z</time>
      </trkpt>
      <trkpt lat="46.66439" lon="5.26902">
        <ele>195.4</ele>
        <time>2022-08-20T13:09:34Z</time>
      </trkpt>
      <trkpt lat="46.66419" lon="5.269">
        <ele>195.2</ele>
        <time>2022-08-20T13:09:36Z</time>
      </trkpt>
      <trkpt lat="46.66358" lon="5.26898">
        <ele>195.2</ele>
        <time>2022-08-20T13:09:43Z</time>
      </trkpt>
      <trkpt lat="46.66341" lon="5.26897">
        <ele>195.2</ele>
        <time>2022-08-20T13:09:45Z</time>
      </trkpt>
      <trkpt lat="46.66282" lon="5.26895">
        <ele>195</ele>
        <time>2022-08-20T13:09:52Z</time>
      </trkpt>
      <trkpt lat="46.66256" lon="5.26894">
        <ele>195</ele>
        <time>2022-08-20T13:09:55Z</time>
      </trkpt>
      <trkpt lat="46.66232" lon="5.26893">
        <ele>194.8</ele>
        <time>2022-08-20T13:09:58Z</time>
      </trkpt>
      <trkpt lat="46.6619" lon="5.26892">
        <ele>194.8</ele>
        <time>2022-08-20T13:10:03Z</time>
      </trkpt>
      <trkpt lat="46.66127" lon="5.2689">
        <ele>194.8</ele>
        <time>2022-08-20T13:10:11Z</time>
      </trkpt>
      <trkpt lat="46.66114" lon="5.26889">
        <ele>194.8</ele>
        <time>2022-08-20T13:10:13Z</time>
      </trkpt>
      <trkpt lat="46.66098" lon="5.26889">
        <ele>194.8</ele>
        <time>2022-08-20T13:10:15Z</time>
      </trkpt>
      <trkpt lat="46.66079" lon="5.26888">
        <ele>195</ele>
        <time>2022-08-20T13:10:18Z</time>
      </trkpt>
      <trkpt lat="46.66063" lon="5.26887">
        <ele>196</ele>
        <time>2022-08-20T13:10:21Z</time>
      </trkpt>
      <trkpt lat="46.66041" lon="5.26887">
        <ele>197</ele>
        <time>2022-08-20T13:10:25Z</time>
      </trkpt>
      <trkpt lat="46.66026" lon="5.26888">
        <ele>198.2</ele>
        <time>2022-08-20T13:10:28Z</time>
      </trkpt>
      <trkpt lat="46.66021" lon="5.26888">
        <ele>198.4</ele>
        <time>2022-08-20T13:10:29Z</time>
      </trkpt>
      <trkpt lat="46.66011" lon="5.26887">
        <ele>199</ele>
        <time>2022-08-20T13:10:31Z</time>
      </trkpt>
      <trkpt lat="46.66007" lon="5.26887">
        <ele>199.4</ele>
        <time>2022-08-20T13:10:32Z</time>
      </trkpt>
      <trkpt lat="46.65992" lon="5.26886">
        <ele>200.6</ele>
        <time>2022-08-20T13:10:35Z</time>
      </trkpt>
      <trkpt lat="46.65979" lon="5.26885">
        <ele>201.8</ele>
        <time>2022-08-20T13:10:38Z</time>
      </trkpt>
      <trkpt lat="46.65959" lon="5.26884">
        <ele>203</ele>
        <time>2022-08-20T13:10:42Z</time>
      </trkpt>
      <trkpt lat="46.65945" lon="5.26883">
        <ele>203.6</ele>
        <time>2022-08-20T13:10:45Z</time>
      </trkpt>
      <trkpt lat="46.65936" lon="5.26882">
        <ele>204.2</ele>
        <time>2022-08-20T13:10:47Z</time>
      </trkpt>
      <trkpt lat="46.65916" lon="5.26878">
        <ele>205.2</ele>
        <time>2022-08-20T13:10:52Z</time>
      </trkpt>
      <trkpt lat="46.65911" lon="5.26876">
        <ele>205.6</ele>
        <time>2022-08-20T13:10:53Z</time>
      </trkpt>
      <trkpt lat="46.65883" lon="5.2686">
        <ele>207</ele>
        <time>2022-08-20T13:11:00Z</time>
      </trkpt>
      <trkpt lat="46.65874" lon="5.26854">
        <ele>207.4</ele>
        <time>2022-08-20T13:11:02Z</time>
      </trkpt>
      <trkpt lat="46.65864" lon="5.26848">
        <ele>208</ele>
        <time>2022-08-20T13:11:04Z</time>
      </trkpt>
      <trkpt lat="46.65837" lon="5.26835">
        <ele>208.4</ele>
        <time>2022-08-20T13:11:09Z</time>
      </trkpt>
      <trkpt lat="46.658" lon="5.26816">
        <ele>207.8</ele>
        <time>2022-08-20T13:11:15Z</time>
      </trkpt>
      <trkpt lat="46.65769" lon="5.268">
        <ele>206.8</ele>
        <time>2022-08-20T13:11:19Z</time>
      </trkpt>
      <trkpt lat="46.65762" lon="5.26795">
        <ele>206.6</ele>
        <time>2022-08-20T13:11:20Z</time>
      </trkpt>
      <trkpt lat="46.65746" lon="5.26782">
        <ele>205.4</ele>
        <time>2022-08-20T13:11:22Z</time>
      </trkpt>
      <trkpt lat="46.65729" lon="5.26764">
        <ele>204</ele>
        <time>2022-08-20T13:11:24Z</time>
      </trkpt>
      <trkpt lat="46.65708" lon="5.26735">
        <ele>203</ele>
        <time>2022-08-20T13:11:27Z</time>
      </trkpt>
      <trkpt lat="46.65693" lon="5.26714">
        <ele>201.2</ele>
        <time>2022-08-20T13:11:29Z</time>
      </trkpt>
      <trkpt lat="46.65683" lon="5.26701">
        <ele>200.8</ele>
        <time>2022-08-20T13:11:30Z</time>
      </trkpt>
      <trkpt lat="46.65669" lon="5.26682">
        <ele>200</ele>
        <time>2022-08-20T13:11:32Z</time>
      </trkpt>
      <trkpt lat="46.65661" lon="5.2667">
        <ele>199</ele>
        <time>2022-08-20T13:11:33Z</time>
      </trkpt>
      <trkpt lat="46.65641" lon="5.26642">
        <ele>198.2</ele>
        <time>2022-08-20T13:11:36Z</time>
      </trkpt>
      <trkpt lat="46.65604" lon="5.26593">
        <ele>198.2</ele>
        <time>2022-08-20T13:11:42Z</time>
      </trkpt>
      <trkpt lat="46.65573" lon="5.26568">
        <ele>200</ele>
        <time>2022-08-20T13:11:47Z</time>
      </trkpt>
      <trkpt lat="46.65569" lon="5.26566">
        <ele>200.4</ele>
        <time>2022-08-20T13:11:48Z</time>
      </trkpt>
      <trkpt lat="46.65557" lon="5.26559">
        <ele>201.4</ele>
        <time>2022-08-20T13:11:50Z</time>
      </trkpt>
      <trkpt lat="46.65543" lon="5.26549">
        <ele>202.2</ele>
        <time>2022-08-20T13:11:53Z</time>
      </trkpt>
      <trkpt lat="46.65538" lon="5.26546">
        <ele>202.6</ele>
        <time>2022-08-20T13:11:54Z</time>
      </trkpt>
      <trkpt lat="46.65524" lon="5.26539">
        <ele>203.6</ele>
        <time>2022-08-20T13:11:57Z</time>
      </trkpt>
      <trkpt lat="46.65506" lon="5.26529">
        <ele>204.8</ele>
        <time>2022-08-20T13:12:01Z</time>
      </trkpt>
      <trkpt lat="46.65502" lon="5.26526">
        <ele>205.2</ele>
        <time>2022-08-20T13:12:02Z</time>
      </trkpt>
      <trkpt lat="46.65493" lon="5.26522">
        <ele>206.2</ele>
        <time>2022-08-20T13:12:04Z</time>
      </trkpt>
      <trkpt lat="46.65479" lon="5.26516">
        <ele>207.2</ele>
        <time>2022-08-20T13:12:07Z</time>
      </trkpt>
      <trkpt lat="46.65474" lon="5.26514">
        <ele>207.6</ele>
        <time>2022-08-20T13:12:08Z</time>
      </trkpt>
      <trkpt lat="46.65465" lon="5.26511">
        <ele>208.2</ele>
        <time>2022-08-20T13:12:10Z</time>
      </trkpt>
      <trkpt lat="46.65443" lon="5.26508">
        <ele>209</ele>
        <time>2022-08-20T13:12:14Z</time>
      </trkpt>
      <trkpt lat="46.65425" lon="5.26507">
        <ele>209.2</ele>
        <time>2022-08-20T13:12:17Z</time>
      </trkpt>
      <trkpt lat="46.654" lon="5.26507">
        <ele>209.8</ele>
        <time>2022-08-20T13:12:21Z</time>
      </trkpt>
      <trkpt lat="46.65349" lon="5.26507">
        <ele>210</ele>
        <time>2022-08-20T13:12:29Z</time>
      </trkpt>
      <trkpt lat="46.65296" lon="5.26506">
        <ele>210.4</ele>
        <time>2022-08-20T13:12:37Z</time>
      </trkpt>
      <trkpt lat="46.65275" lon="5.26505">
        <ele>210.4</ele>
        <time>2022-08-20T13:12:40Z</time>
      </trkpt>
      <trkpt lat="46.65228" lon="5.26495">
        <ele>211</ele>
        <time>2022-08-20T13:12:47Z</time>
      </trkpt>
      <trkpt lat="46.65196" lon="5.26482">
        <ele>211.4</ele>
        <time>2022-08-20T13:12:52Z</time>
      </trkpt>
      <trkpt lat="46.65164" lon="5.26469">
        <ele>211.6</ele>
        <time>2022-08-20T13:12:57Z</time>
      </trkpt>
      <trkpt lat="46.65118" lon="5.2646">
        <ele>212</ele>
        <time>2022-08-20T13:13:04Z</time>
      </trkpt>
      <trkpt lat="46.65097" lon="5.26458">
        <ele>212.4</ele>
        <time>2022-08-20T13:13:07Z</time>
      </trkpt>
      <trkpt lat="46.65043" lon="5.26456">
        <ele>212.6</ele>
        <time>2022-08-20T13:13:14Z</time>
      </trkpt>
      <trkpt lat="46.64984" lon="5.26454">
        <ele>212.8</ele>
        <time>2022-08-20T13:13:22Z</time>
      </trkpt>
      <trkpt lat="46.64968" lon="5.26453">
        <ele>213</ele>
        <time>2022-08-20T13:13:24Z</time>
      </trkpt>
      <trkpt lat="46.6494" lon="5.26452">
        <ele>213.4</ele>
        <time>2022-08-20T13:13:28Z</time>
      </trkpt>
      <trkpt lat="46.64913" lon="5.2645">
        <ele>214</ele>
        <time>2022-08-20T13:13:32Z</time>
      </trkpt>
      <trkpt lat="46.64899" lon="5.26447">
        <ele>214.2</ele>
        <time>2022-08-20T13:13:34Z</time>
      </trkpt>
      <trkpt lat="46.64885" lon="5.26441">
        <ele>214.6</ele>
        <time>2022-08-20T13:13:36Z</time>
      </trkpt>
      <trkpt lat="46.64879" lon="5.26437">
        <ele>214.8</ele>
        <time>2022-08-20T13:13:37Z</time>
      </trkpt>
      <trkpt lat="46.64852" lon="5.26409">
        <ele>215.2</ele>
        <time>2022-08-20T13:13:42Z</time>
      </trkpt>
      <trkpt lat="46.64809" lon="5.26355">
        <ele>215</ele>
        <time>2022-08-20T13:13:50Z</time>
      </trkpt>
      <trkpt lat="46.64804" lon="5.26349">
        <ele>215</ele>
        <time>2022-08-20T13:13:51Z</time>
      </trkpt>
      <trkpt lat="46.64764" lon="5.26297">
        <ele>214.2</ele>
        <time>2022-08-20T13:13:59Z</time>
      </trkpt>
      <trkpt lat="46.64754" lon="5.26284">
        <ele>214.2</ele>
        <time>2022-08-20T13:14:01Z</time>
      </trkpt>
      <trkpt lat="46.64709" lon="5.26228">
        <ele>214.4</ele>
        <time>2022-08-20T13:14:09Z</time>
      </trkpt>
      <trkpt lat="46.6469" lon="5.26205">
        <ele>214.4</ele>
        <time>2022-08-20T13:14:12Z</time>
      </trkpt>
      <trkpt lat="46.64661" lon="5.26168">
        <ele>214.4</ele>
        <time>2022-08-20T13:14:17Z</time>
      </trkpt>
      <trkpt lat="46.64619" lon="5.26114">
        <ele>214</ele>
        <time>2022-08-20T13:14:24Z</time>
      </trkpt>
      <trkpt lat="46.64613" lon="5.26106">
        <ele>214</ele>
        <time>2022-08-20T13:14:25Z</time>
      </trkpt>
      <trkpt lat="46.646" lon="5.2609">
        <ele>213.4</ele>
        <time>2022-08-20T13:14:27Z</time>
      </trkpt>
      <trkpt lat="46.64566" lon="5.26047">
        <ele>212.2</ele>
        <time>2022-08-20T13:14:32Z</time>
      </trkpt>
      <trkpt lat="46.64536" lon="5.26009">
        <ele>210.6</ele>
        <time>2022-08-20T13:14:36Z</time>
      </trkpt>
      <trkpt lat="46.6452" lon="5.25989">
        <ele>209.6</ele>
        <time>2022-08-20T13:14:38Z</time>
      </trkpt>
      <trkpt lat="46.64512" lon="5.25979">
        <ele>209</ele>
        <time>2022-08-20T13:14:39Z</time>
      </trkpt>
      <trkpt lat="46.64498" lon="5.25961">
        <ele>208</ele>
        <time>2022-08-20T13:14:41Z</time>
      </trkpt>
      <trkpt lat="46.64482" lon="5.2594">
        <ele>206.6</ele>
        <time>2022-08-20T13:14:43Z</time>
      </trkpt>
      <trkpt lat="46.64464" lon="5.25919">
        <ele>205.2</ele>
        <time>2022-08-20T13:14:45Z</time>
      </trkpt>
      <trkpt lat="46.64449" lon="5.259">
        <ele>204.4</ele>
        <time>2022-08-20T13:14:47Z</time>
      </trkpt>
      <trkpt lat="46.64442" lon="5.2589">
        <ele>204.2</ele>
        <time>2022-08-20T13:14:48Z</time>
      </trkpt>
      <trkpt lat="46.64421" lon="5.25864">
        <ele>204</ele>
        <time>2022-08-20T13:14:51Z</time>
      </trkpt>
      <trkpt lat="46.64415" lon="5.25856">
        <ele>204</ele>
        <time>2022-08-20T13:14:52Z</time>
      </trkpt>
      <trkpt lat="46.64386" lon="5.2582">
        <ele>205.2</ele>
        <time>2022-08-20T13:14:57Z</time>
      </trkpt>
      <trkpt lat="46.64381" lon="5.25814">
        <ele>205.4</ele>
        <time>2022-08-20T13:14:58Z</time>
      </trkpt>
      <trkpt lat="46.64371" lon="5.25801">
        <ele>206.6</ele>
        <time>2022-08-20T13:15:00Z</time>
      </trkpt>
      <trkpt lat="46.64357" lon="5.25784">
        <ele>207.8</ele>
        <time>2022-08-20T13:15:03Z</time>
      </trkpt>
      <trkpt lat="46.64343" lon="5.25767">
        <ele>209</ele>
        <time>2022-08-20T13:15:06Z</time>
      </trkpt>
      <trkpt lat="46.64331" lon="5.25751">
        <ele>210</ele>
        <time>2022-08-20T13:15:09Z</time>
      </trkpt>
      <trkpt lat="46.64322" lon="5.2574">
        <ele>210.6</ele>
        <time>2022-08-20T13:15:11Z</time>
      </trkpt>
      <trkpt lat="46.64314" lon="5.25729">
        <ele>211</ele>
        <time>2022-08-20T13:15:13Z</time>
      </trkpt>
      <trkpt lat="46.6428" lon="5.25686">
        <ele>211.8</ele>
        <time>2022-08-20T13:15:20Z</time>
      </trkpt>
      <trkpt lat="46.64237" lon="5.25633">
        <ele>211.8</ele>
        <time>2022-08-20T13:15:28Z</time>
      </trkpt>
      <trkpt lat="46.64195" lon="5.25579">
        <ele>211.6</ele>
        <time>2022-08-20T13:15:36Z</time>
      </trkpt>
      <trkpt lat="46.64174" lon="5.25553">
        <ele>211.8</ele>
        <time>2022-08-20T13:15:40Z</time>
      </trkpt>
      <trkpt lat="46.64156" lon="5.25532">
        <ele>212.2</ele>
        <time>2022-08-20T13:15:44Z</time>
      </trkpt>
      <trkpt lat="46.64152" lon="5.25526">
        <ele>212.2</ele>
        <time>2022-08-20T13:15:45Z</time>
      </trkpt>
      <trkpt lat="46.64148" lon="5.25521">
        <ele>212.8</ele>
        <time>2022-08-20T13:15:46Z</time>
      </trkpt>
      <trkpt lat="46.64139" lon="5.2551">
        <ele>213.2</ele>
        <time>2022-08-20T13:15:48Z</time>
      </trkpt>
      <trkpt lat="46.64118" lon="5.25484">
        <ele>213.8</ele>
        <time>2022-08-20T13:15:53Z</time>
      </trkpt>
      <trkpt lat="46.64109" lon="5.25472">
        <ele>214.2</ele>
        <time>2022-08-20T13:15:55Z</time>
      </trkpt>
      <trkpt lat="46.64077" lon="5.25431">
        <ele>214.6</ele>
        <time>2022-08-20T13:16:02Z</time>
      </trkpt>
      <trkpt lat="46.64039" lon="5.25382">
        <ele>214.8</ele>
        <time>2022-08-20T13:16:10Z</time>
      </trkpt>
      <trkpt lat="46.63995" lon="5.25327">
        <ele>215</ele>
        <time>2022-08-20T13:16:18Z</time>
      </trkpt>
      <trkpt lat="46.63959" lon="5.25284">
        <ele>214.8</ele>
        <time>2022-08-20T13:16:24Z</time>
      </trkpt>
      <trkpt lat="46.63919" lon="5.25232">
        <ele>214.4</ele>
        <time>2022-08-20T13:16:31Z</time>
      </trkpt>
      <trkpt lat="46.63914" lon="5.25224">
        <ele>214.4</ele>
        <time>2022-08-20T13:16:32Z</time>
      </trkpt>
      <trkpt lat="46.63869" lon="5.25164">
        <ele>214</ele>
        <time>2022-08-20T13:16:40Z</time>
      </trkpt>
      <trkpt lat="46.63863" lon="5.25157">
        <ele>214</ele>
        <time>2022-08-20T13:16:41Z</time>
      </trkpt>
      <trkpt lat="46.63851" lon="5.25142">
        <ele>214.2</ele>
        <time>2022-08-20T13:16:43Z</time>
      </trkpt>
      <trkpt lat="46.63839" lon="5.25127">
        <ele>214</ele>
        <time>2022-08-20T13:16:45Z</time>
      </trkpt>
      <trkpt lat="46.63834" lon="5.25119">
        <ele>214</ele>
        <time>2022-08-20T13:16:46Z</time>
      </trkpt>
      <trkpt lat="46.63793" lon="5.25066">
        <ele>214.2</ele>
        <time>2022-08-20T13:16:53Z</time>
      </trkpt>
      <trkpt lat="46.63749" lon="5.25008">
        <ele>214.2</ele>
        <time>2022-08-20T13:17:01Z</time>
      </trkpt>
      <trkpt lat="46.63743" lon="5.25001">
        <ele>214.2</ele>
        <time>2022-08-20T13:17:02Z</time>
      </trkpt>
      <trkpt lat="46.63706" lon="5.24958">
        <ele>214.4</ele>
        <time>2022-08-20T13:17:08Z</time>
      </trkpt>
      <trkpt lat="46.637" lon="5.2495">
        <ele>214.2</ele>
        <time>2022-08-20T13:17:09Z</time>
      </trkpt>
      <trkpt lat="46.63678" lon="5.24915">
        <ele>213.8</ele>
        <time>2022-08-20T13:17:13Z</time>
      </trkpt>
      <trkpt lat="46.63659" lon="5.24891">
        <ele>213</ele>
        <time>2022-08-20T13:17:16Z</time>
      </trkpt>
      <trkpt lat="46.63628" lon="5.2485">
        <ele>212.2</ele>
        <time>2022-08-20T13:17:21Z</time>
      </trkpt>
      <trkpt lat="46.63621" lon="5.24841">
        <ele>212</ele>
        <time>2022-08-20T13:17:22Z</time>
      </trkpt>
      <trkpt lat="46.63615" lon="5.24833">
        <ele>211.6</ele>
        <time>2022-08-20T13:17:23Z</time>
      </trkpt>
      <trkpt lat="46.63596" lon="5.24809">
        <ele>211.4</ele>
        <time>2022-08-20T13:17:26Z</time>
      </trkpt>
      <trkpt lat="46.63571" lon="5.24775">
        <ele>210.8</ele>
        <time>2022-08-20T13:17:30Z</time>
      </trkpt>
      <trkpt lat="46.63548" lon="5.24744">
        <ele>210.4</ele>
        <time>2022-08-20T13:17:34Z</time>
      </trkpt>
      <trkpt lat="46.63506" lon="5.24689">
        <ele>210.4</ele>
        <time>2022-08-20T13:17:41Z</time>
      </trkpt>
      <trkpt lat="46.63501" lon="5.24682">
        <ele>210.6</ele>
        <time>2022-08-20T13:17:42Z</time>
      </trkpt>
      <trkpt lat="46.63464" lon="5.24631">
        <ele>211.6</ele>
        <time>2022-08-20T13:17:49Z</time>
      </trkpt>
      <trkpt lat="46.63454" lon="5.24616">
        <ele>212</ele>
        <time>2022-08-20T13:17:51Z</time>
      </trkpt>
      <trkpt lat="46.63445" lon="5.24602">
        <ele>212.2</ele>
        <time>2022-08-20T13:17:53Z</time>
      </trkpt>
      <trkpt lat="46.63406" lon="5.24547">
        <ele>212.8</ele>
        <time>2022-08-20T13:18:01Z</time>
      </trkpt>
      <trkpt lat="46.63383" lon="5.24516">
        <ele>213</ele>
        <time>2022-08-20T13:18:05Z</time>
      </trkpt>
      <trkpt lat="46.63377" lon="5.24508">
        <ele>213</ele>
        <time>2022-08-20T13:18:06Z</time>
      </trkpt>
      <trkpt lat="46.63333" lon="5.24446">
        <ele>213.2</ele>
        <time>2022-08-20T13:18:14Z</time>
      </trkpt>
      <trkpt lat="46.63328" lon="5.24439">
        <ele>213.2</ele>
        <time>2022-08-20T13:18:15Z</time>
      </trkpt>
      <trkpt lat="46.63317" lon="5.24425">
        <ele>213</ele>
        <time>2022-08-20T13:18:17Z</time>
      </trkpt>
      <trkpt lat="46.63304" lon="5.24414">
        <ele>213</ele>
        <time>2022-08-20T13:18:19Z</time>
      </trkpt>
      <trkpt lat="46.63279" lon="5.24401">
        <ele>212.8</ele>
        <time>2022-08-20T13:18:23Z</time>
      </trkpt>
      <trkpt lat="46.63271" lon="5.24397">
        <ele>212.8</ele>
        <time>2022-08-20T13:18:26Z</time>
      </trkpt>
      <trkpt lat="46.63268" lon="5.24394">
        <ele>212.6</ele>
        <time>2022-08-20T13:18:30Z</time>
      </trkpt>
      <trkpt lat="46.63264" lon="5.24392">
        <ele>212.6</ele>
        <time>2022-08-20T13:18:32Z</time>
      </trkpt>
      <trkpt lat="46.63263" lon="5.2439">
        <ele>212.4</ele>
        <time>2022-08-20T13:18:33Z</time>
      </trkpt>
      <trkpt lat="46.63261" lon="5.24386">
        <ele>212.4</ele>
        <time>2022-08-20T13:18:34Z</time>
      </trkpt>
      <trkpt lat="46.6326" lon="5.24375">
        <ele>212.4</ele>
        <time>2022-08-20T13:18:36Z</time>
      </trkpt>
      <trkpt lat="46.63257" lon="5.24354">
        <ele>212.2</ele>
        <time>2022-08-20T13:18:39Z</time>
      </trkpt>
      <trkpt lat="46.6325" lon="5.24305">
        <ele>212.2</ele>
        <time>2022-08-20T13:18:45Z</time>
      </trkpt>
      <trkpt lat="46.6324" lon="5.24237">
        <ele>212.4</ele>
        <time>2022-08-20T13:18:52Z</time>
      </trkpt>
      <trkpt lat="46.6323" lon="5.24172">
        <ele>212.2</ele>
        <time>2022-08-20T13:18:58Z</time>
      </trkpt>
      <trkpt lat="46.63226" lon="5.24137">
        <ele>211.8</ele>
        <time>2022-08-20T13:19:01Z</time>
      </trkpt>
      <trkpt lat="46.63218" lon="5.24078">
        <ele>210.8</ele>
        <time>2022-08-20T13:19:06Z</time>
      </trkpt>
      <trkpt lat="46.63213" lon="5.24038">
        <ele>209.6</ele>
        <time>2022-08-20T13:19:09Z</time>
      </trkpt>
      <trkpt lat="46.63204" lon="5.23976">
        <ele>208.8</ele>
        <time>2022-08-20T13:19:14Z</time>
      </trkpt>
      <trkpt lat="46.632" lon="5.23951">
        <ele>208.6</ele>
        <time>2022-08-20T13:19:16Z</time>
      </trkpt>
      <trkpt lat="46.63193" lon="5.23903">
        <ele>208.4</ele>
        <time>2022-08-20T13:19:20Z</time>
      </trkpt>
      <trkpt lat="46.63182" lon="5.23825">
        <ele>208.4</ele>
        <time>2022-08-20T13:19:27Z</time>
      </trkpt>
      <trkpt lat="46.6318" lon="5.23814">
        <ele>208.6</ele>
        <time>2022-08-20T13:19:28Z</time>
      </trkpt>
      <trkpt lat="46.63169" lon="5.23733">
        <ele>209.6</ele>
        <time>2022-08-20T13:19:36Z</time>
      </trkpt>
      <trkpt lat="46.6316" lon="5.23663">
        <ele>211</ele>
        <time>2022-08-20T13:19:43Z</time>
      </trkpt>
      <trkpt lat="46.63159" lon="5.23653">
        <ele>211</ele>
        <time>2022-08-20T13:19:44Z</time>
      </trkpt>
      <trkpt lat="46.63149" lon="5.23584">
        <ele>211.8</ele>
        <time>2022-08-20T13:19:51Z</time>
      </trkpt>
      <trkpt lat="46.63146" lon="5.23565">
        <ele>212</ele>
        <time>2022-08-20T13:19:53Z</time>
      </trkpt>
      <trkpt lat="46.63138" lon="5.23508">
        <ele>212</ele>
        <time>2022-08-20T13:19:59Z</time>
      </trkpt>
      <trkpt lat="46.63127" lon="5.23429">
        <ele>212.2</ele>
        <time>2022-08-20T13:20:08Z</time>
      </trkpt>
      <trkpt lat="46.63114" lon="5.23351">
        <ele>211.6</ele>
        <time>2022-08-20T13:20:16Z</time>
      </trkpt>
      <trkpt lat="46.63111" lon="5.23332">
        <ele>211.2</ele>
        <time>2022-08-20T13:20:18Z</time>
      </trkpt>
      <trkpt lat="46.63108" lon="5.23313">
        <ele>210.8</ele>
        <time>2022-08-20T13:20:20Z</time>
      </trkpt>
      <trkpt lat="46.63093" lon="5.23231">
        <ele>209.8</ele>
        <time>2022-08-20T13:20:28Z</time>
      </trkpt>
      <trkpt lat="46.63086" lon="5.23183">
        <ele>208.4</ele>
        <time>2022-08-20T13:20:32Z</time>
      </trkpt>
      <trkpt lat="46.63084" lon="5.23173">
        <ele>207.8</ele>
        <time>2022-08-20T13:20:33Z</time>
      </trkpt>
      <trkpt lat="46.6308" lon="5.23148">
        <ele>206.8</ele>
        <time>2022-08-20T13:20:35Z</time>
      </trkpt>
      <trkpt lat="46.63072" lon="5.23107">
        <ele>205.4</ele>
        <time>2022-08-20T13:20:38Z</time>
      </trkpt>
      <trkpt lat="46.63066" lon="5.23069">
        <ele>203.8</ele>
        <time>2022-08-20T13:20:41Z</time>
      </trkpt>
      <trkpt lat="46.63062" lon="5.23043">
        <ele>202.6</ele>
        <time>2022-08-20T13:20:43Z</time>
      </trkpt>
      <trkpt lat="46.63059" lon="5.2303">
        <ele>202.4</ele>
        <time>2022-08-20T13:20:44Z</time>
      </trkpt>
      <trkpt lat="46.63054" lon="5.23004">
        <ele>201.2</ele>
        <time>2022-08-20T13:20:46Z</time>
      </trkpt>
      <trkpt lat="46.63049" lon="5.22977">
        <ele>199.8</ele>
        <time>2022-08-20T13:20:48Z</time>
      </trkpt>
      <trkpt lat="46.63038" lon="5.22925">
        <ele>198.8</ele>
        <time>2022-08-20T13:20:52Z</time>
      </trkpt>
      <trkpt lat="46.6303" lon="5.22872">
        <ele>197.4</ele>
        <time>2022-08-20T13:20:56Z</time>
      </trkpt>
      <trkpt lat="46.63027" lon="5.22848">
        <ele>196.2</ele>
        <time>2022-08-20T13:20:58Z</time>
      </trkpt>
      <trkpt lat="46.63025" lon="5.22836">
        <ele>195.8</ele>
        <time>2022-08-20T13:20:59Z</time>
      </trkpt>
      <trkpt lat="46.63024" lon="5.22829">
        <ele>195.4</ele>
        <time>2022-08-20T13:21:00Z</time>
      </trkpt>
      <trkpt lat="46.63022" lon="5.2282">
        <ele>195.2</ele>
        <time>2022-08-20T13:21:01Z</time>
      </trkpt>
      <trkpt lat="46.63019" lon="5.22814">
        <ele>195</ele>
        <time>2022-08-20T13:21:02Z</time>
      </trkpt>
      <trkpt lat="46.63014" lon="5.22812">
        <ele>195</ele>
        <time>2022-08-20T13:21:03Z</time>
      </trkpt>
      <trkpt lat="46.63008" lon="5.22813">
        <ele>194.8</ele>
        <time>2022-08-20T13:21:04Z</time>
      </trkpt>
      <trkpt lat="46.62984" lon="5.22817">
        <ele>194.2</ele>
        <time>2022-08-20T13:21:08Z</time>
      </trkpt>
      <trkpt lat="46.62976" lon="5.2282">
        <ele>194.2</ele>
        <time>2022-08-20T13:21:09Z</time>
      </trkpt>
      <trkpt lat="46.62965" lon="5.2283">
        <ele>194.2</ele>
        <time>2022-08-20T13:21:11Z</time>
      </trkpt>
      <trkpt lat="46.62954" lon="5.22845">
        <ele>194.2</ele>
        <time>2022-08-20T13:21:13Z</time>
      </trkpt>
      <trkpt lat="46.62929" lon="5.22892">
        <ele>194.4</ele>
        <time>2022-08-20T13:21:18Z</time>
      </trkpt>
      <trkpt lat="46.62897" lon="5.22954">
        <ele>194.2</ele>
        <time>2022-08-20T13:21:25Z</time>
      </trkpt>
      <trkpt lat="46.62873" lon="5.23003">
        <ele>194</ele>
        <time>2022-08-20T13:21:31Z</time>
      </trkpt>
      <trkpt lat="46.62838" lon="5.23071">
        <ele>194.2</ele>
        <time>2022-08-20T13:21:39Z</time>
      </trkpt>
      <trkpt lat="46.62833" lon="5.23081">
        <ele>194.4</ele>
        <time>2022-08-20T13:21:40Z</time>
      </trkpt>
      <trkpt lat="46.62799" lon="5.23147">
        <ele>194.6</ele>
        <time>2022-08-20T13:21:48Z</time>
      </trkpt>
      <trkpt lat="46.62795" lon="5.23155">
        <ele>194.6</ele>
        <time>2022-08-20T13:21:49Z</time>
      </trkpt>
      <trkpt lat="46.62761" lon="5.23223">
        <ele>194.8</ele>
        <time>2022-08-20T13:21:57Z</time>
      </trkpt>
      <trkpt lat="46.62726" lon="5.23291">
        <ele>194.6</ele>
        <time>2022-08-20T13:22:05Z</time>
      </trkpt>
      <trkpt lat="46.62721" lon="5.23301">
        <ele>194.6</ele>
        <time>2022-08-20T13:22:06Z</time>
      </trkpt>
      <trkpt lat="46.62687" lon="5.23367">
        <ele>195.4</ele>
        <time>2022-08-20T13:22:14Z</time>
      </trkpt>
      <trkpt lat="46.62679" lon="5.23382">
        <ele>195.4</ele>
        <time>2022-08-20T13:22:16Z</time>
      </trkpt>
      <trkpt lat="46.62646" lon="5.23447">
        <ele>196.2</ele>
        <time>2022-08-20T13:22:24Z</time>
      </trkpt>
      <trkpt lat="46.62638" lon="5.23462">
        <ele>196.2</ele>
        <time>2022-08-20T13:22:26Z</time>
      </trkpt>
      <trkpt lat="46.62623" lon="5.23493">
        <ele>196.6</ele>
        <time>2022-08-20T13:22:30Z</time>
      </trkpt>
      <trkpt lat="46.62607" lon="5.23537">
        <ele>196.6</ele>
        <time>2022-08-20T13:22:35Z</time>
      </trkpt>
      <trkpt lat="46.62586" lon="5.23612">
        <ele>197.4</ele>
        <time>2022-08-20T13:22:43Z</time>
      </trkpt>
      <trkpt lat="46.6258" lon="5.23634">
        <ele>197.6</ele>
        <time>2022-08-20T13:22:45Z</time>
      </trkpt>
      <trkpt lat="46.62562" lon="5.23694">
        <ele>198.2</ele>
        <time>2022-08-20T13:22:52Z</time>
      </trkpt>
      <trkpt lat="46.62559" lon="5.23705">
        <ele>198.2</ele>
        <time>2022-08-20T13:22:53Z</time>
      </trkpt>
      <trkpt lat="46.62552" lon="5.2373">
        <ele>198.6</ele>
        <time>2022-08-20T13:22:56Z</time>
      </trkpt>
      <trkpt lat="46.62547" lon="5.23747">
        <ele>199</ele>
        <time>2022-08-20T13:22:58Z</time>
      </trkpt>
      <trkpt lat="46.6253" lon="5.23809">
        <ele>199.6</ele>
        <time>2022-08-20T13:23:05Z</time>
      </trkpt>
      <trkpt lat="46.62511" lon="5.23872">
        <ele>200.8</ele>
        <time>2022-08-20T13:23:12Z</time>
      </trkpt>
      <trkpt lat="46.62506" lon="5.23887">
        <ele>201</ele>
        <time>2022-08-20T13:23:14Z</time>
      </trkpt>
      <trkpt lat="46.62486" lon="5.23948">
        <ele>201.2</ele>
        <time>2022-08-20T13:23:21Z</time>
      </trkpt>
      <trkpt lat="46.62471" lon="5.23993">
        <ele>201.8</ele>
        <time>2022-08-20T13:23:26Z</time>
      </trkpt>
      <trkpt lat="46.62458" lon="5.24035">
        <ele>202.6</ele>
        <time>2022-08-20T13:23:31Z</time>
      </trkpt>
      <trkpt lat="46.62452" lon="5.24054">
        <ele>202.8</ele>
        <time>2022-08-20T13:23:33Z</time>
      </trkpt>
      <trkpt lat="46.62432" lon="5.24113">
        <ele>203.6</ele>
        <time>2022-08-20T13:23:40Z</time>
      </trkpt>
      <trkpt lat="46.62425" lon="5.24135">
        <ele>204</ele>
        <time>2022-08-20T13:23:43Z</time>
      </trkpt>
      <trkpt lat="46.62417" lon="5.24159">
        <ele>204.2</ele>
        <time>2022-08-20T13:23:46Z</time>
      </trkpt>
      <trkpt lat="46.62409" lon="5.2418">
        <ele>205.2</ele>
        <time>2022-08-20T13:23:49Z</time>
      </trkpt>
      <trkpt lat="46.624" lon="5.2421">
        <ele>206.2</ele>
        <time>2022-08-20T13:23:53Z</time>
      </trkpt>
      <trkpt lat="46.6239" lon="5.24238">
        <ele>207.4</ele>
        <time>2022-08-20T13:23:57Z</time>
      </trkpt>
      <trkpt lat="46.62383" lon="5.2426">
        <ele>207.8</ele>
        <time>2022-08-20T13:24:00Z</time>
      </trkpt>
      <trkpt lat="46.62376" lon="5.24283">
        <ele>208.4</ele>
        <time>2022-08-20T13:24:03Z</time>
      </trkpt>
      <trkpt lat="46.62363" lon="5.24329">
        <ele>209.6</ele>
        <time>2022-08-20T13:24:09Z</time>
      </trkpt>
      <trkpt lat="46.62359" lon="5.24346">
        <ele>210</ele>
        <time>2022-08-20T13:24:11Z</time>
      </trkpt>
      <trkpt lat="46.62355" lon="5.24378">
        <ele>210.2</ele>
        <time>2022-08-20T13:24:15Z</time>
      </trkpt>
      <trkpt lat="46.62347" lon="5.24426">
        <ele>210.2</ele>
        <time>2022-08-20T13:24:20Z</time>
      </trkpt>
      <trkpt lat="46.62336" lon="5.24496">
        <ele>209.8</ele>
        <time>2022-08-20T13:24:26Z</time>
      </trkpt>
      <trkpt lat="46.62325" lon="5.24569">
        <ele>208.2</ele>
        <time>2022-08-20T13:24:32Z</time>
      </trkpt>
      <trkpt lat="46.62313" lon="5.24641">
        <ele>206.6</ele>
        <time>2022-08-20T13:24:37Z</time>
      </trkpt>
      <trkpt lat="46.62308" lon="5.24674">
        <ele>205.6</ele>
        <time>2022-08-20T13:24:39Z</time>
      </trkpt>
      <trkpt lat="46.62301" lon="5.24705">
        <ele>204.2</ele>
        <time>2022-08-20T13:24:41Z</time>
      </trkpt>
      <trkpt lat="46.62293" lon="5.24732">
        <ele>203.2</ele>
        <time>2022-08-20T13:24:43Z</time>
      </trkpt>
      <trkpt lat="46.62287" lon="5.24747">
        <ele>202.2</ele>
        <time>2022-08-20T13:24:44Z</time>
      </trkpt>
      <trkpt lat="46.6227" lon="5.24791">
        <ele>201.2</ele>
        <time>2022-08-20T13:24:47Z</time>
      </trkpt>
      <trkpt lat="46.62262" lon="5.24809">
        <ele>200.4</ele>
        <time>2022-08-20T13:24:48Z</time>
      </trkpt>
      <trkpt lat="46.62257" lon="5.24822">
        <ele>199.6</ele>
        <time>2022-08-20T13:24:49Z</time>
      </trkpt>
      <trkpt lat="46.62245" lon="5.24852">
        <ele>198.4</ele>
        <time>2022-08-20T13:24:51Z</time>
      </trkpt>
      <trkpt lat="46.62231" lon="5.24884">
        <ele>197.2</ele>
        <time>2022-08-20T13:24:53Z</time>
      </trkpt>
      <trkpt lat="46.62221" lon="5.24908">
        <ele>196.2</ele>
        <time>2022-08-20T13:24:55Z</time>
      </trkpt>
      <trkpt lat="46.62201" lon="5.24946">
        <ele>195</ele>
        <time>2022-08-20T13:24:58Z</time>
      </trkpt>
      <trkpt lat="46.62195" lon="5.24957">
        <ele>194.8</ele>
        <time>2022-08-20T13:24:59Z</time>
      </trkpt>
      <trkpt lat="46.62151" lon="5.25018">
        <ele>193.8</ele>
        <time>2022-08-20T13:25:05Z</time>
      </trkpt>
      <trkpt lat="46.62112" lon="5.25079">
        <ele>193.4</ele>
        <time>2022-08-20T13:25:11Z</time>
      </trkpt>
      <trkpt lat="46.62106" lon="5.25092">
        <ele>193.4</ele>
        <time>2022-08-20T13:25:12Z</time>
      </trkpt>
      <trkpt lat="46.62081" lon="5.25154">
        <ele>193.6</ele>
        <time>2022-08-20T13:25:18Z</time>
      </trkpt>
      <trkpt lat="46.6206" lon="5.25213">
        <ele>195</ele>
        <time>2022-08-20T13:25:24Z</time>
      </trkpt>
      <trkpt lat="46.62046" lon="5.2527">
        <ele>196</ele>
        <time>2022-08-20T13:25:30Z</time>
      </trkpt>
      <trkpt lat="46.62039" lon="5.25315">
        <ele>197.2</ele>
        <time>2022-08-20T13:25:35Z</time>
      </trkpt>
      <trkpt lat="46.62035" lon="5.25348">
        <ele>198.4</ele>
        <time>2022-08-20T13:25:39Z</time>
      </trkpt>
      <trkpt lat="46.62034" lon="5.25357">
        <ele>198.8</ele>
        <time>2022-08-20T13:25:40Z</time>
      </trkpt>
      <trkpt lat="46.62032" lon="5.25373">
        <ele>199.6</ele>
        <time>2022-08-20T13:25:42Z</time>
      </trkpt>
      <trkpt lat="46.62027" lon="5.25417">
        <ele>200.8</ele>
        <time>2022-08-20T13:25:47Z</time>
      </trkpt>
      <trkpt lat="46.62025" lon="5.25433">
        <ele>201</ele>
        <time>2022-08-20T13:25:49Z</time>
      </trkpt>
      <trkpt lat="46.62021" lon="5.25456">
        <ele>202</ele>
        <time>2022-08-20T13:25:52Z</time>
      </trkpt>
      <trkpt lat="46.62016" lon="5.25488">
        <ele>203</ele>
        <time>2022-08-20T13:25:56Z</time>
      </trkpt>
      <trkpt lat="46.62015" lon="5.25494">
        <ele>203.4</ele>
        <time>2022-08-20T13:25:57Z</time>
      </trkpt>
      <trkpt lat="46.62012" lon="5.25517">
        <ele>204</ele>
        <time>2022-08-20T13:26:00Z</time>
      </trkpt>
      <trkpt lat="46.62008" lon="5.25544">
        <ele>205</ele>
        <time>2022-08-20T13:26:04Z</time>
      </trkpt>
      <trkpt lat="46.62007" lon="5.25552">
        <ele>205.2</ele>
        <time>2022-08-20T13:26:05Z</time>
      </trkpt>
      <trkpt lat="46.62005" lon="5.25572">
        <ele>206.4</ele>
        <time>2022-08-20T13:26:08Z</time>
      </trkpt>
      <trkpt lat="46.62003" lon="5.25586">
        <ele>207</ele>
        <time>2022-08-20T13:26:10Z</time>
      </trkpt>
      <trkpt lat="46.62001" lon="5.25607">
        <ele>207.6</ele>
        <time>2022-08-20T13:26:13Z</time>
      </trkpt>
      <trkpt lat="46.61997" lon="5.25641">
        <ele>208.8</ele>
        <time>2022-08-20T13:26:18Z</time>
      </trkpt>
      <trkpt lat="46.61996" lon="5.25648">
        <ele>208.8</ele>
        <time>2022-08-20T13:26:19Z</time>
      </trkpt>
      <trkpt lat="46.61994" lon="5.2567">
        <ele>209.8</ele>
        <time>2022-08-20T13:26:22Z</time>
      </trkpt>
      <trkpt lat="46.6199" lon="5.25703">
        <ele>211.2</ele>
        <time>2022-08-20T13:26:27Z</time>
      </trkpt>
      <trkpt lat="46.61985" lon="5.25736">
        <ele>212.4</ele>
        <time>2022-08-20T13:26:32Z</time>
      </trkpt>
      <trkpt lat="46.61981" lon="5.25767">
        <ele>212.8</ele>
        <time>2022-08-20T13:26:36Z</time>
      </trkpt>
      <trkpt lat="46.61974" lon="5.25823">
        <ele>213.4</ele>
        <time>2022-08-20T13:26:43Z</time>
      </trkpt>
      <trkpt lat="46.61971" lon="5.25838">
        <ele>213.4</ele>
        <time>2022-08-20T13:26:45Z</time>
      </trkpt>
      <trkpt lat="46.61961" lon="5.25919">
        <ele>213.8</ele>
        <time>2022-08-20T13:26:54Z</time>
      </trkpt>
      <trkpt lat="46.6196" lon="5.25929">
        <ele>213.8</ele>
        <time>2022-08-20T13:26:55Z</time>
      </trkpt>
      <trkpt lat="46.6195" lon="5.26014">
        <ele>213.4</ele>
        <time>2022-08-20T13:27:03Z</time>
      </trkpt>
      <trkpt lat="46.61938" lon="5.26098">
        <ele>212.4</ele>
        <time>2022-08-20T13:27:10Z</time>
      </trkpt>
      <trkpt lat="46.61937" lon="5.26108">
        <ele>212.2</ele>
        <time>2022-08-20T13:27:11Z</time>
      </trkpt>
      <trkpt lat="46.6193" lon="5.26168">
        <ele>210.8</ele>
        <time>2022-08-20T13:27:16Z</time>
      </trkpt>
      <trkpt lat="46.61923" lon="5.26216">
        <ele>210</ele>
        <time>2022-08-20T13:27:20Z</time>
      </trkpt>
      <trkpt lat="46.61912" lon="5.26304">
        <ele>209.8</ele>
        <time>2022-08-20T13:27:27Z</time>
      </trkpt>
      <trkpt lat="46.61911" lon="5.26313">
        <ele>209.8</ele>
        <time>2022-08-20T13:27:28Z</time>
      </trkpt>
      <trkpt lat="46.61902" lon="5.26384">
        <ele>209.8</ele>
        <time>2022-08-20T13:27:34Z</time>
      </trkpt>
      <trkpt lat="46.61897" lon="5.26419">
        <ele>209.6</ele>
        <time>2022-08-20T13:27:37Z</time>
      </trkpt>
      <trkpt lat="46.61886" lon="5.26504">
        <ele>209</ele>
        <time>2022-08-20T13:27:44Z</time>
      </trkpt>
      <trkpt lat="46.61884" lon="5.2652">
        <ele>208.8</ele>
        <time>2022-08-20T13:27:45Z</time>
      </trkpt>
      <trkpt lat="46.61881" lon="5.26544">
        <ele>208.4</ele>
        <time>2022-08-20T13:27:47Z</time>
      </trkpt>
      <trkpt lat="46.61874" lon="5.26605">
        <ele>207.4</ele>
        <time>2022-08-20T13:27:51Z</time>
      </trkpt>
      <trkpt lat="46.61868" lon="5.2665">
        <ele>206</ele>
        <time>2022-08-20T13:27:54Z</time>
      </trkpt>
      <trkpt lat="46.61863" lon="5.26692">
        <ele>204.6</ele>
        <time>2022-08-20T13:27:57Z</time>
      </trkpt>
      <trkpt lat="46.61861" lon="5.2671">
        <ele>203.4</ele>
        <time>2022-08-20T13:27:58Z</time>
      </trkpt>
      <trkpt lat="46.61856" lon="5.26751">
        <ele>202</ele>
        <time>2022-08-20T13:28:01Z</time>
      </trkpt>
      <trkpt lat="46.61847" lon="5.26826">
        <ele>201</ele>
        <time>2022-08-20T13:28:06Z</time>
      </trkpt>
      <trkpt lat="46.61836" lon="5.26911">
        <ele>199.6</ele>
        <time>2022-08-20T13:28:12Z</time>
      </trkpt>
      <trkpt lat="46.61834" lon="5.26927">
        <ele>199.4</ele>
        <time>2022-08-20T13:28:13Z</time>
      </trkpt>
      <trkpt lat="46.6183" lon="5.26989">
        <ele>198.8</ele>
        <time>2022-08-20T13:28:18Z</time>
      </trkpt>
      <trkpt lat="46.61827" lon="5.27">
        <ele>199</ele>
        <time>2022-08-20T13:28:19Z</time>
      </trkpt>
      <trkpt lat="46.61823" lon="5.27009">
        <ele>199</ele>
        <time>2022-08-20T13:28:20Z</time>
      </trkpt>
      <trkpt lat="46.61812" lon="5.27017">
        <ele>199</ele>
        <time>2022-08-20T13:28:22Z</time>
      </trkpt>
      <trkpt lat="46.61805" lon="5.27013">
        <ele>199</ele>
        <time>2022-08-20T13:28:23Z</time>
      </trkpt>
      <trkpt lat="46.61797" lon="5.26997">
        <ele>199</ele>
        <time>2022-08-20T13:28:25Z</time>
      </trkpt>
      <trkpt lat="46.61792" lon="5.26988">
        <ele>199</ele>
        <time>2022-08-20T13:28:26Z</time>
      </trkpt>
      <trkpt lat="46.61772" lon="5.26948">
        <ele>198.6</ele>
        <time>2022-08-20T13:28:30Z</time>
      </trkpt>
      <trkpt lat="46.61765" lon="5.26937">
        <ele>198.4</ele>
        <time>2022-08-20T13:28:31Z</time>
      </trkpt>
      <trkpt lat="46.61731" lon="5.26883">
        <ele>197.8</ele>
        <time>2022-08-20T13:28:37Z</time>
      </trkpt>
      <trkpt lat="46.61718" lon="5.26867">
        <ele>197.6</ele>
        <time>2022-08-20T13:28:39Z</time>
      </trkpt>
      <trkpt lat="46.61688" lon="5.26839">
        <ele>197.4</ele>
        <time>2022-08-20T13:28:43Z</time>
      </trkpt>
      <trkpt lat="46.61681" lon="5.26834">
        <ele>197.2</ele>
        <time>2022-08-20T13:28:44Z</time>
      </trkpt>
      <trkpt lat="46.61666" lon="5.2683">
        <ele>197.2</ele>
        <time>2022-08-20T13:28:46Z</time>
      </trkpt>
      <trkpt lat="46.61649" lon="5.26834">
        <ele>197.2</ele>
        <time>2022-08-20T13:28:48Z</time>
      </trkpt>
      <trkpt lat="46.6164" lon="5.2684">
        <ele>197.2</ele>
        <time>2022-08-20T13:28:49Z</time>
      </trkpt>
      <trkpt lat="46.61612" lon="5.26867">
        <ele>197.2</ele>
        <time>2022-08-20T13:28:53Z</time>
      </trkpt>
      <trkpt lat="46.61606" lon="5.26876">
        <ele>197.2</ele>
        <time>2022-08-20T13:28:54Z</time>
      </trkpt>
      <trkpt lat="46.61578" lon="5.26927">
        <ele>197.2</ele>
        <time>2022-08-20T13:28:59Z</time>
      </trkpt>
      <trkpt lat="46.61541" lon="5.26988">
        <ele>196.6</ele>
        <time>2022-08-20T13:29:05Z</time>
      </trkpt>
      <trkpt lat="46.61524" lon="5.26999">
        <ele>196</ele>
        <time>2022-08-20T13:29:07Z</time>
      </trkpt>
      <trkpt lat="46.61514" lon="5.27">
        <ele>195.8</ele>
        <time>2022-08-20T13:29:08Z</time>
      </trkpt>
      <trkpt lat="46.61505" lon="5.26999">
        <ele>195.6</ele>
        <time>2022-08-20T13:29:09Z</time>
      </trkpt>
      <trkpt lat="46.61487" lon="5.26993">
        <ele>195.4</ele>
        <time>2022-08-20T13:29:11Z</time>
      </trkpt>
      <trkpt lat="46.61433" lon="5.26979">
        <ele>195.2</ele>
        <time>2022-08-20T13:29:17Z</time>
      </trkpt>
      <trkpt lat="46.61416" lon="5.26973">
        <ele>195.2</ele>
        <time>2022-08-20T13:29:19Z</time>
      </trkpt>
      <trkpt lat="46.61356" lon="5.26948">
        <ele>195.6</ele>
        <time>2022-08-20T13:29:26Z</time>
      </trkpt>
      <trkpt lat="46.61329" lon="5.26927">
        <ele>195.8</ele>
        <time>2022-08-20T13:29:30Z</time>
      </trkpt>
      <trkpt lat="46.61323" lon="5.26924">
        <ele>195.8</ele>
        <time>2022-08-20T13:29:31Z</time>
      </trkpt>
      <trkpt lat="46.61316" lon="5.26925">
        <ele>195.8</ele>
        <time>2022-08-20T13:29:32Z</time>
      </trkpt>
      <trkpt lat="46.61303" lon="5.26932">
        <ele>196</ele>
        <time>2022-08-20T13:29:34Z</time>
      </trkpt>
      <trkpt lat="46.61281" lon="5.26961">
        <ele>196.2</ele>
        <time>2022-08-20T13:29:38Z</time>
      </trkpt>
      <trkpt lat="46.61263" lon="5.26986">
        <ele>196.4</ele>
        <time>2022-08-20T13:29:41Z</time>
      </trkpt>
      <trkpt lat="46.61258" lon="5.26995">
        <ele>196.6</ele>
        <time>2022-08-20T13:29:42Z</time>
      </trkpt>
      <trkpt lat="46.61254" lon="5.27005">
        <ele>196.6</ele>
        <time>2022-08-20T13:29:43Z</time>
      </trkpt>
      <trkpt lat="46.61235" lon="5.27056">
        <ele>196.6</ele>
        <time>2022-08-20T13:29:48Z</time>
      </trkpt>
      <trkpt lat="46.6123" lon="5.27065">
        <ele>196.6</ele>
        <time>2022-08-20T13:29:49Z</time>
      </trkpt>
      <trkpt lat="46.61224" lon="5.27072">
        <ele>196.6</ele>
        <time>2022-08-20T13:29:50Z</time>
      </trkpt>
      <trkpt lat="46.61209" lon="5.27073">
        <ele>196.6</ele>
        <time>2022-08-20T13:29:52Z</time>
      </trkpt>
      <trkpt lat="46.61198" lon="5.27058">
        <ele>196.4</ele>
        <time>2022-08-20T13:29:54Z</time>
      </trkpt>
      <trkpt lat="46.61194" lon="5.27048">
        <ele>196.2</ele>
        <time>2022-08-20T13:29:55Z</time>
      </trkpt>
      <trkpt lat="46.61178" lon="5.27019">
        <ele>195.4</ele>
        <time>2022-08-20T13:29:58Z</time>
      </trkpt>
      <trkpt lat="46.61168" lon="5.27">
        <ele>195</ele>
        <time>2022-08-20T13:30:00Z</time>
      </trkpt>
      <trkpt lat="46.61162" lon="5.26992">
        <ele>195</ele>
        <time>2022-08-20T13:30:01Z</time>
      </trkpt>
      <trkpt lat="46.61129" lon="5.26959">
        <ele>194.6</ele>
        <time>2022-08-20T13:30:06Z</time>
      </trkpt>
      <trkpt lat="46.61117" lon="5.26944">
        <ele>194.6</ele>
        <time>2022-08-20T13:30:08Z</time>
      </trkpt>
      <trkpt lat="46.61108" lon="5.26926">
        <ele>194.6</ele>
        <time>2022-08-20T13:30:10Z</time>
      </trkpt>
      <trkpt lat="46.61084" lon="5.2687">
        <ele>195.2</ele>
        <time>2022-08-20T13:30:16Z</time>
      </trkpt>
      <trkpt lat="46.6106" lon="5.26801">
        <ele>195.4</ele>
        <time>2022-08-20T13:30:23Z</time>
      </trkpt>
      <trkpt lat="46.61054" lon="5.26792">
        <ele>195.4</ele>
        <time>2022-08-20T13:30:24Z</time>
      </trkpt>
      <trkpt lat="46.61036" lon="5.26769">
        <ele>195.4</ele>
        <time>2022-08-20T13:30:27Z</time>
      </trkpt>
      <trkpt lat="46.60987" lon="5.26722">
        <ele>195.6</ele>
        <time>2022-08-20T13:30:35Z</time>
      </trkpt>
      <trkpt lat="46.60945" lon="5.26677">
        <ele>196.4</ele>
        <time>2022-08-20T13:30:43Z</time>
      </trkpt>
      <trkpt lat="46.60937" lon="5.26665">
        <ele>196.6</ele>
        <time>2022-08-20T13:30:45Z</time>
      </trkpt>
      <trkpt lat="46.60929" lon="5.26654">
        <ele>196.8</ele>
        <time>2022-08-20T13:30:47Z</time>
      </trkpt>
      <trkpt lat="46.60924" lon="5.2665">
        <ele>197</ele>
        <time>2022-08-20T13:30:48Z</time>
      </trkpt>
      <trkpt lat="46.6092" lon="5.26647">
        <ele>197</ele>
        <time>2022-08-20T13:30:49Z</time>
      </trkpt>
      <trkpt lat="46.6091" lon="5.26646">
        <ele>197.4</ele>
        <time>2022-08-20T13:30:51Z</time>
      </trkpt>
      <trkpt lat="46.60906" lon="5.26647">
        <ele>197.8</ele>
        <time>2022-08-20T13:30:52Z</time>
      </trkpt>
      <trkpt lat="46.60901" lon="5.26647">
        <ele>198</ele>
        <time>2022-08-20T13:30:53Z</time>
      </trkpt>
      <trkpt lat="46.60892" lon="5.2665">
        <ele>199</ele>
        <time>2022-08-20T13:30:55Z</time>
      </trkpt>
      <trkpt lat="46.60887" lon="5.26652">
        <ele>199.4</ele>
        <time>2022-08-20T13:30:56Z</time>
      </trkpt>
      <trkpt lat="46.60883" lon="5.26652">
        <ele>200</ele>
        <time>2022-08-20T13:30:57Z</time>
      </trkpt>
      <trkpt lat="46.60878" lon="5.26652">
        <ele>200.2</ele>
        <time>2022-08-20T13:30:58Z</time>
      </trkpt>
      <trkpt lat="46.60862" lon="5.26649">
        <ele>201.2</ele>
        <time>2022-08-20T13:31:01Z</time>
      </trkpt>
      <trkpt lat="46.60858" lon="5.26647">
        <ele>201.6</ele>
        <time>2022-08-20T13:31:02Z</time>
      </trkpt>
      <trkpt lat="46.60829" lon="5.26627">
        <ele>202.2</ele>
        <time>2022-08-20T13:31:08Z</time>
      </trkpt>
      <trkpt lat="46.60824" lon="5.26623">
        <ele>202.2</ele>
        <time>2022-08-20T13:31:09Z</time>
      </trkpt>
      <trkpt lat="46.60801" lon="5.26602">
        <ele>202.4</ele>
        <time>2022-08-20T13:31:13Z</time>
      </trkpt>
      <trkpt lat="46.60796" lon="5.26595">
        <ele>202.2</ele>
        <time>2022-08-20T13:31:14Z</time>
      </trkpt>
      <trkpt lat="46.6078" lon="5.26569">
        <ele>202.2</ele>
        <time>2022-08-20T13:31:17Z</time>
      </trkpt>
      <trkpt lat="46.60771" lon="5.26548">
        <ele>201.8</ele>
        <time>2022-08-20T13:31:19Z</time>
      </trkpt>
      <trkpt lat="46.60766" lon="5.26536">
        <ele>201.2</ele>
        <time>2022-08-20T13:31:20Z</time>
      </trkpt>
      <trkpt lat="46.60763" lon="5.26523">
        <ele>200.4</ele>
        <time>2022-08-20T13:31:21Z</time>
      </trkpt>
      <trkpt lat="46.60761" lon="5.2651">
        <ele>200.2</ele>
        <time>2022-08-20T13:31:22Z</time>
      </trkpt>
      <trkpt lat="46.60756" lon="5.26483">
        <ele>199</ele>
        <time>2022-08-20T13:31:24Z</time>
      </trkpt>
      <trkpt lat="46.60746" lon="5.26443">
        <ele>197.8</ele>
        <time>2022-08-20T13:31:27Z</time>
      </trkpt>
      <trkpt lat="46.60722" lon="5.2637">
        <ele>197</ele>
        <time>2022-08-20T13:31:33Z</time>
      </trkpt>
      <trkpt lat="46.60711" lon="5.26335">
        <ele>196.6</ele>
        <time>2022-08-20T13:31:36Z</time>
      </trkpt>
      <trkpt lat="46.60686" lon="5.26256">
        <ele>196</ele>
        <time>2022-08-20T13:31:43Z</time>
      </trkpt>
      <trkpt lat="46.6067" lon="5.26187">
        <ele>195.8</ele>
        <time>2022-08-20T13:31:49Z</time>
      </trkpt>
      <trkpt lat="46.60667" lon="5.26114">
        <ele>196</ele>
        <time>2022-08-20T13:31:55Z</time>
      </trkpt>
      <trkpt lat="46.60671" lon="5.26042">
        <ele>196.4</ele>
        <time>2022-08-20T13:32:01Z</time>
      </trkpt>
      <trkpt lat="46.60672" lon="5.2603">
        <ele>196.4</ele>
        <time>2022-08-20T13:32:02Z</time>
      </trkpt>
      <trkpt lat="46.6067" lon="5.25995">
        <ele>196.4</ele>
        <time>2022-08-20T13:32:05Z</time>
      </trkpt>
      <trkpt lat="46.60664" lon="5.25922">
        <ele>196.6</ele>
        <time>2022-08-20T13:32:12Z</time>
      </trkpt>
      <trkpt lat="46.60664" lon="5.25861">
        <ele>197</ele>
        <time>2022-08-20T13:32:18Z</time>
      </trkpt>
      <trkpt lat="46.60672" lon="5.25809">
        <ele>197.4</ele>
        <time>2022-08-20T13:32:24Z</time>
      </trkpt>
      <trkpt lat="46.60678" lon="5.25787">
        <ele>197.8</ele>
        <time>2022-08-20T13:32:27Z</time>
      </trkpt>
      <trkpt lat="46.60684" lon="5.25766">
        <ele>198.2</ele>
        <time>2022-08-20T13:32:30Z</time>
      </trkpt>
      <trkpt lat="46.60687" lon="5.25753">
        <ele>198.8</ele>
        <time>2022-08-20T13:32:32Z</time>
      </trkpt>
      <trkpt lat="46.6069" lon="5.25741">
        <ele>200</ele>
        <time>2022-08-20T13:32:34Z</time>
      </trkpt>
      <trkpt lat="46.60696" lon="5.25721">
        <ele>201.2</ele>
        <time>2022-08-20T13:32:37Z</time>
      </trkpt>
      <trkpt lat="46.60701" lon="5.25695">
        <ele>202.6</ele>
        <time>2022-08-20T13:32:41Z</time>
      </trkpt>
      <trkpt lat="46.60702" lon="5.25682">
        <ele>203.4</ele>
        <time>2022-08-20T13:32:43Z</time>
      </trkpt>
      <trkpt lat="46.60702" lon="5.25674">
        <ele>203.6</ele>
        <time>2022-08-20T13:32:44Z</time>
      </trkpt>
      <trkpt lat="46.60702" lon="5.25667">
        <ele>204</ele>
        <time>2022-08-20T13:32:45Z</time>
      </trkpt>
      <trkpt lat="46.60696" lon="5.25648">
        <ele>204.6</ele>
        <time>2022-08-20T13:32:48Z</time>
      </trkpt>
      <trkpt lat="46.6069" lon="5.25638">
        <ele>205</ele>
        <time>2022-08-20T13:32:50Z</time>
      </trkpt>
      <trkpt lat="46.60682" lon="5.25633">
        <ele>205.2</ele>
        <time>2022-08-20T13:32:52Z</time>
      </trkpt>
      <trkpt lat="46.60674" lon="5.25627">
        <ele>206</ele>
        <time>2022-08-20T13:32:54Z</time>
      </trkpt>
      <trkpt lat="46.60662" lon="5.25618">
        <ele>207.2</ele>
        <time>2022-08-20T13:32:57Z</time>
      </trkpt>
      <trkpt lat="46.6065" lon="5.25611">
        <ele>207.8</ele>
        <time>2022-08-20T13:33:00Z</time>
      </trkpt>
      <trkpt lat="46.60647" lon="5.25609">
        <ele>208.2</ele>
        <time>2022-08-20T13:33:01Z</time>
      </trkpt>
      <trkpt lat="46.60631" lon="5.25598">
        <ele>209.4</ele>
        <time>2022-08-20T13:33:05Z</time>
      </trkpt>
      <trkpt lat="46.60619" lon="5.2559">
        <ele>210.2</ele>
        <time>2022-08-20T13:33:08Z</time>
      </trkpt>
      <trkpt lat="46.60615" lon="5.25587">
        <ele>210.6</ele>
        <time>2022-08-20T13:33:09Z</time>
      </trkpt>
      <trkpt lat="46.60592" lon="5.25577">
        <ele>211.6</ele>
        <time>2022-08-20T13:33:14Z</time>
      </trkpt>
      <trkpt lat="46.60587" lon="5.25574">
        <ele>211.6</ele>
        <time>2022-08-20T13:33:15Z</time>
      </trkpt>
      <trkpt lat="46.60551" lon="5.25551">
        <ele>211.8</ele>
        <time>2022-08-20T13:33:21Z</time>
      </trkpt>
      <trkpt lat="46.60514" lon="5.25539">
        <ele>211</ele>
        <time>2022-08-20T13:33:27Z</time>
      </trkpt>
      <trkpt lat="46.60487" lon="5.25533">
        <ele>211.8</ele>
        <time>2022-08-20T13:33:32Z</time>
      </trkpt>
      <trkpt lat="46.60472" lon="5.25528">
        <ele>212.8</ele>
        <time>2022-08-20T13:33:35Z</time>
      </trkpt>
      <trkpt lat="46.60452" lon="5.25523">
        <ele>213.8</ele>
        <time>2022-08-20T13:33:39Z</time>
      </trkpt>
      <trkpt lat="46.60447" lon="5.25522">
        <ele>214</ele>
        <time>2022-08-20T13:33:40Z</time>
      </trkpt>
      <trkpt lat="46.60419" lon="5.25515">
        <ele>214.8</ele>
        <time>2022-08-20T13:33:45Z</time>
      </trkpt>
      <trkpt lat="46.60411" lon="5.25514">
        <ele>215.2</ele>
        <time>2022-08-20T13:33:46Z</time>
      </trkpt>
      <trkpt lat="46.60387" lon="5.25509">
        <ele>215.8</ele>
        <time>2022-08-20T13:33:50Z</time>
      </trkpt>
      <trkpt lat="46.60382" lon="5.25508">
        <ele>216</ele>
        <time>2022-08-20T13:33:51Z</time>
      </trkpt>
      <trkpt lat="46.60332" lon="5.25494">
        <ele>216.4</ele>
        <time>2022-08-20T13:33:59Z</time>
      </trkpt>
      <trkpt lat="46.60287" lon="5.25481">
        <ele>216</ele>
        <time>2022-08-20T13:34:06Z</time>
      </trkpt>
      <trkpt lat="46.60249" lon="5.25464">
        <ele>215.4</ele>
        <time>2022-08-20T13:34:12Z</time>
      </trkpt>
      <trkpt lat="46.60236" lon="5.25458">
        <ele>215.4</ele>
        <time>2022-08-20T13:34:14Z</time>
      </trkpt>
      <trkpt lat="46.6018" lon="5.2543">
        <ele>215.4</ele>
        <time>2022-08-20T13:34:23Z</time>
      </trkpt>
      <trkpt lat="46.60126" lon="5.25409">
        <ele>216</ele>
        <time>2022-08-20T13:34:31Z</time>
      </trkpt>
      <trkpt lat="46.60069" lon="5.25398">
        <ele>216.2</ele>
        <time>2022-08-20T13:34:39Z</time>
      </trkpt>
      <trkpt lat="46.60041" lon="5.25382">
        <ele>216.2</ele>
        <time>2022-08-20T13:34:43Z</time>
      </trkpt>
      <trkpt lat="46.60005" lon="5.25343">
        <ele>215.6</ele>
        <time>2022-08-20T13:34:49Z</time>
      </trkpt>
      <trkpt lat="46.59964" lon="5.25279">
        <ele>216</ele>
        <time>2022-08-20T13:34:57Z</time>
      </trkpt>
      <trkpt lat="46.59931" lon="5.25208">
        <ele>216.2</ele>
        <time>2022-08-20T13:35:05Z</time>
      </trkpt>
      <trkpt lat="46.59898" lon="5.25136">
        <ele>216</ele>
        <time>2022-08-20T13:35:13Z</time>
      </trkpt>
      <trkpt lat="46.59893" lon="5.25127">
        <ele>215.8</ele>
        <time>2022-08-20T13:35:14Z</time>
      </trkpt>
      <trkpt lat="46.59864" lon="5.25065">
        <ele>216</ele>
        <time>2022-08-20T13:35:21Z</time>
      </trkpt>
      <trkpt lat="46.59841" lon="5.25014">
        <ele>216.6</ele>
        <time>2022-08-20T13:35:27Z</time>
      </trkpt>
      <trkpt lat="46.59836" lon="5.25005">
        <ele>216.6</ele>
        <time>2022-08-20T13:35:28Z</time>
      </trkpt>
      <trkpt lat="46.59824" lon="5.24985">
        <ele>216.6</ele>
        <time>2022-08-20T13:35:31Z</time>
      </trkpt>
      <trkpt lat="46.59817" lon="5.24963">
        <ele>217</ele>
        <time>2022-08-20T13:35:34Z</time>
      </trkpt>
      <trkpt lat="46.59813" lon="5.24956">
        <ele>217</ele>
        <time>2022-08-20T13:35:35Z</time>
      </trkpt>
      <trkpt lat="46.59809" lon="5.24952">
        <ele>217.2</ele>
        <time>2022-08-20T13:35:36Z</time>
      </trkpt>
      <trkpt lat="46.59796" lon="5.24942">
        <ele>217.4</ele>
        <time>2022-08-20T13:35:38Z</time>
      </trkpt>
      <trkpt lat="46.59775" lon="5.24927">
        <ele>217.6</ele>
        <time>2022-08-20T13:35:41Z</time>
      </trkpt>
      <trkpt lat="46.59756" lon="5.24915">
        <ele>217.6</ele>
        <time>2022-08-20T13:35:44Z</time>
      </trkpt>
      <trkpt lat="46.59747" lon="5.24911">
        <ele>217.6</ele>
        <time>2022-08-20T13:35:45Z</time>
      </trkpt>
      <trkpt lat="46.59718" lon="5.24903">
        <ele>217.4</ele>
        <time>2022-08-20T13:35:49Z</time>
      </trkpt>
      <trkpt lat="46.59664" lon="5.24882">
        <ele>217.4</ele>
        <time>2022-08-20T13:35:56Z</time>
      </trkpt>
      <trkpt lat="46.59624" lon="5.24851">
        <ele>217.2</ele>
        <time>2022-08-20T13:36:02Z</time>
      </trkpt>
      <trkpt lat="46.59579" lon="5.24804">
        <ele>217</ele>
        <time>2022-08-20T13:36:09Z</time>
      </trkpt>
      <trkpt lat="46.5956" lon="5.24786">
        <ele>217</ele>
        <time>2022-08-20T13:36:12Z</time>
      </trkpt>
      <trkpt lat="46.59519" lon="5.24761">
        <ele>217</ele>
        <time>2022-08-20T13:36:18Z</time>
      </trkpt>
      <trkpt lat="46.5946" lon="5.24741">
        <ele>217</ele>
        <time>2022-08-20T13:36:26Z</time>
      </trkpt>
      <trkpt lat="46.5944" lon="5.24734">
        <ele>216.8</ele>
        <time>2022-08-20T13:36:29Z</time>
      </trkpt>
      <trkpt lat="46.59388" lon="5.24714">
        <ele>216.8</ele>
        <time>2022-08-20T13:36:36Z</time>
      </trkpt>
      <trkpt lat="46.59335" lon="5.24696">
        <ele>217.6</ele>
        <time>2022-08-20T13:36:43Z</time>
      </trkpt>
      <trkpt lat="46.5932" lon="5.24691">
        <ele>217.8</ele>
        <time>2022-08-20T13:36:45Z</time>
      </trkpt>
      <trkpt lat="46.59268" lon="5.24673">
        <ele>218</ele>
        <time>2022-08-20T13:36:52Z</time>
      </trkpt>
      <trkpt lat="46.59216" lon="5.24662">
        <ele>218</ele>
        <time>2022-08-20T13:36:59Z</time>
      </trkpt>
      <trkpt lat="46.59186" lon="5.24669">
        <ele>218.2</ele>
        <time>2022-08-20T13:37:03Z</time>
      </trkpt>
      <trkpt lat="46.5918" lon="5.24671">
        <ele>218.2</ele>
        <time>2022-08-20T13:37:04Z</time>
      </trkpt>
      <trkpt lat="46.59121" lon="5.24695">
        <ele>218.8</ele>
        <time>2022-08-20T13:37:12Z</time>
      </trkpt>
      <trkpt lat="46.5909" lon="5.24708">
        <ele>219</ele>
        <time>2022-08-20T13:37:16Z</time>
      </trkpt>
      <trkpt lat="46.59038" lon="5.2473">
        <ele>218.4</ele>
        <time>2022-08-20T13:37:23Z</time>
      </trkpt>
      <trkpt lat="46.59007" lon="5.24743">
        <ele>218.6</ele>
        <time>2022-08-20T13:37:27Z</time>
      </trkpt>
      <trkpt lat="46.58977" lon="5.24755">
        <ele>218.8</ele>
        <time>2022-08-20T13:37:31Z</time>
      </trkpt>
      <trkpt lat="46.58946" lon="5.24768">
        <ele>218.8</ele>
        <time>2022-08-20T13:37:35Z</time>
      </trkpt>
      <trkpt lat="46.58893" lon="5.24791">
        <ele>219</ele>
        <time>2022-08-20T13:37:42Z</time>
      </trkpt>
      <trkpt lat="46.58863" lon="5.24803">
        <ele>219</ele>
        <time>2022-08-20T13:37:46Z</time>
      </trkpt>
      <trkpt lat="46.58809" lon="5.24826">
        <ele>218.8</ele>
        <time>2022-08-20T13:37:53Z</time>
      </trkpt>
      <trkpt lat="46.58784" lon="5.24837">
        <ele>218.8</ele>
        <time>2022-08-20T13:37:56Z</time>
      </trkpt>
      <trkpt lat="46.58739" lon="5.24855">
        <ele>218.2</ele>
        <time>2022-08-20T13:38:01Z</time>
      </trkpt>
      <trkpt lat="46.58699" lon="5.24871">
        <ele>216.8</ele>
        <time>2022-08-20T13:38:05Z</time>
      </trkpt>
      <trkpt lat="46.58668" lon="5.24884">
        <ele>215.6</ele>
        <time>2022-08-20T13:38:08Z</time>
      </trkpt>
      <trkpt lat="46.58637" lon="5.24897">
        <ele>214</ele>
        <time>2022-08-20T13:38:11Z</time>
      </trkpt>
      <trkpt lat="46.58615" lon="5.24906">
        <ele>212.8</ele>
        <time>2022-08-20T13:38:13Z</time>
      </trkpt>
      <trkpt lat="46.58592" lon="5.24915">
        <ele>211.6</ele>
        <time>2022-08-20T13:38:16Z</time>
      </trkpt>
      <trkpt lat="46.58579" lon="5.24921">
        <ele>210.2</ele>
        <time>2022-08-20T13:38:17Z</time>
      </trkpt>
      <trkpt lat="46.58567" lon="5.24926">
        <ele>209.6</ele>
        <time>2022-08-20T13:38:18Z</time>
      </trkpt>
      <trkpt lat="46.58556" lon="5.24931">
        <ele>209</ele>
        <time>2022-08-20T13:38:19Z</time>
      </trkpt>
      <trkpt lat="46.58544" lon="5.24936">
        <ele>208</ele>
        <time>2022-08-20T13:38:20Z</time>
      </trkpt>
      <trkpt lat="46.58532" lon="5.24941">
        <ele>207.6</ele>
        <time>2022-08-20T13:38:21Z</time>
      </trkpt>
      <trkpt lat="46.58509" lon="5.24951">
        <ele>206.2</ele>
        <time>2022-08-20T13:38:23Z</time>
      </trkpt>
      <trkpt lat="46.58498" lon="5.24955">
        <ele>205.2</ele>
        <time>2022-08-20T13:38:24Z</time>
      </trkpt>
      <trkpt lat="46.58462" lon="5.2497">
        <ele>203.8</ele>
        <time>2022-08-20T13:38:27Z</time>
      </trkpt>
      <trkpt lat="46.58451" lon="5.24975">
        <ele>203.6</ele>
        <time>2022-08-20T13:38:28Z</time>
      </trkpt>
      <trkpt lat="46.58439" lon="5.2498">
        <ele>202.4</ele>
        <time>2022-08-20T13:38:29Z</time>
      </trkpt>
      <trkpt lat="46.58415" lon="5.2499">
        <ele>201</ele>
        <time>2022-08-20T13:38:31Z</time>
      </trkpt>
      <trkpt lat="46.58379" lon="5.25005">
        <ele>199.4</ele>
        <time>2022-08-20T13:38:34Z</time>
      </trkpt>
      <trkpt lat="46.58343" lon="5.2502">
        <ele>198.6</ele>
        <time>2022-08-20T13:38:37Z</time>
      </trkpt>
      <trkpt lat="46.58332" lon="5.25024">
        <ele>198</ele>
        <time>2022-08-20T13:38:38Z</time>
      </trkpt>
      <trkpt lat="46.58278" lon="5.25047">
        <ele>197.4</ele>
        <time>2022-08-20T13:38:43Z</time>
      </trkpt>
      <trkpt lat="46.58222" lon="5.2507">
        <ele>198</ele>
        <time>2022-08-20T13:38:49Z</time>
      </trkpt>
      <trkpt lat="46.58162" lon="5.25091">
        <ele>198.6</ele>
        <time>2022-08-20T13:38:56Z</time>
      </trkpt>
      <trkpt lat="46.58137" lon="5.25093">
        <ele>199</ele>
        <time>2022-08-20T13:38:59Z</time>
      </trkpt>
      <trkpt lat="46.58103" lon="5.25092">
        <ele>199.6</ele>
        <time>2022-08-20T13:39:03Z</time>
      </trkpt>
      <trkpt lat="46.58051" lon="5.25088">
        <ele>200</ele>
        <time>2022-08-20T13:39:09Z</time>
      </trkpt>
      <trkpt lat="46.58017" lon="5.25087">
        <ele>200</ele>
        <time>2022-08-20T13:39:13Z</time>
      </trkpt>
      <trkpt lat="46.5796" lon="5.25092">
        <ele>200</ele>
        <time>2022-08-20T13:39:20Z</time>
      </trkpt>
      <trkpt lat="46.57952" lon="5.25093">
        <ele>200</ele>
        <time>2022-08-20T13:39:21Z</time>
      </trkpt>
      <trkpt lat="46.57892" lon="5.25095">
        <ele>201.2</ele>
        <time>2022-08-20T13:39:29Z</time>
      </trkpt>
      <trkpt lat="46.57884" lon="5.25095">
        <ele>201.2</ele>
        <time>2022-08-20T13:39:30Z</time>
      </trkpt>
      <trkpt lat="46.57832" lon="5.25093">
        <ele>202.4</ele>
        <time>2022-08-20T13:39:37Z</time>
      </trkpt>
      <trkpt lat="46.5778" lon="5.25093">
        <ele>203.4</ele>
        <time>2022-08-20T13:39:44Z</time>
      </trkpt>
      <trkpt lat="46.57718" lon="5.25091">
        <ele>204.4</ele>
        <time>2022-08-20T13:39:52Z</time>
      </trkpt>
      <trkpt lat="46.5771" lon="5.25092">
        <ele>204.4</ele>
        <time>2022-08-20T13:39:53Z</time>
      </trkpt>
      <trkpt lat="46.57702" lon="5.25093">
        <ele>204.4</ele>
        <time>2022-08-20T13:39:54Z</time>
      </trkpt>
      <trkpt lat="46.57685" lon="5.25097">
        <ele>204.6</ele>
        <time>2022-08-20T13:39:56Z</time>
      </trkpt>
      <trkpt lat="46.57669" lon="5.25104">
        <ele>204.6</ele>
        <time>2022-08-20T13:39:58Z</time>
      </trkpt>
      <trkpt lat="46.57626" lon="5.25131">
        <ele>203.2</ele>
        <time>2022-08-20T13:40:03Z</time>
      </trkpt>
      <trkpt lat="46.57617" lon="5.25135">
        <ele>203</ele>
        <time>2022-08-20T13:40:04Z</time>
      </trkpt>
      <trkpt lat="46.57596" lon="5.25139">
        <ele>201.8</ele>
        <time>2022-08-20T13:40:06Z</time>
      </trkpt>
      <trkpt lat="46.57588" lon="5.25138">
        <ele>201.2</ele>
        <time>2022-08-20T13:40:07Z</time>
      </trkpt>
      <trkpt lat="46.57569" lon="5.25134">
        <ele>200.6</ele>
        <time>2022-08-20T13:40:09Z</time>
      </trkpt>
      <trkpt lat="46.5755" lon="5.25125">
        <ele>200.2</ele>
        <time>2022-08-20T13:40:11Z</time>
      </trkpt>
      <trkpt lat="46.57541" lon="5.25119">
        <ele>199.6</ele>
        <time>2022-08-20T13:40:12Z</time>
      </trkpt>
      <trkpt lat="46.57533" lon="5.25111">
        <ele>199.4</ele>
        <time>2022-08-20T13:40:13Z</time>
      </trkpt>
      <trkpt lat="46.57516" lon="5.25091">
        <ele>198.2</ele>
        <time>2022-08-20T13:40:15Z</time>
      </trkpt>
      <trkpt lat="46.57493" lon="5.25048">
        <ele>197.2</ele>
        <time>2022-08-20T13:40:19Z</time>
      </trkpt>
      <trkpt lat="46.57488" lon="5.25037">
        <ele>196.8</ele>
        <time>2022-08-20T13:40:20Z</time>
      </trkpt>
      <trkpt lat="46.57469" lon="5.24992">
        <ele>196.2</ele>
        <time>2022-08-20T13:40:24Z</time>
      </trkpt>
      <trkpt lat="46.5745" lon="5.24948">
        <ele>196.2</ele>
        <time>2022-08-20T13:40:28Z</time>
      </trkpt>
      <trkpt lat="46.57415" lon="5.24874">
        <ele>196.4</ele>
        <time>2022-08-20T13:40:35Z</time>
      </trkpt>
      <trkpt lat="46.57411" lon="5.24864">
        <ele>196.4</ele>
        <time>2022-08-20T13:40:36Z</time>
      </trkpt>
      <trkpt lat="46.57378" lon="5.24792">
        <ele>196.6</ele>
        <time>2022-08-20T13:40:43Z</time>
      </trkpt>
      <trkpt lat="46.57352" lon="5.24764">
        <ele>196.8</ele>
        <time>2022-08-20T13:40:47Z</time>
      </trkpt>
      <trkpt lat="46.5731" lon="5.24722">
        <ele>197</ele>
        <time>2022-08-20T13:40:53Z</time>
      </trkpt>
      <trkpt lat="46.57305" lon="5.24716">
        <ele>196.8</ele>
        <time>2022-08-20T13:40:54Z</time>
      </trkpt>
      <trkpt lat="46.57296" lon="5.24695">
        <ele>196.8</ele>
        <time>2022-08-20T13:40:56Z</time>
      </trkpt>
      <trkpt lat="46.57288" lon="5.24671">
        <ele>196.4</ele>
        <time>2022-08-20T13:40:58Z</time>
      </trkpt>
      <trkpt lat="46.57278" lon="5.24654">
        <ele>196.4</ele>
        <time>2022-08-20T13:41:00Z</time>
      </trkpt>
      <trkpt lat="46.57264" lon="5.24648">
        <ele>196.4</ele>
        <time>2022-08-20T13:41:02Z</time>
      </trkpt>
      <trkpt lat="46.57257" lon="5.24649">
        <ele>196.4</ele>
        <time>2022-08-20T13:41:03Z</time>
      </trkpt>
      <trkpt lat="46.5722" lon="5.24666">
        <ele>196.4</ele>
        <time>2022-08-20T13:41:08Z</time>
      </trkpt>
      <trkpt lat="46.57163" lon="5.24685">
        <ele>196.6</ele>
        <time>2022-08-20T13:41:15Z</time>
      </trkpt>
      <trkpt lat="46.57125" lon="5.24689">
        <ele>197</ele>
        <time>2022-08-20T13:41:20Z</time>
      </trkpt>
      <trkpt lat="46.57111" lon="5.24687">
        <ele>197.6</ele>
        <time>2022-08-20T13:41:22Z</time>
      </trkpt>
      <trkpt lat="46.57097" lon="5.24683">
        <ele>198.2</ele>
        <time>2022-08-20T13:41:24Z</time>
      </trkpt>
      <trkpt lat="46.5709" lon="5.2468">
        <ele>198.6</ele>
        <time>2022-08-20T13:41:25Z</time>
      </trkpt>
      <trkpt lat="46.57069" lon="5.24673">
        <ele>199.2</ele>
        <time>2022-08-20T13:41:28Z</time>
      </trkpt>
      <trkpt lat="46.57045" lon="5.24665">
        <ele>200.2</ele>
        <time>2022-08-20T13:41:32Z</time>
      </trkpt>
      <trkpt lat="46.57033" lon="5.2466">
        <ele>200.4</ele>
        <time>2022-08-20T13:41:34Z</time>
      </trkpt>
      <trkpt lat="46.57004" lon="5.2465">
        <ele>201.6</ele>
        <time>2022-08-20T13:41:39Z</time>
      </trkpt>
      <trkpt lat="46.56982" lon="5.24642">
        <ele>202.2</ele>
        <time>2022-08-20T13:41:43Z</time>
      </trkpt>
      <trkpt lat="46.56965" lon="5.24636">
        <ele>203</ele>
        <time>2022-08-20T13:41:46Z</time>
      </trkpt>
      <trkpt lat="46.56928" lon="5.24623">
        <ele>204</ele>
        <time>2022-08-20T13:41:53Z</time>
      </trkpt>
      <trkpt lat="46.56923" lon="5.24621">
        <ele>204.2</ele>
        <time>2022-08-20T13:41:54Z</time>
      </trkpt>
      <trkpt lat="46.56889" lon="5.2461">
        <ele>205</ele>
        <time>2022-08-20T13:42:00Z</time>
      </trkpt>
      <trkpt lat="46.56862" lon="5.24601">
        <ele>206</ele>
        <time>2022-08-20T13:42:05Z</time>
      </trkpt>
      <trkpt lat="46.56856" lon="5.24599">
        <ele>206</ele>
        <time>2022-08-20T13:42:06Z</time>
      </trkpt>
      <trkpt lat="46.56809" lon="5.24581">
        <ele>207.2</ele>
        <time>2022-08-20T13:42:14Z</time>
      </trkpt>
      <trkpt lat="46.56756" lon="5.24562">
        <ele>207.4</ele>
        <time>2022-08-20T13:42:23Z</time>
      </trkpt>
      <trkpt lat="46.56739" lon="5.24556">
        <ele>208</ele>
        <time>2022-08-20T13:42:26Z</time>
      </trkpt>
      <trkpt lat="46.56728" lon="5.24552">
        <ele>208.2</ele>
        <time>2022-08-20T13:42:28Z</time>
      </trkpt>
      <trkpt lat="46.56701" lon="5.24542">
        <ele>209.4</ele>
        <time>2022-08-20T13:42:33Z</time>
      </trkpt>
      <trkpt lat="46.56685" lon="5.24538">
        <ele>209.6</ele>
        <time>2022-08-20T13:42:36Z</time>
      </trkpt>
      <trkpt lat="46.56659" lon="5.24529">
        <ele>210.4</ele>
        <time>2022-08-20T13:42:41Z</time>
      </trkpt>
      <trkpt lat="46.56649" lon="5.24525">
        <ele>210.8</ele>
        <time>2022-08-20T13:42:43Z</time>
      </trkpt>
      <trkpt lat="46.56629" lon="5.24517">
        <ele>211.6</ele>
        <time>2022-08-20T13:42:47Z</time>
      </trkpt>
      <trkpt lat="46.5661" lon="5.24509">
        <ele>212.8</ele>
        <time>2022-08-20T13:42:51Z</time>
      </trkpt>
      <trkpt lat="46.56605" lon="5.24507">
        <ele>213</ele>
        <time>2022-08-20T13:42:52Z</time>
      </trkpt>
      <trkpt lat="46.56586" lon="5.245">
        <ele>214</ele>
        <time>2022-08-20T13:42:56Z</time>
      </trkpt>
      <trkpt lat="46.56581" lon="5.24498">
        <ele>214</ele>
        <time>2022-08-20T13:42:57Z</time>
      </trkpt>
      <trkpt lat="46.56564" lon="5.24494">
        <ele>214.6</ele>
        <time>2022-08-20T13:43:00Z</time>
      </trkpt>
      <trkpt lat="46.56548" lon="5.24488">
        <ele>215.2</ele>
        <time>2022-08-20T13:43:03Z</time>
      </trkpt>
      <trkpt lat="46.56526" lon="5.24481">
        <ele>215.6</ele>
        <time>2022-08-20T13:43:07Z</time>
      </trkpt>
      <trkpt lat="46.56487" lon="5.24468">
        <ele>216.2</ele>
        <time>2022-08-20T13:43:14Z</time>
      </trkpt>
      <trkpt lat="46.56481" lon="5.24466">
        <ele>216.2</ele>
        <time>2022-08-20T13:43:15Z</time>
      </trkpt>
      <trkpt lat="46.56442" lon="5.24453">
        <ele>217.4</ele>
        <time>2022-08-20T13:43:22Z</time>
      </trkpt>
      <trkpt lat="46.56416" lon="5.24444">
        <ele>217.8</ele>
        <time>2022-08-20T13:43:27Z</time>
      </trkpt>
      <trkpt lat="46.56377" lon="5.24432">
        <ele>218.4</ele>
        <time>2022-08-20T13:43:34Z</time>
      </trkpt>
      <trkpt lat="46.56356" lon="5.24424">
        <ele>219.2</ele>
        <time>2022-08-20T13:43:38Z</time>
      </trkpt>
      <trkpt lat="46.56345" lon="5.2442">
        <ele>219.4</ele>
        <time>2022-08-20T13:43:40Z</time>
      </trkpt>
      <trkpt lat="46.563" lon="5.24405">
        <ele>220.6</ele>
        <time>2022-08-20T13:43:48Z</time>
      </trkpt>
      <trkpt lat="46.56281" lon="5.24399">
        <ele>220.8</ele>
        <time>2022-08-20T13:43:51Z</time>
      </trkpt>
      <trkpt lat="46.56223" lon="5.24378">
        <ele>221.4</ele>
        <time>2022-08-20T13:44:00Z</time>
      </trkpt>
      <trkpt lat="46.56169" lon="5.24359">
        <ele>221.2</ele>
        <time>2022-08-20T13:44:08Z</time>
      </trkpt>
      <trkpt lat="46.56148" lon="5.24352">
        <ele>221.2</ele>
        <time>2022-08-20T13:44:11Z</time>
      </trkpt>
      <trkpt lat="46.56091" lon="5.24332">
        <ele>220.8</ele>
        <time>2022-08-20T13:44:19Z</time>
      </trkpt>
      <trkpt lat="46.56068" lon="5.24325">
        <ele>220.8</ele>
        <time>2022-08-20T13:44:22Z</time>
      </trkpt>
      <trkpt lat="46.56061" lon="5.24323">
        <ele>221</ele>
        <time>2022-08-20T13:44:23Z</time>
      </trkpt>
      <trkpt lat="46.56019" lon="5.24309">
        <ele>221</ele>
        <time>2022-08-20T13:44:29Z</time>
      </trkpt>
      <trkpt lat="46.5597" lon="5.24303">
        <ele>220.8</ele>
        <time>2022-08-20T13:44:35Z</time>
      </trkpt>
      <trkpt lat="46.55945" lon="5.24283">
        <ele>220.4</ele>
        <time>2022-08-20T13:44:39Z</time>
      </trkpt>
      <trkpt lat="46.55933" lon="5.2427">
        <ele>219.6</ele>
        <time>2022-08-20T13:44:41Z</time>
      </trkpt>
      <trkpt lat="46.5593" lon="5.24257">
        <ele>219.6</ele>
        <time>2022-08-20T13:44:42Z</time>
      </trkpt>
      <trkpt lat="46.5593" lon="5.24201">
        <ele>219.4</ele>
        <time>2022-08-20T13:44:46Z</time>
      </trkpt>
      <trkpt lat="46.55919" lon="5.2412">
        <ele>219.8</ele>
        <time>2022-08-20T13:44:53Z</time>
      </trkpt>
      <trkpt lat="46.559" lon="5.24047">
        <ele>220.2</ele>
        <time>2022-08-20T13:45:00Z</time>
      </trkpt>
      <trkpt lat="46.55883" lon="5.23985">
        <ele>220.6</ele>
        <time>2022-08-20T13:45:06Z</time>
      </trkpt>
      <trkpt lat="46.5588" lon="5.23976">
        <ele>220.4</ele>
        <time>2022-08-20T13:45:07Z</time>
      </trkpt>
      <trkpt lat="46.55864" lon="5.2394">
        <ele>220.4</ele>
        <time>2022-08-20T13:45:11Z</time>
      </trkpt>
      <trkpt lat="46.55859" lon="5.23933">
        <ele>220.8</ele>
        <time>2022-08-20T13:45:12Z</time>
      </trkpt>
      <trkpt lat="46.55853" lon="5.23926">
        <ele>221.2</ele>
        <time>2022-08-20T13:45:13Z</time>
      </trkpt>
      <trkpt lat="46.55841" lon="5.23913">
        <ele>221.8</ele>
        <time>2022-08-20T13:45:15Z</time>
      </trkpt>
      <trkpt lat="46.55828" lon="5.23904">
        <ele>221</ele>
        <time>2022-08-20T13:45:17Z</time>
      </trkpt>
      <trkpt lat="46.55796" lon="5.23882">
        <ele>220.6</ele>
        <time>2022-08-20T13:45:22Z</time>
      </trkpt>
      <trkpt lat="46.55759" lon="5.23853">
        <ele>220.4</ele>
        <time>2022-08-20T13:45:28Z</time>
      </trkpt>
      <trkpt lat="46.55723" lon="5.23827">
        <ele>220.4</ele>
        <time>2022-08-20T13:45:34Z</time>
      </trkpt>
      <trkpt lat="46.5571" lon="5.23821">
        <ele>220.6</ele>
        <time>2022-08-20T13:45:36Z</time>
      </trkpt>
      <trkpt lat="46.55696" lon="5.23817">
        <ele>220.6</ele>
        <time>2022-08-20T13:45:38Z</time>
      </trkpt>
      <trkpt lat="46.55689" lon="5.23817">
        <ele>220.6</ele>
        <time>2022-08-20T13:45:39Z</time>
      </trkpt>
      <trkpt lat="46.55662" lon="5.23816">
        <ele>220.4</ele>
        <time>2022-08-20T13:45:42Z</time>
      </trkpt>
      <trkpt lat="46.55623" lon="5.23819">
        <ele>219.8</ele>
        <time>2022-08-20T13:45:46Z</time>
      </trkpt>
      <trkpt lat="46.5561" lon="5.2382">
        <ele>219.2</ele>
        <time>2022-08-20T13:45:47Z</time>
      </trkpt>
      <trkpt lat="46.55591" lon="5.2382">
        <ele>218.8</ele>
        <time>2022-08-20T13:45:49Z</time>
      </trkpt>
      <trkpt lat="46.55558" lon="5.23814">
        <ele>217.2</ele>
        <time>2022-08-20T13:45:52Z</time>
      </trkpt>
      <trkpt lat="46.55546" lon="5.23812">
        <ele>216.6</ele>
        <time>2022-08-20T13:45:53Z</time>
      </trkpt>
      <trkpt lat="46.55535" lon="5.23808">
        <ele>215.4</ele>
        <time>2022-08-20T13:45:54Z</time>
      </trkpt>
      <trkpt lat="46.55514" lon="5.23798">
        <ele>214</ele>
        <time>2022-08-20T13:45:56Z</time>
      </trkpt>
      <trkpt lat="46.55503" lon="5.23791">
        <ele>213.8</ele>
        <time>2022-08-20T13:45:57Z</time>
      </trkpt>
      <trkpt lat="46.55483" lon="5.23778">
        <ele>212.8</ele>
        <time>2022-08-20T13:45:59Z</time>
      </trkpt>
      <trkpt lat="46.55475" lon="5.23772">
        <ele>211.8</ele>
        <time>2022-08-20T13:46:00Z</time>
      </trkpt>
      <trkpt lat="46.55465" lon="5.23765">
        <ele>210.4</ele>
        <time>2022-08-20T13:46:01Z</time>
      </trkpt>
      <trkpt lat="46.55445" lon="5.23751">
        <ele>209</ele>
        <time>2022-08-20T13:46:03Z</time>
      </trkpt>
      <trkpt lat="46.55435" lon="5.23744">
        <ele>208.8</ele>
        <time>2022-08-20T13:46:04Z</time>
      </trkpt>
      <trkpt lat="46.55416" lon="5.2373">
        <ele>207.8</ele>
        <time>2022-08-20T13:46:06Z</time>
      </trkpt>
      <trkpt lat="46.55396" lon="5.23716">
        <ele>205.8</ele>
        <time>2022-08-20T13:46:08Z</time>
      </trkpt>
      <trkpt lat="46.55359" lon="5.2369">
        <ele>205</ele>
        <time>2022-08-20T13:46:12Z</time>
      </trkpt>
      <trkpt lat="46.55317" lon="5.23657">
        <ele>205</ele>
        <time>2022-08-20T13:46:17Z</time>
      </trkpt>
      <trkpt lat="46.55269" lon="5.23618">
        <ele>205.2</ele>
        <time>2022-08-20T13:46:23Z</time>
      </trkpt>
      <trkpt lat="46.55246" lon="5.23599">
        <ele>205.2</ele>
        <time>2022-08-20T13:46:26Z</time>
      </trkpt>
      <trkpt lat="46.5521" lon="5.23569">
        <ele>205.6</ele>
        <time>2022-08-20T13:46:31Z</time>
      </trkpt>
      <trkpt lat="46.55164" lon="5.23531">
        <ele>206.2</ele>
        <time>2022-08-20T13:46:38Z</time>
      </trkpt>
      <trkpt lat="46.55112" lon="5.23486">
        <ele>206.6</ele>
        <time>2022-08-20T13:46:46Z</time>
      </trkpt>
      <trkpt lat="46.55064" lon="5.2343">
        <ele>206.6</ele>
        <time>2022-08-20T13:46:54Z</time>
      </trkpt>
      <trkpt lat="46.55058" lon="5.23423">
        <ele>206.4</ele>
        <time>2022-08-20T13:46:55Z</time>
      </trkpt>
      <trkpt lat="46.55034" lon="5.23388">
        <ele>206</ele>
        <time>2022-08-20T13:46:59Z</time>
      </trkpt>
      <trkpt lat="46.55031" lon="5.2338">
        <ele>206</ele>
        <time>2022-08-20T13:47:00Z</time>
      </trkpt>
      <trkpt lat="46.55013" lon="5.23324">
        <ele>204.8</ele>
        <time>2022-08-20T13:47:05Z</time>
      </trkpt>
      <trkpt lat="46.55007" lon="5.23303">
        <ele>204.6</ele>
        <time>2022-08-20T13:47:07Z</time>
      </trkpt>
      <trkpt lat="46.54994" lon="5.23257">
        <ele>204.6</ele>
        <time>2022-08-20T13:47:12Z</time>
      </trkpt>
      <trkpt lat="46.54982" lon="5.23225">
        <ele>205.8</ele>
        <time>2022-08-20T13:47:16Z</time>
      </trkpt>
      <trkpt lat="46.54975" lon="5.23211">
        <ele>206.2</ele>
        <time>2022-08-20T13:47:18Z</time>
      </trkpt>
      <trkpt lat="46.54971" lon="5.23205">
        <ele>206.4</ele>
        <time>2022-08-20T13:47:19Z</time>
      </trkpt>
      <trkpt lat="46.54958" lon="5.2319">
        <ele>206.8</ele>
        <time>2022-08-20T13:47:22Z</time>
      </trkpt>
      <trkpt lat="46.54954" lon="5.23185">
        <ele>207.4</ele>
        <time>2022-08-20T13:47:23Z</time>
      </trkpt>
      <trkpt lat="46.54942" lon="5.23172">
        <ele>208.6</ele>
        <time>2022-08-20T13:47:26Z</time>
      </trkpt>
      <trkpt lat="46.54925" lon="5.23156">
        <ele>209.8</ele>
        <time>2022-08-20T13:47:30Z</time>
      </trkpt>
      <trkpt lat="46.54902" lon="5.23133">
        <ele>211.2</ele>
        <time>2022-08-20T13:47:36Z</time>
      </trkpt>
      <trkpt lat="46.54894" lon="5.23125">
        <ele>211.4</ele>
        <time>2022-08-20T13:47:38Z</time>
      </trkpt>
      <trkpt lat="46.54882" lon="5.23113">
        <ele>212.4</ele>
        <time>2022-08-20T13:47:41Z</time>
      </trkpt>
      <trkpt lat="46.54869" lon="5.23101">
        <ele>213.4</ele>
        <time>2022-08-20T13:47:45Z</time>
      </trkpt>
      <trkpt lat="46.54861" lon="5.23095">
        <ele>213.8</ele>
        <time>2022-08-20T13:47:47Z</time>
      </trkpt>
      <trkpt lat="46.54847" lon="5.23082">
        <ele>214.4</ele>
        <time>2022-08-20T13:47:51Z</time>
      </trkpt>
      <trkpt lat="46.54832" lon="5.23069">
        <ele>215.6</ele>
        <time>2022-08-20T13:47:55Z</time>
      </trkpt>
      <trkpt lat="46.54827" lon="5.23064">
        <ele>215.8</ele>
        <time>2022-08-20T13:47:56Z</time>
      </trkpt>
      <trkpt lat="46.54812" lon="5.23049">
        <ele>216.6</ele>
        <time>2022-08-20T13:48:00Z</time>
      </trkpt>
      <trkpt lat="46.54804" lon="5.23042">
        <ele>217</ele>
        <time>2022-08-20T13:48:02Z</time>
      </trkpt>
      <trkpt lat="46.5479" lon="5.23028">
        <ele>217.6</ele>
        <time>2022-08-20T13:48:05Z</time>
      </trkpt>
      <trkpt lat="46.54754" lon="5.22992">
        <ele>217.6</ele>
        <time>2022-08-20T13:48:12Z</time>
      </trkpt>
      <trkpt lat="46.54717" lon="5.22955">
        <ele>217.4</ele>
        <time>2022-08-20T13:48:19Z</time>
      </trkpt>
      <trkpt lat="46.54686" lon="5.22932">
        <ele>217.8</ele>
        <time>2022-08-20T13:48:25Z</time>
      </trkpt>
      <trkpt lat="46.54642" lon="5.22909">
        <ele>218.8</ele>
        <time>2022-08-20T13:48:33Z</time>
      </trkpt>
      <trkpt lat="46.54631" lon="5.22903">
        <ele>218.8</ele>
        <time>2022-08-20T13:48:35Z</time>
      </trkpt>
      <trkpt lat="46.54625" lon="5.229">
        <ele>219</ele>
        <time>2022-08-20T13:48:36Z</time>
      </trkpt>
      <trkpt lat="46.54582" lon="5.22877">
        <ele>220</ele>
        <time>2022-08-20T13:48:44Z</time>
      </trkpt>
      <trkpt lat="46.54576" lon="5.22874">
        <ele>220</ele>
        <time>2022-08-20T13:48:45Z</time>
      </trkpt>
      <trkpt lat="46.54532" lon="5.22848">
        <ele>220.4</ele>
        <time>2022-08-20T13:48:52Z</time>
      </trkpt>
      <trkpt lat="46.5452" lon="5.22836">
        <ele>220.2</ele>
        <time>2022-08-20T13:48:54Z</time>
      </trkpt>
      <trkpt lat="46.54511" lon="5.22822">
        <ele>220</ele>
        <time>2022-08-20T13:48:56Z</time>
      </trkpt>
      <trkpt lat="46.54474" lon="5.2275">
        <ele>219.4</ele>
        <time>2022-08-20T13:49:04Z</time>
      </trkpt>
      <trkpt lat="46.54442" lon="5.22702">
        <ele>219.4</ele>
        <time>2022-08-20T13:49:10Z</time>
      </trkpt>
      <trkpt lat="46.54394" lon="5.22654">
        <ele>219.2</ele>
        <time>2022-08-20T13:49:17Z</time>
      </trkpt>
      <trkpt lat="46.54349" lon="5.22609">
        <ele>219</ele>
        <time>2022-08-20T13:49:24Z</time>
      </trkpt>
      <trkpt lat="46.54335" lon="5.22595">
        <ele>219</ele>
        <time>2022-08-20T13:49:26Z</time>
      </trkpt>
      <trkpt lat="46.5429" lon="5.22551">
        <ele>219.6</ele>
        <time>2022-08-20T13:49:33Z</time>
      </trkpt>
      <trkpt lat="46.54284" lon="5.22544">
        <ele>219.6</ele>
        <time>2022-08-20T13:49:34Z</time>
      </trkpt>
      <trkpt lat="46.54276" lon="5.22529">
        <ele>219.4</ele>
        <time>2022-08-20T13:49:36Z</time>
      </trkpt>
      <trkpt lat="46.54269" lon="5.22507">
        <ele>219.2</ele>
        <time>2022-08-20T13:49:38Z</time>
      </trkpt>
      <trkpt lat="46.54267" lon="5.22486">
        <ele>218.8</ele>
        <time>2022-08-20T13:49:40Z</time>
      </trkpt>
      <trkpt lat="46.54268" lon="5.22461">
        <ele>218.4</ele>
        <time>2022-08-20T13:49:42Z</time>
      </trkpt>
      <trkpt lat="46.54272" lon="5.22401">
        <ele>217.8</ele>
        <time>2022-08-20T13:49:47Z</time>
      </trkpt>
      <trkpt lat="46.54272" lon="5.22375">
        <ele>217.4</ele>
        <time>2022-08-20T13:49:49Z</time>
      </trkpt>
      <trkpt lat="46.54273" lon="5.22361">
        <ele>216.6</ele>
        <time>2022-08-20T13:49:50Z</time>
      </trkpt>
      <trkpt lat="46.54274" lon="5.22304">
        <ele>214.8</ele>
        <time>2022-08-20T13:49:54Z</time>
      </trkpt>
      <trkpt lat="46.54275" lon="5.22275">
        <ele>214.2</ele>
        <time>2022-08-20T13:49:56Z</time>
      </trkpt>
      <trkpt lat="46.54276" lon="5.22247">
        <ele>213.6</ele>
        <time>2022-08-20T13:49:58Z</time>
      </trkpt>
      <trkpt lat="46.54277" lon="5.22207">
        <ele>212.2</ele>
        <time>2022-08-20T13:50:01Z</time>
      </trkpt>
      <trkpt lat="46.54278" lon="5.22167">
        <ele>211.6</ele>
        <time>2022-08-20T13:50:04Z</time>
      </trkpt>
      <trkpt lat="46.54277" lon="5.22142">
        <ele>211.4</ele>
        <time>2022-08-20T13:50:06Z</time>
      </trkpt>
      <trkpt lat="46.54272" lon="5.22118">
        <ele>211.2</ele>
        <time>2022-08-20T13:50:08Z</time>
      </trkpt>
      <trkpt lat="46.54261" lon="5.22086">
        <ele>211.2</ele>
        <time>2022-08-20T13:50:11Z</time>
      </trkpt>
      <trkpt lat="46.54257" lon="5.22076">
        <ele>211.2</ele>
        <time>2022-08-20T13:50:12Z</time>
      </trkpt>
      <trkpt lat="46.54236" lon="5.22033">
        <ele>212</ele>
        <time>2022-08-20T13:50:17Z</time>
      </trkpt>
      <trkpt lat="46.54221" lon="5.22003">
        <ele>213.4</ele>
        <time>2022-08-20T13:50:21Z</time>
      </trkpt>
      <trkpt lat="46.54204" lon="5.21965">
        <ele>214.4</ele>
        <time>2022-08-20T13:50:26Z</time>
      </trkpt>
      <trkpt lat="46.54201" lon="5.21958">
        <ele>214.4</ele>
        <time>2022-08-20T13:50:27Z</time>
      </trkpt>
      <trkpt lat="46.54178" lon="5.21903">
        <ele>215.4</ele>
        <time>2022-08-20T13:50:34Z</time>
      </trkpt>
      <trkpt lat="46.54175" lon="5.21895">
        <ele>215.6</ele>
        <time>2022-08-20T13:50:35Z</time>
      </trkpt>
      <trkpt lat="46.54165" lon="5.21859">
        <ele>215.6</ele>
        <time>2022-08-20T13:50:39Z</time>
      </trkpt>
      <trkpt lat="46.5416" lon="5.21842">
        <ele>216</ele>
        <time>2022-08-20T13:50:41Z</time>
      </trkpt>
      <trkpt lat="46.54158" lon="5.21833">
        <ele>216</ele>
        <time>2022-08-20T13:50:42Z</time>
      </trkpt>
      <trkpt lat="46.54153" lon="5.21815">
        <ele>216.4</ele>
        <time>2022-08-20T13:50:44Z</time>
      </trkpt>
      <trkpt lat="46.54144" lon="5.21789">
        <ele>216.6</ele>
        <time>2022-08-20T13:50:47Z</time>
      </trkpt>
      <trkpt lat="46.54136" lon="5.21763">
        <ele>217</ele>
        <time>2022-08-20T13:50:50Z</time>
      </trkpt>
      <trkpt lat="46.54113" lon="5.21691">
        <ele>217</ele>
        <time>2022-08-20T13:50:58Z</time>
      </trkpt>
      <trkpt lat="46.54106" lon="5.21673">
        <ele>216.6</ele>
        <time>2022-08-20T13:51:00Z</time>
      </trkpt>
      <trkpt lat="46.54096" lon="5.21658">
        <ele>216.4</ele>
        <time>2022-08-20T13:51:02Z</time>
      </trkpt>
      <trkpt lat="46.54059" lon="5.21623">
        <ele>216.4</ele>
        <time>2022-08-20T13:51:08Z</time>
      </trkpt>
      <trkpt lat="46.54013" lon="5.21579">
        <ele>216.2</ele>
        <time>2022-08-20T13:51:15Z</time>
      </trkpt>
      <trkpt lat="46.54006" lon="5.21572">
        <ele>216.4</ele>
        <time>2022-08-20T13:51:16Z</time>
      </trkpt>
      <trkpt lat="46.53956" lon="5.21525">
        <ele>217</ele>
        <time>2022-08-20T13:51:24Z</time>
      </trkpt>
      <trkpt lat="46.53945" lon="5.21513">
        <ele>217.4</ele>
        <time>2022-08-20T13:51:26Z</time>
      </trkpt>
      <trkpt lat="46.53899" lon="5.21457">
        <ele>218</ele>
        <time>2022-08-20T13:51:34Z</time>
      </trkpt>
      <trkpt lat="46.53857" lon="5.21392">
        <ele>218.2</ele>
        <time>2022-08-20T13:51:42Z</time>
      </trkpt>
      <trkpt lat="46.53852" lon="5.21384">
        <ele>218.2</ele>
        <time>2022-08-20T13:51:43Z</time>
      </trkpt>
      <trkpt lat="46.53824" lon="5.2134">
        <ele>218.2</ele>
        <time>2022-08-20T13:51:49Z</time>
      </trkpt>
      <trkpt lat="46.53818" lon="5.21332">
        <ele>218.2</ele>
        <time>2022-08-20T13:51:50Z</time>
      </trkpt>
      <trkpt lat="46.53795" lon="5.21298">
        <ele>218.4</ele>
        <time>2022-08-20T13:51:55Z</time>
      </trkpt>
      <trkpt lat="46.5379" lon="5.21289">
        <ele>218.4</ele>
        <time>2022-08-20T13:51:56Z</time>
      </trkpt>
      <trkpt lat="46.53781" lon="5.21276">
        <ele>218.4</ele>
        <time>2022-08-20T13:51:58Z</time>
      </trkpt>
      <trkpt lat="46.53771" lon="5.21259">
        <ele>218.6</ele>
        <time>2022-08-20T13:52:00Z</time>
      </trkpt>
      <trkpt lat="46.53761" lon="5.21245">
        <ele>218.8</ele>
        <time>2022-08-20T13:52:02Z</time>
      </trkpt>
      <trkpt lat="46.53741" lon="5.21216">
        <ele>218.8</ele>
        <time>2022-08-20T13:52:06Z</time>
      </trkpt>
      <trkpt lat="46.53736" lon="5.21209">
        <ele>218.8</ele>
        <time>2022-08-20T13:52:07Z</time>
      </trkpt>
      <trkpt lat="46.5373" lon="5.21202">
        <ele>218.8</ele>
        <time>2022-08-20T13:52:08Z</time>
      </trkpt>
      <trkpt lat="46.53707" lon="5.21174">
        <ele>218.6</ele>
        <time>2022-08-20T13:52:12Z</time>
      </trkpt>
      <trkpt lat="46.53693" lon="5.21158">
        <ele>218.6</ele>
        <time>2022-08-20T13:52:14Z</time>
      </trkpt>
      <trkpt lat="46.53681" lon="5.21145">
        <ele>218.4</ele>
        <time>2022-08-20T13:52:16Z</time>
      </trkpt>
      <trkpt lat="46.53673" lon="5.21138">
        <ele>218.2</ele>
        <time>2022-08-20T13:52:17Z</time>
      </trkpt>
      <trkpt lat="46.53631" lon="5.21102">
        <ele>218</ele>
        <time>2022-08-20T13:52:23Z</time>
      </trkpt>
      <trkpt lat="46.53624" lon="5.21095">
        <ele>218.2</ele>
        <time>2022-08-20T13:52:24Z</time>
      </trkpt>
      <trkpt lat="46.53608" lon="5.21069">
        <ele>218.2</ele>
        <time>2022-08-20T13:52:27Z</time>
      </trkpt>
      <trkpt lat="46.53591" lon="5.21029">
        <ele>218.2</ele>
        <time>2022-08-20T13:52:31Z</time>
      </trkpt>
      <trkpt lat="46.53589" lon="5.21018">
        <ele>218.2</ele>
        <time>2022-08-20T13:52:32Z</time>
      </trkpt>
      <trkpt lat="46.53588" lon="5.21006">
        <ele>218</ele>
        <time>2022-08-20T13:52:33Z</time>
      </trkpt>
      <trkpt lat="46.5359" lon="5.20983">
        <ele>218</ele>
        <time>2022-08-20T13:52:35Z</time>
      </trkpt>
      <trkpt lat="46.53591" lon="5.20929">
        <ele>217.6</ele>
        <time>2022-08-20T13:52:40Z</time>
      </trkpt>
      <trkpt lat="46.53582" lon="5.20874">
        <ele>217.4</ele>
        <time>2022-08-20T13:52:45Z</time>
      </trkpt>
      <trkpt lat="46.53575" lon="5.20841">
        <ele>217.4</ele>
        <time>2022-08-20T13:52:48Z</time>
      </trkpt>
      <trkpt lat="46.53565" lon="5.20823">
        <ele>217.4</ele>
        <time>2022-08-20T13:52:50Z</time>
      </trkpt>
      <trkpt lat="46.53545" lon="5.20803">
        <ele>217.4</ele>
        <time>2022-08-20T13:52:53Z</time>
      </trkpt>
      <trkpt lat="46.53538" lon="5.20798">
        <ele>217.4</ele>
        <time>2022-08-20T13:52:54Z</time>
      </trkpt>
      <trkpt lat="46.5353" lon="5.20793">
        <ele>217.4</ele>
        <time>2022-08-20T13:52:55Z</time>
      </trkpt>
      <trkpt lat="46.535" lon="5.20771">
        <ele>217</ele>
        <time>2022-08-20T13:52:59Z</time>
      </trkpt>
      <trkpt lat="46.53492" lon="5.20764">
        <ele>217</ele>
        <time>2022-08-20T13:53:00Z</time>
      </trkpt>
      <trkpt lat="46.53465" lon="5.20733">
        <ele>216.2</ele>
        <time>2022-08-20T13:53:04Z</time>
      </trkpt>
      <trkpt lat="46.53438" lon="5.20703">
        <ele>215.8</ele>
        <time>2022-08-20T13:53:08Z</time>
      </trkpt>
      <trkpt lat="46.53409" lon="5.2067">
        <ele>215.2</ele>
        <time>2022-08-20T13:53:13Z</time>
      </trkpt>
      <trkpt lat="46.53404" lon="5.20666">
        <ele>215</ele>
        <time>2022-08-20T13:53:14Z</time>
      </trkpt>
      <trkpt lat="46.53399" lon="5.20665">
        <ele>214.8</ele>
        <time>2022-08-20T13:53:15Z</time>
      </trkpt>
      <trkpt lat="46.53394" lon="5.20668">
        <ele>214.6</ele>
        <time>2022-08-20T13:53:16Z</time>
      </trkpt>
      <trkpt lat="46.53386" lon="5.20682">
        <ele>214.2</ele>
        <time>2022-08-20T13:53:18Z</time>
      </trkpt>
      <trkpt lat="46.53365" lon="5.20727">
        <ele>214</ele>
        <time>2022-08-20T13:53:23Z</time>
      </trkpt>
      <trkpt lat="46.53336" lon="5.20765">
        <ele>214</ele>
        <time>2022-08-20T13:53:28Z</time>
      </trkpt>
      <trkpt lat="46.53292" lon="5.20797">
        <ele>213.8</ele>
        <time>2022-08-20T13:53:34Z</time>
      </trkpt>
      <trkpt lat="46.53248" lon="5.20817">
        <ele>214</ele>
        <time>2022-08-20T13:53:40Z</time>
      </trkpt>
      <trkpt lat="46.53195" lon="5.20829">
        <ele>214.6</ele>
        <time>2022-08-20T13:53:47Z</time>
      </trkpt>
      <trkpt lat="46.5318" lon="5.20836">
        <ele>214.8</ele>
        <time>2022-08-20T13:53:49Z</time>
      </trkpt>
      <trkpt lat="46.53143" lon="5.20865">
        <ele>214.6</ele>
        <time>2022-08-20T13:53:54Z</time>
      </trkpt>
      <trkpt lat="46.53109" lon="5.20909">
        <ele>213.8</ele>
        <time>2022-08-20T13:53:59Z</time>
      </trkpt>
      <trkpt lat="46.5309" lon="5.2094">
        <ele>213</ele>
        <time>2022-08-20T13:54:02Z</time>
      </trkpt>
      <trkpt lat="46.53054" lon="5.20987">
        <ele>212.2</ele>
        <time>2022-08-20T13:54:07Z</time>
      </trkpt>
      <trkpt lat="46.5304" lon="5.20998">
        <ele>211.8</ele>
        <time>2022-08-20T13:54:09Z</time>
      </trkpt>
      <trkpt lat="46.53023" lon="5.21009">
        <ele>211.8</ele>
        <time>2022-08-20T13:54:11Z</time>
      </trkpt>
      <trkpt lat="46.53014" lon="5.21014">
        <ele>211.6</ele>
        <time>2022-08-20T13:54:12Z</time>
      </trkpt>
      <trkpt lat="46.52957" lon="5.21044">
        <ele>212</ele>
        <time>2022-08-20T13:54:19Z</time>
      </trkpt>
      <trkpt lat="46.52942" lon="5.21052">
        <ele>212.2</ele>
        <time>2022-08-20T13:54:21Z</time>
      </trkpt>
      <trkpt lat="46.52911" lon="5.21067">
        <ele>213.2</ele>
        <time>2022-08-20T13:54:25Z</time>
      </trkpt>
      <trkpt lat="46.52879" lon="5.21084">
        <ele>213.4</ele>
        <time>2022-08-20T13:54:29Z</time>
      </trkpt>
      <trkpt lat="46.52819" lon="5.21109">
        <ele>212.8</ele>
        <time>2022-08-20T13:54:36Z</time>
      </trkpt>
      <trkpt lat="46.52758" lon="5.21125">
        <ele>212.2</ele>
        <time>2022-08-20T13:54:43Z</time>
      </trkpt>
      <trkpt lat="46.52733" lon="5.21131">
        <ele>212.2</ele>
        <time>2022-08-20T13:54:46Z</time>
      </trkpt>
      <trkpt lat="46.52675" lon="5.21147">
        <ele>212.8</ele>
        <time>2022-08-20T13:54:53Z</time>
      </trkpt>
      <trkpt lat="46.52659" lon="5.2115">
        <ele>213</ele>
        <time>2022-08-20T13:54:55Z</time>
      </trkpt>
      <trkpt lat="46.52605" lon="5.21167">
        <ele>213.6</ele>
        <time>2022-08-20T13:55:02Z</time>
      </trkpt>
      <trkpt lat="46.52596" lon="5.21181">
        <ele>213.8</ele>
        <time>2022-08-20T13:55:04Z</time>
      </trkpt>
      <trkpt lat="46.52594" lon="5.21191">
        <ele>213.8</ele>
        <time>2022-08-20T13:55:05Z</time>
      </trkpt>
      <trkpt lat="46.52594" lon="5.21201">
        <ele>213.8</ele>
        <time>2022-08-20T13:55:06Z</time>
      </trkpt>
      <trkpt lat="46.52597" lon="5.21222">
        <ele>214</ele>
        <time>2022-08-20T13:55:08Z</time>
      </trkpt>
      <trkpt lat="46.52602" lon="5.21252">
        <ele>214.2</ele>
        <time>2022-08-20T13:55:11Z</time>
      </trkpt>
      <trkpt lat="46.52609" lon="5.21292">
        <ele>214.8</ele>
        <time>2022-08-20T13:55:15Z</time>
      </trkpt>
      <trkpt lat="46.52615" lon="5.21331">
        <ele>215.4</ele>
        <time>2022-08-20T13:55:19Z</time>
      </trkpt>
      <trkpt lat="46.52624" lon="5.21387">
        <ele>216.4</ele>
        <time>2022-08-20T13:55:25Z</time>
      </trkpt>
      <trkpt lat="46.52626" lon="5.21396">
        <ele>216.8</ele>
        <time>2022-08-20T13:55:26Z</time>
      </trkpt>
      <trkpt lat="46.52636" lon="5.21455">
        <ele>217.8</ele>
        <time>2022-08-20T13:55:32Z</time>
      </trkpt>
      <trkpt lat="46.52638" lon="5.21464">
        <ele>217.8</ele>
        <time>2022-08-20T13:55:33Z</time>
      </trkpt>
      <trkpt lat="46.52652" lon="5.2154">
        <ele>218.6</ele>
        <time>2022-08-20T13:55:41Z</time>
      </trkpt>
      <trkpt lat="46.52655" lon="5.21559">
        <ele>218.8</ele>
        <time>2022-08-20T13:55:43Z</time>
      </trkpt>
      <trkpt lat="46.52667" lon="5.21636">
        <ele>219</ele>
        <time>2022-08-20T13:55:51Z</time>
      </trkpt>
      <trkpt lat="46.52671" lon="5.21664">
        <ele>219</ele>
        <time>2022-08-20T13:55:54Z</time>
      </trkpt>
      <trkpt lat="46.52685" lon="5.21742">
        <ele>219.2</ele>
        <time>2022-08-20T13:56:02Z</time>
      </trkpt>
      <trkpt lat="46.5269" lon="5.21774">
        <ele>219.2</ele>
        <time>2022-08-20T13:56:05Z</time>
      </trkpt>
      <trkpt lat="46.52703" lon="5.21858">
        <ele>219.2</ele>
        <time>2022-08-20T13:56:13Z</time>
      </trkpt>
      <trkpt lat="46.52716" lon="5.21943">
        <ele>219</ele>
        <time>2022-08-20T13:56:21Z</time>
      </trkpt>
      <trkpt lat="46.52719" lon="5.21965">
        <ele>219</ele>
        <time>2022-08-20T13:56:23Z</time>
      </trkpt>
      <trkpt lat="46.52726" lon="5.22022">
        <ele>218.4</ele>
        <time>2022-08-20T13:56:28Z</time>
      </trkpt>
      <trkpt lat="46.52726" lon="5.22046">
        <ele>218</ele>
        <time>2022-08-20T13:56:30Z</time>
      </trkpt>
      <trkpt lat="46.52724" lon="5.22072">
        <ele>217.6</ele>
        <time>2022-08-20T13:56:32Z</time>
      </trkpt>
      <trkpt lat="46.52721" lon="5.22087">
        <ele>217.6</ele>
        <time>2022-08-20T13:56:33Z</time>
      </trkpt>
      <trkpt lat="46.52719" lon="5.221">
        <ele>217.2</ele>
        <time>2022-08-20T13:56:34Z</time>
      </trkpt>
      <trkpt lat="46.52713" lon="5.22127">
        <ele>216.4</ele>
        <time>2022-08-20T13:56:36Z</time>
      </trkpt>
      <trkpt lat="46.52703" lon="5.22169">
        <ele>215</ele>
        <time>2022-08-20T13:56:39Z</time>
      </trkpt>
      <trkpt lat="46.527" lon="5.22183">
        <ele>214.4</ele>
        <time>2022-08-20T13:56:40Z</time>
      </trkpt>
      <trkpt lat="46.52696" lon="5.22198">
        <ele>213.4</ele>
        <time>2022-08-20T13:56:41Z</time>
      </trkpt>
      <trkpt lat="46.52689" lon="5.22227">
        <ele>212</ele>
        <time>2022-08-20T13:56:43Z</time>
      </trkpt>
      <trkpt lat="46.52683" lon="5.22252">
        <ele>211</ele>
        <time>2022-08-20T13:56:45Z</time>
      </trkpt>
      <trkpt lat="46.52672" lon="5.22298">
        <ele>209.6</ele>
        <time>2022-08-20T13:56:48Z</time>
      </trkpt>
      <trkpt lat="46.52658" lon="5.22355">
        <ele>208.4</ele>
        <time>2022-08-20T13:56:52Z</time>
      </trkpt>
      <trkpt lat="46.52645" lon="5.22412">
        <ele>207.4</ele>
        <time>2022-08-20T13:56:56Z</time>
      </trkpt>
      <trkpt lat="46.52641" lon="5.22426">
        <ele>207</ele>
        <time>2022-08-20T13:56:57Z</time>
      </trkpt>
      <trkpt lat="46.5263" lon="5.22466">
        <ele>206.2</ele>
        <time>2022-08-20T13:57:00Z</time>
      </trkpt>
      <trkpt lat="46.52621" lon="5.22518">
        <ele>205.8</ele>
        <time>2022-08-20T13:57:04Z</time>
      </trkpt>
      <trkpt lat="46.52615" lon="5.22591">
        <ele>206.2</ele>
        <time>2022-08-20T13:57:10Z</time>
      </trkpt>
      <trkpt lat="46.52611" lon="5.22639">
        <ele>206.4</ele>
        <time>2022-08-20T13:57:14Z</time>
      </trkpt>
      <trkpt lat="46.5261" lon="5.22716">
        <ele>207.2</ele>
        <time>2022-08-20T13:57:20Z</time>
      </trkpt>
      <trkpt lat="46.52609" lon="5.22802">
        <ele>207.2</ele>
        <time>2022-08-20T13:57:27Z</time>
      </trkpt>
      <trkpt lat="46.52609" lon="5.22812">
        <ele>207.2</ele>
        <time>2022-08-20T13:57:28Z</time>
      </trkpt>
      <trkpt lat="46.52608" lon="5.22891">
        <ele>207.2</ele>
        <time>2022-08-20T13:57:35Z</time>
      </trkpt>
      <trkpt lat="46.52608" lon="5.22902">
        <ele>207.4</ele>
        <time>2022-08-20T13:57:36Z</time>
      </trkpt>
      <trkpt lat="46.52608" lon="5.22953">
        <ele>208</ele>
        <time>2022-08-20T13:57:41Z</time>
      </trkpt>
      <trkpt lat="46.52608" lon="5.22971">
        <ele>208.4</ele>
        <time>2022-08-20T13:57:43Z</time>
      </trkpt>
      <trkpt lat="46.52607" lon="5.22999">
        <ele>209.4</ele>
        <time>2022-08-20T13:57:46Z</time>
      </trkpt>
      <trkpt lat="46.52606" lon="5.23008">
        <ele>209.6</ele>
        <time>2022-08-20T13:57:47Z</time>
      </trkpt>
      <trkpt lat="46.52603" lon="5.23051">
        <ele>210.6</ele>
        <time>2022-08-20T13:57:52Z</time>
      </trkpt>
      <trkpt lat="46.52601" lon="5.23059">
        <ele>210.8</ele>
        <time>2022-08-20T13:57:53Z</time>
      </trkpt>
      <trkpt lat="46.52592" lon="5.23081">
        <ele>212</ele>
        <time>2022-08-20T13:57:56Z</time>
      </trkpt>
      <trkpt lat="46.52585" lon="5.23094">
        <ele>213.2</ele>
        <time>2022-08-20T13:57:58Z</time>
      </trkpt>
      <trkpt lat="46.52575" lon="5.23117">
        <ele>214.4</ele>
        <time>2022-08-20T13:58:01Z</time>
      </trkpt>
      <trkpt lat="46.52572" lon="5.23124">
        <ele>214.6</ele>
        <time>2022-08-20T13:58:02Z</time>
      </trkpt>
      <trkpt lat="46.52562" lon="5.23144">
        <ele>215.2</ele>
        <time>2022-08-20T13:58:05Z</time>
      </trkpt>
      <trkpt lat="46.52556" lon="5.23157">
        <ele>215.4</ele>
        <time>2022-08-20T13:58:07Z</time>
      </trkpt>
      <trkpt lat="46.52548" lon="5.23174">
        <ele>216.2</ele>
        <time>2022-08-20T13:58:10Z</time>
      </trkpt>
      <trkpt lat="46.52541" lon="5.23187">
        <ele>216.6</ele>
        <time>2022-08-20T13:58:12Z</time>
      </trkpt>
      <trkpt lat="46.52532" lon="5.23209">
        <ele>217</ele>
        <time>2022-08-20T13:58:15Z</time>
      </trkpt>
      <trkpt lat="46.52526" lon="5.23221">
        <ele>217.6</ele>
        <time>2022-08-20T13:58:17Z</time>
      </trkpt>
      <trkpt lat="46.52522" lon="5.23236">
        <ele>218.4</ele>
        <time>2022-08-20T13:58:19Z</time>
      </trkpt>
      <trkpt lat="46.52519" lon="5.23242">
        <ele>218.6</ele>
        <time>2022-08-20T13:58:20Z</time>
      </trkpt>
      <trkpt lat="46.52518" lon="5.23248">
        <ele>219</ele>
        <time>2022-08-20T13:58:21Z</time>
      </trkpt>
      <trkpt lat="46.52513" lon="5.23264">
        <ele>219</ele>
        <time>2022-08-20T13:58:23Z</time>
      </trkpt>
      <trkpt lat="46.52511" lon="5.2327">
        <ele>219.2</ele>
        <time>2022-08-20T13:58:24Z</time>
      </trkpt>
      <trkpt lat="46.52499" lon="5.23303">
        <ele>220</ele>
        <time>2022-08-20T13:58:28Z</time>
      </trkpt>
      <trkpt lat="46.52488" lon="5.23328">
        <ele>220</ele>
        <time>2022-08-20T13:58:31Z</time>
      </trkpt>
      <trkpt lat="46.52464" lon="5.23388">
        <ele>220</ele>
        <time>2022-08-20T13:58:38Z</time>
      </trkpt>
      <trkpt lat="46.52437" lon="5.23452">
        <ele>219.4</ele>
        <time>2022-08-20T13:58:45Z</time>
      </trkpt>
      <trkpt lat="46.52419" lon="5.23501">
        <ele>219.2</ele>
        <time>2022-08-20T13:58:50Z</time>
      </trkpt>
      <trkpt lat="46.52416" lon="5.23512">
        <ele>219.2</ele>
        <time>2022-08-20T13:58:51Z</time>
      </trkpt>
      <trkpt lat="46.52415" lon="5.23523">
        <ele>219.2</ele>
        <time>2022-08-20T13:58:52Z</time>
      </trkpt>
      <trkpt lat="46.52415" lon="5.23547">
        <ele>218.8</ele>
        <time>2022-08-20T13:58:54Z</time>
      </trkpt>
      <trkpt lat="46.52417" lon="5.23561">
        <ele>218.8</ele>
        <time>2022-08-20T13:58:55Z</time>
      </trkpt>
      <trkpt lat="46.5242" lon="5.23572">
        <ele>218.6</ele>
        <time>2022-08-20T13:58:56Z</time>
      </trkpt>
      <trkpt lat="46.52431" lon="5.23616">
        <ele>218.4</ele>
        <time>2022-08-20T13:59:00Z</time>
      </trkpt>
      <trkpt lat="46.52448" lon="5.23686">
        <ele>218.4</ele>
        <time>2022-08-20T13:59:06Z</time>
      </trkpt>
      <trkpt lat="46.52467" lon="5.23761">
        <ele>218.6</ele>
        <time>2022-08-20T13:59:13Z</time>
      </trkpt>
      <trkpt lat="46.52475" lon="5.23792">
        <ele>218.8</ele>
        <time>2022-08-20T13:59:16Z</time>
      </trkpt>
      <trkpt lat="46.52492" lon="5.23864">
        <ele>219.6</ele>
        <time>2022-08-20T13:59:23Z</time>
      </trkpt>
      <trkpt lat="46.52498" lon="5.23928">
        <ele>219.8</ele>
        <time>2022-08-20T13:59:29Z</time>
      </trkpt>
      <trkpt lat="46.52495" lon="5.2396">
        <ele>219.8</ele>
        <time>2022-08-20T13:59:32Z</time>
      </trkpt>
      <trkpt lat="46.52489" lon="5.24002">
        <ele>220.4</ele>
        <time>2022-08-20T13:59:36Z</time>
      </trkpt>
      <trkpt lat="46.5248" lon="5.24062">
        <ele>221</ele>
        <time>2022-08-20T13:59:42Z</time>
      </trkpt>
      <trkpt lat="46.52474" lon="5.241">
        <ele>221.2</ele>
        <time>2022-08-20T13:59:46Z</time>
      </trkpt>
      <trkpt lat="46.52469" lon="5.24116">
        <ele>221.4</ele>
        <time>2022-08-20T13:59:49Z</time>
      </trkpt>
      <trkpt lat="46.52464" lon="5.2412">
        <ele>221.6</ele>
        <time>2022-08-20T13:59:51Z</time>
      </trkpt>
      <trkpt lat="46.5246" lon="5.2412">
        <ele>221.6</ele>
        <time>2022-08-20T13:59:52Z</time>
      </trkpt>
      <trkpt lat="46.52456" lon="5.24119">
        <ele>221.6</ele>
        <time>2022-08-20T13:59:53Z</time>
      </trkpt>
      <trkpt lat="46.52439" lon="5.24115">
        <ele>221.4</ele>
        <time>2022-08-20T13:59:56Z</time>
      </trkpt>
      <trkpt lat="46.52397" lon="5.24104">
        <ele>221.2</ele>
        <time>2022-08-20T14:00:02Z</time>
      </trkpt>
      <trkpt lat="46.52368" lon="5.24095">
        <ele>221</ele>
        <time>2022-08-20T14:00:06Z</time>
      </trkpt>
      <trkpt lat="46.52363" lon="5.24088">
        <ele>221</ele>
        <time>2022-08-20T14:00:07Z</time>
      </trkpt>
      <trkpt lat="46.52359" lon="5.2408">
        <ele>220.8</ele>
        <time>2022-08-20T14:00:08Z</time>
      </trkpt>
      <trkpt lat="46.52352" lon="5.24062">
        <ele>220.6</ele>
        <time>2022-08-20T14:00:10Z</time>
      </trkpt>
      <trkpt lat="46.52322" lon="5.23988">
        <ele>220.2</ele>
        <time>2022-08-20T14:00:18Z</time>
      </trkpt>
      <trkpt lat="46.52319" lon="5.23981">
        <ele>220.2</ele>
        <time>2022-08-20T14:00:19Z</time>
      </trkpt>
      <trkpt lat="46.52292" lon="5.23915">
        <ele>220.6</ele>
        <time>2022-08-20T14:00:26Z</time>
      </trkpt>
      <trkpt lat="46.52262" lon="5.23864">
        <ele>220.6</ele>
        <time>2022-08-20T14:00:32Z</time>
      </trkpt>
      <trkpt lat="46.52226" lon="5.23808">
        <ele>220.4</ele>
        <time>2022-08-20T14:00:39Z</time>
      </trkpt>
      <trkpt lat="46.52188" lon="5.23749">
        <ele>220.2</ele>
        <time>2022-08-20T14:00:46Z</time>
      </trkpt>
      <trkpt lat="46.52177" lon="5.23732">
        <ele>220</ele>
        <time>2022-08-20T14:00:48Z</time>
      </trkpt>
      <trkpt lat="46.5215" lon="5.23692">
        <ele>220.4</ele>
        <time>2022-08-20T14:00:53Z</time>
      </trkpt>
      <trkpt lat="46.52132" lon="5.23672">
        <ele>220.4</ele>
        <time>2022-08-20T14:00:56Z</time>
      </trkpt>
      <trkpt lat="46.52118" lon="5.23664">
        <ele>220.2</ele>
        <time>2022-08-20T14:00:58Z</time>
      </trkpt>
      <trkpt lat="46.52111" lon="5.23663">
        <ele>220.4</ele>
        <time>2022-08-20T14:00:59Z</time>
      </trkpt>
      <trkpt lat="46.52103" lon="5.23662">
        <ele>220.4</ele>
        <time>2022-08-20T14:01:00Z</time>
      </trkpt>
      <trkpt lat="46.5207" lon="5.23666">
        <ele>220.6</ele>
        <time>2022-08-20T14:01:04Z</time>
      </trkpt>
      <trkpt lat="46.52028" lon="5.23674">
        <ele>220.2</ele>
        <time>2022-08-20T14:01:09Z</time>
      </trkpt>
      <trkpt lat="46.51977" lon="5.23689">
        <ele>220.2</ele>
        <time>2022-08-20T14:01:15Z</time>
      </trkpt>
      <trkpt lat="46.51949" lon="5.23694">
        <ele>220</ele>
        <time>2022-08-20T14:01:18Z</time>
      </trkpt>
      <trkpt lat="46.51931" lon="5.23695">
        <ele>220.2</ele>
        <time>2022-08-20T14:01:20Z</time>
      </trkpt>
      <trkpt lat="46.51896" lon="5.23699">
        <ele>220</ele>
        <time>2022-08-20T14:01:24Z</time>
      </trkpt>
      <trkpt lat="46.51869" lon="5.23702">
        <ele>219.8</ele>
        <time>2022-08-20T14:01:27Z</time>
      </trkpt>
      <trkpt lat="46.51807" lon="5.23712">
        <ele>219.8</ele>
        <time>2022-08-20T14:01:34Z</time>
      </trkpt>
      <trkpt lat="46.51799" lon="5.23713">
        <ele>220</ele>
        <time>2022-08-20T14:01:35Z</time>
      </trkpt>
      <trkpt lat="46.51739" lon="5.23723">
        <ele>220.4</ele>
        <time>2022-08-20T14:01:42Z</time>
      </trkpt>
      <trkpt lat="46.51722" lon="5.23726">
        <ele>220.6</ele>
        <time>2022-08-20T14:01:44Z</time>
      </trkpt>
      <trkpt lat="46.51662" lon="5.23735">
        <ele>221.2</ele>
        <time>2022-08-20T14:01:51Z</time>
      </trkpt>
      <trkpt lat="46.51654" lon="5.23735">
        <ele>221.2</ele>
        <time>2022-08-20T14:01:52Z</time>
      </trkpt>
      <trkpt lat="46.51646" lon="5.23734">
        <ele>221.4</ele>
        <time>2022-08-20T14:01:53Z</time>
      </trkpt>
      <trkpt lat="46.51596" lon="5.23723">
        <ele>221.6</ele>
        <time>2022-08-20T14:01:59Z</time>
      </trkpt>
      <trkpt lat="46.51542" lon="5.23704">
        <ele>222</ele>
        <time>2022-08-20T14:02:06Z</time>
      </trkpt>
      <trkpt lat="46.51534" lon="5.23701">
        <ele>222</ele>
        <time>2022-08-20T14:02:07Z</time>
      </trkpt>
      <trkpt lat="46.51511" lon="5.23693">
        <ele>222.2</ele>
        <time>2022-08-20T14:02:10Z</time>
      </trkpt>
      <trkpt lat="46.51459" lon="5.23675">
        <ele>222.6</ele>
        <time>2022-08-20T14:02:17Z</time>
      </trkpt>
      <trkpt lat="46.51444" lon="5.2367">
        <ele>223</ele>
        <time>2022-08-20T14:02:19Z</time>
      </trkpt>
      <trkpt lat="46.51428" lon="5.23664">
        <ele>223.2</ele>
        <time>2022-08-20T14:02:21Z</time>
      </trkpt>
      <trkpt lat="46.51376" lon="5.23637">
        <ele>223.4</ele>
        <time>2022-08-20T14:02:28Z</time>
      </trkpt>
      <trkpt lat="46.51337" lon="5.23593">
        <ele>223.4</ele>
        <time>2022-08-20T14:02:34Z</time>
      </trkpt>
      <trkpt lat="46.51294" lon="5.23539">
        <ele>223.4</ele>
        <time>2022-08-20T14:02:41Z</time>
      </trkpt>
      <trkpt lat="46.51255" lon="5.23493">
        <ele>223.2</ele>
        <time>2022-08-20T14:02:47Z</time>
      </trkpt>
      <trkpt lat="46.51211" lon="5.23439">
        <ele>222.6</ele>
        <time>2022-08-20T14:02:54Z</time>
      </trkpt>
      <trkpt lat="46.51199" lon="5.23423">
        <ele>222.4</ele>
        <time>2022-08-20T14:02:56Z</time>
      </trkpt>
      <trkpt lat="46.51155" lon="5.23368">
        <ele>222.2</ele>
        <time>2022-08-20T14:03:03Z</time>
      </trkpt>
      <trkpt lat="46.51129" lon="5.23337">
        <ele>222.2</ele>
        <time>2022-08-20T14:03:07Z</time>
      </trkpt>
      <trkpt lat="46.51086" lon="5.23284">
        <ele>222.8</ele>
        <time>2022-08-20T14:03:14Z</time>
      </trkpt>
      <trkpt lat="46.51073" lon="5.23272">
        <ele>223</ele>
        <time>2022-08-20T14:03:16Z</time>
      </trkpt>
      <trkpt lat="46.51026" lon="5.23233">
        <ele>223.4</ele>
        <time>2022-08-20T14:03:23Z</time>
      </trkpt>
      <trkpt lat="46.51012" lon="5.23222">
        <ele>223.8</ele>
        <time>2022-08-20T14:03:25Z</time>
      </trkpt>
      <trkpt lat="46.50998" lon="5.23211">
        <ele>224</ele>
        <time>2022-08-20T14:03:27Z</time>
      </trkpt>
      <trkpt lat="46.50948" lon="5.23175">
        <ele>224.6</ele>
        <time>2022-08-20T14:03:34Z</time>
      </trkpt>
      <trkpt lat="46.50916" lon="5.23161">
        <ele>224.8</ele>
        <time>2022-08-20T14:03:38Z</time>
      </trkpt>
      <trkpt lat="46.50891" lon="5.23152">
        <ele>225</ele>
        <time>2022-08-20T14:03:41Z</time>
      </trkpt>
      <trkpt lat="46.50842" lon="5.2313">
        <ele>225</ele>
        <time>2022-08-20T14:03:47Z</time>
      </trkpt>
      <trkpt lat="46.50798" lon="5.23094">
        <ele>224.8</ele>
        <time>2022-08-20T14:03:53Z</time>
      </trkpt>
      <trkpt lat="46.50755" lon="5.23037">
        <ele>224</ele>
        <time>2022-08-20T14:04:00Z</time>
      </trkpt>
      <trkpt lat="46.50749" lon="5.23028">
        <ele>224</ele>
        <time>2022-08-20T14:04:01Z</time>
      </trkpt>
      <trkpt lat="46.50709" lon="5.22969">
        <ele>224.2</ele>
        <time>2022-08-20T14:04:08Z</time>
      </trkpt>
      <trkpt lat="46.50697" lon="5.22953">
        <ele>224.2</ele>
        <time>2022-08-20T14:04:10Z</time>
      </trkpt>
      <trkpt lat="46.50658" lon="5.22894">
        <ele>224.4</ele>
        <time>2022-08-20T14:04:17Z</time>
      </trkpt>
      <trkpt lat="46.5064" lon="5.2287">
        <ele>224.6</ele>
        <time>2022-08-20T14:04:20Z</time>
      </trkpt>
      <trkpt lat="46.506" lon="5.22827">
        <ele>224.6</ele>
        <time>2022-08-20T14:04:26Z</time>
      </trkpt>
      <trkpt lat="46.50551" lon="5.22787">
        <ele>224.4</ele>
        <time>2022-08-20T14:04:33Z</time>
      </trkpt>
      <trkpt lat="46.50502" lon="5.22769">
        <ele>224.6</ele>
        <time>2022-08-20T14:04:39Z</time>
      </trkpt>
      <trkpt lat="46.50446" lon="5.22758">
        <ele>224.4</ele>
        <time>2022-08-20T14:04:46Z</time>
      </trkpt>
      <trkpt lat="46.50431" lon="5.22756">
        <ele>224.6</ele>
        <time>2022-08-20T14:04:48Z</time>
      </trkpt>
      <trkpt lat="46.50377" lon="5.22747">
        <ele>225.2</ele>
        <time>2022-08-20T14:04:55Z</time>
      </trkpt>
      <trkpt lat="46.50369" lon="5.22746">
        <ele>225.4</ele>
        <time>2022-08-20T14:04:56Z</time>
      </trkpt>
      <trkpt lat="46.50361" lon="5.22745">
        <ele>225.4</ele>
        <time>2022-08-20T14:04:57Z</time>
      </trkpt>
      <trkpt lat="46.50303" lon="5.2274">
        <ele>226</ele>
        <time>2022-08-20T14:05:04Z</time>
      </trkpt>
      <trkpt lat="46.5025" lon="5.22746">
        <ele>226.4</ele>
        <time>2022-08-20T14:05:11Z</time>
      </trkpt>
      <trkpt lat="46.50193" lon="5.22751">
        <ele>226.6</ele>
        <time>2022-08-20T14:05:18Z</time>
      </trkpt>
      <trkpt lat="46.50179" lon="5.22747">
        <ele>226.8</ele>
        <time>2022-08-20T14:05:20Z</time>
      </trkpt>
      <trkpt lat="46.50162" lon="5.22738">
        <ele>226.8</ele>
        <time>2022-08-20T14:05:22Z</time>
      </trkpt>
      <trkpt lat="46.50119" lon="5.22714">
        <ele>226.8</ele>
        <time>2022-08-20T14:05:28Z</time>
      </trkpt>
      <trkpt lat="46.50089" lon="5.227">
        <ele>227</ele>
        <time>2022-08-20T14:05:32Z</time>
      </trkpt>
      <trkpt lat="46.50063" lon="5.22698">
        <ele>226.8</ele>
        <time>2022-08-20T14:05:35Z</time>
      </trkpt>
      <trkpt lat="46.50056" lon="5.22699">
        <ele>226.8</ele>
        <time>2022-08-20T14:05:36Z</time>
      </trkpt>
      <trkpt lat="46.49993" lon="5.22714">
        <ele>225.8</ele>
        <time>2022-08-20T14:05:43Z</time>
      </trkpt>
      <trkpt lat="46.49982" lon="5.22717">
        <ele>225.2</ele>
        <time>2022-08-20T14:05:44Z</time>
      </trkpt>
      <trkpt lat="46.49945" lon="5.22724">
        <ele>224</ele>
        <time>2022-08-20T14:05:48Z</time>
      </trkpt>
      <trkpt lat="46.49934" lon="5.22726">
        <ele>223.6</ele>
        <time>2022-08-20T14:05:49Z</time>
      </trkpt>
      <trkpt lat="46.49917" lon="5.22728">
        <ele>222.6</ele>
        <time>2022-08-20T14:05:51Z</time>
      </trkpt>
      <trkpt lat="46.4987" lon="5.22732">
        <ele>221.4</ele>
        <time>2022-08-20T14:05:56Z</time>
      </trkpt>
      <trkpt lat="46.49861" lon="5.22733">
        <ele>221.2</ele>
        <time>2022-08-20T14:05:57Z</time>
      </trkpt>
      <trkpt lat="46.4981" lon="5.22741">
        <ele>220.8</ele>
        <time>2022-08-20T14:06:03Z</time>
      </trkpt>
      <trkpt lat="46.49774" lon="5.22745">
        <ele>220.6</ele>
        <time>2022-08-20T14:06:08Z</time>
      </trkpt>
      <trkpt lat="46.49766" lon="5.22749">
        <ele>220.2</ele>
        <time>2022-08-20T14:06:10Z</time>
      </trkpt>
      <trkpt lat="46.49762" lon="5.22751">
        <ele>220.2</ele>
        <time>2022-08-20T14:06:13Z</time>
      </trkpt>
      <trkpt lat="46.49762" lon="5.22751">
        <ele>220</ele>
        <time>2022-08-20T14:06:15Z</time>
      </trkpt>
      <trkpt lat="46.49757" lon="5.22751">
        <ele>219.8</ele>
        <time>2022-08-20T14:08:20Z</time>
      </trkpt>
      <trkpt lat="46.49755" lon="5.22751">
        <ele>219.8</ele>
        <time>2022-08-20T14:08:21Z</time>
      </trkpt>
      <trkpt lat="46.49736" lon="5.2275">
        <ele>219.8</ele>
        <time>2022-08-20T14:08:26Z</time>
      </trkpt>
      <trkpt lat="46.49724" lon="5.22751">
        <ele>219.8</ele>
        <time>2022-08-20T14:08:28Z</time>
      </trkpt>
      <trkpt lat="46.49713" lon="5.22751">
        <ele>219.6</ele>
        <time>2022-08-20T14:08:30Z</time>
      </trkpt>
      <trkpt lat="46.49684" lon="5.22754">
        <ele>219.4</ele>
        <time>2022-08-20T14:08:34Z</time>
      </trkpt>
      <trkpt lat="46.49669" lon="5.22756">
        <ele>218</ele>
        <time>2022-08-20T14:08:36Z</time>
      </trkpt>
      <trkpt lat="46.49644" lon="5.22759">
        <ele>216.6</ele>
        <time>2022-08-20T14:08:39Z</time>
      </trkpt>
      <trkpt lat="46.49635" lon="5.22759">
        <ele>216.2</ele>
        <time>2022-08-20T14:08:40Z</time>
      </trkpt>
      <trkpt lat="46.49617" lon="5.22761">
        <ele>215.4</ele>
        <time>2022-08-20T14:08:42Z</time>
      </trkpt>
      <trkpt lat="46.49579" lon="5.22763">
        <ele>214</ele>
        <time>2022-08-20T14:08:46Z</time>
      </trkpt>
      <trkpt lat="46.4957" lon="5.22764">
        <ele>213.4</ele>
        <time>2022-08-20T14:08:47Z</time>
      </trkpt>
      <trkpt lat="46.49561" lon="5.22764">
        <ele>212.8</ele>
        <time>2022-08-20T14:08:48Z</time>
      </trkpt>
      <trkpt lat="46.49526" lon="5.22767">
        <ele>211.8</ele>
        <time>2022-08-20T14:08:52Z</time>
      </trkpt>
      <trkpt lat="46.4951" lon="5.22768">
        <ele>211.6</ele>
        <time>2022-08-20T14:08:54Z</time>
      </trkpt>
      <trkpt lat="46.49467" lon="5.22774">
        <ele>211.8</ele>
        <time>2022-08-20T14:09:00Z</time>
      </trkpt>
      <trkpt lat="46.49435" lon="5.22776">
        <ele>212.8</ele>
        <time>2022-08-20T14:09:05Z</time>
      </trkpt>
      <trkpt lat="46.49428" lon="5.22776">
        <ele>213</ele>
        <time>2022-08-20T14:09:06Z</time>
      </trkpt>
      <trkpt lat="46.4941" lon="5.22778">
        <ele>214.4</ele>
        <time>2022-08-20T14:09:09Z</time>
      </trkpt>
      <trkpt lat="46.49391" lon="5.22779">
        <ele>215.4</ele>
        <time>2022-08-20T14:09:12Z</time>
      </trkpt>
      <trkpt lat="46.49379" lon="5.2278">
        <ele>215.8</ele>
        <time>2022-08-20T14:09:14Z</time>
      </trkpt>
      <trkpt lat="46.49362" lon="5.22782">
        <ele>216.6</ele>
        <time>2022-08-20T14:09:17Z</time>
      </trkpt>
      <trkpt lat="46.49318" lon="5.22786">
        <ele>217.6</ele>
        <time>2022-08-20T14:09:25Z</time>
      </trkpt>
      <trkpt lat="46.49291" lon="5.22788">
        <ele>219</ele>
        <time>2022-08-20T14:09:30Z</time>
      </trkpt>
      <trkpt lat="46.49277" lon="5.2279">
        <ele>220.2</ele>
        <time>2022-08-20T14:09:33Z</time>
      </trkpt>
      <trkpt lat="46.49259" lon="5.22792">
        <ele>221.6</ele>
        <time>2022-08-20T14:09:37Z</time>
      </trkpt>
      <trkpt lat="46.49255" lon="5.22792">
        <ele>222</ele>
        <time>2022-08-20T14:09:38Z</time>
      </trkpt>
      <trkpt lat="46.49246" lon="5.22793">
        <ele>222.8</ele>
        <time>2022-08-20T14:09:40Z</time>
      </trkpt>
      <trkpt lat="46.49242" lon="5.22793">
        <ele>223</ele>
        <time>2022-08-20T14:09:41Z</time>
      </trkpt>
      <trkpt lat="46.49232" lon="5.22794">
        <ele>223.6</ele>
        <time>2022-08-20T14:09:43Z</time>
      </trkpt>
      <trkpt lat="46.49224" lon="5.22795">
        <ele>224</ele>
        <time>2022-08-20T14:09:45Z</time>
      </trkpt>
      <trkpt lat="46.49205" lon="5.22796">
        <ele>225.2</ele>
        <time>2022-08-20T14:09:49Z</time>
      </trkpt>
      <trkpt lat="46.492" lon="5.22796">
        <ele>225.2</ele>
        <time>2022-08-20T14:09:50Z</time>
      </trkpt>
      <trkpt lat="46.49185" lon="5.22796">
        <ele>226</ele>
        <time>2022-08-20T14:09:53Z</time>
      </trkpt>
      <trkpt lat="46.49179" lon="5.22795">
        <ele>226.2</ele>
        <time>2022-08-20T14:09:54Z</time>
      </trkpt>
      <trkpt lat="46.49162" lon="5.22789">
        <ele>226.4</ele>
        <time>2022-08-20T14:09:57Z</time>
      </trkpt>
      <trkpt lat="46.49132" lon="5.22772">
        <ele>226.2</ele>
        <time>2022-08-20T14:10:02Z</time>
      </trkpt>
      <trkpt lat="46.49126" lon="5.22769">
        <ele>226.2</ele>
        <time>2022-08-20T14:10:03Z</time>
      </trkpt>
      <trkpt lat="46.49099" lon="5.22755">
        <ele>225.6</ele>
        <time>2022-08-20T14:10:07Z</time>
      </trkpt>
      <trkpt lat="46.49048" lon="5.22728">
        <ele>225.2</ele>
        <time>2022-08-20T14:10:15Z</time>
      </trkpt>
      <trkpt lat="46.48994" lon="5.22699">
        <ele>225.8</ele>
        <time>2022-08-20T14:10:23Z</time>
      </trkpt>
      <trkpt lat="46.48987" lon="5.22695">
        <ele>226</ele>
        <time>2022-08-20T14:10:24Z</time>
      </trkpt>
      <trkpt lat="46.4894" lon="5.2267">
        <ele>225.6</ele>
        <time>2022-08-20T14:10:30Z</time>
      </trkpt>
      <trkpt lat="46.48893" lon="5.22648">
        <ele>225</ele>
        <time>2022-08-20T14:10:36Z</time>
      </trkpt>
      <trkpt lat="46.48885" lon="5.22644">
        <ele>224.6</ele>
        <time>2022-08-20T14:10:37Z</time>
      </trkpt>
      <trkpt lat="46.48854" lon="5.22628">
        <ele>224</ele>
        <time>2022-08-20T14:10:41Z</time>
      </trkpt>
      <trkpt lat="46.48814" lon="5.22605">
        <ele>223.8</ele>
        <time>2022-08-20T14:10:46Z</time>
      </trkpt>
      <trkpt lat="46.4876" lon="5.22574">
        <ele>223.6</ele>
        <time>2022-08-20T14:10:53Z</time>
      </trkpt>
      <trkpt lat="46.48709" lon="5.22545">
        <ele>223.4</ele>
        <time>2022-08-20T14:11:00Z</time>
      </trkpt>
      <trkpt lat="46.48694" lon="5.22535">
        <ele>223.6</ele>
        <time>2022-08-20T14:11:02Z</time>
      </trkpt>
      <trkpt lat="46.48663" lon="5.22503">
        <ele>224</ele>
        <time>2022-08-20T14:11:07Z</time>
      </trkpt>
      <trkpt lat="46.48617" lon="5.22453">
        <ele>224.8</ele>
        <time>2022-08-20T14:11:15Z</time>
      </trkpt>
      <trkpt lat="46.48604" lon="5.22442">
        <ele>225</ele>
        <time>2022-08-20T14:11:17Z</time>
      </trkpt>
      <trkpt lat="46.48555" lon="5.22398">
        <ele>226.4</ele>
        <time>2022-08-20T14:11:25Z</time>
      </trkpt>
      <trkpt lat="46.48548" lon="5.22393">
        <ele>226.4</ele>
        <time>2022-08-20T14:11:26Z</time>
      </trkpt>
      <trkpt lat="46.48498" lon="5.2236">
        <ele>226.8</ele>
        <time>2022-08-20T14:11:33Z</time>
      </trkpt>
      <trkpt lat="46.48491" lon="5.22355">
        <ele>226.8</ele>
        <time>2022-08-20T14:11:34Z</time>
      </trkpt>
      <trkpt lat="46.48458" lon="5.22319">
        <ele>226.4</ele>
        <time>2022-08-20T14:11:39Z</time>
      </trkpt>
      <trkpt lat="46.48415" lon="5.22264">
        <ele>226.4</ele>
        <time>2022-08-20T14:11:46Z</time>
      </trkpt>
      <trkpt lat="46.484" lon="5.2225">
        <ele>226.2</ele>
        <time>2022-08-20T14:11:48Z</time>
      </trkpt>
      <trkpt lat="46.48359" lon="5.22224">
        <ele>225.2</ele>
        <time>2022-08-20T14:11:53Z</time>
      </trkpt>
      <trkpt lat="46.48334" lon="5.22217">
        <ele>224.4</ele>
        <time>2022-08-20T14:11:56Z</time>
      </trkpt>
      <trkpt lat="46.48325" lon="5.22217">
        <ele>224.2</ele>
        <time>2022-08-20T14:11:57Z</time>
      </trkpt>
      <trkpt lat="46.48316" lon="5.22217">
        <ele>224.2</ele>
        <time>2022-08-20T14:11:58Z</time>
      </trkpt>
      <trkpt lat="46.48262" lon="5.22213">
        <ele>223.8</ele>
        <time>2022-08-20T14:12:04Z</time>
      </trkpt>
      <trkpt lat="46.48217" lon="5.22202">
        <ele>223.8</ele>
        <time>2022-08-20T14:12:09Z</time>
      </trkpt>
      <trkpt lat="46.48208" lon="5.22203">
        <ele>223.8</ele>
        <time>2022-08-20T14:12:10Z</time>
      </trkpt>
      <trkpt lat="46.48182" lon="5.2221">
        <ele>223.2</ele>
        <time>2022-08-20T14:12:13Z</time>
      </trkpt>
      <trkpt lat="46.48156" lon="5.22218">
        <ele>222.8</ele>
        <time>2022-08-20T14:12:16Z</time>
      </trkpt>
      <trkpt lat="46.48096" lon="5.22232">
        <ele>222.8</ele>
        <time>2022-08-20T14:12:23Z</time>
      </trkpt>
      <trkpt lat="46.48069" lon="5.22256">
        <ele>222.6</ele>
        <time>2022-08-20T14:12:27Z</time>
      </trkpt>
      <trkpt lat="46.48053" lon="5.22271">
        <ele>222.8</ele>
        <time>2022-08-20T14:12:29Z</time>
      </trkpt>
      <trkpt lat="46.48038" lon="5.2228">
        <ele>222.6</ele>
        <time>2022-08-20T14:12:31Z</time>
      </trkpt>
      <trkpt lat="46.48006" lon="5.22284">
        <ele>222.8</ele>
        <time>2022-08-20T14:12:35Z</time>
      </trkpt>
      <trkpt lat="46.47945" lon="5.2229">
        <ele>223.2</ele>
        <time>2022-08-20T14:12:42Z</time>
      </trkpt>
      <trkpt lat="46.47937" lon="5.22291">
        <ele>223.4</ele>
        <time>2022-08-20T14:12:43Z</time>
      </trkpt>
      <trkpt lat="46.47882" lon="5.22298">
        <ele>224.2</ele>
        <time>2022-08-20T14:12:50Z</time>
      </trkpt>
      <trkpt lat="46.47874" lon="5.22298">
        <ele>224.4</ele>
        <time>2022-08-20T14:12:51Z</time>
      </trkpt>
      <trkpt lat="46.47867" lon="5.22299">
        <ele>224.4</ele>
        <time>2022-08-20T14:12:52Z</time>
      </trkpt>
      <trkpt lat="46.47828" lon="5.22305">
        <ele>225.6</ele>
        <time>2022-08-20T14:12:58Z</time>
      </trkpt>
      <trkpt lat="46.4779" lon="5.2231">
        <ele>226.6</ele>
        <time>2022-08-20T14:13:04Z</time>
      </trkpt>
      <trkpt lat="46.47783" lon="5.2231">
        <ele>226.8</ele>
        <time>2022-08-20T14:13:05Z</time>
      </trkpt>
      <trkpt lat="46.47768" lon="5.22313">
        <ele>226.8</ele>
        <time>2022-08-20T14:13:08Z</time>
      </trkpt>
      <trkpt lat="46.47766" lon="5.22317">
        <ele>226.8</ele>
        <time>2022-08-20T14:13:09Z</time>
      </trkpt>
      <trkpt lat="46.47764" lon="5.22323">
        <ele>226.8</ele>
        <time>2022-08-20T14:13:10Z</time>
      </trkpt>
      <trkpt lat="46.47762" lon="5.22335">
        <ele>226.6</ele>
        <time>2022-08-20T14:13:12Z</time>
      </trkpt>
      <trkpt lat="46.47763" lon="5.22353">
        <ele>226.6</ele>
        <time>2022-08-20T14:13:14Z</time>
      </trkpt>
      <trkpt lat="46.47768" lon="5.22382">
        <ele>226.8</ele>
        <time>2022-08-20T14:13:17Z</time>
      </trkpt>
      <trkpt lat="46.47782" lon="5.22456">
        <ele>227.2</ele>
        <time>2022-08-20T14:13:25Z</time>
      </trkpt>
      <trkpt lat="46.47795" lon="5.22515">
        <ele>227.4</ele>
        <time>2022-08-20T14:13:31Z</time>
      </trkpt>
      <trkpt lat="46.4781" lon="5.22562">
        <ele>227.6</ele>
        <time>2022-08-20T14:13:36Z</time>
      </trkpt>
      <trkpt lat="46.47815" lon="5.22571">
        <ele>227.6</ele>
        <time>2022-08-20T14:13:37Z</time>
      </trkpt>
      <trkpt lat="46.47821" lon="5.22579">
        <ele>227.4</ele>
        <time>2022-08-20T14:13:38Z</time>
      </trkpt>
      <trkpt lat="46.4784" lon="5.22603">
        <ele>227.2</ele>
        <time>2022-08-20T14:13:41Z</time>
      </trkpt>
      <trkpt lat="46.47884" lon="5.22649">
        <ele>225.6</ele>
        <time>2022-08-20T14:13:47Z</time>
      </trkpt>
      <trkpt lat="46.47892" lon="5.22657">
        <ele>225.2</ele>
        <time>2022-08-20T14:13:48Z</time>
      </trkpt>
      <trkpt lat="46.47908" lon="5.22674">
        <ele>224.4</ele>
        <time>2022-08-20T14:13:50Z</time>
      </trkpt>
      <trkpt lat="46.47932" lon="5.227">
        <ele>223.2</ele>
        <time>2022-08-20T14:13:53Z</time>
      </trkpt>
      <trkpt lat="46.47941" lon="5.22709">
        <ele>222.8</ele>
        <time>2022-08-20T14:13:54Z</time>
      </trkpt>
      <trkpt lat="46.47949" lon="5.22718">
        <ele>221.8</ele>
        <time>2022-08-20T14:13:55Z</time>
      </trkpt>
      <trkpt lat="46.47965" lon="5.22739">
        <ele>220.2</ele>
        <time>2022-08-20T14:13:57Z</time>
      </trkpt>
      <trkpt lat="46.47972" lon="5.2275">
        <ele>219.8</ele>
        <time>2022-08-20T14:13:58Z</time>
      </trkpt>
      <trkpt lat="46.47984" lon="5.22776">
        <ele>219</ele>
        <time>2022-08-20T14:14:00Z</time>
      </trkpt>
      <trkpt lat="46.47994" lon="5.22803">
        <ele>218.6</ele>
        <time>2022-08-20T14:14:02Z</time>
      </trkpt>
      <trkpt lat="46.47998" lon="5.22816">
        <ele>218</ele>
        <time>2022-08-20T14:14:03Z</time>
      </trkpt>
      <trkpt lat="46.48013" lon="5.22855">
        <ele>216.8</ele>
        <time>2022-08-20T14:14:06Z</time>
      </trkpt>
      <trkpt lat="46.48039" lon="5.22934">
        <ele>215.8</ele>
        <time>2022-08-20T14:14:12Z</time>
      </trkpt>
      <trkpt lat="46.48044" lon="5.22963">
        <ele>215.2</ele>
        <time>2022-08-20T14:14:14Z</time>
      </trkpt>
      <trkpt lat="46.48045" lon="5.22978">
        <ele>214.6</ele>
        <time>2022-08-20T14:14:15Z</time>
      </trkpt>
      <trkpt lat="46.48046" lon="5.22993">
        <ele>214.4</ele>
        <time>2022-08-20T14:14:16Z</time>
      </trkpt>
      <trkpt lat="46.48047" lon="5.23037">
        <ele>213.6</ele>
        <time>2022-08-20T14:14:19Z</time>
      </trkpt>
      <trkpt lat="46.48049" lon="5.23097">
        <ele>213</ele>
        <time>2022-08-20T14:14:23Z</time>
      </trkpt>
      <trkpt lat="46.48049" lon="5.23131">
        <ele>212.4</ele>
        <time>2022-08-20T14:14:25Z</time>
      </trkpt>
      <trkpt lat="46.4805" lon="5.23177">
        <ele>211.4</ele>
        <time>2022-08-20T14:14:28Z</time>
      </trkpt>
      <trkpt lat="46.48052" lon="5.23226">
        <ele>210.2</ele>
        <time>2022-08-20T14:14:31Z</time>
      </trkpt>
      <trkpt lat="46.48052" lon="5.23241">
        <ele>209.6</ele>
        <time>2022-08-20T14:14:32Z</time>
      </trkpt>
      <trkpt lat="46.48053" lon="5.23276">
        <ele>209</ele>
        <time>2022-08-20T14:14:34Z</time>
      </trkpt>
      <trkpt lat="46.48054" lon="5.2332">
        <ele>207.6</ele>
        <time>2022-08-20T14:14:37Z</time>
      </trkpt>
      <trkpt lat="46.48054" lon="5.23349">
        <ele>207.2</ele>
        <time>2022-08-20T14:14:39Z</time>
      </trkpt>
      <trkpt lat="46.48055" lon="5.23377">
        <ele>207</ele>
        <time>2022-08-20T14:14:41Z</time>
      </trkpt>
      <trkpt lat="46.48057" lon="5.2346">
        <ele>206.8</ele>
        <time>2022-08-20T14:14:47Z</time>
      </trkpt>
      <trkpt lat="46.48058" lon="5.235">
        <ele>206.6</ele>
        <time>2022-08-20T14:14:50Z</time>
      </trkpt>
      <trkpt lat="46.48059" lon="5.23579">
        <ele>206.2</ele>
        <time>2022-08-20T14:14:56Z</time>
      </trkpt>
      <trkpt lat="46.48068" lon="5.23663">
        <ele>206</ele>
        <time>2022-08-20T14:15:03Z</time>
      </trkpt>
      <trkpt lat="46.48087" lon="5.23726">
        <ele>206.4</ele>
        <time>2022-08-20T14:15:09Z</time>
      </trkpt>
      <trkpt lat="46.48111" lon="5.23768">
        <ele>207</ele>
        <time>2022-08-20T14:15:14Z</time>
      </trkpt>
      <trkpt lat="46.48149" lon="5.23814">
        <ele>207.8</ele>
        <time>2022-08-20T14:15:21Z</time>
      </trkpt>
      <trkpt lat="46.48172" lon="5.23844">
        <ele>207.6</ele>
        <time>2022-08-20T14:15:25Z</time>
      </trkpt>
      <trkpt lat="46.48176" lon="5.23852">
        <ele>207.8</ele>
        <time>2022-08-20T14:15:26Z</time>
      </trkpt>
      <trkpt lat="46.4818" lon="5.23861">
        <ele>208</ele>
        <time>2022-08-20T14:15:27Z</time>
      </trkpt>
      <trkpt lat="46.48183" lon="5.23871">
        <ele>208</ele>
        <time>2022-08-20T14:15:28Z</time>
      </trkpt>
      <trkpt lat="46.48188" lon="5.23891">
        <ele>208.2</ele>
        <time>2022-08-20T14:15:30Z</time>
      </trkpt>
      <trkpt lat="46.48189" lon="5.23901">
        <ele>208.2</ele>
        <time>2022-08-20T14:15:31Z</time>
      </trkpt>
      <trkpt lat="46.4819" lon="5.23911">
        <ele>208.4</ele>
        <time>2022-08-20T14:15:32Z</time>
      </trkpt>
      <trkpt lat="46.48188" lon="5.23931">
        <ele>208.6</ele>
        <time>2022-08-20T14:15:34Z</time>
      </trkpt>
      <trkpt lat="46.48186" lon="5.23941">
        <ele>208.6</ele>
        <time>2022-08-20T14:15:35Z</time>
      </trkpt>
      <trkpt lat="46.48182" lon="5.23959">
        <ele>209</ele>
        <time>2022-08-20T14:15:37Z</time>
      </trkpt>
      <trkpt lat="46.48174" lon="5.23983">
        <ele>209.2</ele>
        <time>2022-08-20T14:15:40Z</time>
      </trkpt>
      <trkpt lat="46.48163" lon="5.24011">
        <ele>210.4</ele>
        <time>2022-08-20T14:15:44Z</time>
      </trkpt>
      <trkpt lat="46.48156" lon="5.2403">
        <ele>211.4</ele>
        <time>2022-08-20T14:15:47Z</time>
      </trkpt>
      <trkpt lat="46.48151" lon="5.24042">
        <ele>212</ele>
        <time>2022-08-20T14:15:49Z</time>
      </trkpt>
      <trkpt lat="46.48146" lon="5.24053">
        <ele>212.4</ele>
        <time>2022-08-20T14:15:51Z</time>
      </trkpt>
      <trkpt lat="46.48144" lon="5.24059">
        <ele>212.4</ele>
        <time>2022-08-20T14:15:52Z</time>
      </trkpt>
      <trkpt lat="46.48139" lon="5.24071">
        <ele>213.6</ele>
        <time>2022-08-20T14:15:54Z</time>
      </trkpt>
      <trkpt lat="46.48131" lon="5.24093">
        <ele>214.8</ele>
        <time>2022-08-20T14:15:58Z</time>
      </trkpt>
      <trkpt lat="46.48127" lon="5.24104">
        <ele>215.2</ele>
        <time>2022-08-20T14:16:00Z</time>
      </trkpt>
      <trkpt lat="46.4812" lon="5.24121">
        <ele>215.8</ele>
        <time>2022-08-20T14:16:03Z</time>
      </trkpt>
      <trkpt lat="46.48111" lon="5.24148">
        <ele>217.2</ele>
        <time>2022-08-20T14:16:08Z</time>
      </trkpt>
      <trkpt lat="46.48109" lon="5.24153">
        <ele>217.2</ele>
        <time>2022-08-20T14:16:09Z</time>
      </trkpt>
      <trkpt lat="46.48103" lon="5.24168">
        <ele>218.4</ele>
        <time>2022-08-20T14:16:12Z</time>
      </trkpt>
      <trkpt lat="46.48095" lon="5.24186">
        <ele>219.2</ele>
        <time>2022-08-20T14:16:16Z</time>
      </trkpt>
      <trkpt lat="46.48093" lon="5.24191">
        <ele>219.4</ele>
        <time>2022-08-20T14:16:17Z</time>
      </trkpt>
      <trkpt lat="46.48086" lon="5.24211">
        <ele>220.6</ele>
        <time>2022-08-20T14:16:21Z</time>
      </trkpt>
      <trkpt lat="46.48083" lon="5.24222">
        <ele>220.8</ele>
        <time>2022-08-20T14:16:23Z</time>
      </trkpt>
      <trkpt lat="46.48077" lon="5.24243">
        <ele>221.6</ele>
        <time>2022-08-20T14:16:27Z</time>
      </trkpt>
      <trkpt lat="46.48074" lon="5.24261">
        <ele>222.2</ele>
        <time>2022-08-20T14:16:30Z</time>
      </trkpt>
      <trkpt lat="46.48074" lon="5.24266">
        <ele>222.6</ele>
        <time>2022-08-20T14:16:31Z</time>
      </trkpt>
      <trkpt lat="46.48076" lon="5.2429">
        <ele>223.6</ele>
        <time>2022-08-20T14:16:35Z</time>
      </trkpt>
      <trkpt lat="46.48077" lon="5.24296">
        <ele>223.8</ele>
        <time>2022-08-20T14:16:36Z</time>
      </trkpt>
      <trkpt lat="46.48086" lon="5.24314">
        <ele>224.8</ele>
        <time>2022-08-20T14:16:40Z</time>
      </trkpt>
      <trkpt lat="46.48089" lon="5.24318">
        <ele>225</ele>
        <time>2022-08-20T14:16:41Z</time>
      </trkpt>
      <trkpt lat="46.48101" lon="5.24332">
        <ele>226</ele>
        <time>2022-08-20T14:16:45Z</time>
      </trkpt>
      <trkpt lat="46.48104" lon="5.24336">
        <ele>226.2</ele>
        <time>2022-08-20T14:16:46Z</time>
      </trkpt>
      <trkpt lat="46.48108" lon="5.24356">
        <ele>227.2</ele>
        <time>2022-08-20T14:16:50Z</time>
      </trkpt>
      <trkpt lat="46.48106" lon="5.24361">
        <ele>227.6</ele>
        <time>2022-08-20T14:16:51Z</time>
      </trkpt>
      <trkpt lat="46.481" lon="5.2437">
        <ele>228</ele>
        <time>2022-08-20T14:16:53Z</time>
      </trkpt>
      <trkpt lat="46.48087" lon="5.24384">
        <ele>228.4</ele>
        <time>2022-08-20T14:16:56Z</time>
      </trkpt>
      <trkpt lat="46.48077" lon="5.24393">
        <ele>228.6</ele>
        <time>2022-08-20T14:16:58Z</time>
      </trkpt>
      <trkpt lat="46.48042" lon="5.24418">
        <ele>228.8</ele>
        <time>2022-08-20T14:17:04Z</time>
      </trkpt>
      <trkpt lat="46.48001" lon="5.24445">
        <ele>228.6</ele>
        <time>2022-08-20T14:17:11Z</time>
      </trkpt>
      <trkpt lat="46.47952" lon="5.2448">
        <ele>229.2</ele>
        <time>2022-08-20T14:17:19Z</time>
      </trkpt>
      <trkpt lat="46.47946" lon="5.24484">
        <ele>229.2</ele>
        <time>2022-08-20T14:17:20Z</time>
      </trkpt>
      <trkpt lat="46.47934" lon="5.24491">
        <ele>229.4</ele>
        <time>2022-08-20T14:17:22Z</time>
      </trkpt>
      <trkpt lat="46.47916" lon="5.24498">
        <ele>229.8</ele>
        <time>2022-08-20T14:17:25Z</time>
      </trkpt>
      <trkpt lat="46.47909" lon="5.24499">
        <ele>229.8</ele>
        <time>2022-08-20T14:17:26Z</time>
      </trkpt>
      <trkpt lat="46.4789" lon="5.245">
        <ele>230.4</ele>
        <time>2022-08-20T14:17:29Z</time>
      </trkpt>
      <trkpt lat="46.47863" lon="5.24498">
        <ele>230.8</ele>
        <time>2022-08-20T14:17:33Z</time>
      </trkpt>
      <trkpt lat="46.47811" lon="5.24498">
        <ele>230.8</ele>
        <time>2022-08-20T14:17:40Z</time>
      </trkpt>
      <trkpt lat="46.47761" lon="5.24506">
        <ele>230.2</ele>
        <time>2022-08-20T14:17:46Z</time>
      </trkpt>
      <trkpt lat="46.47744" lon="5.2451">
        <ele>229.8</ele>
        <time>2022-08-20T14:17:48Z</time>
      </trkpt>
      <trkpt lat="46.47719" lon="5.24517">
        <ele>229.4</ele>
        <time>2022-08-20T14:17:51Z</time>
      </trkpt>
      <trkpt lat="46.47694" lon="5.24526">
        <ele>228.6</ele>
        <time>2022-08-20T14:17:54Z</time>
      </trkpt>
      <trkpt lat="46.47686" lon="5.2453">
        <ele>228.6</ele>
        <time>2022-08-20T14:17:55Z</time>
      </trkpt>
      <trkpt lat="46.47631" lon="5.24559">
        <ele>228.6</ele>
        <time>2022-08-20T14:18:02Z</time>
      </trkpt>
      <trkpt lat="46.47576" lon="5.24591">
        <ele>228.2</ele>
        <time>2022-08-20T14:18:09Z</time>
      </trkpt>
      <trkpt lat="46.47517" lon="5.24624">
        <ele>227.8</ele>
        <time>2022-08-20T14:18:16Z</time>
      </trkpt>
      <trkpt lat="46.47509" lon="5.24628">
        <ele>227.6</ele>
        <time>2022-08-20T14:18:17Z</time>
      </trkpt>
      <trkpt lat="46.475" lon="5.24631">
        <ele>227.2</ele>
        <time>2022-08-20T14:18:18Z</time>
      </trkpt>
      <trkpt lat="46.47464" lon="5.24638">
        <ele>227</ele>
        <time>2022-08-20T14:18:22Z</time>
      </trkpt>
      <trkpt lat="46.4741" lon="5.24644">
        <ele>227</ele>
        <time>2022-08-20T14:18:28Z</time>
      </trkpt>
      <trkpt lat="46.47383" lon="5.24645">
        <ele>226.8</ele>
        <time>2022-08-20T14:18:31Z</time>
      </trkpt>
      <trkpt lat="46.47349" lon="5.24648">
        <ele>226.2</ele>
        <time>2022-08-20T14:18:35Z</time>
      </trkpt>
      <trkpt lat="46.47309" lon="5.24652">
        <ele>225.8</ele>
        <time>2022-08-20T14:18:39Z</time>
      </trkpt>
      <trkpt lat="46.4728" lon="5.24654">
        <ele>225.2</ele>
        <time>2022-08-20T14:18:42Z</time>
      </trkpt>
      <trkpt lat="46.4725" lon="5.24654">
        <ele>224.2</ele>
        <time>2022-08-20T14:18:45Z</time>
      </trkpt>
      <trkpt lat="46.4724" lon="5.24654">
        <ele>223.6</ele>
        <time>2022-08-20T14:18:46Z</time>
      </trkpt>
      <trkpt lat="46.47221" lon="5.24653">
        <ele>222.8</ele>
        <time>2022-08-20T14:18:48Z</time>
      </trkpt>
      <trkpt lat="46.47193" lon="5.24651">
        <ele>221.4</ele>
        <time>2022-08-20T14:18:51Z</time>
      </trkpt>
      <trkpt lat="46.47164" lon="5.24646">
        <ele>220.6</ele>
        <time>2022-08-20T14:18:54Z</time>
      </trkpt>
      <trkpt lat="46.47146" lon="5.2464">
        <ele>220.2</ele>
        <time>2022-08-20T14:18:56Z</time>
      </trkpt>
      <trkpt lat="46.47118" lon="5.24628">
        <ele>219.6</ele>
        <time>2022-08-20T14:18:59Z</time>
      </trkpt>
      <trkpt lat="46.47101" lon="5.24631">
        <ele>218.8</ele>
        <time>2022-08-20T14:19:01Z</time>
      </trkpt>
      <trkpt lat="46.47089" lon="5.24648">
        <ele>218</ele>
        <time>2022-08-20T14:19:03Z</time>
      </trkpt>
      <trkpt lat="46.47083" lon="5.24671">
        <ele>217</ele>
        <time>2022-08-20T14:19:05Z</time>
      </trkpt>
      <trkpt lat="46.47075" lon="5.24695">
        <ele>216.2</ele>
        <time>2022-08-20T14:19:07Z</time>
      </trkpt>
      <trkpt lat="46.47053" lon="5.24741">
        <ele>216</ele>
        <time>2022-08-20T14:19:11Z</time>
      </trkpt>
      <trkpt lat="46.47046" lon="5.24752">
        <ele>215.8</ele>
        <time>2022-08-20T14:19:12Z</time>
      </trkpt>
      <trkpt lat="46.47022" lon="5.24783">
        <ele>215</ele>
        <time>2022-08-20T14:19:15Z</time>
      </trkpt>
      <trkpt lat="46.47013" lon="5.24793">
        <ele>214.6</ele>
        <time>2022-08-20T14:19:16Z</time>
      </trkpt>
      <trkpt lat="46.46984" lon="5.2482">
        <ele>213.4</ele>
        <time>2022-08-20T14:19:19Z</time>
      </trkpt>
      <trkpt lat="46.46952" lon="5.24846">
        <ele>212</ele>
        <time>2022-08-20T14:19:22Z</time>
      </trkpt>
      <trkpt lat="46.46917" lon="5.24875">
        <ele>211</ele>
        <time>2022-08-20T14:19:26Z</time>
      </trkpt>
      <trkpt lat="46.46878" lon="5.24905">
        <ele>211.6</ele>
        <time>2022-08-20T14:19:31Z</time>
      </trkpt>
      <trkpt lat="46.46858" lon="5.24921">
        <ele>212</ele>
        <time>2022-08-20T14:19:34Z</time>
      </trkpt>
      <trkpt lat="46.46839" lon="5.24936">
        <ele>212.8</ele>
        <time>2022-08-20T14:19:37Z</time>
      </trkpt>
      <trkpt lat="46.46827" lon="5.24946">
        <ele>213.4</ele>
        <time>2022-08-20T14:19:39Z</time>
      </trkpt>
      <trkpt lat="46.46804" lon="5.24962">
        <ele>214.2</ele>
        <time>2022-08-20T14:19:43Z</time>
      </trkpt>
      <trkpt lat="46.46788" lon="5.24973">
        <ele>214.4</ele>
        <time>2022-08-20T14:19:46Z</time>
      </trkpt>
      <trkpt lat="46.46775" lon="5.24982">
        <ele>214.8</ele>
        <time>2022-08-20T14:19:48Z</time>
      </trkpt>
      <trkpt lat="46.46759" lon="5.24995">
        <ele>215.6</ele>
        <time>2022-08-20T14:19:51Z</time>
      </trkpt>
      <trkpt lat="46.46744" lon="5.25005">
        <ele>216.6</ele>
        <time>2022-08-20T14:19:54Z</time>
      </trkpt>
      <trkpt lat="46.4674" lon="5.25013">
        <ele>216.6</ele>
        <time>2022-08-20T14:19:55Z</time>
      </trkpt>
      <trkpt lat="46.46728" lon="5.25028">
        <ele>217.2</ele>
        <time>2022-08-20T14:19:58Z</time>
      </trkpt>
      <trkpt lat="46.46699" lon="5.25053">
        <ele>217.6</ele>
        <time>2022-08-20T14:20:02Z</time>
      </trkpt>
      <trkpt lat="46.46654" lon="5.25089">
        <ele>216.8</ele>
        <time>2022-08-20T14:20:09Z</time>
      </trkpt>
      <trkpt lat="46.46615" lon="5.25119">
        <ele>217.4</ele>
        <time>2022-08-20T14:20:16Z</time>
      </trkpt>
      <trkpt lat="46.46609" lon="5.25124">
        <ele>217.6</ele>
        <time>2022-08-20T14:20:17Z</time>
      </trkpt>
      <trkpt lat="46.46576" lon="5.2515">
        <ele>218.4</ele>
        <time>2022-08-20T14:20:23Z</time>
      </trkpt>
      <trkpt lat="46.46571" lon="5.25155">
        <ele>218.4</ele>
        <time>2022-08-20T14:20:24Z</time>
      </trkpt>
      <trkpt lat="46.46536" lon="5.25181">
        <ele>219</ele>
        <time>2022-08-20T14:20:30Z</time>
      </trkpt>
      <trkpt lat="46.46498" lon="5.25208">
        <ele>219.2</ele>
        <time>2022-08-20T14:20:36Z</time>
      </trkpt>
      <trkpt lat="46.4648" lon="5.25224">
        <ele>219.4</ele>
        <time>2022-08-20T14:20:39Z</time>
      </trkpt>
      <trkpt lat="46.4647" lon="5.25233">
        <ele>219.6</ele>
        <time>2022-08-20T14:20:41Z</time>
      </trkpt>
      <trkpt lat="46.46427" lon="5.25268">
        <ele>220.8</ele>
        <time>2022-08-20T14:20:48Z</time>
      </trkpt>
      <trkpt lat="46.46422" lon="5.25272">
        <ele>221.2</ele>
        <time>2022-08-20T14:20:49Z</time>
      </trkpt>
      <trkpt lat="46.46406" lon="5.25286">
        <ele>222</ele>
        <time>2022-08-20T14:20:52Z</time>
      </trkpt>
      <trkpt lat="46.46396" lon="5.25296">
        <ele>222.4</ele>
        <time>2022-08-20T14:20:54Z</time>
      </trkpt>
      <trkpt lat="46.46384" lon="5.25311">
        <ele>222.6</ele>
        <time>2022-08-20T14:20:57Z</time>
      </trkpt>
      <trkpt lat="46.46371" lon="5.2533">
        <ele>223.2</ele>
        <time>2022-08-20T14:21:00Z</time>
      </trkpt>
      <trkpt lat="46.46355" lon="5.25357">
        <ele>223.8</ele>
        <time>2022-08-20T14:21:04Z</time>
      </trkpt>
      <trkpt lat="46.46331" lon="5.254">
        <ele>224.2</ele>
        <time>2022-08-20T14:21:10Z</time>
      </trkpt>
      <trkpt lat="46.46319" lon="5.25421">
        <ele>224.2</ele>
        <time>2022-08-20T14:21:13Z</time>
      </trkpt>
      <trkpt lat="46.46283" lon="5.25484">
        <ele>224.8</ele>
        <time>2022-08-20T14:21:22Z</time>
      </trkpt>
      <trkpt lat="46.46274" lon="5.25498">
        <ele>225.2</ele>
        <time>2022-08-20T14:21:24Z</time>
      </trkpt>
      <trkpt lat="46.4625" lon="5.25552">
        <ele>226</ele>
        <time>2022-08-20T14:21:31Z</time>
      </trkpt>
      <trkpt lat="46.46236" lon="5.25603">
        <ele>226.6</ele>
        <time>2022-08-20T14:21:37Z</time>
      </trkpt>
      <trkpt lat="46.46233" lon="5.2562">
        <ele>226.8</ele>
        <time>2022-08-20T14:21:39Z</time>
      </trkpt>
      <trkpt lat="46.46222" lon="5.2569">
        <ele>227.2</ele>
        <time>2022-08-20T14:21:46Z</time>
      </trkpt>
      <trkpt lat="46.46223" lon="5.25703">
        <ele>227.2</ele>
        <time>2022-08-20T14:21:47Z</time>
      </trkpt>
      <trkpt lat="46.46228" lon="5.25742">
        <ele>227</ele>
        <time>2022-08-20T14:21:50Z</time>
      </trkpt>
      <trkpt lat="46.46239" lon="5.25793">
        <ele>225.4</ele>
        <time>2022-08-20T14:21:54Z</time>
      </trkpt>
      <trkpt lat="46.46243" lon="5.25816">
        <ele>225</ele>
        <time>2022-08-20T14:21:56Z</time>
      </trkpt>
      <trkpt lat="46.46248" lon="5.25865">
        <ele>225.6</ele>
        <time>2022-08-20T14:22:01Z</time>
      </trkpt>
      <trkpt lat="46.46248" lon="5.25873">
        <ele>225.8</ele>
        <time>2022-08-20T14:22:02Z</time>
      </trkpt>
      <trkpt lat="46.46247" lon="5.25881">
        <ele>226.4</ele>
        <time>2022-08-20T14:22:03Z</time>
      </trkpt>
      <trkpt lat="46.46245" lon="5.25889">
        <ele>226.6</ele>
        <time>2022-08-20T14:22:04Z</time>
      </trkpt>
      <trkpt lat="46.46243" lon="5.25896">
        <ele>227.2</ele>
        <time>2022-08-20T14:22:05Z</time>
      </trkpt>
      <trkpt lat="46.46241" lon="5.25903">
        <ele>227.6</ele>
        <time>2022-08-20T14:22:06Z</time>
      </trkpt>
      <trkpt lat="46.46236" lon="5.25925">
        <ele>228.6</ele>
        <time>2022-08-20T14:22:09Z</time>
      </trkpt>
      <trkpt lat="46.46233" lon="5.25932">
        <ele>229.2</ele>
        <time>2022-08-20T14:22:10Z</time>
      </trkpt>
      <trkpt lat="46.46229" lon="5.25945">
        <ele>230</ele>
        <time>2022-08-20T14:22:12Z</time>
      </trkpt>
      <trkpt lat="46.46222" lon="5.25965">
        <ele>231.2</ele>
        <time>2022-08-20T14:22:15Z</time>
      </trkpt>
      <trkpt lat="46.4622" lon="5.25971">
        <ele>231.4</ele>
        <time>2022-08-20T14:22:16Z</time>
      </trkpt>
      <trkpt lat="46.46216" lon="5.25985">
        <ele>232</ele>
        <time>2022-08-20T14:22:18Z</time>
      </trkpt>
      <trkpt lat="46.46214" lon="5.25991">
        <ele>232.2</ele>
        <time>2022-08-20T14:22:19Z</time>
      </trkpt>
      <trkpt lat="46.4621" lon="5.26012">
        <ele>233.2</ele>
        <time>2022-08-20T14:22:22Z</time>
      </trkpt>
      <trkpt lat="46.46209" lon="5.26018">
        <ele>233.4</ele>
        <time>2022-08-20T14:22:23Z</time>
      </trkpt>
      <trkpt lat="46.46205" lon="5.26056">
        <ele>234</ele>
        <time>2022-08-20T14:22:28Z</time>
      </trkpt>
      <trkpt lat="46.46203" lon="5.26082">
        <ele>234.6</ele>
        <time>2022-08-20T14:22:31Z</time>
      </trkpt>
      <trkpt lat="46.46198" lon="5.26118">
        <ele>234.6</ele>
        <time>2022-08-20T14:22:35Z</time>
      </trkpt>
      <trkpt lat="46.46191" lon="5.262">
        <ele>234</ele>
        <time>2022-08-20T14:22:43Z</time>
      </trkpt>
      <trkpt lat="46.46185" lon="5.26269">
        <ele>233.4</ele>
        <time>2022-08-20T14:22:49Z</time>
      </trkpt>
      <trkpt lat="46.4618" lon="5.26323">
        <ele>232.4</ele>
        <time>2022-08-20T14:22:53Z</time>
      </trkpt>
      <trkpt lat="46.46179" lon="5.26338">
        <ele>231.8</ele>
        <time>2022-08-20T14:22:54Z</time>
      </trkpt>
      <trkpt lat="46.46175" lon="5.26367">
        <ele>231.2</ele>
        <time>2022-08-20T14:22:56Z</time>
      </trkpt>
      <trkpt lat="46.46173" lon="5.26398">
        <ele>229.8</ele>
        <time>2022-08-20T14:22:58Z</time>
      </trkpt>
      <trkpt lat="46.4617" lon="5.26429">
        <ele>228.4</ele>
        <time>2022-08-20T14:23:00Z</time>
      </trkpt>
      <trkpt lat="46.46168" lon="5.26445">
        <ele>227.6</ele>
        <time>2022-08-20T14:23:01Z</time>
      </trkpt>
      <trkpt lat="46.46167" lon="5.26461">
        <ele>227.2</ele>
        <time>2022-08-20T14:23:02Z</time>
      </trkpt>
      <trkpt lat="46.46165" lon="5.26476">
        <ele>226</ele>
        <time>2022-08-20T14:23:03Z</time>
      </trkpt>
      <trkpt lat="46.4616" lon="5.26523">
        <ele>224.6</ele>
        <time>2022-08-20T14:23:06Z</time>
      </trkpt>
      <trkpt lat="46.46157" lon="5.26554">
        <ele>222.2</ele>
        <time>2022-08-20T14:23:08Z</time>
      </trkpt>
      <trkpt lat="46.46156" lon="5.2657">
        <ele>221.8</ele>
        <time>2022-08-20T14:23:09Z</time>
      </trkpt>
      <trkpt lat="46.46154" lon="5.26585">
        <ele>221.2</ele>
        <time>2022-08-20T14:23:10Z</time>
      </trkpt>
      <trkpt lat="46.4615" lon="5.26633">
        <ele>220</ele>
        <time>2022-08-20T14:23:13Z</time>
      </trkpt>
      <trkpt lat="46.46148" lon="5.26665">
        <ele>219</ele>
        <time>2022-08-20T14:23:15Z</time>
      </trkpt>
      <trkpt lat="46.46147" lon="5.26697">
        <ele>217.2</ele>
        <time>2022-08-20T14:23:17Z</time>
      </trkpt>
      <trkpt lat="46.46145" lon="5.26745">
        <ele>215.4</ele>
        <time>2022-08-20T14:23:20Z</time>
      </trkpt>
      <trkpt lat="46.46144" lon="5.26772">
        <ele>214.2</ele>
        <time>2022-08-20T14:23:22Z</time>
      </trkpt>
      <trkpt lat="46.46144" lon="5.26805">
        <ele>213</ele>
        <time>2022-08-20T14:23:24Z</time>
      </trkpt>
      <trkpt lat="46.46144" lon="5.26819">
        <ele>212.6</ele>
        <time>2022-08-20T14:23:25Z</time>
      </trkpt>
      <trkpt lat="46.46142" lon="5.26904">
        <ele>211.8</ele>
        <time>2022-08-20T14:23:31Z</time>
      </trkpt>
      <trkpt lat="46.46141" lon="5.26919">
        <ele>211.6</ele>
        <time>2022-08-20T14:23:32Z</time>
      </trkpt>
      <trkpt lat="46.4614" lon="5.27001">
        <ele>211.4</ele>
        <time>2022-08-20T14:23:38Z</time>
      </trkpt>
      <trkpt lat="46.4614" lon="5.27027">
        <ele>211.4</ele>
        <time>2022-08-20T14:23:40Z</time>
      </trkpt>
      <trkpt lat="46.46138" lon="5.27108">
        <ele>211.8</ele>
        <time>2022-08-20T14:23:46Z</time>
      </trkpt>
      <trkpt lat="46.46137" lon="5.27148">
        <ele>211.6</ele>
        <time>2022-08-20T14:23:49Z</time>
      </trkpt>
      <trkpt lat="46.46136" lon="5.27204">
        <ele>210.8</ele>
        <time>2022-08-20T14:23:53Z</time>
      </trkpt>
      <trkpt lat="46.46134" lon="5.2726">
        <ele>210.2</ele>
        <time>2022-08-20T14:23:57Z</time>
      </trkpt>
      <trkpt lat="46.46133" lon="5.27312">
        <ele>209.6</ele>
        <time>2022-08-20T14:24:01Z</time>
      </trkpt>
      <trkpt lat="46.46132" lon="5.27363">
        <ele>209.6</ele>
        <time>2022-08-20T14:24:05Z</time>
      </trkpt>
      <trkpt lat="46.46129" lon="5.27451">
        <ele>210</ele>
        <time>2022-08-20T14:24:12Z</time>
      </trkpt>
      <trkpt lat="46.46127" lon="5.27502">
        <ele>210.2</ele>
        <time>2022-08-20T14:24:16Z</time>
      </trkpt>
      <trkpt lat="46.46125" lon="5.2759">
        <ele>210.2</ele>
        <time>2022-08-20T14:24:23Z</time>
      </trkpt>
      <trkpt lat="46.46123" lon="5.27655">
        <ele>210.2</ele>
        <time>2022-08-20T14:24:28Z</time>
      </trkpt>
      <trkpt lat="46.46122" lon="5.27736">
        <ele>210.6</ele>
        <time>2022-08-20T14:24:35Z</time>
      </trkpt>
      <trkpt lat="46.4612" lon="5.27776">
        <ele>211</ele>
        <time>2022-08-20T14:24:39Z</time>
      </trkpt>
      <trkpt lat="46.4612" lon="5.27814">
        <ele>211.6</ele>
        <time>2022-08-20T14:24:43Z</time>
      </trkpt>
      <trkpt lat="46.4612" lon="5.27823">
        <ele>212</ele>
        <time>2022-08-20T14:24:44Z</time>
      </trkpt>
      <trkpt lat="46.46121" lon="5.27849">
        <ele>213.4</ele>
        <time>2022-08-20T14:24:47Z</time>
      </trkpt>
      <trkpt lat="46.46121" lon="5.27866">
        <ele>214</ele>
        <time>2022-08-20T14:24:49Z</time>
      </trkpt>
      <trkpt lat="46.46121" lon="5.27874">
        <ele>214.2</ele>
        <time>2022-08-20T14:24:50Z</time>
      </trkpt>
      <trkpt lat="46.46122" lon="5.27881">
        <ele>214.4</ele>
        <time>2022-08-20T14:24:51Z</time>
      </trkpt>
      <trkpt lat="46.46122" lon="5.27905">
        <ele>215</ele>
        <time>2022-08-20T14:24:54Z</time>
      </trkpt>
      <trkpt lat="46.46122" lon="5.2792">
        <ele>215.6</ele>
        <time>2022-08-20T14:24:56Z</time>
      </trkpt>
      <trkpt lat="46.46123" lon="5.27927">
        <ele>215.8</ele>
        <time>2022-08-20T14:24:57Z</time>
      </trkpt>
      <trkpt lat="46.46126" lon="5.27948">
        <ele>216.4</ele>
        <time>2022-08-20T14:25:00Z</time>
      </trkpt>
      <trkpt lat="46.46129" lon="5.27954">
        <ele>216.6</ele>
        <time>2022-08-20T14:25:01Z</time>
      </trkpt>
      <trkpt lat="46.46131" lon="5.2796">
        <ele>217.2</ele>
        <time>2022-08-20T14:25:02Z</time>
      </trkpt>
      <trkpt lat="46.46135" lon="5.27965">
        <ele>217.6</ele>
        <time>2022-08-20T14:25:03Z</time>
      </trkpt>
      <trkpt lat="46.46138" lon="5.27969">
        <ele>217.8</ele>
        <time>2022-08-20T14:25:04Z</time>
      </trkpt>
      <trkpt lat="46.46142" lon="5.27973">
        <ele>218.6</ele>
        <time>2022-08-20T14:25:05Z</time>
      </trkpt>
      <trkpt lat="46.46146" lon="5.27976">
        <ele>218.8</ele>
        <time>2022-08-20T14:25:06Z</time>
      </trkpt>
      <trkpt lat="46.46157" lon="5.27985">
        <ele>220.2</ele>
        <time>2022-08-20T14:25:09Z</time>
      </trkpt>
      <trkpt lat="46.46161" lon="5.27987">
        <ele>220.6</ele>
        <time>2022-08-20T14:25:10Z</time>
      </trkpt>
      <trkpt lat="46.46169" lon="5.27993">
        <ele>221.4</ele>
        <time>2022-08-20T14:25:12Z</time>
      </trkpt>
      <trkpt lat="46.46184" lon="5.28005">
        <ele>222.8</ele>
        <time>2022-08-20T14:25:16Z</time>
      </trkpt>
      <trkpt lat="46.46187" lon="5.28008">
        <ele>223.2</ele>
        <time>2022-08-20T14:25:17Z</time>
      </trkpt>
      <trkpt lat="46.46194" lon="5.28016">
        <ele>224</ele>
        <time>2022-08-20T14:25:19Z</time>
      </trkpt>
      <trkpt lat="46.46194" lon="5.28022">
        <ele>224.2</ele>
        <time>2022-08-20T14:25:20Z</time>
      </trkpt>
      <trkpt lat="46.46191" lon="5.28064">
        <ele>224.8</ele>
        <time>2022-08-20T14:25:25Z</time>
      </trkpt>
      <trkpt lat="46.46184" lon="5.28138">
        <ele>224.8</ele>
        <time>2022-08-20T14:25:33Z</time>
      </trkpt>
      <trkpt lat="46.46176" lon="5.28189">
        <ele>224.8</ele>
        <time>2022-08-20T14:25:39Z</time>
      </trkpt>
      <trkpt lat="46.46166" lon="5.2825">
        <ele>224.8</ele>
        <time>2022-08-20T14:25:45Z</time>
      </trkpt>
      <trkpt lat="46.46165" lon="5.28261">
        <ele>224.8</ele>
        <time>2022-08-20T14:25:46Z</time>
      </trkpt>
      <trkpt lat="46.46166" lon="5.28286">
        <ele>224.8</ele>
        <time>2022-08-20T14:25:48Z</time>
      </trkpt>
      <trkpt lat="46.46166" lon="5.28299">
        <ele>224.6</ele>
        <time>2022-08-20T14:25:49Z</time>
      </trkpt>
      <trkpt lat="46.46176" lon="5.28367">
        <ele>222.4</ele>
        <time>2022-08-20T14:25:54Z</time>
      </trkpt>
      <trkpt lat="46.46178" lon="5.2838">
        <ele>222</ele>
        <time>2022-08-20T14:25:55Z</time>
      </trkpt>
      <trkpt lat="46.4618" lon="5.28394">
        <ele>221</ele>
        <time>2022-08-20T14:25:56Z</time>
      </trkpt>
      <trkpt lat="46.46192" lon="5.28469">
        <ele>220</ele>
        <time>2022-08-20T14:26:02Z</time>
      </trkpt>
      <trkpt lat="46.46199" lon="5.28519">
        <ele>221.4</ele>
        <time>2022-08-20T14:26:07Z</time>
      </trkpt>
      <trkpt lat="46.46202" lon="5.28536">
        <ele>222.6</ele>
        <time>2022-08-20T14:26:09Z</time>
      </trkpt>
      <trkpt lat="46.46206" lon="5.28561">
        <ele>223.8</ele>
        <time>2022-08-20T14:26:12Z</time>
      </trkpt>
      <trkpt lat="46.46209" lon="5.28577">
        <ele>224.4</ele>
        <time>2022-08-20T14:26:14Z</time>
      </trkpt>
      <trkpt lat="46.46211" lon="5.28593">
        <ele>224.8</ele>
        <time>2022-08-20T14:26:16Z</time>
      </trkpt>
      <trkpt lat="46.46214" lon="5.28607">
        <ele>225.8</ele>
        <time>2022-08-20T14:26:18Z</time>
      </trkpt>
      <trkpt lat="46.46215" lon="5.28613">
        <ele>226</ele>
        <time>2022-08-20T14:26:19Z</time>
      </trkpt>
      <trkpt lat="46.46216" lon="5.2862">
        <ele>226.4</ele>
        <time>2022-08-20T14:26:20Z</time>
      </trkpt>
      <trkpt lat="46.46217" lon="5.28632">
        <ele>227</ele>
        <time>2022-08-20T14:26:22Z</time>
      </trkpt>
      <trkpt lat="46.46218" lon="5.28644">
        <ele>227.8</ele>
        <time>2022-08-20T14:26:24Z</time>
      </trkpt>
      <trkpt lat="46.46219" lon="5.2865">
        <ele>228.2</ele>
        <time>2022-08-20T14:26:25Z</time>
      </trkpt>
      <trkpt lat="46.46225" lon="5.28669">
        <ele>229.2</ele>
        <time>2022-08-20T14:26:28Z</time>
      </trkpt>
      <trkpt lat="46.46227" lon="5.28676">
        <ele>229.6</ele>
        <time>2022-08-20T14:26:29Z</time>
      </trkpt>
      <trkpt lat="46.4623" lon="5.28683">
        <ele>229.6</ele>
        <time>2022-08-20T14:26:30Z</time>
      </trkpt>
      <trkpt lat="46.46238" lon="5.28694">
        <ele>230.6</ele>
        <time>2022-08-20T14:26:32Z</time>
      </trkpt>
      <trkpt lat="46.46241" lon="5.28697">
        <ele>230.8</ele>
        <time>2022-08-20T14:26:33Z</time>
      </trkpt>
      <trkpt lat="46.46266" lon="5.2872">
        <ele>231.8</ele>
        <time>2022-08-20T14:26:39Z</time>
      </trkpt>
      <trkpt lat="46.4627" lon="5.28723">
        <ele>232</ele>
        <time>2022-08-20T14:26:40Z</time>
      </trkpt>
      <trkpt lat="46.46283" lon="5.28733">
        <ele>232.8</ele>
        <time>2022-08-20T14:26:43Z</time>
      </trkpt>
      <trkpt lat="46.46305" lon="5.28747">
        <ele>234</ele>
        <time>2022-08-20T14:26:48Z</time>
      </trkpt>
      <trkpt lat="46.4631" lon="5.2875">
        <ele>234</ele>
        <time>2022-08-20T14:26:49Z</time>
      </trkpt>
      <trkpt lat="46.46344" lon="5.28774">
        <ele>235</ele>
        <time>2022-08-20T14:26:57Z</time>
      </trkpt>
      <trkpt lat="46.46369" lon="5.28794">
        <ele>235.8</ele>
        <time>2022-08-20T14:27:03Z</time>
      </trkpt>
      <trkpt lat="46.46382" lon="5.28806">
        <ele>236.2</ele>
        <time>2022-08-20T14:27:06Z</time>
      </trkpt>
      <trkpt lat="46.46387" lon="5.28812">
        <ele>236.4</ele>
        <time>2022-08-20T14:27:07Z</time>
      </trkpt>
      <trkpt lat="46.46395" lon="5.28824">
        <ele>237</ele>
        <time>2022-08-20T14:27:09Z</time>
      </trkpt>
      <trkpt lat="46.46398" lon="5.28831">
        <ele>237</ele>
        <time>2022-08-20T14:27:10Z</time>
      </trkpt>
      <trkpt lat="46.46405" lon="5.28845">
        <ele>237.2</ele>
        <time>2022-08-20T14:27:12Z</time>
      </trkpt>
      <trkpt lat="46.46422" lon="5.289">
        <ele>237.8</ele>
        <time>2022-08-20T14:27:19Z</time>
      </trkpt>
      <trkpt lat="46.46436" lon="5.28966">
        <ele>238</ele>
        <time>2022-08-20T14:27:27Z</time>
      </trkpt>
      <trkpt lat="46.46438" lon="5.28975">
        <ele>238</ele>
        <time>2022-08-20T14:27:28Z</time>
      </trkpt>
      <trkpt lat="46.4645" lon="5.29032">
        <ele>238.8</ele>
        <time>2022-08-20T14:27:35Z</time>
      </trkpt>
      <trkpt lat="46.46453" lon="5.2905">
        <ele>239</ele>
        <time>2022-08-20T14:27:37Z</time>
      </trkpt>
      <trkpt lat="46.46464" lon="5.29098">
        <ele>239.2</ele>
        <time>2022-08-20T14:27:42Z</time>
      </trkpt>
      <trkpt lat="46.46479" lon="5.29168">
        <ele>239.2</ele>
        <time>2022-08-20T14:27:49Z</time>
      </trkpt>
      <trkpt lat="46.46494" lon="5.29246">
        <ele>238.8</ele>
        <time>2022-08-20T14:27:56Z</time>
      </trkpt>
      <trkpt lat="46.46499" lon="5.29269">
        <ele>238.8</ele>
        <time>2022-08-20T14:27:58Z</time>
      </trkpt>
      <trkpt lat="46.46517" lon="5.29351">
        <ele>238.2</ele>
        <time>2022-08-20T14:28:05Z</time>
      </trkpt>
      <trkpt lat="46.4652" lon="5.29363">
        <ele>238</ele>
        <time>2022-08-20T14:28:06Z</time>
      </trkpt>
      <trkpt lat="46.46523" lon="5.29374">
        <ele>238</ele>
        <time>2022-08-20T14:28:07Z</time>
      </trkpt>
      <trkpt lat="46.46538" lon="5.29452">
        <ele>237.8</ele>
        <time>2022-08-20T14:28:14Z</time>
      </trkpt>
      <trkpt lat="46.46546" lon="5.29485">
        <ele>237.4</ele>
        <time>2022-08-20T14:28:17Z</time>
      </trkpt>
      <trkpt lat="46.46555" lon="5.29519">
        <ele>237</ele>
        <time>2022-08-20T14:28:20Z</time>
      </trkpt>
      <trkpt lat="46.46574" lon="5.29592">
        <ele>236</ele>
        <time>2022-08-20T14:28:27Z</time>
      </trkpt>
      <trkpt lat="46.46591" lon="5.29648">
        <ele>237.2</ele>
        <time>2022-08-20T14:28:33Z</time>
      </trkpt>
      <trkpt lat="46.46599" lon="5.29677">
        <ele>238.2</ele>
        <time>2022-08-20T14:28:36Z</time>
      </trkpt>
      <trkpt lat="46.46613" lon="5.29737">
        <ele>238.8</ele>
        <time>2022-08-20T14:28:42Z</time>
      </trkpt>
      <trkpt lat="46.46618" lon="5.29755">
        <ele>239</ele>
        <time>2022-08-20T14:28:44Z</time>
      </trkpt>
      <trkpt lat="46.46627" lon="5.29783">
        <ele>239.2</ele>
        <time>2022-08-20T14:28:47Z</time>
      </trkpt>
      <trkpt lat="46.46629" lon="5.29792">
        <ele>239.2</ele>
        <time>2022-08-20T14:28:48Z</time>
      </trkpt>
      <trkpt lat="46.46632" lon="5.298">
        <ele>239.4</ele>
        <time>2022-08-20T14:28:49Z</time>
      </trkpt>
      <trkpt lat="46.46639" lon="5.29816">
        <ele>239.8</ele>
        <time>2022-08-20T14:28:51Z</time>
      </trkpt>
      <trkpt lat="46.46642" lon="5.29824">
        <ele>239.8</ele>
        <time>2022-08-20T14:28:52Z</time>
      </trkpt>
      <trkpt lat="46.46648" lon="5.29852">
        <ele>240.2</ele>
        <time>2022-08-20T14:28:55Z</time>
      </trkpt>
      <trkpt lat="46.46654" lon="5.29871">
        <ele>240.2</ele>
        <time>2022-08-20T14:28:57Z</time>
      </trkpt>
      <trkpt lat="46.46657" lon="5.29891">
        <ele>240.4</ele>
        <time>2022-08-20T14:28:59Z</time>
      </trkpt>
      <trkpt lat="46.46662" lon="5.29912">
        <ele>240.4</ele>
        <time>2022-08-20T14:29:01Z</time>
      </trkpt>
      <trkpt lat="46.4667" lon="5.29944">
        <ele>240.2</ele>
        <time>2022-08-20T14:29:04Z</time>
      </trkpt>
      <trkpt lat="46.46685" lon="5.3001">
        <ele>239.2</ele>
        <time>2022-08-20T14:29:10Z</time>
      </trkpt>
      <trkpt lat="46.46688" lon="5.30021">
        <ele>239</ele>
        <time>2022-08-20T14:29:11Z</time>
      </trkpt>
      <trkpt lat="46.46703" lon="5.30077">
        <ele>238</ele>
        <time>2022-08-20T14:29:16Z</time>
      </trkpt>
      <trkpt lat="46.46708" lon="5.301">
        <ele>237.6</ele>
        <time>2022-08-20T14:29:18Z</time>
      </trkpt>
      <trkpt lat="46.46727" lon="5.30173">
        <ele>237.6</ele>
        <time>2022-08-20T14:29:25Z</time>
      </trkpt>
      <trkpt lat="46.4673" lon="5.30183">
        <ele>237.6</ele>
        <time>2022-08-20T14:29:26Z</time>
      </trkpt>
      <trkpt lat="46.46739" lon="5.30211">
        <ele>237.8</ele>
        <time>2022-08-20T14:29:29Z</time>
      </trkpt>
      <trkpt lat="46.46748" lon="5.30227">
        <ele>238</ele>
        <time>2022-08-20T14:29:31Z</time>
      </trkpt>
      <trkpt lat="46.46788" lon="5.30276">
        <ele>238.2</ele>
        <time>2022-08-20T14:29:38Z</time>
      </trkpt>
      <trkpt lat="46.46831" lon="5.30326">
        <ele>238.2</ele>
        <time>2022-08-20T14:29:45Z</time>
      </trkpt>
      <trkpt lat="46.46842" lon="5.30341">
        <ele>238.2</ele>
        <time>2022-08-20T14:29:47Z</time>
      </trkpt>
      <trkpt lat="46.4688" lon="5.30378">
        <ele>238.2</ele>
        <time>2022-08-20T14:29:53Z</time>
      </trkpt>
      <trkpt lat="46.46888" lon="5.30382">
        <ele>238.2</ele>
        <time>2022-08-20T14:29:54Z</time>
      </trkpt>
      <trkpt lat="46.46918" lon="5.30395">
        <ele>238</ele>
        <time>2022-08-20T14:29:58Z</time>
      </trkpt>
      <trkpt lat="46.46969" lon="5.30421">
        <ele>237.4</ele>
        <time>2022-08-20T14:30:05Z</time>
      </trkpt>
      <trkpt lat="46.47015" lon="5.30461">
        <ele>238</ele>
        <time>2022-08-20T14:30:12Z</time>
      </trkpt>
      <trkpt lat="46.47042" lon="5.30484">
        <ele>238.4</ele>
        <time>2022-08-20T14:30:16Z</time>
      </trkpt>
      <trkpt lat="46.47078" lon="5.30516">
        <ele>238.6</ele>
        <time>2022-08-20T14:30:22Z</time>
      </trkpt>
      <trkpt lat="46.47117" lon="5.30542">
        <ele>239</ele>
        <time>2022-08-20T14:30:28Z</time>
      </trkpt>
      <trkpt lat="46.47161" lon="5.3056">
        <ele>239.2</ele>
        <time>2022-08-20T14:30:34Z</time>
      </trkpt>
      <trkpt lat="46.47171" lon="5.30562">
        <ele>239.2</ele>
        <time>2022-08-20T14:30:35Z</time>
      </trkpt>
      <trkpt lat="46.47201" lon="5.3056">
        <ele>239.2</ele>
        <time>2022-08-20T14:30:39Z</time>
      </trkpt>
      <trkpt lat="46.47217" lon="5.30559">
        <ele>239</ele>
        <time>2022-08-20T14:30:41Z</time>
      </trkpt>
      <trkpt lat="46.47233" lon="5.30563">
        <ele>239</ele>
        <time>2022-08-20T14:30:43Z</time>
      </trkpt>
      <trkpt lat="46.47267" lon="5.3059">
        <ele>238.6</ele>
        <time>2022-08-20T14:30:48Z</time>
      </trkpt>
      <trkpt lat="46.47301" lon="5.30633">
        <ele>238.6</ele>
        <time>2022-08-20T14:30:54Z</time>
      </trkpt>
      <trkpt lat="46.47306" lon="5.3064">
        <ele>238.6</ele>
        <time>2022-08-20T14:30:55Z</time>
      </trkpt>
      <trkpt lat="46.47314" lon="5.30661">
        <ele>238.8</ele>
        <time>2022-08-20T14:30:57Z</time>
      </trkpt>
      <trkpt lat="46.47316" lon="5.3068">
        <ele>239</ele>
        <time>2022-08-20T14:30:59Z</time>
      </trkpt>
      <trkpt lat="46.47316" lon="5.30702">
        <ele>239</ele>
        <time>2022-08-20T14:31:01Z</time>
      </trkpt>
      <trkpt lat="46.4732" lon="5.30785">
        <ele>238.6</ele>
        <time>2022-08-20T14:31:08Z</time>
      </trkpt>
      <trkpt lat="46.47329" lon="5.30864">
        <ele>238.2</ele>
        <time>2022-08-20T14:31:15Z</time>
      </trkpt>
      <trkpt lat="46.47334" lon="5.30884">
        <ele>238.2</ele>
        <time>2022-08-20T14:31:17Z</time>
      </trkpt>
      <trkpt lat="46.47338" lon="5.30892">
        <ele>238.2</ele>
        <time>2022-08-20T14:31:18Z</time>
      </trkpt>
      <trkpt lat="46.47343" lon="5.30897">
        <ele>238</ele>
        <time>2022-08-20T14:31:19Z</time>
      </trkpt>
      <trkpt lat="46.47357" lon="5.30897">
        <ele>238.2</ele>
        <time>2022-08-20T14:31:21Z</time>
      </trkpt>
      <trkpt lat="46.47412" lon="5.30875">
        <ele>238</ele>
        <time>2022-08-20T14:31:28Z</time>
      </trkpt>
      <trkpt lat="46.47465" lon="5.30847">
        <ele>237.8</ele>
        <time>2022-08-20T14:31:35Z</time>
      </trkpt>
      <trkpt lat="46.4748" lon="5.30839">
        <ele>237.8</ele>
        <time>2022-08-20T14:31:37Z</time>
      </trkpt>
      <trkpt lat="46.47523" lon="5.30817">
        <ele>238</ele>
        <time>2022-08-20T14:31:43Z</time>
      </trkpt>
      <trkpt lat="46.47566" lon="5.30806">
        <ele>238.6</ele>
        <time>2022-08-20T14:31:49Z</time>
      </trkpt>
      <trkpt lat="46.47602" lon="5.30801">
        <ele>239</ele>
        <time>2022-08-20T14:31:54Z</time>
      </trkpt>
      <trkpt lat="46.47652" lon="5.30794">
        <ele>239</ele>
        <time>2022-08-20T14:32:01Z</time>
      </trkpt>
      <trkpt lat="46.47709" lon="5.30785">
        <ele>238.8</ele>
        <time>2022-08-20T14:32:09Z</time>
      </trkpt>
      <trkpt lat="46.47732" lon="5.30781">
        <ele>239</ele>
        <time>2022-08-20T14:32:12Z</time>
      </trkpt>
      <trkpt lat="46.47792" lon="5.30772">
        <ele>238.6</ele>
        <time>2022-08-20T14:32:20Z</time>
      </trkpt>
      <trkpt lat="46.4782" lon="5.30772">
        <ele>238.4</ele>
        <time>2022-08-20T14:32:24Z</time>
      </trkpt>
      <trkpt lat="46.47833" lon="5.30776">
        <ele>238.4</ele>
        <time>2022-08-20T14:32:26Z</time>
      </trkpt>
      <trkpt lat="46.47842" lon="5.30784">
        <ele>238.6</ele>
        <time>2022-08-20T14:32:28Z</time>
      </trkpt>
      <trkpt lat="46.47845" lon="5.30789">
        <ele>238.8</ele>
        <time>2022-08-20T14:32:29Z</time>
      </trkpt>
      <trkpt lat="46.47848" lon="5.30794">
        <ele>239</ele>
        <time>2022-08-20T14:32:30Z</time>
      </trkpt>
      <trkpt lat="46.47854" lon="5.308">
        <ele>239.6</ele>
        <time>2022-08-20T14:32:32Z</time>
      </trkpt>
      <trkpt lat="46.47859" lon="5.30801">
        <ele>240.4</ele>
        <time>2022-08-20T14:32:33Z</time>
      </trkpt>
      <trkpt lat="46.47874" lon="5.30802">
        <ele>240.8</ele>
        <time>2022-08-20T14:32:35Z</time>
      </trkpt>
      <trkpt lat="46.47915" lon="5.30815">
        <ele>240.2</ele>
        <time>2022-08-20T14:32:40Z</time>
      </trkpt>
      <trkpt lat="46.47933" lon="5.30819">
        <ele>239.2</ele>
        <time>2022-08-20T14:32:42Z</time>
      </trkpt>
      <trkpt lat="46.47952" lon="5.30819">
        <ele>238.2</ele>
        <time>2022-08-20T14:32:44Z</time>
      </trkpt>
      <trkpt lat="46.47971" lon="5.30813">
        <ele>237</ele>
        <time>2022-08-20T14:32:46Z</time>
      </trkpt>
      <trkpt lat="46.47988" lon="5.30806">
        <ele>236</ele>
        <time>2022-08-20T14:32:48Z</time>
      </trkpt>
      <trkpt lat="46.47996" lon="5.30802">
        <ele>235</ele>
        <time>2022-08-20T14:32:49Z</time>
      </trkpt>
      <trkpt lat="46.48039" lon="5.30779">
        <ele>234.2</ele>
        <time>2022-08-20T14:32:55Z</time>
      </trkpt>
      <trkpt lat="46.48081" lon="5.30756">
        <ele>235.8</ele>
        <time>2022-08-20T14:33:02Z</time>
      </trkpt>
      <trkpt lat="46.48087" lon="5.30753">
        <ele>236</ele>
        <time>2022-08-20T14:33:03Z</time>
      </trkpt>
      <trkpt lat="46.48132" lon="5.30728">
        <ele>236.6</ele>
        <time>2022-08-20T14:33:10Z</time>
      </trkpt>
      <trkpt lat="46.48177" lon="5.30703">
        <ele>236.2</ele>
        <time>2022-08-20T14:33:17Z</time>
      </trkpt>
      <trkpt lat="46.48218" lon="5.30686">
        <ele>235.8</ele>
        <time>2022-08-20T14:33:22Z</time>
      </trkpt>
      <trkpt lat="46.48253" lon="5.30691">
        <ele>235</ele>
        <time>2022-08-20T14:33:26Z</time>
      </trkpt>
      <trkpt lat="46.48278" lon="5.30698">
        <ele>233.4</ele>
        <time>2022-08-20T14:33:29Z</time>
      </trkpt>
      <trkpt lat="46.48304" lon="5.307">
        <ele>232.8</ele>
        <time>2022-08-20T14:33:32Z</time>
      </trkpt>
      <trkpt lat="46.4832" lon="5.30697">
        <ele>232.6</ele>
        <time>2022-08-20T14:33:34Z</time>
      </trkpt>
      <trkpt lat="46.48328" lon="5.30694">
        <ele>232.4</ele>
        <time>2022-08-20T14:33:35Z</time>
      </trkpt>
      <trkpt lat="46.48335" lon="5.30689">
        <ele>232.2</ele>
        <time>2022-08-20T14:33:36Z</time>
      </trkpt>
      <trkpt lat="46.48369" lon="5.30661">
        <ele>231.6</ele>
        <time>2022-08-20T14:33:41Z</time>
      </trkpt>
      <trkpt lat="46.48393" lon="5.30637">
        <ele>231.6</ele>
        <time>2022-08-20T14:33:45Z</time>
      </trkpt>
      <trkpt lat="46.48417" lon="5.30613">
        <ele>232.2</ele>
        <time>2022-08-20T14:33:49Z</time>
      </trkpt>
      <trkpt lat="46.48463" lon="5.30569">
        <ele>233</ele>
        <time>2022-08-20T14:33:57Z</time>
      </trkpt>
      <trkpt lat="46.48479" lon="5.30553">
        <ele>233.6</ele>
        <time>2022-08-20T14:34:00Z</time>
      </trkpt>
      <trkpt lat="46.48506" lon="5.30528">
        <ele>234.2</ele>
        <time>2022-08-20T14:34:05Z</time>
      </trkpt>
      <trkpt lat="46.48553" lon="5.30495">
        <ele>234.4</ele>
        <time>2022-08-20T14:34:13Z</time>
      </trkpt>
      <trkpt lat="46.48567" lon="5.3049">
        <ele>234.6</ele>
        <time>2022-08-20T14:34:15Z</time>
      </trkpt>
      <trkpt lat="46.48574" lon="5.3049">
        <ele>234.6</ele>
        <time>2022-08-20T14:34:16Z</time>
      </trkpt>
      <trkpt lat="46.48588" lon="5.3049">
        <ele>234.4</ele>
        <time>2022-08-20T14:34:18Z</time>
      </trkpt>
      <trkpt lat="46.48648" lon="5.305">
        <ele>234.2</ele>
        <time>2022-08-20T14:34:26Z</time>
      </trkpt>
      <trkpt lat="46.48697" lon="5.30497">
        <ele>233.8</ele>
        <time>2022-08-20T14:34:32Z</time>
      </trkpt>
      <trkpt lat="46.48705" lon="5.30497">
        <ele>233.8</ele>
        <time>2022-08-20T14:34:33Z</time>
      </trkpt>
      <trkpt lat="46.48728" lon="5.30504">
        <ele>233.4</ele>
        <time>2022-08-20T14:34:36Z</time>
      </trkpt>
      <trkpt lat="46.48743" lon="5.3051">
        <ele>233.2</ele>
        <time>2022-08-20T14:34:38Z</time>
      </trkpt>
      <trkpt lat="46.488" lon="5.30534">
        <ele>233.8</ele>
        <time>2022-08-20T14:34:46Z</time>
      </trkpt>
      <trkpt lat="46.48853" lon="5.30541">
        <ele>234</ele>
        <time>2022-08-20T14:34:53Z</time>
      </trkpt>
      <trkpt lat="46.48868" lon="5.30541">
        <ele>233.8</ele>
        <time>2022-08-20T14:34:55Z</time>
      </trkpt>
      <trkpt lat="46.4889" lon="5.30534">
        <ele>234.2</ele>
        <time>2022-08-20T14:34:58Z</time>
      </trkpt>
      <trkpt lat="46.4895" lon="5.3051">
        <ele>234.4</ele>
        <time>2022-08-20T14:35:06Z</time>
      </trkpt>
      <trkpt lat="46.48972" lon="5.30501">
        <ele>234.4</ele>
        <time>2022-08-20T14:35:09Z</time>
      </trkpt>
      <trkpt lat="46.4901" lon="5.30486">
        <ele>234.4</ele>
        <time>2022-08-20T14:35:14Z</time>
      </trkpt>
      <trkpt lat="46.49039" lon="5.30475">
        <ele>234.2</ele>
        <time>2022-08-20T14:35:18Z</time>
      </trkpt>
      <trkpt lat="46.49093" lon="5.30452">
        <ele>233.8</ele>
        <time>2022-08-20T14:35:25Z</time>
      </trkpt>
      <trkpt lat="46.49122" lon="5.3044">
        <ele>233.6</ele>
        <time>2022-08-20T14:35:29Z</time>
      </trkpt>
      <trkpt lat="46.49177" lon="5.30418">
        <ele>233.2</ele>
        <time>2022-08-20T14:35:36Z</time>
      </trkpt>
      <trkpt lat="46.49184" lon="5.30415">
        <ele>233</ele>
        <time>2022-08-20T14:35:37Z</time>
      </trkpt>
      <trkpt lat="46.49206" lon="5.30406">
        <ele>232.6</ele>
        <time>2022-08-20T14:35:40Z</time>
      </trkpt>
      <trkpt lat="46.49258" lon="5.30386">
        <ele>231.8</ele>
        <time>2022-08-20T14:35:47Z</time>
      </trkpt>
      <trkpt lat="46.49315" lon="5.30362">
        <ele>231.6</ele>
        <time>2022-08-20T14:35:55Z</time>
      </trkpt>
      <trkpt lat="46.49337" lon="5.30353">
        <ele>231.6</ele>
        <time>2022-08-20T14:35:58Z</time>
      </trkpt>
      <trkpt lat="46.49366" lon="5.30342">
        <ele>231.6</ele>
        <time>2022-08-20T14:36:02Z</time>
      </trkpt>
      <trkpt lat="46.49417" lon="5.30321">
        <ele>230.8</ele>
        <time>2022-08-20T14:36:09Z</time>
      </trkpt>
      <trkpt lat="46.49453" lon="5.30303">
        <ele>230.8</ele>
        <time>2022-08-20T14:36:14Z</time>
      </trkpt>
      <trkpt lat="46.49466" lon="5.30291">
        <ele>230.8</ele>
        <time>2022-08-20T14:36:16Z</time>
      </trkpt>
      <trkpt lat="46.49482" lon="5.3027">
        <ele>230.6</ele>
        <time>2022-08-20T14:36:19Z</time>
      </trkpt>
      <trkpt lat="46.49488" lon="5.30258">
        <ele>230.4</ele>
        <time>2022-08-20T14:36:20Z</time>
      </trkpt>
      <trkpt lat="46.49493" lon="5.30248">
        <ele>230.2</ele>
        <time>2022-08-20T14:36:21Z</time>
      </trkpt>
      <trkpt lat="46.49507" lon="5.30215">
        <ele>229.4</ele>
        <time>2022-08-20T14:36:24Z</time>
      </trkpt>
      <trkpt lat="46.49517" lon="5.30197">
        <ele>228.8</ele>
        <time>2022-08-20T14:36:26Z</time>
      </trkpt>
      <trkpt lat="46.49525" lon="5.30187">
        <ele>228.4</ele>
        <time>2022-08-20T14:36:27Z</time>
      </trkpt>
      <trkpt lat="46.49546" lon="5.30167">
        <ele>227.6</ele>
        <time>2022-08-20T14:36:30Z</time>
      </trkpt>
      <trkpt lat="46.49589" lon="5.30137">
        <ele>227.4</ele>
        <time>2022-08-20T14:36:36Z</time>
      </trkpt>
      <trkpt lat="46.49617" lon="5.30107">
        <ele>228.6</ele>
        <time>2022-08-20T14:36:41Z</time>
      </trkpt>
      <trkpt lat="46.49648" lon="5.30068">
        <ele>228.8</ele>
        <time>2022-08-20T14:36:46Z</time>
      </trkpt>
      <trkpt lat="46.49652" lon="5.30057">
        <ele>228.8</ele>
        <time>2022-08-20T14:36:47Z</time>
      </trkpt>
      <trkpt lat="46.49667" lon="5.30006">
        <ele>228</ele>
        <time>2022-08-20T14:36:51Z</time>
      </trkpt>
      <trkpt lat="46.49671" lon="5.29993">
        <ele>227.4</ele>
        <time>2022-08-20T14:36:52Z</time>
      </trkpt>
      <trkpt lat="46.4968" lon="5.29952">
        <ele>226.2</ele>
        <time>2022-08-20T14:36:55Z</time>
      </trkpt>
      <trkpt lat="46.49682" lon="5.29938">
        <ele>226</ele>
        <time>2022-08-20T14:36:56Z</time>
      </trkpt>
      <trkpt lat="46.49691" lon="5.29901">
        <ele>225.2</ele>
        <time>2022-08-20T14:36:59Z</time>
      </trkpt>
      <trkpt lat="46.49694" lon="5.2989">
        <ele>225</ele>
        <time>2022-08-20T14:37:00Z</time>
      </trkpt>
      <trkpt lat="46.49697" lon="5.2988">
        <ele>225</ele>
        <time>2022-08-20T14:37:01Z</time>
      </trkpt>
      <trkpt lat="46.49706" lon="5.29851">
        <ele>224.8</ele>
        <time>2022-08-20T14:37:04Z</time>
      </trkpt>
      <trkpt lat="46.49715" lon="5.29835">
        <ele>224.8</ele>
        <time>2022-08-20T14:37:06Z</time>
      </trkpt>
      <trkpt lat="46.49741" lon="5.298">
        <ele>225.8</ele>
        <time>2022-08-20T14:37:11Z</time>
      </trkpt>
      <trkpt lat="46.49747" lon="5.29794">
        <ele>226</ele>
        <time>2022-08-20T14:37:12Z</time>
      </trkpt>
      <trkpt lat="46.49761" lon="5.29789">
        <ele>226.2</ele>
        <time>2022-08-20T14:37:14Z</time>
      </trkpt>
      <trkpt lat="46.49792" lon="5.29792">
        <ele>226.8</ele>
        <time>2022-08-20T14:37:18Z</time>
      </trkpt>
      <trkpt lat="46.49798" lon="5.29794">
        <ele>227</ele>
        <time>2022-08-20T14:37:19Z</time>
      </trkpt>
      <trkpt lat="46.49852" lon="5.29813">
        <ele>227.2</ele>
        <time>2022-08-20T14:37:26Z</time>
      </trkpt>
      <trkpt lat="46.49865" lon="5.29818">
        <ele>227.2</ele>
        <time>2022-08-20T14:37:28Z</time>
      </trkpt>
      <trkpt lat="46.49873" lon="5.29821">
        <ele>227.2</ele>
        <time>2022-08-20T14:37:29Z</time>
      </trkpt>
      <trkpt lat="46.49904" lon="5.29836">
        <ele>226.8</ele>
        <time>2022-08-20T14:37:33Z</time>
      </trkpt>
      <trkpt lat="46.49936" lon="5.29849">
        <ele>226</ele>
        <time>2022-08-20T14:37:37Z</time>
      </trkpt>
      <trkpt lat="46.4996" lon="5.29855">
        <ele>225.4</ele>
        <time>2022-08-20T14:37:40Z</time>
      </trkpt>
      <trkpt lat="46.49976" lon="5.29858">
        <ele>224.8</ele>
        <time>2022-08-20T14:37:42Z</time>
      </trkpt>
      <trkpt lat="46.50001" lon="5.29862">
        <ele>224</ele>
        <time>2022-08-20T14:37:45Z</time>
      </trkpt>
      <trkpt lat="46.50009" lon="5.29866">
        <ele>223.6</ele>
        <time>2022-08-20T14:37:46Z</time>
      </trkpt>
      <trkpt lat="46.50016" lon="5.29871">
        <ele>223.4</ele>
        <time>2022-08-20T14:37:47Z</time>
      </trkpt>
      <trkpt lat="46.50052" lon="5.29914">
        <ele>223.6</ele>
        <time>2022-08-20T14:37:53Z</time>
      </trkpt>
      <trkpt lat="46.50066" lon="5.2994">
        <ele>223.8</ele>
        <time>2022-08-20T14:37:56Z</time>
      </trkpt>
      <trkpt lat="46.50073" lon="5.29958">
        <ele>224.4</ele>
        <time>2022-08-20T14:37:58Z</time>
      </trkpt>
      <trkpt lat="46.50078" lon="5.29977">
        <ele>224.6</ele>
        <time>2022-08-20T14:38:00Z</time>
      </trkpt>
      <trkpt lat="46.50083" lon="5.30006">
        <ele>225</ele>
        <time>2022-08-20T14:38:03Z</time>
      </trkpt>
      <trkpt lat="46.50085" lon="5.30048">
        <ele>225.8</ele>
        <time>2022-08-20T14:38:07Z</time>
      </trkpt>
      <trkpt lat="46.50085" lon="5.30081">
        <ele>226.2</ele>
        <time>2022-08-20T14:38:10Z</time>
      </trkpt>
      <trkpt lat="46.50086" lon="5.30171">
        <ele>226</ele>
        <time>2022-08-20T14:38:18Z</time>
      </trkpt>
      <trkpt lat="46.50085" lon="5.30196">
        <ele>226</ele>
        <time>2022-08-20T14:38:20Z</time>
      </trkpt>
      <trkpt lat="46.50084" lon="5.30219">
        <ele>225.8</ele>
        <time>2022-08-20T14:38:22Z</time>
      </trkpt>
      <trkpt lat="46.50083" lon="5.30229">
        <ele>225.6</ele>
        <time>2022-08-20T14:38:23Z</time>
      </trkpt>
      <trkpt lat="46.50076" lon="5.30317">
        <ele>225</ele>
        <time>2022-08-20T14:38:30Z</time>
      </trkpt>
      <trkpt lat="46.50068" lon="5.30341">
        <ele>225</ele>
        <time>2022-08-20T14:38:32Z</time>
      </trkpt>
      <trkpt lat="46.50057" lon="5.30364">
        <ele>224.6</ele>
        <time>2022-08-20T14:38:34Z</time>
      </trkpt>
      <trkpt lat="46.50051" lon="5.30374">
        <ele>223.6</ele>
        <time>2022-08-20T14:38:35Z</time>
      </trkpt>
      <trkpt lat="46.50044" lon="5.30383">
        <ele>223.2</ele>
        <time>2022-08-20T14:38:36Z</time>
      </trkpt>
      <trkpt lat="46.50029" lon="5.30399">
        <ele>222.2</ele>
        <time>2022-08-20T14:38:38Z</time>
      </trkpt>
      <trkpt lat="46.50006" lon="5.30418">
        <ele>221.2</ele>
        <time>2022-08-20T14:38:41Z</time>
      </trkpt>
      <trkpt lat="46.49991" lon="5.30429">
        <ele>221</ele>
        <time>2022-08-20T14:38:43Z</time>
      </trkpt>
      <trkpt lat="46.49976" lon="5.30441">
        <ele>221</ele>
        <time>2022-08-20T14:38:45Z</time>
      </trkpt>
      <trkpt lat="46.49963" lon="5.30457">
        <ele>221.2</ele>
        <time>2022-08-20T14:38:47Z</time>
      </trkpt>
      <trkpt lat="46.49956" lon="5.30466">
        <ele>221.4</ele>
        <time>2022-08-20T14:38:48Z</time>
      </trkpt>
      <trkpt lat="46.49947" lon="5.30483">
        <ele>222.2</ele>
        <time>2022-08-20T14:38:50Z</time>
      </trkpt>
      <trkpt lat="46.49943" lon="5.30493">
        <ele>222.6</ele>
        <time>2022-08-20T14:38:51Z</time>
      </trkpt>
      <trkpt lat="46.49936" lon="5.30514">
        <ele>223.4</ele>
        <time>2022-08-20T14:38:53Z</time>
      </trkpt>
      <trkpt lat="46.49929" lon="5.30549">
        <ele>224</ele>
        <time>2022-08-20T14:38:56Z</time>
      </trkpt>
      <trkpt lat="46.49927" lon="5.30572">
        <ele>224.6</ele>
        <time>2022-08-20T14:38:58Z</time>
      </trkpt>
      <trkpt lat="46.49928" lon="5.30597">
        <ele>225.2</ele>
        <time>2022-08-20T14:39:00Z</time>
      </trkpt>
      <trkpt lat="46.4993" lon="5.30609">
        <ele>225.6</ele>
        <time>2022-08-20T14:39:01Z</time>
      </trkpt>
      <trkpt lat="46.49941" lon="5.30672">
        <ele>226.8</ele>
        <time>2022-08-20T14:39:06Z</time>
      </trkpt>
      <trkpt lat="46.49946" lon="5.30696">
        <ele>228</ele>
        <time>2022-08-20T14:39:08Z</time>
      </trkpt>
      <trkpt lat="46.49953" lon="5.3073">
        <ele>229</ele>
        <time>2022-08-20T14:39:11Z</time>
      </trkpt>
      <trkpt lat="46.49955" lon="5.30741">
        <ele>229.8</ele>
        <time>2022-08-20T14:39:12Z</time>
      </trkpt>
      <trkpt lat="46.49957" lon="5.30752">
        <ele>230</ele>
        <time>2022-08-20T14:39:13Z</time>
      </trkpt>
      <trkpt lat="46.49973" lon="5.30824">
        <ele>231</ele>
        <time>2022-08-20T14:39:20Z</time>
      </trkpt>
      <trkpt lat="46.49998" lon="5.30893">
        <ele>229.8</ele>
        <time>2022-08-20T14:39:27Z</time>
      </trkpt>
      <trkpt lat="46.50003" lon="5.30904">
        <ele>229.8</ele>
        <time>2022-08-20T14:39:28Z</time>
      </trkpt>
      <trkpt lat="46.50016" lon="5.30938">
        <ele>228.8</ele>
        <time>2022-08-20T14:39:31Z</time>
      </trkpt>
      <trkpt lat="46.50029" lon="5.30975">
        <ele>227.8</ele>
        <time>2022-08-20T14:39:34Z</time>
      </trkpt>
      <trkpt lat="46.50033" lon="5.30988">
        <ele>227</ele>
        <time>2022-08-20T14:39:35Z</time>
      </trkpt>
      <trkpt lat="46.50037" lon="5.31001">
        <ele>226</ele>
        <time>2022-08-20T14:39:36Z</time>
      </trkpt>
      <trkpt lat="46.50046" lon="5.31027">
        <ele>225</ele>
        <time>2022-08-20T14:39:38Z</time>
      </trkpt>
      <trkpt lat="46.50061" lon="5.31068">
        <ele>224</ele>
        <time>2022-08-20T14:39:41Z</time>
      </trkpt>
      <trkpt lat="46.50066" lon="5.31082">
        <ele>222.8</ele>
        <time>2022-08-20T14:39:42Z</time>
      </trkpt>
      <trkpt lat="46.5007" lon="5.31097">
        <ele>221.8</ele>
        <time>2022-08-20T14:39:43Z</time>
      </trkpt>
      <trkpt lat="46.5008" lon="5.31126">
        <ele>220.4</ele>
        <time>2022-08-20T14:39:45Z</time>
      </trkpt>
      <trkpt lat="46.50089" lon="5.31154">
        <ele>219.2</ele>
        <time>2022-08-20T14:39:47Z</time>
      </trkpt>
      <trkpt lat="46.50094" lon="5.31168">
        <ele>218.8</ele>
        <time>2022-08-20T14:39:48Z</time>
      </trkpt>
      <trkpt lat="46.50098" lon="5.31181">
        <ele>218.2</ele>
        <time>2022-08-20T14:39:49Z</time>
      </trkpt>
      <trkpt lat="46.50114" lon="5.3123">
        <ele>218</ele>
        <time>2022-08-20T14:39:53Z</time>
      </trkpt>
      <trkpt lat="46.5013" lon="5.31274">
        <ele>219.8</ele>
        <time>2022-08-20T14:39:57Z</time>
      </trkpt>
      <trkpt lat="46.50141" lon="5.31307">
        <ele>220.2</ele>
        <time>2022-08-20T14:40:00Z</time>
      </trkpt>
      <trkpt lat="46.50153" lon="5.3134">
        <ele>220.8</ele>
        <time>2022-08-20T14:40:03Z</time>
      </trkpt>
      <trkpt lat="46.50177" lon="5.31412">
        <ele>220.8</ele>
        <time>2022-08-20T14:40:09Z</time>
      </trkpt>
      <trkpt lat="46.50181" lon="5.31425">
        <ele>220.6</ele>
        <time>2022-08-20T14:40:10Z</time>
      </trkpt>
      <trkpt lat="46.50194" lon="5.31465">
        <ele>219.6</ele>
        <time>2022-08-20T14:40:13Z</time>
      </trkpt>
      <trkpt lat="46.50213" lon="5.31519">
        <ele>217.8</ele>
        <time>2022-08-20T14:40:17Z</time>
      </trkpt>
      <trkpt lat="46.50225" lon="5.31544">
        <ele>216.6</ele>
        <time>2022-08-20T14:40:19Z</time>
      </trkpt>
      <trkpt lat="46.50239" lon="5.31566">
        <ele>215.4</ele>
        <time>2022-08-20T14:40:21Z</time>
      </trkpt>
      <trkpt lat="46.50248" lon="5.31575">
        <ele>214.8</ele>
        <time>2022-08-20T14:40:22Z</time>
      </trkpt>
      <trkpt lat="46.50265" lon="5.31593">
        <ele>214.4</ele>
        <time>2022-08-20T14:40:24Z</time>
      </trkpt>
      <trkpt lat="46.50273" lon="5.316">
        <ele>214.2</ele>
        <time>2022-08-20T14:40:25Z</time>
      </trkpt>
      <trkpt lat="46.50327" lon="5.3164">
        <ele>213.8</ele>
        <time>2022-08-20T14:40:31Z</time>
      </trkpt>
      <trkpt lat="46.50335" lon="5.31647">
        <ele>213.8</ele>
        <time>2022-08-20T14:40:32Z</time>
      </trkpt>
      <trkpt lat="46.50365" lon="5.31675">
        <ele>213.8</ele>
        <time>2022-08-20T14:40:36Z</time>
      </trkpt>
      <trkpt lat="46.50372" lon="5.31683">
        <ele>213.8</ele>
        <time>2022-08-20T14:40:37Z</time>
      </trkpt>
      <trkpt lat="46.50398" lon="5.31731">
        <ele>213.8</ele>
        <time>2022-08-20T14:40:42Z</time>
      </trkpt>
      <trkpt lat="46.50416" lon="5.31786">
        <ele>214.4</ele>
        <time>2022-08-20T14:40:47Z</time>
      </trkpt>
      <trkpt lat="46.50433" lon="5.31866">
        <ele>214.6</ele>
        <time>2022-08-20T14:40:54Z</time>
      </trkpt>
      <trkpt lat="46.50434" lon="5.31878">
        <ele>214.6</ele>
        <time>2022-08-20T14:40:55Z</time>
      </trkpt>
      <trkpt lat="46.50436" lon="5.31902">
        <ele>214.6</ele>
        <time>2022-08-20T14:40:57Z</time>
      </trkpt>
      <trkpt lat="46.50436" lon="5.31937">
        <ele>214.8</ele>
        <time>2022-08-20T14:41:00Z</time>
      </trkpt>
      <trkpt lat="46.50434" lon="5.31983">
        <ele>215.4</ele>
        <time>2022-08-20T14:41:04Z</time>
      </trkpt>
      <trkpt lat="46.50434" lon="5.32007">
        <ele>215.4</ele>
        <time>2022-08-20T14:41:06Z</time>
      </trkpt>
      <trkpt lat="46.50432" lon="5.32087">
        <ele>215.6</ele>
        <time>2022-08-20T14:41:13Z</time>
      </trkpt>
      <trkpt lat="46.50431" lon="5.3212">
        <ele>215.8</ele>
        <time>2022-08-20T14:41:16Z</time>
      </trkpt>
      <trkpt lat="46.50429" lon="5.32185">
        <ele>216.4</ele>
        <time>2022-08-20T14:41:22Z</time>
      </trkpt>
      <trkpt lat="46.50428" lon="5.32217">
        <ele>216.8</ele>
        <time>2022-08-20T14:41:25Z</time>
      </trkpt>
      <trkpt lat="46.50429" lon="5.32249">
        <ele>217.6</ele>
        <time>2022-08-20T14:41:28Z</time>
      </trkpt>
      <trkpt lat="46.50435" lon="5.32301">
        <ele>218</ele>
        <time>2022-08-20T14:41:33Z</time>
      </trkpt>
      <trkpt lat="46.5045" lon="5.32378">
        <ele>218</ele>
        <time>2022-08-20T14:41:40Z</time>
      </trkpt>
      <trkpt lat="46.50454" lon="5.32397">
        <ele>217.8</ele>
        <time>2022-08-20T14:41:42Z</time>
      </trkpt>
      <trkpt lat="46.50466" lon="5.32473">
        <ele>217.6</ele>
        <time>2022-08-20T14:41:49Z</time>
      </trkpt>
      <trkpt lat="46.50471" lon="5.32544">
        <ele>218.6</ele>
        <time>2022-08-20T14:41:56Z</time>
      </trkpt>
      <trkpt lat="46.50471" lon="5.32554">
        <ele>218.8</ele>
        <time>2022-08-20T14:41:57Z</time>
      </trkpt>
      <trkpt lat="46.50474" lon="5.32621">
        <ele>219.8</ele>
        <time>2022-08-20T14:42:04Z</time>
      </trkpt>
      <trkpt lat="46.50474" lon="5.32632">
        <ele>220</ele>
        <time>2022-08-20T14:42:05Z</time>
      </trkpt>
      <trkpt lat="46.50473" lon="5.32689">
        <ele>220.4</ele>
        <time>2022-08-20T14:42:11Z</time>
      </trkpt>
      <trkpt lat="46.50472" lon="5.32754">
        <ele>221</ele>
        <time>2022-08-20T14:42:18Z</time>
      </trkpt>
      <trkpt lat="46.50471" lon="5.32781">
        <ele>221.4</ele>
        <time>2022-08-20T14:42:21Z</time>
      </trkpt>
      <trkpt lat="46.5047" lon="5.32859">
        <ele>222</ele>
        <time>2022-08-20T14:42:29Z</time>
      </trkpt>
      <trkpt lat="46.5047" lon="5.32871">
        <ele>222.2</ele>
        <time>2022-08-20T14:42:30Z</time>
      </trkpt>
      <trkpt lat="46.5047" lon="5.32888">
        <ele>222.4</ele>
        <time>2022-08-20T14:42:32Z</time>
      </trkpt>
      <trkpt lat="46.5047" lon="5.32921">
        <ele>223</ele>
        <time>2022-08-20T14:42:36Z</time>
      </trkpt>
      <trkpt lat="46.5047" lon="5.32929">
        <ele>223.2</ele>
        <time>2022-08-20T14:42:37Z</time>
      </trkpt>
      <trkpt lat="46.50469" lon="5.32963">
        <ele>224.2</ele>
        <time>2022-08-20T14:42:41Z</time>
      </trkpt>
      <trkpt lat="46.50468" lon="5.32993">
        <ele>225.2</ele>
        <time>2022-08-20T14:42:45Z</time>
      </trkpt>
      <trkpt lat="46.50469" lon="5.33026">
        <ele>226.4</ele>
        <time>2022-08-20T14:42:49Z</time>
      </trkpt>
      <trkpt lat="46.50469" lon="5.33041">
        <ele>227</ele>
        <time>2022-08-20T14:42:51Z</time>
      </trkpt>
      <trkpt lat="46.50468" lon="5.33055">
        <ele>227.6</ele>
        <time>2022-08-20T14:42:53Z</time>
      </trkpt>
      <trkpt lat="46.50468" lon="5.33082">
        <ele>228.8</ele>
        <time>2022-08-20T14:42:57Z</time>
      </trkpt>
      <trkpt lat="46.50468" lon="5.33095">
        <ele>229.2</ele>
        <time>2022-08-20T14:42:59Z</time>
      </trkpt>
      <trkpt lat="46.50468" lon="5.33109">
        <ele>229.8</ele>
        <time>2022-08-20T14:43:01Z</time>
      </trkpt>
      <trkpt lat="46.50468" lon="5.33123">
        <ele>230.8</ele>
        <time>2022-08-20T14:43:03Z</time>
      </trkpt>
      <trkpt lat="46.50467" lon="5.33136">
        <ele>231.4</ele>
        <time>2022-08-20T14:43:05Z</time>
      </trkpt>
      <trkpt lat="46.50467" lon="5.33144">
        <ele>232</ele>
        <time>2022-08-20T14:43:06Z</time>
      </trkpt>
      <trkpt lat="46.50467" lon="5.3315">
        <ele>232</ele>
        <time>2022-08-20T14:43:07Z</time>
      </trkpt>
      <trkpt lat="46.50467" lon="5.33182">
        <ele>233.2</ele>
        <time>2022-08-20T14:43:12Z</time>
      </trkpt>
      <trkpt lat="46.50466" lon="5.33196">
        <ele>233.8</ele>
        <time>2022-08-20T14:43:14Z</time>
      </trkpt>
      <trkpt lat="46.50466" lon="5.33219">
        <ele>234.4</ele>
        <time>2022-08-20T14:43:17Z</time>
      </trkpt>
      <trkpt lat="46.50466" lon="5.33254">
        <ele>234.6</ele>
        <time>2022-08-20T14:43:21Z</time>
      </trkpt>
      <trkpt lat="46.50466" lon="5.33274">
        <ele>234.8</ele>
        <time>2022-08-20T14:43:23Z</time>
      </trkpt>
      <trkpt lat="46.50466" lon="5.333">
        <ele>234.8</ele>
        <time>2022-08-20T14:43:26Z</time>
      </trkpt>
      <trkpt lat="46.50461" lon="5.33365">
        <ele>234</ele>
        <time>2022-08-20T14:43:32Z</time>
      </trkpt>
      <trkpt lat="46.50456" lon="5.33395">
        <ele>233.8</ele>
        <time>2022-08-20T14:43:35Z</time>
      </trkpt>
      <trkpt lat="46.5045" lon="5.33412">
        <ele>233.8</ele>
        <time>2022-08-20T14:43:37Z</time>
      </trkpt>
      <trkpt lat="46.5043" lon="5.33441">
        <ele>234</ele>
        <time>2022-08-20T14:43:41Z</time>
      </trkpt>
      <trkpt lat="46.504" lon="5.33476">
        <ele>234.8</ele>
        <time>2022-08-20T14:43:47Z</time>
      </trkpt>
      <trkpt lat="46.50389" lon="5.33487">
        <ele>235</ele>
        <time>2022-08-20T14:43:49Z</time>
      </trkpt>
      <trkpt lat="46.50379" lon="5.33499">
        <ele>235.2</ele>
        <time>2022-08-20T14:43:51Z</time>
      </trkpt>
      <trkpt lat="46.50367" lon="5.33511">
        <ele>235.4</ele>
        <time>2022-08-20T14:43:53Z</time>
      </trkpt>
      <trkpt lat="46.50338" lon="5.33544">
        <ele>236.4</ele>
        <time>2022-08-20T14:43:58Z</time>
      </trkpt>
      <trkpt lat="46.50327" lon="5.33558">
        <ele>236.4</ele>
        <time>2022-08-20T14:44:00Z</time>
      </trkpt>
      <trkpt lat="46.50292" lon="5.33591">
        <ele>236.6</ele>
        <time>2022-08-20T14:44:06Z</time>
      </trkpt>
      <trkpt lat="46.50256" lon="5.3363">
        <ele>237</ele>
        <time>2022-08-20T14:44:13Z</time>
      </trkpt>
      <trkpt lat="46.50246" lon="5.33641">
        <ele>237.2</ele>
        <time>2022-08-20T14:44:15Z</time>
      </trkpt>
      <trkpt lat="46.50241" lon="5.33647">
        <ele>237.6</ele>
        <time>2022-08-20T14:44:16Z</time>
      </trkpt>
      <trkpt lat="46.50201" lon="5.3369">
        <ele>238</ele>
        <time>2022-08-20T14:44:24Z</time>
      </trkpt>
      <trkpt lat="46.50191" lon="5.33702">
        <ele>238.2</ele>
        <time>2022-08-20T14:44:26Z</time>
      </trkpt>
      <trkpt lat="46.50155" lon="5.33739">
        <ele>238.2</ele>
        <time>2022-08-20T14:44:32Z</time>
      </trkpt>
      <trkpt lat="46.50121" lon="5.33774">
        <ele>237.8</ele>
        <time>2022-08-20T14:44:37Z</time>
      </trkpt>
      <trkpt lat="46.50075" lon="5.33822">
        <ele>237.2</ele>
        <time>2022-08-20T14:44:44Z</time>
      </trkpt>
      <trkpt lat="46.50049" lon="5.33851">
        <ele>237.2</ele>
        <time>2022-08-20T14:44:49Z</time>
      </trkpt>
      <trkpt lat="46.50022" lon="5.33882">
        <ele>238.2</ele>
        <time>2022-08-20T14:44:54Z</time>
      </trkpt>
      <trkpt lat="46.50017" lon="5.33888">
        <ele>238.4</ele>
        <time>2022-08-20T14:44:55Z</time>
      </trkpt>
      <trkpt lat="46.50004" lon="5.33904">
        <ele>238.8</ele>
        <time>2022-08-20T14:44:57Z</time>
      </trkpt>
      <trkpt lat="46.49998" lon="5.3391">
        <ele>239</ele>
        <time>2022-08-20T14:44:58Z</time>
      </trkpt>
      <trkpt lat="46.49972" lon="5.33934">
        <ele>239.6</ele>
        <time>2022-08-20T14:45:02Z</time>
      </trkpt>
      <trkpt lat="46.49952" lon="5.33954">
        <ele>239.8</ele>
        <time>2022-08-20T14:45:05Z</time>
      </trkpt>
      <trkpt lat="46.49912" lon="5.34001">
        <ele>239.4</ele>
        <time>2022-08-20T14:45:11Z</time>
      </trkpt>
      <trkpt lat="46.49885" lon="5.34031">
        <ele>238.4</ele>
        <time>2022-08-20T14:45:15Z</time>
      </trkpt>
      <trkpt lat="46.49852" lon="5.3407">
        <ele>237.8</ele>
        <time>2022-08-20T14:45:20Z</time>
      </trkpt>
      <trkpt lat="46.49835" lon="5.34094">
        <ele>237.4</ele>
        <time>2022-08-20T14:45:23Z</time>
      </trkpt>
      <trkpt lat="46.49822" lon="5.34118">
        <ele>237.2</ele>
        <time>2022-08-20T14:45:26Z</time>
      </trkpt>
      <trkpt lat="46.4979" lon="5.3417">
        <ele>237.4</ele>
        <time>2022-08-20T14:45:33Z</time>
      </trkpt>
      <trkpt lat="46.49765" lon="5.34217">
        <ele>237.2</ele>
        <time>2022-08-20T14:45:38Z</time>
      </trkpt>
      <trkpt lat="46.49737" lon="5.34257">
        <ele>237.2</ele>
        <time>2022-08-20T14:45:43Z</time>
      </trkpt>
      <trkpt lat="46.49733" lon="5.34265">
        <ele>237.2</ele>
        <time>2022-08-20T14:45:44Z</time>
      </trkpt>
      <trkpt lat="46.49727" lon="5.3428">
        <ele>237</ele>
        <time>2022-08-20T14:45:46Z</time>
      </trkpt>
      <trkpt lat="46.49718" lon="5.343">
        <ele>237</ele>
        <time>2022-08-20T14:45:48Z</time>
      </trkpt>
      <trkpt lat="46.49716" lon="5.34307">
        <ele>237</ele>
        <time>2022-08-20T14:45:49Z</time>
      </trkpt>
      <trkpt lat="46.49692" lon="5.3437">
        <ele>237</ele>
        <time>2022-08-20T14:45:54Z</time>
      </trkpt>
      <trkpt lat="46.49676" lon="5.34422">
        <ele>236.6</ele>
        <time>2022-08-20T14:45:58Z</time>
      </trkpt>
      <trkpt lat="46.49665" lon="5.34459">
        <ele>236</ele>
        <time>2022-08-20T14:46:01Z</time>
      </trkpt>
      <trkpt lat="46.4965" lon="5.34511">
        <ele>234.6</ele>
        <time>2022-08-20T14:46:05Z</time>
      </trkpt>
      <trkpt lat="46.49643" lon="5.34534">
        <ele>234</ele>
        <time>2022-08-20T14:46:07Z</time>
      </trkpt>
      <trkpt lat="46.49632" lon="5.34554">
        <ele>233.4</ele>
        <time>2022-08-20T14:46:09Z</time>
      </trkpt>
      <trkpt lat="46.49605" lon="5.34584">
        <ele>232.2</ele>
        <time>2022-08-20T14:46:13Z</time>
      </trkpt>
      <trkpt lat="46.49573" lon="5.34627">
        <ele>231.6</ele>
        <time>2022-08-20T14:46:19Z</time>
      </trkpt>
      <trkpt lat="46.49551" lon="5.34656">
        <ele>232.4</ele>
        <time>2022-08-20T14:46:23Z</time>
      </trkpt>
      <trkpt lat="46.49545" lon="5.34661">
        <ele>232.8</ele>
        <time>2022-08-20T14:46:24Z</time>
      </trkpt>
      <trkpt lat="46.49531" lon="5.34678">
        <ele>233.2</ele>
        <time>2022-08-20T14:46:27Z</time>
      </trkpt>
      <trkpt lat="46.49523" lon="5.34687">
        <ele>233.4</ele>
        <time>2022-08-20T14:46:29Z</time>
      </trkpt>
      <trkpt lat="46.49513" lon="5.34698">
        <ele>234.2</ele>
        <time>2022-08-20T14:46:32Z</time>
      </trkpt>
      <trkpt lat="46.4951" lon="5.34702">
        <ele>234.8</ele>
        <time>2022-08-20T14:46:33Z</time>
      </trkpt>
      <trkpt lat="46.49492" lon="5.34721">
        <ele>235.8</ele>
        <time>2022-08-20T14:46:37Z</time>
      </trkpt>
      <trkpt lat="46.49489" lon="5.34725">
        <ele>236.4</ele>
        <time>2022-08-20T14:46:38Z</time>
      </trkpt>
      <trkpt lat="46.49481" lon="5.34735">
        <ele>236.8</ele>
        <time>2022-08-20T14:46:40Z</time>
      </trkpt>
      <trkpt lat="46.4947" lon="5.34747">
        <ele>238</ele>
        <time>2022-08-20T14:46:43Z</time>
      </trkpt>
      <trkpt lat="46.49467" lon="5.34751">
        <ele>238.2</ele>
        <time>2022-08-20T14:46:44Z</time>
      </trkpt>
      <trkpt lat="46.49458" lon="5.34761">
        <ele>239.2</ele>
        <time>2022-08-20T14:46:47Z</time>
      </trkpt>
      <trkpt lat="46.49449" lon="5.34772">
        <ele>240</ele>
        <time>2022-08-20T14:46:49Z</time>
      </trkpt>
      <trkpt lat="46.49446" lon="5.34776">
        <ele>240.4</ele>
        <time>2022-08-20T14:46:50Z</time>
      </trkpt>
      <trkpt lat="46.49435" lon="5.34785">
        <ele>242</ele>
        <time>2022-08-20T14:46:54Z</time>
      </trkpt>
      <trkpt lat="46.49421" lon="5.34796">
        <ele>243</ele>
        <time>2022-08-20T14:46:57Z</time>
      </trkpt>
      <trkpt lat="46.49407" lon="5.34807">
        <ele>243.4</ele>
        <time>2022-08-20T14:47:00Z</time>
      </trkpt>
      <trkpt lat="46.49384" lon="5.34814">
        <ele>243.6</ele>
        <time>2022-08-20T14:47:04Z</time>
      </trkpt>
      <trkpt lat="46.49361" lon="5.34821">
        <ele>244</ele>
        <time>2022-08-20T14:47:08Z</time>
      </trkpt>
      <trkpt lat="46.4933" lon="5.3483">
        <ele>243.8</ele>
        <time>2022-08-20T14:47:13Z</time>
      </trkpt>
      <trkpt lat="46.49323" lon="5.34831">
        <ele>243.8</ele>
        <time>2022-08-20T14:47:14Z</time>
      </trkpt>
      <trkpt lat="46.49299" lon="5.34835">
        <ele>243.8</ele>
        <time>2022-08-20T14:47:18Z</time>
      </trkpt>
      <trkpt lat="46.49288" lon="5.3484">
        <ele>243.8</ele>
        <time>2022-08-20T14:47:20Z</time>
      </trkpt>
      <trkpt lat="46.49282" lon="5.34845">
        <ele>243.8</ele>
        <time>2022-08-20T14:47:21Z</time>
      </trkpt>
      <trkpt lat="46.49274" lon="5.34853">
        <ele>244</ele>
        <time>2022-08-20T14:47:23Z</time>
      </trkpt>
      <trkpt lat="46.49244" lon="5.34894">
        <ele>244</ele>
        <time>2022-08-20T14:47:29Z</time>
      </trkpt>
      <trkpt lat="46.49227" lon="5.34922">
        <ele>243.6</ele>
        <time>2022-08-20T14:47:33Z</time>
      </trkpt>
      <trkpt lat="46.49212" lon="5.34951">
        <ele>243.6</ele>
        <time>2022-08-20T14:47:38Z</time>
      </trkpt>
      <trkpt lat="46.49197" lon="5.34969">
        <ele>243.2</ele>
        <time>2022-08-20T14:47:41Z</time>
      </trkpt>
      <trkpt lat="46.49186" lon="5.34981">
        <ele>243.4</ele>
        <time>2022-08-20T14:47:43Z</time>
      </trkpt>
      <trkpt lat="46.49171" lon="5.34998">
        <ele>243.6</ele>
        <time>2022-08-20T14:47:46Z</time>
      </trkpt>
      <trkpt lat="46.49164" lon="5.35004">
        <ele>243.6</ele>
        <time>2022-08-20T14:47:47Z</time>
      </trkpt>
      <trkpt lat="46.49143" lon="5.35013">
        <ele>243.8</ele>
        <time>2022-08-20T14:47:51Z</time>
      </trkpt>
      <trkpt lat="46.49129" lon="5.35029">
        <ele>244</ele>
        <time>2022-08-20T14:47:53Z</time>
      </trkpt>
      <trkpt lat="46.49116" lon="5.3504">
        <ele>244.2</ele>
        <time>2022-08-20T14:47:55Z</time>
      </trkpt>
      <trkpt lat="46.49096" lon="5.35061">
        <ele>244.6</ele>
        <time>2022-08-20T14:47:59Z</time>
      </trkpt>
      <trkpt lat="46.49091" lon="5.35065">
        <ele>244.8</ele>
        <time>2022-08-20T14:48:00Z</time>
      </trkpt>
      <trkpt lat="46.49086" lon="5.35069">
        <ele>244.8</ele>
        <time>2022-08-20T14:48:01Z</time>
      </trkpt>
      <trkpt lat="46.4908" lon="5.35075">
        <ele>245</ele>
        <time>2022-08-20T14:48:02Z</time>
      </trkpt>
      <trkpt lat="46.49071" lon="5.35081">
        <ele>245.2</ele>
        <time>2022-08-20T14:48:04Z</time>
      </trkpt>
      <trkpt lat="46.49066" lon="5.35083">
        <ele>245.4</ele>
        <time>2022-08-20T14:48:05Z</time>
      </trkpt>
      <trkpt lat="46.49052" lon="5.35093">
        <ele>245.8</ele>
        <time>2022-08-20T14:48:07Z</time>
      </trkpt>
      <trkpt lat="46.49046" lon="5.35097">
        <ele>245.8</ele>
        <time>2022-08-20T14:48:08Z</time>
      </trkpt>
      <trkpt lat="46.49028" lon="5.35125">
        <ele>246.4</ele>
        <time>2022-08-20T14:48:12Z</time>
      </trkpt>
      <trkpt lat="46.49025" lon="5.35133">
        <ele>246.4</ele>
        <time>2022-08-20T14:48:13Z</time>
      </trkpt>
      <trkpt lat="46.49017" lon="5.35151">
        <ele>246.6</ele>
        <time>2022-08-20T14:48:16Z</time>
      </trkpt>
      <trkpt lat="46.48997" lon="5.35197">
        <ele>246.2</ele>
        <time>2022-08-20T14:48:21Z</time>
      </trkpt>
      <trkpt lat="46.48974" lon="5.35251">
        <ele>245.2</ele>
        <time>2022-08-20T14:48:26Z</time>
      </trkpt>
      <trkpt lat="46.48961" lon="5.35281">
        <ele>244.8</ele>
        <time>2022-08-20T14:48:29Z</time>
      </trkpt>
      <trkpt lat="46.48941" lon="5.3533">
        <ele>244.4</ele>
        <time>2022-08-20T14:48:34Z</time>
      </trkpt>
      <trkpt lat="46.48919" lon="5.35379">
        <ele>243.8</ele>
        <time>2022-08-20T14:48:39Z</time>
      </trkpt>
      <trkpt lat="46.48915" lon="5.35388">
        <ele>243.8</ele>
        <time>2022-08-20T14:48:40Z</time>
      </trkpt>
      <trkpt lat="46.48886" lon="5.35452">
        <ele>244.2</ele>
        <time>2022-08-20T14:48:47Z</time>
      </trkpt>
      <trkpt lat="46.48862" lon="5.35506">
        <ele>244.8</ele>
        <time>2022-08-20T14:48:54Z</time>
      </trkpt>
      <trkpt lat="46.48856" lon="5.3552">
        <ele>245</ele>
        <time>2022-08-20T14:48:56Z</time>
      </trkpt>
      <trkpt lat="46.48835" lon="5.35569">
        <ele>245.6</ele>
        <time>2022-08-20T14:49:02Z</time>
      </trkpt>
      <trkpt lat="46.48824" lon="5.35596">
        <ele>245.6</ele>
        <time>2022-08-20T14:49:06Z</time>
      </trkpt>
      <trkpt lat="46.4882" lon="5.35605">
        <ele>245.6</ele>
        <time>2022-08-20T14:49:07Z</time>
      </trkpt>
      <trkpt lat="46.4881" lon="5.35624">
        <ele>245.6</ele>
        <time>2022-08-20T14:49:09Z</time>
      </trkpt>
      <trkpt lat="46.48803" lon="5.35641">
        <ele>245.6</ele>
        <time>2022-08-20T14:49:11Z</time>
      </trkpt>
      <trkpt lat="46.48773" lon="5.35714">
        <ele>245.2</ele>
        <time>2022-08-20T14:49:19Z</time>
      </trkpt>
      <trkpt lat="46.4875" lon="5.35761">
        <ele>244.8</ele>
        <time>2022-08-20T14:49:24Z</time>
      </trkpt>
      <trkpt lat="46.48745" lon="5.35769">
        <ele>244.8</ele>
        <time>2022-08-20T14:49:25Z</time>
      </trkpt>
      <trkpt lat="46.48738" lon="5.35785">
        <ele>244.8</ele>
        <time>2022-08-20T14:49:27Z</time>
      </trkpt>
      <trkpt lat="46.48719" lon="5.35837">
        <ele>245.2</ele>
        <time>2022-08-20T14:49:33Z</time>
      </trkpt>
      <trkpt lat="46.48694" lon="5.35897">
        <ele>245.6</ele>
        <time>2022-08-20T14:49:41Z</time>
      </trkpt>
      <trkpt lat="46.48684" lon="5.35927">
        <ele>246.4</ele>
        <time>2022-08-20T14:49:45Z</time>
      </trkpt>
      <trkpt lat="46.4868" lon="5.35952">
        <ele>247.2</ele>
        <time>2022-08-20T14:49:48Z</time>
      </trkpt>
      <trkpt lat="46.48678" lon="5.35961">
        <ele>247.6</ele>
        <time>2022-08-20T14:49:49Z</time>
      </trkpt>
      <trkpt lat="46.48673" lon="5.3601">
        <ele>248.2</ele>
        <time>2022-08-20T14:49:55Z</time>
      </trkpt>
      <trkpt lat="46.48671" lon="5.36036">
        <ele>248.2</ele>
        <time>2022-08-20T14:49:58Z</time>
      </trkpt>
      <trkpt lat="46.48665" lon="5.36058">
        <ele>248</ele>
        <time>2022-08-20T14:50:00Z</time>
      </trkpt>
      <trkpt lat="46.48649" lon="5.36128">
        <ele>246.4</ele>
        <time>2022-08-20T14:50:06Z</time>
      </trkpt>
      <trkpt lat="46.48643" lon="5.36185">
        <ele>246.2</ele>
        <time>2022-08-20T14:50:11Z</time>
      </trkpt>
      <trkpt lat="46.48634" lon="5.36268">
        <ele>246.2</ele>
        <time>2022-08-20T14:50:19Z</time>
      </trkpt>
      <trkpt lat="46.48628" lon="5.36294">
        <ele>246.4</ele>
        <time>2022-08-20T14:50:22Z</time>
      </trkpt>
      <trkpt lat="46.48625" lon="5.36302">
        <ele>246.6</ele>
        <time>2022-08-20T14:50:23Z</time>
      </trkpt>
      <trkpt lat="46.48621" lon="5.36308">
        <ele>246.8</ele>
        <time>2022-08-20T14:50:24Z</time>
      </trkpt>
      <trkpt lat="46.48611" lon="5.36316">
        <ele>247.4</ele>
        <time>2022-08-20T14:50:26Z</time>
      </trkpt>
      <trkpt lat="46.48606" lon="5.36318">
        <ele>247.8</ele>
        <time>2022-08-20T14:50:27Z</time>
      </trkpt>
      <trkpt lat="46.48584" lon="5.36322">
        <ele>249.2</ele>
        <time>2022-08-20T14:50:31Z</time>
      </trkpt>
      <trkpt lat="46.48568" lon="5.36325">
        <ele>250.2</ele>
        <time>2022-08-20T14:50:34Z</time>
      </trkpt>
      <trkpt lat="46.48534" lon="5.3633">
        <ele>251.6</ele>
        <time>2022-08-20T14:50:40Z</time>
      </trkpt>
      <trkpt lat="46.48529" lon="5.36331">
        <ele>251.8</ele>
        <time>2022-08-20T14:50:41Z</time>
      </trkpt>
      <trkpt lat="46.48494" lon="5.36337">
        <ele>252.6</ele>
        <time>2022-08-20T14:50:47Z</time>
      </trkpt>
      <trkpt lat="46.4847" lon="5.36341">
        <ele>253</ele>
        <time>2022-08-20T14:50:51Z</time>
      </trkpt>
      <trkpt lat="46.48431" lon="5.36349">
        <ele>253.4</ele>
        <time>2022-08-20T14:50:57Z</time>
      </trkpt>
      <trkpt lat="46.48418" lon="5.36354">
        <ele>253.4</ele>
        <time>2022-08-20T14:50:59Z</time>
      </trkpt>
      <trkpt lat="46.484" lon="5.36366">
        <ele>253.8</ele>
        <time>2022-08-20T14:51:02Z</time>
      </trkpt>
      <trkpt lat="46.48383" lon="5.36382">
        <ele>254</ele>
        <time>2022-08-20T14:51:05Z</time>
      </trkpt>
      <trkpt lat="46.48346" lon="5.36422">
        <ele>254</ele>
        <time>2022-08-20T14:51:12Z</time>
      </trkpt>
      <trkpt lat="46.48341" lon="5.36428">
        <ele>254</ele>
        <time>2022-08-20T14:51:13Z</time>
      </trkpt>
      <trkpt lat="46.48306" lon="5.36467">
        <ele>254.8</ele>
        <time>2022-08-20T14:51:20Z</time>
      </trkpt>
      <trkpt lat="46.48286" lon="5.36489">
        <ele>255.8</ele>
        <time>2022-08-20T14:51:24Z</time>
      </trkpt>
      <trkpt lat="46.48257" lon="5.3652">
        <ele>256.8</ele>
        <time>2022-08-20T14:51:30Z</time>
      </trkpt>
      <trkpt lat="46.48234" lon="5.36546">
        <ele>257.8</ele>
        <time>2022-08-20T14:51:35Z</time>
      </trkpt>
      <trkpt lat="46.48229" lon="5.3655">
        <ele>258.2</ele>
        <time>2022-08-20T14:51:36Z</time>
      </trkpt>
      <trkpt lat="46.48223" lon="5.36555">
        <ele>258.4</ele>
        <time>2022-08-20T14:51:37Z</time>
      </trkpt>
      <trkpt lat="46.48212" lon="5.36558">
        <ele>258.6</ele>
        <time>2022-08-20T14:51:39Z</time>
      </trkpt>
      <trkpt lat="46.48201" lon="5.36559">
        <ele>258.8</ele>
        <time>2022-08-20T14:51:41Z</time>
      </trkpt>
      <trkpt lat="46.48193" lon="5.36565">
        <ele>259.6</ele>
        <time>2022-08-20T14:51:43Z</time>
      </trkpt>
      <trkpt lat="46.48186" lon="5.36579">
        <ele>260.2</ele>
        <time>2022-08-20T14:51:45Z</time>
      </trkpt>
      <trkpt lat="46.48185" lon="5.36587">
        <ele>260.2</ele>
        <time>2022-08-20T14:51:46Z</time>
      </trkpt>
      <trkpt lat="46.48182" lon="5.36595">
        <ele>260.2</ele>
        <time>2022-08-20T14:51:47Z</time>
      </trkpt>
      <trkpt lat="46.48175" lon="5.36608">
        <ele>260.4</ele>
        <time>2022-08-20T14:51:49Z</time>
      </trkpt>
      <trkpt lat="46.4817" lon="5.36613">
        <ele>260.4</ele>
        <time>2022-08-20T14:51:50Z</time>
      </trkpt>
      <trkpt lat="46.48166" lon="5.36619">
        <ele>260.4</ele>
        <time>2022-08-20T14:51:51Z</time>
      </trkpt>
      <trkpt lat="46.48157" lon="5.36627">
        <ele>260.4</ele>
        <time>2022-08-20T14:51:53Z</time>
      </trkpt>
      <trkpt lat="46.48128" lon="5.36647">
        <ele>260.8</ele>
        <time>2022-08-20T14:51:59Z</time>
      </trkpt>
      <trkpt lat="46.48112" lon="5.3667">
        <ele>261.2</ele>
        <time>2022-08-20T14:52:03Z</time>
      </trkpt>
      <trkpt lat="46.48109" lon="5.36674">
        <ele>261.4</ele>
        <time>2022-08-20T14:52:04Z</time>
      </trkpt>
      <trkpt lat="46.48106" lon="5.3668">
        <ele>261.6</ele>
        <time>2022-08-20T14:52:05Z</time>
      </trkpt>
      <trkpt lat="46.48105" lon="5.36694">
        <ele>261.8</ele>
        <time>2022-08-20T14:52:07Z</time>
      </trkpt>
      <trkpt lat="46.48111" lon="5.36704">
        <ele>262</ele>
        <time>2022-08-20T14:52:09Z</time>
      </trkpt>
      <trkpt lat="46.48115" lon="5.36708">
        <ele>262.2</ele>
        <time>2022-08-20T14:52:10Z</time>
      </trkpt>
      <trkpt lat="46.48131" lon="5.36721">
        <ele>262.8</ele>
        <time>2022-08-20T14:52:14Z</time>
      </trkpt>
      <trkpt lat="46.48142" lon="5.3673">
        <ele>263.2</ele>
        <time>2022-08-20T14:52:17Z</time>
      </trkpt>
      <trkpt lat="46.48166" lon="5.36748">
        <ele>264.2</ele>
        <time>2022-08-20T14:52:23Z</time>
      </trkpt>
      <trkpt lat="46.48172" lon="5.36755">
        <ele>264.6</ele>
        <time>2022-08-20T14:52:25Z</time>
      </trkpt>
      <trkpt lat="46.48183" lon="5.36765">
        <ele>265.4</ele>
        <time>2022-08-20T14:52:28Z</time>
      </trkpt>
      <trkpt lat="46.48197" lon="5.36774">
        <ele>266.4</ele>
        <time>2022-08-20T14:52:32Z</time>
      </trkpt>
      <trkpt lat="46.48206" lon="5.36782">
        <ele>267.4</ele>
        <time>2022-08-20T14:52:35Z</time>
      </trkpt>
      <trkpt lat="46.48209" lon="5.36785">
        <ele>267.4</ele>
        <time>2022-08-20T14:52:36Z</time>
      </trkpt>
      <trkpt lat="46.48225" lon="5.36799">
        <ele>268.4</ele>
        <time>2022-08-20T14:52:41Z</time>
      </trkpt>
      <trkpt lat="46.48228" lon="5.36802">
        <ele>268.4</ele>
        <time>2022-08-20T14:52:42Z</time>
      </trkpt>
      <trkpt lat="46.48247" lon="5.36818">
        <ele>269.6</ele>
        <time>2022-08-20T14:52:48Z</time>
      </trkpt>
      <trkpt lat="46.48256" lon="5.36828">
        <ele>270.6</ele>
        <time>2022-08-20T14:52:51Z</time>
      </trkpt>
      <trkpt lat="46.48262" lon="5.36834">
        <ele>270.8</ele>
        <time>2022-08-20T14:52:53Z</time>
      </trkpt>
    </trkseg>
  </trk>
</gpx>